<?xml version="1.0" encoding="UTF-8" standalone="no" ?><gpx xmlns="http://www.topografix.com/GPX/1/1" xmlns:gpxx="http://www.garmin.com/xmlschemas/GpxExtensions/v3" xmlns:wptx1="http://www.garmin.com/xmlschemas/WaypointExtension/v1" xmlns:gpxtpx="http://www.garmin.com/xmlschemas/TrackPointExtension/v1" creator="GuideVTT.com" version="1.1" xmlns:xsi="http://www.w3.org/2001/XMLSchema-instance" xsi:schemaLocation="http://www.topografix.com/GPX/1/1 http://www.topografix.com/GPX/1/1/gpx.xsd http://www.garmin.com/xmlschemas/GpxExtensions/v3 http://www8.garmin.com/xmlschemas/GpxExtensionsv3.xsd http://www.garmin.com/xmlschemas/WaypointExtension/v1 http://www8.garmin.com/xmlschemas/WaypointExtensionv1.xsd http://www.garmin.com/xmlschemas/TrackPointExtension/v1 http://www.garmin.com/xmlschemas/TrackPointExtensionv1.xsd">
<metadata><link href="http://www.garmin.com"><text>Garmin International</text></link><time>2013-06-22T15:13:50Z</time></metadata>
<trk><name>la_fugue_20160619-1126.gpx</name><extensions><gpxx:TrackExtension><gpxx:DisplayColor>Cyan</gpxx:DisplayColor></gpxx:TrackExtension></extensions><trkseg>
<trkpt lat="46.2461" lon="7.01242"><ele></ele><time>2016-8-16T19:36:29Z</time></trkpt>
<trkpt lat="46.24613" lon="7.01232"><ele></ele><time>2016-8-16T19:36:32Z</time></trkpt>
<trkpt lat="46.24617" lon="7.01222"><ele></ele><time>2016-8-16T19:36:35Z</time></trkpt>
<trkpt lat="46.24627" lon="7.0121"><ele></ele><time>2016-8-16T19:36:38Z</time></trkpt>
<trkpt lat="46.24636" lon="7.01198"><ele></ele><time>2016-8-16T19:36:41Z</time></trkpt>
<trkpt lat="46.24641" lon="7.01193"><ele></ele><time>2016-8-16T19:36:44Z</time></trkpt>
<trkpt lat="46.24645" lon="7.01189"><ele></ele><time>2016-8-16T19:36:47Z</time></trkpt>
<trkpt lat="46.24653" lon="7.0118"><ele></ele><time>2016-8-16T19:36:50Z</time></trkpt>
<trkpt lat="46.24654" lon="7.01173"><ele></ele><time>2016-8-16T19:36:53Z</time></trkpt>
<trkpt lat="46.24654" lon="7.01165"><ele></ele><time>2016-8-16T19:36:56Z</time></trkpt>
<trkpt lat="46.24653" lon="7.0115"><ele></ele><time>2016-8-16T19:36:59Z</time></trkpt>
<trkpt lat="46.24653" lon="7.01142"><ele></ele><time>2016-8-16T19:37:2Z</time></trkpt>
<trkpt lat="46.24651" lon="7.01134"><ele></ele><time>2016-8-16T19:37:5Z</time></trkpt>
<trkpt lat="46.24645" lon="7.01117"><ele></ele><time>2016-8-16T19:37:8Z</time></trkpt>
<trkpt lat="46.24644" lon="7.01102"><ele></ele><time>2016-8-16T19:37:11Z</time></trkpt>
<trkpt lat="46.24643" lon="7.01086"><ele></ele><time>2016-8-16T19:37:14Z</time></trkpt>
<trkpt lat="46.24642" lon="7.01071"><ele></ele><time>2016-8-16T19:37:17Z</time></trkpt>
<trkpt lat="46.2464" lon="7.01063"><ele></ele><time>2016-8-16T19:37:20Z</time></trkpt>
<trkpt lat="46.24639" lon="7.01055"><ele></ele><time>2016-8-16T19:37:23Z</time></trkpt>
<trkpt lat="46.24636" lon="7.01038"><ele></ele><time>2016-8-16T19:37:26Z</time></trkpt>
<trkpt lat="46.24633" lon="7.01021"><ele></ele><time>2016-8-16T19:37:29Z</time></trkpt>
<trkpt lat="46.24629" lon="7.01004"><ele></ele><time>2016-8-16T19:37:32Z</time></trkpt>
<trkpt lat="46.24624" lon="7.00986"><ele></ele><time>2016-8-16T19:37:35Z</time></trkpt>
<trkpt lat="46.24619" lon="7.00968"><ele></ele><time>2016-8-16T19:37:38Z</time></trkpt>
<trkpt lat="46.24613" lon="7.0095"><ele></ele><time>2016-8-16T19:37:41Z</time></trkpt>
<trkpt lat="46.24607" lon="7.00932"><ele></ele><time>2016-8-16T19:37:44Z</time></trkpt>
<trkpt lat="46.24601" lon="7.00915"><ele></ele><time>2016-8-16T19:37:47Z</time></trkpt>
<trkpt lat="46.24599" lon="7.00905"><ele></ele><time>2016-8-16T19:37:50Z</time></trkpt>
<trkpt lat="46.246" lon="7.00895"><ele></ele><time>2016-8-16T19:37:53Z</time></trkpt>
<trkpt lat="46.24602" lon="7.00886"><ele></ele><time>2016-8-16T19:37:56Z</time></trkpt>
<trkpt lat="46.24607" lon="7.00877"><ele></ele><time>2016-8-16T19:37:59Z</time></trkpt>
<trkpt lat="46.24612" lon="7.00867"><ele></ele><time>2016-8-16T19:38:2Z</time></trkpt>
<trkpt lat="46.24616" lon="7.00858"><ele></ele><time>2016-8-16T19:38:5Z</time></trkpt>
<trkpt lat="46.24621" lon="7.00849"><ele></ele><time>2016-8-16T19:38:8Z</time></trkpt>
<trkpt lat="46.24626" lon="7.00838"><ele></ele><time>2016-8-16T19:38:11Z</time></trkpt>
<trkpt lat="46.24635" lon="7.00816"><ele></ele><time>2016-8-16T19:38:14Z</time></trkpt>
<trkpt lat="46.24645" lon="7.00795"><ele></ele><time>2016-8-16T19:38:17Z</time></trkpt>
<trkpt lat="46.2466" lon="7.00775"><ele></ele><time>2016-8-16T19:38:20Z</time></trkpt>
<trkpt lat="46.24674" lon="7.00757"><ele></ele><time>2016-8-16T19:38:23Z</time></trkpt>
<trkpt lat="46.2469" lon="7.00744"><ele></ele><time>2016-8-16T19:38:26Z</time></trkpt>
<trkpt lat="46.24706" lon="7.00731"><ele></ele><time>2016-8-16T19:38:29Z</time></trkpt>
<trkpt lat="46.24714" lon="7.00724"><ele></ele><time>2016-8-16T19:38:32Z</time></trkpt>
<trkpt lat="46.24721" lon="7.00717"><ele></ele><time>2016-8-16T19:38:35Z</time></trkpt>
<trkpt lat="46.24736" lon="7.00704"><ele></ele><time>2016-8-16T19:38:38Z</time></trkpt>
<trkpt lat="46.24749" lon="7.0069"><ele></ele><time>2016-8-16T19:38:41Z</time></trkpt>
<trkpt lat="46.24758" lon="7.00678"><ele></ele><time>2016-8-16T19:38:44Z</time></trkpt>
<trkpt lat="46.24767" lon="7.00666"><ele></ele><time>2016-8-16T19:38:47Z</time></trkpt>
<trkpt lat="46.24773" lon="7.00652"><ele></ele><time>2016-8-16T19:38:50Z</time></trkpt>
<trkpt lat="46.24771" lon="7.00636"><ele></ele><time>2016-8-16T19:38:53Z</time></trkpt>
<trkpt lat="46.24769" lon="7.00619"><ele></ele><time>2016-8-16T19:38:56Z</time></trkpt>
<trkpt lat="46.24767" lon="7.00602"><ele></ele><time>2016-8-16T19:38:59Z</time></trkpt>
<trkpt lat="46.24766" lon="7.00594"><ele></ele><time>2016-8-16T19:39:2Z</time></trkpt>
<trkpt lat="46.24765" lon="7.00584"><ele></ele><time>2016-8-16T19:39:5Z</time></trkpt>
<trkpt lat="46.24761" lon="7.00562"><ele></ele><time>2016-8-16T19:39:8Z</time></trkpt>
<trkpt lat="46.24757" lon="7.00539"><ele></ele><time>2016-8-16T19:39:11Z</time></trkpt>
<trkpt lat="46.24753" lon="7.00517"><ele></ele><time>2016-8-16T19:39:14Z</time></trkpt>
<trkpt lat="46.24748" lon="7.00496"><ele></ele><time>2016-8-16T19:39:17Z</time></trkpt>
<trkpt lat="46.24742" lon="7.00475"><ele></ele><time>2016-8-16T19:39:20Z</time></trkpt>
<trkpt lat="46.24739" lon="7.00464"><ele></ele><time>2016-8-16T19:39:23Z</time></trkpt>
<trkpt lat="46.24735" lon="7.00455"><ele></ele><time>2016-8-16T19:39:26Z</time></trkpt>
<trkpt lat="46.24727" lon="7.00435"><ele></ele><time>2016-8-16T19:39:29Z</time></trkpt>
<trkpt lat="46.24719" lon="7.00416"><ele></ele><time>2016-8-16T19:39:32Z</time></trkpt>
<trkpt lat="46.24714" lon="7.00407"><ele></ele><time>2016-8-16T19:39:35Z</time></trkpt>
<trkpt lat="46.2471" lon="7.00399"><ele></ele><time>2016-8-16T19:39:38Z</time></trkpt>
<trkpt lat="46.24701" lon="7.00381"><ele></ele><time>2016-8-16T19:39:41Z</time></trkpt>
<trkpt lat="46.24692" lon="7.00363"><ele></ele><time>2016-8-16T19:39:44Z</time></trkpt>
<trkpt lat="46.24684" lon="7.00345"><ele></ele><time>2016-8-16T19:39:47Z</time></trkpt>
<trkpt lat="46.24676" lon="7.00327"><ele></ele><time>2016-8-16T19:39:50Z</time></trkpt>
<trkpt lat="46.24672" lon="7.00316"><ele></ele><time>2016-8-16T19:39:53Z</time></trkpt>
<trkpt lat="46.24668" lon="7.00303"><ele></ele><time>2016-8-16T19:39:56Z</time></trkpt>
<trkpt lat="46.24659" lon="7.00277"><ele></ele><time>2016-8-16T19:39:59Z</time></trkpt>
<trkpt lat="46.24651" lon="7.00251"><ele></ele><time>2016-8-16T19:40:2Z</time></trkpt>
<trkpt lat="46.24643" lon="7.00227"><ele></ele><time>2016-8-16T19:40:5Z</time></trkpt>
<trkpt lat="46.24635" lon="7.00203"><ele></ele><time>2016-8-16T19:40:8Z</time></trkpt>
<trkpt lat="46.24629" lon="7.00179"><ele></ele><time>2016-8-16T19:40:11Z</time></trkpt>
<trkpt lat="46.24623" lon="7.00156"><ele></ele><time>2016-8-16T19:40:14Z</time></trkpt>
<trkpt lat="46.24617" lon="7.00133"><ele></ele><time>2016-8-16T19:40:17Z</time></trkpt>
<trkpt lat="46.24612" lon="7.00109"><ele></ele><time>2016-8-16T19:40:20Z</time></trkpt>
<trkpt lat="46.24607" lon="7.00086"><ele></ele><time>2016-8-16T19:40:23Z</time></trkpt>
<trkpt lat="46.24602" lon="7.00063"><ele></ele><time>2016-8-16T19:40:26Z</time></trkpt>
<trkpt lat="46.24598" lon="7.00038"><ele></ele><time>2016-8-16T19:40:29Z</time></trkpt>
<trkpt lat="46.24595" lon="7.00026"><ele></ele><time>2016-8-16T19:40:32Z</time></trkpt>
<trkpt lat="46.24592" lon="7.00015"><ele></ele><time>2016-8-16T19:40:35Z</time></trkpt>
<trkpt lat="46.24585" lon="6.99993"><ele></ele><time>2016-8-16T19:40:38Z</time></trkpt>
<trkpt lat="46.24581" lon="6.99968"><ele></ele><time>2016-8-16T19:40:41Z</time></trkpt>
<trkpt lat="46.24576" lon="6.99943"><ele></ele><time>2016-8-16T19:40:44Z</time></trkpt>
<trkpt lat="46.24572" lon="6.99919"><ele></ele><time>2016-8-16T19:40:47Z</time></trkpt>
<trkpt lat="46.24567" lon="6.99895"><ele></ele><time>2016-8-16T19:40:50Z</time></trkpt>
<trkpt lat="46.24562" lon="6.99871"><ele></ele><time>2016-8-16T19:40:53Z</time></trkpt>
<trkpt lat="46.2456" lon="6.99859"><ele></ele><time>2016-8-16T19:40:56Z</time></trkpt>
<trkpt lat="46.24557" lon="6.99847"><ele></ele><time>2016-8-16T19:40:59Z</time></trkpt>
<trkpt lat="46.24552" lon="6.99825"><ele></ele><time>2016-8-16T19:41:2Z</time></trkpt>
<trkpt lat="46.24547" lon="6.99802"><ele></ele><time>2016-8-16T19:41:5Z</time></trkpt>
<trkpt lat="46.24541" lon="6.99781"><ele></ele><time>2016-8-16T19:41:8Z</time></trkpt>
<trkpt lat="46.24539" lon="6.99772"><ele></ele><time>2016-8-16T19:41:11Z</time></trkpt>
<trkpt lat="46.24539" lon="6.9976"><ele></ele><time>2016-8-16T19:41:14Z</time></trkpt>
<trkpt lat="46.2454" lon="6.99749"><ele></ele><time>2016-8-16T19:41:17Z</time></trkpt>
<trkpt lat="46.24543" lon="6.99738"><ele></ele><time>2016-8-16T19:41:20Z</time></trkpt>
<trkpt lat="46.24549" lon="6.99718"><ele></ele><time>2016-8-16T19:41:23Z</time></trkpt>
<trkpt lat="46.2455" lon="6.9971"><ele></ele><time>2016-8-16T19:41:26Z</time></trkpt>
<trkpt lat="46.24549" lon="6.99705"><ele></ele><time>2016-8-16T19:41:29Z</time></trkpt>
<trkpt lat="46.24548" lon="6.99695"><ele></ele><time>2016-8-16T19:41:32Z</time></trkpt>
<trkpt lat="46.24547" lon="6.99685"><ele></ele><time>2016-8-16T19:41:35Z</time></trkpt>
<trkpt lat="46.24546" lon="6.99675"><ele></ele><time>2016-8-16T19:41:38Z</time></trkpt>
<trkpt lat="46.24545" lon="6.99665"><ele></ele><time>2016-8-16T19:41:41Z</time></trkpt>
<trkpt lat="46.24543" lon="6.99661"><ele></ele><time>2016-8-16T19:41:44Z</time></trkpt>
<trkpt lat="46.24538" lon="6.99657"><ele></ele><time>2016-8-16T19:41:47Z</time></trkpt>
<trkpt lat="46.2453" lon="6.99648"><ele></ele><time>2016-8-16T19:41:50Z</time></trkpt>
<trkpt lat="46.24521" lon="6.9964"><ele></ele><time>2016-8-16T19:41:53Z</time></trkpt>
<trkpt lat="46.24517" lon="6.99634"><ele></ele><time>2016-8-16T19:41:56Z</time></trkpt>
<trkpt lat="46.24515" lon="6.99626"><ele></ele><time>2016-8-16T19:41:59Z</time></trkpt>
<trkpt lat="46.24509" lon="6.99608"><ele></ele><time>2016-8-16T19:42:2Z</time></trkpt>
<trkpt lat="46.24503" lon="6.99591"><ele></ele><time>2016-8-16T19:42:5Z</time></trkpt>
<trkpt lat="46.24497" lon="6.99573"><ele></ele><time>2016-8-16T19:42:8Z</time></trkpt>
<trkpt lat="46.24493" lon="6.99555"><ele></ele><time>2016-8-16T19:42:11Z</time></trkpt>
<trkpt lat="46.24488" lon="6.99537"><ele></ele><time>2016-8-16T19:42:14Z</time></trkpt>
<trkpt lat="46.24483" lon="6.99519"><ele></ele><time>2016-8-16T19:42:17Z</time></trkpt>
<trkpt lat="46.24481" lon="6.9951"><ele></ele><time>2016-8-16T19:42:20Z</time></trkpt>
<trkpt lat="46.24478" lon="6.99501"><ele></ele><time>2016-8-16T19:42:23Z</time></trkpt>
<trkpt lat="46.24474" lon="6.99482"><ele></ele><time>2016-8-16T19:42:26Z</time></trkpt>
<trkpt lat="46.2447" lon="6.99473"><ele></ele><time>2016-8-16T19:42:29Z</time></trkpt>
<trkpt lat="46.24466" lon="6.99464"><ele></ele><time>2016-8-16T19:42:32Z</time></trkpt>
<trkpt lat="46.24457" lon="6.99446"><ele></ele><time>2016-8-16T19:42:35Z</time></trkpt>
<trkpt lat="46.24457" lon="6.99432"><ele></ele><time>2016-8-16T19:42:38Z</time></trkpt>
<trkpt lat="46.24457" lon="6.9942"><ele></ele><time>2016-8-16T19:42:41Z</time></trkpt>
<trkpt lat="46.24451" lon="6.99402"><ele></ele><time>2016-8-16T19:42:44Z</time></trkpt>
<trkpt lat="46.24448" lon="6.99393"><ele></ele><time>2016-8-16T19:42:47Z</time></trkpt>
<trkpt lat="46.24445" lon="6.99385"><ele></ele><time>2016-8-16T19:42:50Z</time></trkpt>
<trkpt lat="46.24439" lon="6.99367"><ele></ele><time>2016-8-16T19:42:53Z</time></trkpt>
<trkpt lat="46.24436" lon="6.99358"><ele></ele><time>2016-8-16T19:42:56Z</time></trkpt>
<trkpt lat="46.24435" lon="6.99348"><ele></ele><time>2016-8-16T19:42:59Z</time></trkpt>
<trkpt lat="46.24431" lon="6.99328"><ele></ele><time>2016-8-16T19:43:2Z</time></trkpt>
<trkpt lat="46.24427" lon="6.99308"><ele></ele><time>2016-8-16T19:43:5Z</time></trkpt>
<trkpt lat="46.24423" lon="6.99288"><ele></ele><time>2016-8-16T19:43:8Z</time></trkpt>
<trkpt lat="46.24418" lon="6.99267"><ele></ele><time>2016-8-16T19:43:11Z</time></trkpt>
<trkpt lat="46.24412" lon="6.99246"><ele></ele><time>2016-8-16T19:43:14Z</time></trkpt>
<trkpt lat="46.24406" lon="6.99227"><ele></ele><time>2016-8-16T19:43:17Z</time></trkpt>
<trkpt lat="46.24397" lon="6.99211"><ele></ele><time>2016-8-16T19:43:20Z</time></trkpt>
<trkpt lat="46.24389" lon="6.99196"><ele></ele><time>2016-8-16T19:43:23Z</time></trkpt>
<trkpt lat="46.2438" lon="6.9918"><ele></ele><time>2016-8-16T19:43:26Z</time></trkpt>
<trkpt lat="46.24376" lon="6.99173"><ele></ele><time>2016-8-16T19:43:29Z</time></trkpt>
<trkpt lat="46.24372" lon="6.99167"><ele></ele><time>2016-8-16T19:43:32Z</time></trkpt>
<trkpt lat="46.24364" lon="6.99153"><ele></ele><time>2016-8-16T19:43:35Z</time></trkpt>
<trkpt lat="46.24356" lon="6.9914"><ele></ele><time>2016-8-16T19:43:38Z</time></trkpt>
<trkpt lat="46.24348" lon="6.99127"><ele></ele><time>2016-8-16T19:43:41Z</time></trkpt>
<trkpt lat="46.24345" lon="6.9912"><ele></ele><time>2016-8-16T19:43:44Z</time></trkpt>
<trkpt lat="46.24342" lon="6.99113"><ele></ele><time>2016-8-16T19:43:47Z</time></trkpt>
<trkpt lat="46.24339" lon="6.99107"><ele></ele><time>2016-8-16T19:43:50Z</time></trkpt>
<trkpt lat="46.24336" lon="6.99101"><ele></ele><time>2016-8-16T19:43:53Z</time></trkpt>
<trkpt lat="46.24329" lon="6.9909"><ele></ele><time>2016-8-16T19:43:56Z</time></trkpt>
<trkpt lat="46.24323" lon="6.99079"><ele></ele><time>2016-8-16T19:43:59Z</time></trkpt>
<trkpt lat="46.24316" lon="6.99068"><ele></ele><time>2016-8-16T19:44:2Z</time></trkpt>
<trkpt lat="46.2431" lon="6.99057"><ele></ele><time>2016-8-16T19:44:5Z</time></trkpt>
<trkpt lat="46.24306" lon="6.99052"><ele></ele><time>2016-8-16T19:44:8Z</time></trkpt>
<trkpt lat="46.24303" lon="6.99047"><ele></ele><time>2016-8-16T19:44:11Z</time></trkpt>
<trkpt lat="46.24296" lon="6.99036"><ele></ele><time>2016-8-16T19:44:14Z</time></trkpt>
<trkpt lat="46.2429" lon="6.99026"><ele></ele><time>2016-8-16T19:44:17Z</time></trkpt>
<trkpt lat="46.24283" lon="6.99015"><ele></ele><time>2016-8-16T19:44:20Z</time></trkpt>
<trkpt lat="46.24277" lon="6.99005"><ele></ele><time>2016-8-16T19:44:23Z</time></trkpt>
<trkpt lat="46.24275" lon="6.99"><ele></ele><time>2016-8-16T19:44:26Z</time></trkpt>
<trkpt lat="46.24274" lon="6.98997"><ele></ele><time>2016-8-16T19:44:29Z</time></trkpt>
<trkpt lat="46.24272" lon="6.98991"><ele></ele><time>2016-8-16T19:44:32Z</time></trkpt>
<trkpt lat="46.24275" lon="6.98987"><ele></ele><time>2016-8-16T19:44:35Z</time></trkpt>
<trkpt lat="46.24281" lon="6.98984"><ele></ele><time>2016-8-16T19:44:38Z</time></trkpt>
<trkpt lat="46.24294" lon="6.98976"><ele></ele><time>2016-8-16T19:44:41Z</time></trkpt>
<trkpt lat="46.24306" lon="6.98968"><ele></ele><time>2016-8-16T19:44:44Z</time></trkpt>
<trkpt lat="46.24312" lon="6.98964"><ele></ele><time>2016-8-16T19:44:47Z</time></trkpt>
<trkpt lat="46.24317" lon="6.98959"><ele></ele><time>2016-8-16T19:44:50Z</time></trkpt>
<trkpt lat="46.24328" lon="6.98949"><ele></ele><time>2016-8-16T19:44:53Z</time></trkpt>
<trkpt lat="46.24333" lon="6.98944"><ele></ele><time>2016-8-16T19:44:56Z</time></trkpt>
<trkpt lat="46.24338" lon="6.98939"><ele></ele><time>2016-8-16T19:44:59Z</time></trkpt>
<trkpt lat="46.24348" lon="6.98929"><ele></ele><time>2016-8-16T19:45:2Z</time></trkpt>
<trkpt lat="46.24354" lon="6.98924"><ele></ele><time>2016-8-16T19:45:5Z</time></trkpt>
<trkpt lat="46.2436" lon="6.9892"><ele></ele><time>2016-8-16T19:45:8Z</time></trkpt>
<trkpt lat="46.24372" lon="6.98912"><ele></ele><time>2016-8-16T19:45:11Z</time></trkpt>
<trkpt lat="46.24385" lon="6.98904"><ele></ele><time>2016-8-16T19:45:14Z</time></trkpt>
<trkpt lat="46.24397" lon="6.98896"><ele></ele><time>2016-8-16T19:45:17Z</time></trkpt>
<trkpt lat="46.2441" lon="6.98888"><ele></ele><time>2016-8-16T19:45:20Z</time></trkpt>
<trkpt lat="46.24422" lon="6.9888"><ele></ele><time>2016-8-16T19:45:23Z</time></trkpt>
<trkpt lat="46.24435" lon="6.9887"><ele></ele><time>2016-8-16T19:45:26Z</time></trkpt>
<trkpt lat="46.24448" lon="6.98861"><ele></ele><time>2016-8-16T19:45:29Z</time></trkpt>
<trkpt lat="46.24462" lon="6.98851"><ele></ele><time>2016-8-16T19:45:32Z</time></trkpt>
<trkpt lat="46.24468" lon="6.98847"><ele></ele><time>2016-8-16T19:45:35Z</time></trkpt>
<trkpt lat="46.24476" lon="6.98844"><ele></ele><time>2016-8-16T19:45:38Z</time></trkpt>
<trkpt lat="46.2449" lon="6.98838"><ele></ele><time>2016-8-16T19:45:41Z</time></trkpt>
<trkpt lat="46.24504" lon="6.98831"><ele></ele><time>2016-8-16T19:45:44Z</time></trkpt>
<trkpt lat="46.24512" lon="6.98828"><ele></ele><time>2016-8-16T19:45:47Z</time></trkpt>
<trkpt lat="46.24519" lon="6.98823"><ele></ele><time>2016-8-16T19:45:50Z</time></trkpt>
<trkpt lat="46.24526" lon="6.9882"><ele></ele><time>2016-8-16T19:45:53Z</time></trkpt>
<trkpt lat="46.24533" lon="6.98818"><ele></ele><time>2016-8-16T19:45:56Z</time></trkpt>
<trkpt lat="46.24548" lon="6.98815"><ele></ele><time>2016-8-16T19:45:59Z</time></trkpt>
<trkpt lat="46.24555" lon="6.98813"><ele></ele><time>2016-8-16T19:46:2Z</time></trkpt>
<trkpt lat="46.24562" lon="6.98811"><ele></ele><time>2016-8-16T19:46:5Z</time></trkpt>
<trkpt lat="46.24575" lon="6.98807"><ele></ele><time>2016-8-16T19:46:8Z</time></trkpt>
<trkpt lat="46.24588" lon="6.98804"><ele></ele><time>2016-8-16T19:46:11Z</time></trkpt>
<trkpt lat="46.24602" lon="6.988"><ele></ele><time>2016-8-16T19:46:14Z</time></trkpt>
<trkpt lat="46.24616" lon="6.98799"><ele></ele><time>2016-8-16T19:46:17Z</time></trkpt>
<trkpt lat="46.24629" lon="6.98798"><ele></ele><time>2016-8-16T19:46:20Z</time></trkpt>
<trkpt lat="46.24643" lon="6.98796"><ele></ele><time>2016-8-16T19:46:23Z</time></trkpt>
<trkpt lat="46.2465" lon="6.98796"><ele></ele><time>2016-8-16T19:46:26Z</time></trkpt>
<trkpt lat="46.24657" lon="6.98794"><ele></ele><time>2016-8-16T19:46:29Z</time></trkpt>
<trkpt lat="46.2467" lon="6.98791"><ele></ele><time>2016-8-16T19:46:32Z</time></trkpt>
<trkpt lat="46.24683" lon="6.98789"><ele></ele><time>2016-8-16T19:46:35Z</time></trkpt>
<trkpt lat="46.24696" lon="6.98786"><ele></ele><time>2016-8-16T19:46:38Z</time></trkpt>
<trkpt lat="46.24708" lon="6.98785"><ele></ele><time>2016-8-16T19:46:41Z</time></trkpt>
<trkpt lat="46.24721" lon="6.98783"><ele></ele><time>2016-8-16T19:46:44Z</time></trkpt>
<trkpt lat="46.24733" lon="6.9878"><ele></ele><time>2016-8-16T19:46:47Z</time></trkpt>
<trkpt lat="46.24746" lon="6.98778"><ele></ele><time>2016-8-16T19:46:50Z</time></trkpt>
<trkpt lat="46.24758" lon="6.98775"><ele></ele><time>2016-8-16T19:46:53Z</time></trkpt>
<trkpt lat="46.24771" lon="6.98773"><ele></ele><time>2016-8-16T19:46:56Z</time></trkpt>
<trkpt lat="46.24787" lon="6.98771"><ele></ele><time>2016-8-16T19:46:59Z</time></trkpt>
<trkpt lat="46.24803" lon="6.98769"><ele></ele><time>2016-8-16T19:47:2Z</time></trkpt>
<trkpt lat="46.24819" lon="6.98768"><ele></ele><time>2016-8-16T19:47:5Z</time></trkpt>
<trkpt lat="46.24831" lon="6.98767"><ele></ele><time>2016-8-16T19:47:8Z</time></trkpt>
<trkpt lat="46.24843" lon="6.98766"><ele></ele><time>2016-8-16T19:47:11Z</time></trkpt>
<trkpt lat="46.24855" lon="6.98766"><ele></ele><time>2016-8-16T19:47:14Z</time></trkpt>
<trkpt lat="46.24868" lon="6.98765"><ele></ele><time>2016-8-16T19:47:17Z</time></trkpt>
<trkpt lat="46.24882" lon="6.98764"><ele></ele><time>2016-8-16T19:47:20Z</time></trkpt>
<trkpt lat="46.24895" lon="6.98763"><ele></ele><time>2016-8-16T19:47:23Z</time></trkpt>
<trkpt lat="46.24909" lon="6.98762"><ele></ele><time>2016-8-16T19:47:26Z</time></trkpt>
<trkpt lat="46.24916" lon="6.98762"><ele></ele><time>2016-8-16T19:47:29Z</time></trkpt>
<trkpt lat="46.24922" lon="6.98764"><ele></ele><time>2016-8-16T19:47:32Z</time></trkpt>
<trkpt lat="46.24936" lon="6.98767"><ele></ele><time>2016-8-16T19:47:35Z</time></trkpt>
<trkpt lat="46.24949" lon="6.98769"><ele></ele><time>2016-8-16T19:47:38Z</time></trkpt>
<trkpt lat="46.24963" lon="6.98772"><ele></ele><time>2016-8-16T19:47:41Z</time></trkpt>
<trkpt lat="46.24977" lon="6.98773"><ele></ele><time>2016-8-16T19:47:44Z</time></trkpt>
<trkpt lat="46.24992" lon="6.98775"><ele></ele><time>2016-8-16T19:47:47Z</time></trkpt>
<trkpt lat="46.25007" lon="6.98777"><ele></ele><time>2016-8-16T19:47:50Z</time></trkpt>
<trkpt lat="46.25013" lon="6.98776"><ele></ele><time>2016-8-16T19:47:53Z</time></trkpt>
<trkpt lat="46.25019" lon="6.98775"><ele></ele><time>2016-8-16T19:47:56Z</time></trkpt>
<trkpt lat="46.25031" lon="6.98772"><ele></ele><time>2016-8-16T19:47:59Z</time></trkpt>
<trkpt lat="46.25043" lon="6.98769"><ele></ele><time>2016-8-16T19:48:2Z</time></trkpt>
<trkpt lat="46.25056" lon="6.98766"><ele></ele><time>2016-8-16T19:48:5Z</time></trkpt>
<trkpt lat="46.25062" lon="6.98763"><ele></ele><time>2016-8-16T19:48:8Z</time></trkpt>
<trkpt lat="46.25069" lon="6.98757"><ele></ele><time>2016-8-16T19:48:11Z</time></trkpt>
<trkpt lat="46.25078" lon="6.98753"><ele></ele><time>2016-8-16T19:48:14Z</time></trkpt>
<trkpt lat="46.25087" lon="6.98751"><ele></ele><time>2016-8-16T19:48:17Z</time></trkpt>
<trkpt lat="46.25105" lon="6.98745"><ele></ele><time>2016-8-16T19:48:20Z</time></trkpt>
<trkpt lat="46.25113" lon="6.98741"><ele></ele><time>2016-8-16T19:48:23Z</time></trkpt>
<trkpt lat="46.2512" lon="6.9874"><ele></ele><time>2016-8-16T19:48:26Z</time></trkpt>
<trkpt lat="46.25134" lon="6.98736"><ele></ele><time>2016-8-16T19:48:29Z</time></trkpt>
<trkpt lat="46.25147" lon="6.98733"><ele></ele><time>2016-8-16T19:48:32Z</time></trkpt>
<trkpt lat="46.25161" lon="6.98728"><ele></ele><time>2016-8-16T19:48:35Z</time></trkpt>
<trkpt lat="46.25175" lon="6.98721"><ele></ele><time>2016-8-16T19:48:38Z</time></trkpt>
<trkpt lat="46.25188" lon="6.98714"><ele></ele><time>2016-8-16T19:48:41Z</time></trkpt>
<trkpt lat="46.25202" lon="6.98706"><ele></ele><time>2016-8-16T19:48:44Z</time></trkpt>
<trkpt lat="46.25215" lon="6.98694"><ele></ele><time>2016-8-16T19:48:47Z</time></trkpt>
<trkpt lat="46.25229" lon="6.98682"><ele></ele><time>2016-8-16T19:48:50Z</time></trkpt>
<trkpt lat="46.25242" lon="6.98669"><ele></ele><time>2016-8-16T19:48:53Z</time></trkpt>
<trkpt lat="46.25254" lon="6.98658"><ele></ele><time>2016-8-16T19:48:56Z</time></trkpt>
<trkpt lat="46.25266" lon="6.98647"><ele></ele><time>2016-8-16T19:48:59Z</time></trkpt>
<trkpt lat="46.25278" lon="6.98635"><ele></ele><time>2016-8-16T19:49:2Z</time></trkpt>
<trkpt lat="46.25284" lon="6.98629"><ele></ele><time>2016-8-16T19:49:5Z</time></trkpt>
<trkpt lat="46.25289" lon="6.98621"><ele></ele><time>2016-8-16T19:49:8Z</time></trkpt>
<trkpt lat="46.25299" lon="6.98605"><ele></ele><time>2016-8-16T19:49:11Z</time></trkpt>
<trkpt lat="46.25309" lon="6.9859"><ele></ele><time>2016-8-16T19:49:14Z</time></trkpt>
<trkpt lat="46.25318" lon="6.98574"><ele></ele><time>2016-8-16T19:49:17Z</time></trkpt>
<trkpt lat="46.25326" lon="6.98556"><ele></ele><time>2016-8-16T19:49:20Z</time></trkpt>
<trkpt lat="46.25333" lon="6.98539"><ele></ele><time>2016-8-16T19:49:23Z</time></trkpt>
<trkpt lat="46.25341" lon="6.98521"><ele></ele><time>2016-8-16T19:49:26Z</time></trkpt>
<trkpt lat="46.25349" lon="6.98505"><ele></ele><time>2016-8-16T19:49:29Z</time></trkpt>
<trkpt lat="46.25358" lon="6.98489"><ele></ele><time>2016-8-16T19:49:32Z</time></trkpt>
<trkpt lat="46.25367" lon="6.98472"><ele></ele><time>2016-8-16T19:49:35Z</time></trkpt>
<trkpt lat="46.25371" lon="6.98464"><ele></ele><time>2016-8-16T19:49:38Z</time></trkpt>
<trkpt lat="46.25375" lon="6.98455"><ele></ele><time>2016-8-16T19:49:41Z</time></trkpt>
<trkpt lat="46.25383" lon="6.98438"><ele></ele><time>2016-8-16T19:49:44Z</time></trkpt>
<trkpt lat="46.25391" lon="6.9842"><ele></ele><time>2016-8-16T19:49:47Z</time></trkpt>
<trkpt lat="46.25399" lon="6.98403"><ele></ele><time>2016-8-16T19:49:50Z</time></trkpt>
<trkpt lat="46.25407" lon="6.98385"><ele></ele><time>2016-8-16T19:49:53Z</time></trkpt>
<trkpt lat="46.25414" lon="6.98368"><ele></ele><time>2016-8-16T19:49:56Z</time></trkpt>
<trkpt lat="46.25422" lon="6.9835"><ele></ele><time>2016-8-16T19:49:59Z</time></trkpt>
<trkpt lat="46.25425" lon="6.98342"><ele></ele><time>2016-8-16T19:50:2Z</time></trkpt>
<trkpt lat="46.25428" lon="6.98334"><ele></ele><time>2016-8-16T19:50:5Z</time></trkpt>
<trkpt lat="46.25434" lon="6.98319"><ele></ele><time>2016-8-16T19:50:8Z</time></trkpt>
<trkpt lat="46.2544" lon="6.98303"><ele></ele><time>2016-8-16T19:50:11Z</time></trkpt>
<trkpt lat="46.25446" lon="6.98288"><ele></ele><time>2016-8-16T19:50:14Z</time></trkpt>
<trkpt lat="46.25449" lon="6.9828"><ele></ele><time>2016-8-16T19:50:17Z</time></trkpt>
<trkpt lat="46.25451" lon="6.98272"><ele></ele><time>2016-8-16T19:50:20Z</time></trkpt>
<trkpt lat="46.25457" lon="6.98256"><ele></ele><time>2016-8-16T19:50:23Z</time></trkpt>
<trkpt lat="46.25462" lon="6.9824"><ele></ele><time>2016-8-16T19:50:26Z</time></trkpt>
<trkpt lat="46.25468" lon="6.98225"><ele></ele><time>2016-8-16T19:50:29Z</time></trkpt>
<trkpt lat="46.25471" lon="6.98217"><ele></ele><time>2016-8-16T19:50:32Z</time></trkpt>
<trkpt lat="46.25474" lon="6.98208"><ele></ele><time>2016-8-16T19:50:35Z</time></trkpt>
<trkpt lat="46.25481" lon="6.98191"><ele></ele><time>2016-8-16T19:50:38Z</time></trkpt>
<trkpt lat="46.25488" lon="6.98175"><ele></ele><time>2016-8-16T19:50:41Z</time></trkpt>
<trkpt lat="46.25495" lon="6.98158"><ele></ele><time>2016-8-16T19:50:44Z</time></trkpt>
<trkpt lat="46.25505" lon="6.98143"><ele></ele><time>2016-8-16T19:50:47Z</time></trkpt>
<trkpt lat="46.25515" lon="6.98128"><ele></ele><time>2016-8-16T19:50:50Z</time></trkpt>
<trkpt lat="46.25525" lon="6.98113"><ele></ele><time>2016-8-16T19:50:53Z</time></trkpt>
<trkpt lat="46.2553" lon="6.98106"><ele></ele><time>2016-8-16T19:50:56Z</time></trkpt>
<trkpt lat="46.25535" lon="6.98098"><ele></ele><time>2016-8-16T19:50:59Z</time></trkpt>
<trkpt lat="46.25546" lon="6.98082"><ele></ele><time>2016-8-16T19:51:2Z</time></trkpt>
<trkpt lat="46.25556" lon="6.98066"><ele></ele><time>2016-8-16T19:51:5Z</time></trkpt>
<trkpt lat="46.25561" lon="6.98059"><ele></ele><time>2016-8-16T19:51:8Z</time></trkpt>
<trkpt lat="46.25566" lon="6.98051"><ele></ele><time>2016-8-16T19:51:11Z</time></trkpt>
<trkpt lat="46.25576" lon="6.98036"><ele></ele><time>2016-8-16T19:51:14Z</time></trkpt>
<trkpt lat="46.25586" lon="6.98022"><ele></ele><time>2016-8-16T19:51:17Z</time></trkpt>
<trkpt lat="46.25596" lon="6.98007"><ele></ele><time>2016-8-16T19:51:20Z</time></trkpt>
<trkpt lat="46.25607" lon="6.97992"><ele></ele><time>2016-8-16T19:51:23Z</time></trkpt>
<trkpt lat="46.25618" lon="6.97976"><ele></ele><time>2016-8-16T19:51:26Z</time></trkpt>
<trkpt lat="46.25629" lon="6.97961"><ele></ele><time>2016-8-16T19:51:29Z</time></trkpt>
<trkpt lat="46.25638" lon="6.97947"><ele></ele><time>2016-8-16T19:51:32Z</time></trkpt>
<trkpt lat="46.25647" lon="6.97932"><ele></ele><time>2016-8-16T19:51:35Z</time></trkpt>
<trkpt lat="46.25657" lon="6.97917"><ele></ele><time>2016-8-16T19:51:38Z</time></trkpt>
<trkpt lat="46.25662" lon="6.9791"><ele></ele><time>2016-8-16T19:51:41Z</time></trkpt>
<trkpt lat="46.25666" lon="6.97902"><ele></ele><time>2016-8-16T19:51:44Z</time></trkpt>
<trkpt lat="46.25675" lon="6.97887"><ele></ele><time>2016-8-16T19:51:47Z</time></trkpt>
<trkpt lat="46.25684" lon="6.97871"><ele></ele><time>2016-8-16T19:51:50Z</time></trkpt>
<trkpt lat="46.25693" lon="6.97856"><ele></ele><time>2016-8-16T19:51:53Z</time></trkpt>
<trkpt lat="46.25702" lon="6.97839"><ele></ele><time>2016-8-16T19:51:56Z</time></trkpt>
<trkpt lat="46.25711" lon="6.97823"><ele></ele><time>2016-8-16T19:51:59Z</time></trkpt>
<trkpt lat="46.2572" lon="6.97807"><ele></ele><time>2016-8-16T19:52:2Z</time></trkpt>
<trkpt lat="46.25726" lon="6.97799"><ele></ele><time>2016-8-16T19:52:5Z</time></trkpt>
<trkpt lat="46.25733" lon="6.97792"><ele></ele><time>2016-8-16T19:52:8Z</time></trkpt>
<trkpt lat="46.25739" lon="6.97785"><ele></ele><time>2016-8-16T19:52:11Z</time></trkpt>
<trkpt lat="46.25744" lon="6.97777"><ele></ele><time>2016-8-16T19:52:14Z</time></trkpt>
<trkpt lat="46.25754" lon="6.97762"><ele></ele><time>2016-8-16T19:52:17Z</time></trkpt>
<trkpt lat="46.25764" lon="6.97748"><ele></ele><time>2016-8-16T19:52:20Z</time></trkpt>
<trkpt lat="46.25774" lon="6.97733"><ele></ele><time>2016-8-16T19:52:23Z</time></trkpt>
<trkpt lat="46.25785" lon="6.97716"><ele></ele><time>2016-8-16T19:52:26Z</time></trkpt>
<trkpt lat="46.25796" lon="6.977"><ele></ele><time>2016-8-16T19:52:29Z</time></trkpt>
<trkpt lat="46.25807" lon="6.97684"><ele></ele><time>2016-8-16T19:52:32Z</time></trkpt>
<trkpt lat="46.25818" lon="6.97666"><ele></ele><time>2016-8-16T19:52:35Z</time></trkpt>
<trkpt lat="46.25829" lon="6.97649"><ele></ele><time>2016-8-16T19:52:38Z</time></trkpt>
<trkpt lat="46.25839" lon="6.97632"><ele></ele><time>2016-8-16T19:52:41Z</time></trkpt>
<trkpt lat="46.2585" lon="6.97616"><ele></ele><time>2016-8-16T19:52:44Z</time></trkpt>
<trkpt lat="46.2586" lon="6.97601"><ele></ele><time>2016-8-16T19:52:47Z</time></trkpt>
<trkpt lat="46.25871" lon="6.97585"><ele></ele><time>2016-8-16T19:52:50Z</time></trkpt>
<trkpt lat="46.25876" lon="6.97578"><ele></ele><time>2016-8-16T19:52:53Z</time></trkpt>
<trkpt lat="46.2588" lon="6.9757"><ele></ele><time>2016-8-16T19:52:56Z</time></trkpt>
<trkpt lat="46.2589" lon="6.97556"><ele></ele><time>2016-8-16T19:52:59Z</time></trkpt>
<trkpt lat="46.25899" lon="6.97541"><ele></ele><time>2016-8-16T19:53:2Z</time></trkpt>
<trkpt lat="46.25909" lon="6.97526"><ele></ele><time>2016-8-16T19:53:5Z</time></trkpt>
<trkpt lat="46.25919" lon="6.97511"><ele></ele><time>2016-8-16T19:53:8Z</time></trkpt>
<trkpt lat="46.2593" lon="6.97496"><ele></ele><time>2016-8-16T19:53:11Z</time></trkpt>
<trkpt lat="46.25941" lon="6.97482"><ele></ele><time>2016-8-16T19:53:14Z</time></trkpt>
<trkpt lat="46.25946" lon="6.97475"><ele></ele><time>2016-8-16T19:53:17Z</time></trkpt>
<trkpt lat="46.25951" lon="6.97468"><ele></ele><time>2016-8-16T19:53:20Z</time></trkpt>
<trkpt lat="46.25961" lon="6.97455"><ele></ele><time>2016-8-16T19:53:23Z</time></trkpt>
<trkpt lat="46.25971" lon="6.97442"><ele></ele><time>2016-8-16T19:53:26Z</time></trkpt>
<trkpt lat="46.25981" lon="6.97429"><ele></ele><time>2016-8-16T19:53:29Z</time></trkpt>
<trkpt lat="46.25991" lon="6.97415"><ele></ele><time>2016-8-16T19:53:32Z</time></trkpt>
<trkpt lat="46.26002" lon="6.97401"><ele></ele><time>2016-8-16T19:53:35Z</time></trkpt>
<trkpt lat="46.26012" lon="6.97387"><ele></ele><time>2016-8-16T19:53:38Z</time></trkpt>
<trkpt lat="46.26017" lon="6.9738"><ele></ele><time>2016-8-16T19:53:41Z</time></trkpt>
<trkpt lat="46.26022" lon="6.97374"><ele></ele><time>2016-8-16T19:53:44Z</time></trkpt>
<trkpt lat="46.26032" lon="6.9736"><ele></ele><time>2016-8-16T19:53:47Z</time></trkpt>
<trkpt lat="46.26042" lon="6.97346"><ele></ele><time>2016-8-16T19:53:50Z</time></trkpt>
<trkpt lat="46.26052" lon="6.97332"><ele></ele><time>2016-8-16T19:53:53Z</time></trkpt>
<trkpt lat="46.26063" lon="6.9732"><ele></ele><time>2016-8-16T19:53:56Z</time></trkpt>
<trkpt lat="46.26074" lon="6.97307"><ele></ele><time>2016-8-16T19:53:59Z</time></trkpt>
<trkpt lat="46.26085" lon="6.97294"><ele></ele><time>2016-8-16T19:54:2Z</time></trkpt>
<trkpt lat="46.26096" lon="6.97283"><ele></ele><time>2016-8-16T19:54:5Z</time></trkpt>
<trkpt lat="46.26107" lon="6.97271"><ele></ele><time>2016-8-16T19:54:8Z</time></trkpt>
<trkpt lat="46.26119" lon="6.97259"><ele></ele><time>2016-8-16T19:54:11Z</time></trkpt>
<trkpt lat="46.26124" lon="6.97253"><ele></ele><time>2016-8-16T19:54:14Z</time></trkpt>
<trkpt lat="46.2613" lon="6.97247"><ele></ele><time>2016-8-16T19:54:17Z</time></trkpt>
<trkpt lat="46.2614" lon="6.97234"><ele></ele><time>2016-8-16T19:54:20Z</time></trkpt>
<trkpt lat="46.26151" lon="6.97222"><ele></ele><time>2016-8-16T19:54:23Z</time></trkpt>
<trkpt lat="46.26162" lon="6.97209"><ele></ele><time>2016-8-16T19:54:26Z</time></trkpt>
<trkpt lat="46.26172" lon="6.97198"><ele></ele><time>2016-8-16T19:54:29Z</time></trkpt>
<trkpt lat="46.26183" lon="6.97186"><ele></ele><time>2016-8-16T19:54:32Z</time></trkpt>
<trkpt lat="46.26193" lon="6.97176"><ele></ele><time>2016-8-16T19:54:35Z</time></trkpt>
<trkpt lat="46.26197" lon="6.97173"><ele></ele><time>2016-8-16T19:54:38Z</time></trkpt>
<trkpt lat="46.26202" lon="6.97167"><ele></ele><time>2016-8-16T19:54:41Z</time></trkpt>
<trkpt lat="46.26212" lon="6.97155"><ele></ele><time>2016-8-16T19:54:44Z</time></trkpt>
<trkpt lat="46.26222" lon="6.97144"><ele></ele><time>2016-8-16T19:54:47Z</time></trkpt>
<trkpt lat="46.26232" lon="6.97132"><ele></ele><time>2016-8-16T19:54:50Z</time></trkpt>
<trkpt lat="46.26242" lon="6.9712"><ele></ele><time>2016-8-16T19:54:53Z</time></trkpt>
<trkpt lat="46.26251" lon="6.97108"><ele></ele><time>2016-8-16T19:54:56Z</time></trkpt>
<trkpt lat="46.26261" lon="6.97097"><ele></ele><time>2016-8-16T19:54:59Z</time></trkpt>
<trkpt lat="46.2627" lon="6.97085"><ele></ele><time>2016-8-16T19:55:2Z</time></trkpt>
<trkpt lat="46.26278" lon="6.97076"><ele></ele><time>2016-8-16T19:55:5Z</time></trkpt>
<trkpt lat="46.26287" lon="6.97066"><ele></ele><time>2016-8-16T19:55:8Z</time></trkpt>
<trkpt lat="46.26295" lon="6.97056"><ele></ele><time>2016-8-16T19:55:11Z</time></trkpt>
<trkpt lat="46.26303" lon="6.97046"><ele></ele><time>2016-8-16T19:55:14Z</time></trkpt>
<trkpt lat="46.26307" lon="6.97042"><ele></ele><time>2016-8-16T19:55:17Z</time></trkpt>
<trkpt lat="46.26311" lon="6.97037"><ele></ele><time>2016-8-16T19:55:20Z</time></trkpt>
<trkpt lat="46.26318" lon="6.97029"><ele></ele><time>2016-8-16T19:55:23Z</time></trkpt>
<trkpt lat="46.26325" lon="6.9702"><ele></ele><time>2016-8-16T19:55:26Z</time></trkpt>
<trkpt lat="46.26332" lon="6.97011"><ele></ele><time>2016-8-16T19:55:29Z</time></trkpt>
<trkpt lat="46.26339" lon="6.97003"><ele></ele><time>2016-8-16T19:55:32Z</time></trkpt>
<trkpt lat="46.26342" lon="6.97"><ele></ele><time>2016-8-16T19:55:35Z</time></trkpt>
<trkpt lat="46.26343" lon="6.96998"><ele></ele><time>2016-8-16T19:55:38Z</time></trkpt>
<trkpt lat="46.26344" lon="6.96996"><ele></ele><time>2016-8-16T19:55:41Z</time></trkpt>
<trkpt lat="46.26364" lon="6.96975"><ele></ele><time>2016-8-16T19:55:44Z</time></trkpt>
<trkpt lat="46.26364" lon="6.96975"><ele></ele><time>2016-8-16T19:55:47Z</time></trkpt>
<trkpt lat="46.26382" lon="6.96956"><ele></ele><time>2016-8-16T19:55:50Z</time></trkpt>
<trkpt lat="46.26386" lon="6.96952"><ele></ele><time>2016-8-16T19:55:53Z</time></trkpt>
<trkpt lat="46.2639" lon="6.96947"><ele></ele><time>2016-8-16T19:55:56Z</time></trkpt>
<trkpt lat="46.26395" lon="6.96943"><ele></ele><time>2016-8-16T19:55:59Z</time></trkpt>
<trkpt lat="46.26399" lon="6.96938"><ele></ele><time>2016-8-16T19:56:2Z</time></trkpt>
<trkpt lat="46.26403" lon="6.96932"><ele></ele><time>2016-8-16T19:56:5Z</time></trkpt>
<trkpt lat="46.2641" lon="6.9692"><ele></ele><time>2016-8-16T19:56:8Z</time></trkpt>
<trkpt lat="46.26417" lon="6.96909"><ele></ele><time>2016-8-16T19:56:11Z</time></trkpt>
<trkpt lat="46.26424" lon="6.96897"><ele></ele><time>2016-8-16T19:56:14Z</time></trkpt>
<trkpt lat="46.26428" lon="6.96891"><ele></ele><time>2016-8-16T19:56:17Z</time></trkpt>
<trkpt lat="46.26433" lon="6.96886"><ele></ele><time>2016-8-16T19:56:20Z</time></trkpt>
<trkpt lat="46.26442" lon="6.96875"><ele></ele><time>2016-8-16T19:56:23Z</time></trkpt>
<trkpt lat="46.26452" lon="6.96865"><ele></ele><time>2016-8-16T19:56:26Z</time></trkpt>
<trkpt lat="46.26461" lon="6.96854"><ele></ele><time>2016-8-16T19:56:29Z</time></trkpt>
<trkpt lat="46.26466" lon="6.96849"><ele></ele><time>2016-8-16T19:56:32Z</time></trkpt>
<trkpt lat="46.26471" lon="6.96843"><ele></ele><time>2016-8-16T19:56:35Z</time></trkpt>
<trkpt lat="46.2648" lon="6.96832"><ele></ele><time>2016-8-16T19:56:38Z</time></trkpt>
<trkpt lat="46.26489" lon="6.96821"><ele></ele><time>2016-8-16T19:56:41Z</time></trkpt>
<trkpt lat="46.26502" lon="6.96811"><ele></ele><time>2016-8-16T19:56:44Z</time></trkpt>
<trkpt lat="46.26512" lon="6.96799"><ele></ele><time>2016-8-16T19:56:47Z</time></trkpt>
<trkpt lat="46.26517" lon="6.96792"><ele></ele><time>2016-8-16T19:56:50Z</time></trkpt>
<trkpt lat="46.26523" lon="6.96787"><ele></ele><time>2016-8-16T19:56:53Z</time></trkpt>
<trkpt lat="46.26536" lon="6.96776"><ele></ele><time>2016-8-16T19:56:56Z</time></trkpt>
<trkpt lat="46.26541" lon="6.9677"><ele></ele><time>2016-8-16T19:56:59Z</time></trkpt>
<trkpt lat="46.26545" lon="6.96764"><ele></ele><time>2016-8-16T19:57:2Z</time></trkpt>
<trkpt lat="46.26554" lon="6.9675"><ele></ele><time>2016-8-16T19:57:5Z</time></trkpt>
<trkpt lat="46.26564" lon="6.96737"><ele></ele><time>2016-8-16T19:57:8Z</time></trkpt>
<trkpt lat="46.26577" lon="6.96723"><ele></ele><time>2016-8-16T19:57:11Z</time></trkpt>
<trkpt lat="46.26588" lon="6.96708"><ele></ele><time>2016-8-16T19:57:14Z</time></trkpt>
<trkpt lat="46.26594" lon="6.967"><ele></ele><time>2016-8-16T19:57:17Z</time></trkpt>
<trkpt lat="46.266" lon="6.96694"><ele></ele><time>2016-8-16T19:57:20Z</time></trkpt>
<trkpt lat="46.26613" lon="6.96682"><ele></ele><time>2016-8-16T19:57:23Z</time></trkpt>
<trkpt lat="46.26626" lon="6.96669"><ele></ele><time>2016-8-16T19:57:26Z</time></trkpt>
<trkpt lat="46.26632" lon="6.96663"><ele></ele><time>2016-8-16T19:57:29Z</time></trkpt>
<trkpt lat="46.26637" lon="6.96656"><ele></ele><time>2016-8-16T19:57:32Z</time></trkpt>
<trkpt lat="46.26648" lon="6.96643"><ele></ele><time>2016-8-16T19:57:35Z</time></trkpt>
<trkpt lat="46.26658" lon="6.9663"><ele></ele><time>2016-8-16T19:57:38Z</time></trkpt>
<trkpt lat="46.26669" lon="6.96617"><ele></ele><time>2016-8-16T19:57:41Z</time></trkpt>
<trkpt lat="46.26681" lon="6.96604"><ele></ele><time>2016-8-16T19:57:44Z</time></trkpt>
<trkpt lat="46.26694" lon="6.96592"><ele></ele><time>2016-8-16T19:57:47Z</time></trkpt>
<trkpt lat="46.26706" lon="6.96579"><ele></ele><time>2016-8-16T19:57:50Z</time></trkpt>
<trkpt lat="46.26711" lon="6.96573"><ele></ele><time>2016-8-16T19:57:53Z</time></trkpt>
<trkpt lat="46.26717" lon="6.96566"><ele></ele><time>2016-8-16T19:57:56Z</time></trkpt>
<trkpt lat="46.26727" lon="6.96553"><ele></ele><time>2016-8-16T19:57:59Z</time></trkpt>
<trkpt lat="46.26738" lon="6.9654"><ele></ele><time>2016-8-16T19:58:2Z</time></trkpt>
<trkpt lat="46.26749" lon="6.96528"><ele></ele><time>2016-8-16T19:58:5Z</time></trkpt>
<trkpt lat="46.26763" lon="6.96519"><ele></ele><time>2016-8-16T19:58:8Z</time></trkpt>
<trkpt lat="46.26769" lon="6.96514"><ele></ele><time>2016-8-16T19:58:11Z</time></trkpt>
<trkpt lat="46.26775" lon="6.96508"><ele></ele><time>2016-8-16T19:58:14Z</time></trkpt>
<trkpt lat="46.26788" lon="6.96497"><ele></ele><time>2016-8-16T19:58:17Z</time></trkpt>
<trkpt lat="46.268" lon="6.96485"><ele></ele><time>2016-8-16T19:58:20Z</time></trkpt>
<trkpt lat="46.26812" lon="6.96473"><ele></ele><time>2016-8-16T19:58:23Z</time></trkpt>
<trkpt lat="46.26824" lon="6.96462"><ele></ele><time>2016-8-16T19:58:26Z</time></trkpt>
<trkpt lat="46.26835" lon="6.96451"><ele></ele><time>2016-8-16T19:58:29Z</time></trkpt>
<trkpt lat="46.26847" lon="6.96439"><ele></ele><time>2016-8-16T19:58:32Z</time></trkpt>
<trkpt lat="46.26852" lon="6.96434"><ele></ele><time>2016-8-16T19:58:35Z</time></trkpt>
<trkpt lat="46.26858" lon="6.96429"><ele></ele><time>2016-8-16T19:58:38Z</time></trkpt>
<trkpt lat="46.26869" lon="6.96421"><ele></ele><time>2016-8-16T19:58:41Z</time></trkpt>
<trkpt lat="46.26881" lon="6.96412"><ele></ele><time>2016-8-16T19:58:44Z</time></trkpt>
<trkpt lat="46.26886" lon="6.96407"><ele></ele><time>2016-8-16T19:58:47Z</time></trkpt>
<trkpt lat="46.2689" lon="6.96402"><ele></ele><time>2016-8-16T19:58:50Z</time></trkpt>
<trkpt lat="46.26895" lon="6.96398"><ele></ele><time>2016-8-16T19:58:53Z</time></trkpt>
<trkpt lat="46.26902" lon="6.96395"><ele></ele><time>2016-8-16T19:58:56Z</time></trkpt>
<trkpt lat="46.26914" lon="6.96389"><ele></ele><time>2016-8-16T19:58:59Z</time></trkpt>
<trkpt lat="46.26926" lon="6.96383"><ele></ele><time>2016-8-16T19:59:2Z</time></trkpt>
<trkpt lat="46.26933" lon="6.96379"><ele></ele><time>2016-8-16T19:59:5Z</time></trkpt>
<trkpt lat="46.2694" lon="6.96372"><ele></ele><time>2016-8-16T19:59:8Z</time></trkpt>
<trkpt lat="46.26946" lon="6.96368"><ele></ele><time>2016-8-16T19:59:11Z</time></trkpt>
<trkpt lat="46.26952" lon="6.96366"><ele></ele><time>2016-8-16T19:59:14Z</time></trkpt>
<trkpt lat="46.26964" lon="6.96362"><ele></ele><time>2016-8-16T19:59:17Z</time></trkpt>
<trkpt lat="46.26976" lon="6.96359"><ele></ele><time>2016-8-16T19:59:20Z</time></trkpt>
<trkpt lat="46.26988" lon="6.96355"><ele></ele><time>2016-8-16T19:59:23Z</time></trkpt>
<trkpt lat="46.26995" lon="6.96353"><ele></ele><time>2016-8-16T19:59:26Z</time></trkpt>
<trkpt lat="46.27001" lon="6.96351"><ele></ele><time>2016-8-16T19:59:29Z</time></trkpt>
<trkpt lat="46.27014" lon="6.96348"><ele></ele><time>2016-8-16T19:59:32Z</time></trkpt>
<trkpt lat="46.27027" lon="6.96345"><ele></ele><time>2016-8-16T19:59:35Z</time></trkpt>
<trkpt lat="46.27032" lon="6.96345"><ele></ele><time>2016-8-16T19:59:38Z</time></trkpt>
<trkpt lat="46.27037" lon="6.96346"><ele></ele><time>2016-8-16T19:59:41Z</time></trkpt>
<trkpt lat="46.27049" lon="6.96342"><ele></ele><time>2016-8-16T19:59:44Z</time></trkpt>
<trkpt lat="46.27062" lon="6.96337"><ele></ele><time>2016-8-16T19:59:47Z</time></trkpt>
<trkpt lat="46.27074" lon="6.96333"><ele></ele><time>2016-8-16T19:59:50Z</time></trkpt>
<trkpt lat="46.2708" lon="6.96331"><ele></ele><time>2016-8-16T19:59:53Z</time></trkpt>
<trkpt lat="46.27085" lon="6.9633"><ele></ele><time>2016-8-16T19:59:56Z</time></trkpt>
<trkpt lat="46.27096" lon="6.96327"><ele></ele><time>2016-8-16T19:59:59Z</time></trkpt>
<trkpt lat="46.27106" lon="6.96324"><ele></ele><time>2016-8-16T20:0:2Z</time></trkpt>
<trkpt lat="46.27117" lon="6.96321"><ele></ele><time>2016-8-16T20:0:5Z</time></trkpt>
<trkpt lat="46.27128" lon="6.96319"><ele></ele><time>2016-8-16T20:0:8Z</time></trkpt>
<trkpt lat="46.27139" lon="6.96316"><ele></ele><time>2016-8-16T20:0:11Z</time></trkpt>
<trkpt lat="46.2715" lon="6.96314"><ele></ele><time>2016-8-16T20:0:14Z</time></trkpt>
<trkpt lat="46.27161" lon="6.96311"><ele></ele><time>2016-8-16T20:0:17Z</time></trkpt>
<trkpt lat="46.27173" lon="6.96308"><ele></ele><time>2016-8-16T20:0:20Z</time></trkpt>
<trkpt lat="46.27185" lon="6.96306"><ele></ele><time>2016-8-16T20:0:23Z</time></trkpt>
<trkpt lat="46.27191" lon="6.96305"><ele></ele><time>2016-8-16T20:0:26Z</time></trkpt>
<trkpt lat="46.27197" lon="6.96304"><ele></ele><time>2016-8-16T20:0:29Z</time></trkpt>
<trkpt lat="46.27203" lon="6.96303"><ele></ele><time>2016-8-16T20:0:32Z</time></trkpt>
<trkpt lat="46.27209" lon="6.96302"><ele></ele><time>2016-8-16T20:0:35Z</time></trkpt>
<trkpt lat="46.2722" lon="6.96301"><ele></ele><time>2016-8-16T20:0:38Z</time></trkpt>
<trkpt lat="46.27232" lon="6.963"><ele></ele><time>2016-8-16T20:0:41Z</time></trkpt>
<trkpt lat="46.27244" lon="6.96298"><ele></ele><time>2016-8-16T20:0:44Z</time></trkpt>
<trkpt lat="46.2725" lon="6.96297"><ele></ele><time>2016-8-16T20:0:47Z</time></trkpt>
<trkpt lat="46.27256" lon="6.96296"><ele></ele><time>2016-8-16T20:0:50Z</time></trkpt>
<trkpt lat="46.27267" lon="6.96294"><ele></ele><time>2016-8-16T20:0:53Z</time></trkpt>
<trkpt lat="46.27278" lon="6.96291"><ele></ele><time>2016-8-16T20:0:56Z</time></trkpt>
<trkpt lat="46.27289" lon="6.96289"><ele></ele><time>2016-8-16T20:0:59Z</time></trkpt>
<trkpt lat="46.27295" lon="6.96288"><ele></ele><time>2016-8-16T20:1:2Z</time></trkpt>
<trkpt lat="46.27301" lon="6.96286"><ele></ele><time>2016-8-16T20:1:5Z</time></trkpt>
<trkpt lat="46.27313" lon="6.96284"><ele></ele><time>2016-8-16T20:1:8Z</time></trkpt>
<trkpt lat="46.27325" lon="6.96282"><ele></ele><time>2016-8-16T20:1:11Z</time></trkpt>
<trkpt lat="46.27337" lon="6.96279"><ele></ele><time>2016-8-16T20:1:14Z</time></trkpt>
<trkpt lat="46.27342" lon="6.96278"><ele></ele><time>2016-8-16T20:1:17Z</time></trkpt>
<trkpt lat="46.27347" lon="6.96277"><ele></ele><time>2016-8-16T20:1:20Z</time></trkpt>
<trkpt lat="46.27357" lon="6.96275"><ele></ele><time>2016-8-16T20:1:23Z</time></trkpt>
<trkpt lat="46.27367" lon="6.96273"><ele></ele><time>2016-8-16T20:1:26Z</time></trkpt>
<trkpt lat="46.27376" lon="6.96271"><ele></ele><time>2016-8-16T20:1:29Z</time></trkpt>
<trkpt lat="46.27386" lon="6.96269"><ele></ele><time>2016-8-16T20:1:32Z</time></trkpt>
<trkpt lat="46.2739" lon="6.96268"><ele></ele><time>2016-8-16T20:1:35Z</time></trkpt>
<trkpt lat="46.27395" lon="6.96267"><ele></ele><time>2016-8-16T20:1:38Z</time></trkpt>
<trkpt lat="46.27403" lon="6.96266"><ele></ele><time>2016-8-16T20:1:41Z</time></trkpt>
<trkpt lat="46.27411" lon="6.96264"><ele></ele><time>2016-8-16T20:1:44Z</time></trkpt>
<trkpt lat="46.2742" lon="6.96262"><ele></ele><time>2016-8-16T20:1:47Z</time></trkpt>
<trkpt lat="46.27428" lon="6.9626"><ele></ele><time>2016-8-16T20:1:50Z</time></trkpt>
<trkpt lat="46.27437" lon="6.96258"><ele></ele><time>2016-8-16T20:1:53Z</time></trkpt>
<trkpt lat="46.27444" lon="6.96256"><ele></ele><time>2016-8-16T20:1:56Z</time></trkpt>
<trkpt lat="46.27452" lon="6.96254"><ele></ele><time>2016-8-16T20:1:59Z</time></trkpt>
<trkpt lat="46.2746" lon="6.96251"><ele></ele><time>2016-8-16T20:2:2Z</time></trkpt>
<trkpt lat="46.27468" lon="6.96249"><ele></ele><time>2016-8-16T20:2:5Z</time></trkpt>
<trkpt lat="46.27476" lon="6.96246"><ele></ele><time>2016-8-16T20:2:8Z</time></trkpt>
<trkpt lat="46.27484" lon="6.96244"><ele></ele><time>2016-8-16T20:2:11Z</time></trkpt>
<trkpt lat="46.27493" lon="6.9624"><ele></ele><time>2016-8-16T20:2:14Z</time></trkpt>
<trkpt lat="46.27503" lon="6.96236"><ele></ele><time>2016-8-16T20:2:17Z</time></trkpt>
<trkpt lat="46.27513" lon="6.96233"><ele></ele><time>2016-8-16T20:2:20Z</time></trkpt>
<trkpt lat="46.27522" lon="6.96229"><ele></ele><time>2016-8-16T20:2:23Z</time></trkpt>
<trkpt lat="46.27532" lon="6.96226"><ele></ele><time>2016-8-16T20:2:26Z</time></trkpt>
<trkpt lat="46.27542" lon="6.96222"><ele></ele><time>2016-8-16T20:2:29Z</time></trkpt>
<trkpt lat="46.27551" lon="6.96218"><ele></ele><time>2016-8-16T20:2:32Z</time></trkpt>
<trkpt lat="46.27561" lon="6.96214"><ele></ele><time>2016-8-16T20:2:35Z</time></trkpt>
<trkpt lat="46.27571" lon="6.9621"><ele></ele><time>2016-8-16T20:2:38Z</time></trkpt>
<trkpt lat="46.27575" lon="6.96208"><ele></ele><time>2016-8-16T20:2:41Z</time></trkpt>
<trkpt lat="46.27577" lon="6.96208"><ele></ele><time>2016-8-16T20:2:44Z</time></trkpt>
<trkpt lat="46.27582" lon="6.96206"><ele></ele><time>2016-8-16T20:2:47Z</time></trkpt>
<trkpt lat="46.27587" lon="6.96205"><ele></ele><time>2016-8-16T20:2:50Z</time></trkpt>
<trkpt lat="46.27592" lon="6.96203"><ele></ele><time>2016-8-16T20:2:53Z</time></trkpt>
<trkpt lat="46.27597" lon="6.96202"><ele></ele><time>2016-8-16T20:2:56Z</time></trkpt>
<trkpt lat="46.27602" lon="6.962"><ele></ele><time>2016-8-16T20:2:59Z</time></trkpt>
<trkpt lat="46.27607" lon="6.96199"><ele></ele><time>2016-8-16T20:3:2Z</time></trkpt>
<trkpt lat="46.27607" lon="6.96196"><ele></ele><time>2016-8-16T20:3:5Z</time></trkpt>
<trkpt lat="46.27606" lon="6.96192"><ele></ele><time>2016-8-16T20:3:8Z</time></trkpt>
<trkpt lat="46.27603" lon="6.96183"><ele></ele><time>2016-8-16T20:3:11Z</time></trkpt>
<trkpt lat="46.276" lon="6.96174"><ele></ele><time>2016-8-16T20:3:14Z</time></trkpt>
<trkpt lat="46.27597" lon="6.96165"><ele></ele><time>2016-8-16T20:3:17Z</time></trkpt>
<trkpt lat="46.27594" lon="6.96155"><ele></ele><time>2016-8-16T20:3:20Z</time></trkpt>
<trkpt lat="46.27591" lon="6.96146"><ele></ele><time>2016-8-16T20:3:23Z</time></trkpt>
<trkpt lat="46.27588" lon="6.96137"><ele></ele><time>2016-8-16T20:3:26Z</time></trkpt>
<trkpt lat="46.27586" lon="6.96131"><ele></ele><time>2016-8-16T20:3:29Z</time></trkpt>
<trkpt lat="46.27583" lon="6.96124"><ele></ele><time>2016-8-16T20:3:32Z</time></trkpt>
<trkpt lat="46.27577" lon="6.96109"><ele></ele><time>2016-8-16T20:3:35Z</time></trkpt>
<trkpt lat="46.27575" lon="6.961"><ele></ele><time>2016-8-16T20:3:38Z</time></trkpt>
<trkpt lat="46.27576" lon="6.96091"><ele></ele><time>2016-8-16T20:3:41Z</time></trkpt>
<trkpt lat="46.27579" lon="6.96084"><ele></ele><time>2016-8-16T20:3:44Z</time></trkpt>
<trkpt lat="46.27581" lon="6.96077"><ele></ele><time>2016-8-16T20:3:47Z</time></trkpt>
<trkpt lat="46.27585" lon="6.96072"><ele></ele><time>2016-8-16T20:3:50Z</time></trkpt>
<trkpt lat="46.2759" lon="6.9607"><ele></ele><time>2016-8-16T20:3:53Z</time></trkpt>
<trkpt lat="46.27594" lon="6.96069"><ele></ele><time>2016-8-16T20:3:56Z</time></trkpt>
<trkpt lat="46.27596" lon="6.96069"><ele></ele><time>2016-8-16T20:3:59Z</time></trkpt>
<trkpt lat="46.27602" lon="6.9607"><ele></ele><time>2016-8-16T20:4:2Z</time></trkpt>
<trkpt lat="46.27607" lon="6.9607"><ele></ele><time>2016-8-16T20:4:5Z</time></trkpt>
<trkpt lat="46.27609" lon="6.96072"><ele></ele><time>2016-8-16T20:4:8Z</time></trkpt>
<trkpt lat="46.27611" lon="6.96077"><ele></ele><time>2016-8-16T20:4:11Z</time></trkpt>
<trkpt lat="46.27614" lon="6.96087"><ele></ele><time>2016-8-16T20:4:14Z</time></trkpt>
<trkpt lat="46.27617" lon="6.96097"><ele></ele><time>2016-8-16T20:4:17Z</time></trkpt>
<trkpt lat="46.27618" lon="6.96102"><ele></ele><time>2016-8-16T20:4:20Z</time></trkpt>
<trkpt lat="46.2762" lon="6.96107"><ele></ele><time>2016-8-16T20:4:23Z</time></trkpt>
<trkpt lat="46.27623" lon="6.96117"><ele></ele><time>2016-8-16T20:4:26Z</time></trkpt>
<trkpt lat="46.27625" lon="6.96128"><ele></ele><time>2016-8-16T20:4:29Z</time></trkpt>
<trkpt lat="46.27629" lon="6.96138"><ele></ele><time>2016-8-16T20:4:32Z</time></trkpt>
<trkpt lat="46.27632" lon="6.96152"><ele></ele><time>2016-8-16T20:4:35Z</time></trkpt>
<trkpt lat="46.27636" lon="6.96165"><ele></ele><time>2016-8-16T20:4:38Z</time></trkpt>
<trkpt lat="46.27639" lon="6.96178"><ele></ele><time>2016-8-16T20:4:41Z</time></trkpt>
<trkpt lat="46.27644" lon="6.96189"><ele></ele><time>2016-8-16T20:4:44Z</time></trkpt>
<trkpt lat="46.27652" lon="6.96192"><ele></ele><time>2016-8-16T20:4:47Z</time></trkpt>
<trkpt lat="46.27657" lon="6.96192"><ele></ele><time>2016-8-16T20:4:50Z</time></trkpt>
<trkpt lat="46.27664" lon="6.9619"><ele></ele><time>2016-8-16T20:4:53Z</time></trkpt>
<trkpt lat="46.27676" lon="6.96186"><ele></ele><time>2016-8-16T20:4:56Z</time></trkpt>
<trkpt lat="46.27688" lon="6.96182"><ele></ele><time>2016-8-16T20:4:59Z</time></trkpt>
<trkpt lat="46.277" lon="6.96178"><ele></ele><time>2016-8-16T20:5:2Z</time></trkpt>
<trkpt lat="46.27707" lon="6.96176"><ele></ele><time>2016-8-16T20:5:5Z</time></trkpt>
<trkpt lat="46.27713" lon="6.96174"><ele></ele><time>2016-8-16T20:5:8Z</time></trkpt>
<trkpt lat="46.27725" lon="6.9617"><ele></ele><time>2016-8-16T20:5:11Z</time></trkpt>
<trkpt lat="46.27737" lon="6.96165"><ele></ele><time>2016-8-16T20:5:14Z</time></trkpt>
<trkpt lat="46.2775" lon="6.96161"><ele></ele><time>2016-8-16T20:5:17Z</time></trkpt>
<trkpt lat="46.27756" lon="6.96159"><ele></ele><time>2016-8-16T20:5:20Z</time></trkpt>
<trkpt lat="46.27763" lon="6.96156"><ele></ele><time>2016-8-16T20:5:23Z</time></trkpt>
<trkpt lat="46.27776" lon="6.96151"><ele></ele><time>2016-8-16T20:5:26Z</time></trkpt>
<trkpt lat="46.2779" lon="6.96146"><ele></ele><time>2016-8-16T20:5:29Z</time></trkpt>
<trkpt lat="46.27804" lon="6.9614"><ele></ele><time>2016-8-16T20:5:32Z</time></trkpt>
<trkpt lat="46.27811" lon="6.96137"><ele></ele><time>2016-8-16T20:5:35Z</time></trkpt>
<trkpt lat="46.27818" lon="6.96136"><ele></ele><time>2016-8-16T20:5:38Z</time></trkpt>
<trkpt lat="46.27831" lon="6.96133"><ele></ele><time>2016-8-16T20:5:41Z</time></trkpt>
<trkpt lat="46.27844" lon="6.9613"><ele></ele><time>2016-8-16T20:5:44Z</time></trkpt>
<trkpt lat="46.27858" lon="6.96127"><ele></ele><time>2016-8-16T20:5:47Z</time></trkpt>
<trkpt lat="46.27872" lon="6.96124"><ele></ele><time>2016-8-16T20:5:50Z</time></trkpt>
<trkpt lat="46.27886" lon="6.96121"><ele></ele><time>2016-8-16T20:5:53Z</time></trkpt>
<trkpt lat="46.27901" lon="6.96117"><ele></ele><time>2016-8-16T20:5:56Z</time></trkpt>
<trkpt lat="46.27908" lon="6.96116"><ele></ele><time>2016-8-16T20:5:59Z</time></trkpt>
<trkpt lat="46.27915" lon="6.96114"><ele></ele><time>2016-8-16T20:6:2Z</time></trkpt>
<trkpt lat="46.27929" lon="6.9611"><ele></ele><time>2016-8-16T20:6:5Z</time></trkpt>
<trkpt lat="46.27943" lon="6.96107"><ele></ele><time>2016-8-16T20:6:8Z</time></trkpt>
<trkpt lat="46.27957" lon="6.96103"><ele></ele><time>2016-8-16T20:6:11Z</time></trkpt>
<trkpt lat="46.27971" lon="6.96098"><ele></ele><time>2016-8-16T20:6:14Z</time></trkpt>
<trkpt lat="46.27985" lon="6.96093"><ele></ele><time>2016-8-16T20:6:17Z</time></trkpt>
<trkpt lat="46.28" lon="6.96086"><ele></ele><time>2016-8-16T20:6:20Z</time></trkpt>
<trkpt lat="46.28007" lon="6.9608"><ele></ele><time>2016-8-16T20:6:23Z</time></trkpt>
<trkpt lat="46.28014" lon="6.96078"><ele></ele><time>2016-8-16T20:6:26Z</time></trkpt>
<trkpt lat="46.28027" lon="6.96074"><ele></ele><time>2016-8-16T20:6:29Z</time></trkpt>
<trkpt lat="46.2804" lon="6.9607"><ele></ele><time>2016-8-16T20:6:32Z</time></trkpt>
<trkpt lat="46.28054" lon="6.96066"><ele></ele><time>2016-8-16T20:6:35Z</time></trkpt>
<trkpt lat="46.28068" lon="6.96063"><ele></ele><time>2016-8-16T20:6:38Z</time></trkpt>
<trkpt lat="46.28082" lon="6.9606"><ele></ele><time>2016-8-16T20:6:41Z</time></trkpt>
<trkpt lat="46.28096" lon="6.96057"><ele></ele><time>2016-8-16T20:6:44Z</time></trkpt>
<trkpt lat="46.28103" lon="6.96055"><ele></ele><time>2016-8-16T20:6:47Z</time></trkpt>
<trkpt lat="46.28111" lon="6.96053"><ele></ele><time>2016-8-16T20:6:50Z</time></trkpt>
<trkpt lat="46.28125" lon="6.96048"><ele></ele><time>2016-8-16T20:6:53Z</time></trkpt>
<trkpt lat="46.28139" lon="6.96044"><ele></ele><time>2016-8-16T20:6:56Z</time></trkpt>
<trkpt lat="46.28154" lon="6.96039"><ele></ele><time>2016-8-16T20:6:59Z</time></trkpt>
<trkpt lat="46.28168" lon="6.96035"><ele></ele><time>2016-8-16T20:7:2Z</time></trkpt>
<trkpt lat="46.28182" lon="6.9603"><ele></ele><time>2016-8-16T20:7:5Z</time></trkpt>
<trkpt lat="46.28196" lon="6.96026"><ele></ele><time>2016-8-16T20:7:8Z</time></trkpt>
<trkpt lat="46.28203" lon="6.96023"><ele></ele><time>2016-8-16T20:7:11Z</time></trkpt>
<trkpt lat="46.2821" lon="6.96021"><ele></ele><time>2016-8-16T20:7:14Z</time></trkpt>
<trkpt lat="46.28224" lon="6.96016"><ele></ele><time>2016-8-16T20:7:17Z</time></trkpt>
<trkpt lat="46.28237" lon="6.9601"><ele></ele><time>2016-8-16T20:7:20Z</time></trkpt>
<trkpt lat="46.28251" lon="6.96004"><ele></ele><time>2016-8-16T20:7:23Z</time></trkpt>
<trkpt lat="46.28264" lon="6.95996"><ele></ele><time>2016-8-16T20:7:26Z</time></trkpt>
<trkpt lat="46.28277" lon="6.95987"><ele></ele><time>2016-8-16T20:7:29Z</time></trkpt>
<trkpt lat="46.2829" lon="6.95978"><ele></ele><time>2016-8-16T20:7:32Z</time></trkpt>
<trkpt lat="46.28296" lon="6.95974"><ele></ele><time>2016-8-16T20:7:35Z</time></trkpt>
<trkpt lat="46.28303" lon="6.95968"><ele></ele><time>2016-8-16T20:7:38Z</time></trkpt>
<trkpt lat="46.28316" lon="6.95958"><ele></ele><time>2016-8-16T20:7:41Z</time></trkpt>
<trkpt lat="46.28328" lon="6.95948"><ele></ele><time>2016-8-16T20:7:44Z</time></trkpt>
<trkpt lat="46.28341" lon="6.95938"><ele></ele><time>2016-8-16T20:7:47Z</time></trkpt>
<trkpt lat="46.28355" lon="6.95928"><ele></ele><time>2016-8-16T20:7:50Z</time></trkpt>
<trkpt lat="46.28369" lon="6.95919"><ele></ele><time>2016-8-16T20:7:53Z</time></trkpt>
<trkpt lat="46.28382" lon="6.95909"><ele></ele><time>2016-8-16T20:7:56Z</time></trkpt>
<trkpt lat="46.28389" lon="6.95905"><ele></ele><time>2016-8-16T20:7:59Z</time></trkpt>
<trkpt lat="46.28395" lon="6.959"><ele></ele><time>2016-8-16T20:8:2Z</time></trkpt>
<trkpt lat="46.28407" lon="6.95889"><ele></ele><time>2016-8-16T20:8:5Z</time></trkpt>
<trkpt lat="46.28419" lon="6.95879"><ele></ele><time>2016-8-16T20:8:8Z</time></trkpt>
<trkpt lat="46.28431" lon="6.95869"><ele></ele><time>2016-8-16T20:8:11Z</time></trkpt>
<trkpt lat="46.28442" lon="6.95857"><ele></ele><time>2016-8-16T20:8:14Z</time></trkpt>
<trkpt lat="46.28453" lon="6.95845"><ele></ele><time>2016-8-16T20:8:17Z</time></trkpt>
<trkpt lat="46.28464" lon="6.95833"><ele></ele><time>2016-8-16T20:8:20Z</time></trkpt>
<trkpt lat="46.28469" lon="6.95827"><ele></ele><time>2016-8-16T20:8:23Z</time></trkpt>
<trkpt lat="46.28474" lon="6.95821"><ele></ele><time>2016-8-16T20:8:26Z</time></trkpt>
<trkpt lat="46.28483" lon="6.95809"><ele></ele><time>2016-8-16T20:8:29Z</time></trkpt>
<trkpt lat="46.28493" lon="6.95797"><ele></ele><time>2016-8-16T20:8:32Z</time></trkpt>
<trkpt lat="46.28503" lon="6.95784"><ele></ele><time>2016-8-16T20:8:35Z</time></trkpt>
<trkpt lat="46.28513" lon="6.95771"><ele></ele><time>2016-8-16T20:8:38Z</time></trkpt>
<trkpt lat="46.28522" lon="6.95758"><ele></ele><time>2016-8-16T20:8:41Z</time></trkpt>
<trkpt lat="46.28532" lon="6.95745"><ele></ele><time>2016-8-16T20:8:44Z</time></trkpt>
<trkpt lat="46.28537" lon="6.95738"><ele></ele><time>2016-8-16T20:8:47Z</time></trkpt>
<trkpt lat="46.28542" lon="6.95732"><ele></ele><time>2016-8-16T20:8:50Z</time></trkpt>
<trkpt lat="46.28552" lon="6.95719"><ele></ele><time>2016-8-16T20:8:53Z</time></trkpt>
<trkpt lat="46.28562" lon="6.95707"><ele></ele><time>2016-8-16T20:8:56Z</time></trkpt>
<trkpt lat="46.28572" lon="6.95694"><ele></ele><time>2016-8-16T20:8:59Z</time></trkpt>
<trkpt lat="46.28581" lon="6.9568"><ele></ele><time>2016-8-16T20:9:2Z</time></trkpt>
<trkpt lat="46.28591" lon="6.95666"><ele></ele><time>2016-8-16T20:9:5Z</time></trkpt>
<trkpt lat="46.286" lon="6.95652"><ele></ele><time>2016-8-16T20:9:8Z</time></trkpt>
<trkpt lat="46.28605" lon="6.95645"><ele></ele><time>2016-8-16T20:9:11Z</time></trkpt>
<trkpt lat="46.28609" lon="6.95637"><ele></ele><time>2016-8-16T20:9:14Z</time></trkpt>
<trkpt lat="46.28618" lon="6.95622"><ele></ele><time>2016-8-16T20:9:17Z</time></trkpt>
<trkpt lat="46.28627" lon="6.95607"><ele></ele><time>2016-8-16T20:9:20Z</time></trkpt>
<trkpt lat="46.28637" lon="6.95593"><ele></ele><time>2016-8-16T20:9:23Z</time></trkpt>
<trkpt lat="46.28647" lon="6.95578"><ele></ele><time>2016-8-16T20:9:26Z</time></trkpt>
<trkpt lat="46.28657" lon="6.95564"><ele></ele><time>2016-8-16T20:9:29Z</time></trkpt>
<trkpt lat="46.28667" lon="6.95549"><ele></ele><time>2016-8-16T20:9:32Z</time></trkpt>
<trkpt lat="46.28672" lon="6.95542"><ele></ele><time>2016-8-16T20:9:35Z</time></trkpt>
<trkpt lat="46.28677" lon="6.95534"><ele></ele><time>2016-8-16T20:9:38Z</time></trkpt>
<trkpt lat="46.28687" lon="6.95519"><ele></ele><time>2016-8-16T20:9:41Z</time></trkpt>
<trkpt lat="46.28697" lon="6.95503"><ele></ele><time>2016-8-16T20:9:44Z</time></trkpt>
<trkpt lat="46.28707" lon="6.95488"><ele></ele><time>2016-8-16T20:9:47Z</time></trkpt>
<trkpt lat="46.28717" lon="6.95473"><ele></ele><time>2016-8-16T20:9:50Z</time></trkpt>
<trkpt lat="46.28727" lon="6.95457"><ele></ele><time>2016-8-16T20:9:53Z</time></trkpt>
<trkpt lat="46.28737" lon="6.95442"><ele></ele><time>2016-8-16T20:9:56Z</time></trkpt>
<trkpt lat="46.28742" lon="6.95434"><ele></ele><time>2016-8-16T20:9:59Z</time></trkpt>
<trkpt lat="46.28747" lon="6.95426"><ele></ele><time>2016-8-16T20:10:2Z</time></trkpt>
<trkpt lat="46.28758" lon="6.9541"><ele></ele><time>2016-8-16T20:10:5Z</time></trkpt>
<trkpt lat="46.28768" lon="6.95394"><ele></ele><time>2016-8-16T20:10:8Z</time></trkpt>
<trkpt lat="46.28773" lon="6.95385"><ele></ele><time>2016-8-16T20:10:11Z</time></trkpt>
<trkpt lat="46.28779" lon="6.95377"><ele></ele><time>2016-8-16T20:10:14Z</time></trkpt>
<trkpt lat="46.2879" lon="6.95359"><ele></ele><time>2016-8-16T20:10:17Z</time></trkpt>
<trkpt lat="46.28801" lon="6.95342"><ele></ele><time>2016-8-16T20:10:20Z</time></trkpt>
<trkpt lat="46.28807" lon="6.95334"><ele></ele><time>2016-8-16T20:10:23Z</time></trkpt>
<trkpt lat="46.28813" lon="6.95325"><ele></ele><time>2016-8-16T20:10:26Z</time></trkpt>
<trkpt lat="46.28824" lon="6.95308"><ele></ele><time>2016-8-16T20:10:29Z</time></trkpt>
<trkpt lat="46.28836" lon="6.95291"><ele></ele><time>2016-8-16T20:10:32Z</time></trkpt>
<trkpt lat="46.28842" lon="6.95283"><ele></ele><time>2016-8-16T20:10:35Z</time></trkpt>
<trkpt lat="46.28847" lon="6.95275"><ele></ele><time>2016-8-16T20:10:38Z</time></trkpt>
<trkpt lat="46.28859" lon="6.9526"><ele></ele><time>2016-8-16T20:10:41Z</time></trkpt>
<trkpt lat="46.2887" lon="6.95244"><ele></ele><time>2016-8-16T20:10:44Z</time></trkpt>
<trkpt lat="46.28876" lon="6.95237"><ele></ele><time>2016-8-16T20:10:47Z</time></trkpt>
<trkpt lat="46.28881" lon="6.95229"><ele></ele><time>2016-8-16T20:10:50Z</time></trkpt>
<trkpt lat="46.28892" lon="6.95214"><ele></ele><time>2016-8-16T20:10:53Z</time></trkpt>
<trkpt lat="46.28903" lon="6.952"><ele></ele><time>2016-8-16T20:10:56Z</time></trkpt>
<trkpt lat="46.28909" lon="6.95192"><ele></ele><time>2016-8-16T20:10:59Z</time></trkpt>
<trkpt lat="46.28915" lon="6.95184"><ele></ele><time>2016-8-16T20:11:2Z</time></trkpt>
<trkpt lat="46.28926" lon="6.95169"><ele></ele><time>2016-8-16T20:11:5Z</time></trkpt>
<trkpt lat="46.28938" lon="6.95154"><ele></ele><time>2016-8-16T20:11:8Z</time></trkpt>
<trkpt lat="46.28943" lon="6.95146"><ele></ele><time>2016-8-16T20:11:11Z</time></trkpt>
<trkpt lat="46.28949" lon="6.95138"><ele></ele><time>2016-8-16T20:11:14Z</time></trkpt>
<trkpt lat="46.28959" lon="6.95123"><ele></ele><time>2016-8-16T20:11:17Z</time></trkpt>
<trkpt lat="46.28969" lon="6.95108"><ele></ele><time>2016-8-16T20:11:20Z</time></trkpt>
<trkpt lat="46.2898" lon="6.95092"><ele></ele><time>2016-8-16T20:11:23Z</time></trkpt>
<trkpt lat="46.2899" lon="6.95076"><ele></ele><time>2016-8-16T20:11:26Z</time></trkpt>
<trkpt lat="46.29" lon="6.95061"><ele></ele><time>2016-8-16T20:11:29Z</time></trkpt>
<trkpt lat="46.29011" lon="6.95045"><ele></ele><time>2016-8-16T20:11:32Z</time></trkpt>
<trkpt lat="46.29016" lon="6.95037"><ele></ele><time>2016-8-16T20:11:35Z</time></trkpt>
<trkpt lat="46.2902" lon="6.95029"><ele></ele><time>2016-8-16T20:11:38Z</time></trkpt>
<trkpt lat="46.2903" lon="6.95014"><ele></ele><time>2016-8-16T20:11:41Z</time></trkpt>
<trkpt lat="46.29039" lon="6.94998"><ele></ele><time>2016-8-16T20:11:44Z</time></trkpt>
<trkpt lat="46.29048" lon="6.94983"><ele></ele><time>2016-8-16T20:11:47Z</time></trkpt>
<trkpt lat="46.29057" lon="6.94968"><ele></ele><time>2016-8-16T20:11:50Z</time></trkpt>
<trkpt lat="46.29066" lon="6.94953"><ele></ele><time>2016-8-16T20:11:53Z</time></trkpt>
<trkpt lat="46.29075" lon="6.94939"><ele></ele><time>2016-8-16T20:11:56Z</time></trkpt>
<trkpt lat="46.2908" lon="6.94931"><ele></ele><time>2016-8-16T20:11:59Z</time></trkpt>
<trkpt lat="46.29084" lon="6.94923"><ele></ele><time>2016-8-16T20:12:2Z</time></trkpt>
<trkpt lat="46.29093" lon="6.94908"><ele></ele><time>2016-8-16T20:12:5Z</time></trkpt>
<trkpt lat="46.29102" lon="6.94892"><ele></ele><time>2016-8-16T20:12:8Z</time></trkpt>
<trkpt lat="46.29111" lon="6.94876"><ele></ele><time>2016-8-16T20:12:11Z</time></trkpt>
<trkpt lat="46.29119" lon="6.9486"><ele></ele><time>2016-8-16T20:12:14Z</time></trkpt>
<trkpt lat="46.29128" lon="6.94843"><ele></ele><time>2016-8-16T20:12:17Z</time></trkpt>
<trkpt lat="46.29136" lon="6.94826"><ele></ele><time>2016-8-16T20:12:20Z</time></trkpt>
<trkpt lat="46.2914" lon="6.94818"><ele></ele><time>2016-8-16T20:12:23Z</time></trkpt>
<trkpt lat="46.29144" lon="6.94811"><ele></ele><time>2016-8-16T20:12:26Z</time></trkpt>
<trkpt lat="46.29151" lon="6.94796"><ele></ele><time>2016-8-16T20:12:29Z</time></trkpt>
<trkpt lat="46.29159" lon="6.9478"><ele></ele><time>2016-8-16T20:12:32Z</time></trkpt>
<trkpt lat="46.29166" lon="6.94765"><ele></ele><time>2016-8-16T20:12:35Z</time></trkpt>
<trkpt lat="46.29173" lon="6.94747"><ele></ele><time>2016-8-16T20:12:38Z</time></trkpt>
<trkpt lat="46.29181" lon="6.94729"><ele></ele><time>2016-8-16T20:12:41Z</time></trkpt>
<trkpt lat="46.29188" lon="6.94711"><ele></ele><time>2016-8-16T20:12:44Z</time></trkpt>
<trkpt lat="46.29191" lon="6.94702"><ele></ele><time>2016-8-16T20:12:47Z</time></trkpt>
<trkpt lat="46.29195" lon="6.94693"><ele></ele><time>2016-8-16T20:12:50Z</time></trkpt>
<trkpt lat="46.29202" lon="6.94674"><ele></ele><time>2016-8-16T20:12:53Z</time></trkpt>
<trkpt lat="46.29208" lon="6.94656"><ele></ele><time>2016-8-16T20:12:56Z</time></trkpt>
<trkpt lat="46.29215" lon="6.94637"><ele></ele><time>2016-8-16T20:12:59Z</time></trkpt>
<trkpt lat="46.29221" lon="6.94619"><ele></ele><time>2016-8-16T20:13:2Z</time></trkpt>
<trkpt lat="46.29227" lon="6.946"><ele></ele><time>2016-8-16T20:13:5Z</time></trkpt>
<trkpt lat="46.29234" lon="6.94582"><ele></ele><time>2016-8-16T20:13:8Z</time></trkpt>
<trkpt lat="46.29237" lon="6.94572"><ele></ele><time>2016-8-16T20:13:11Z</time></trkpt>
<trkpt lat="46.2924" lon="6.94563"><ele></ele><time>2016-8-16T20:13:14Z</time></trkpt>
<trkpt lat="46.29247" lon="6.94544"><ele></ele><time>2016-8-16T20:13:17Z</time></trkpt>
<trkpt lat="46.29253" lon="6.94525"><ele></ele><time>2016-8-16T20:13:20Z</time></trkpt>
<trkpt lat="46.2926" lon="6.94506"><ele></ele><time>2016-8-16T20:13:23Z</time></trkpt>
<trkpt lat="46.29267" lon="6.94487"><ele></ele><time>2016-8-16T20:13:26Z</time></trkpt>
<trkpt lat="46.29274" lon="6.94468"><ele></ele><time>2016-8-16T20:13:29Z</time></trkpt>
<trkpt lat="46.29281" lon="6.94449"><ele></ele><time>2016-8-16T20:13:32Z</time></trkpt>
<trkpt lat="46.29284" lon="6.9444"><ele></ele><time>2016-8-16T20:13:35Z</time></trkpt>
<trkpt lat="46.29288" lon="6.94431"><ele></ele><time>2016-8-16T20:13:38Z</time></trkpt>
<trkpt lat="46.29295" lon="6.94413"><ele></ele><time>2016-8-16T20:13:41Z</time></trkpt>
<trkpt lat="46.29302" lon="6.94395"><ele></ele><time>2016-8-16T20:13:44Z</time></trkpt>
<trkpt lat="46.29309" lon="6.94377"><ele></ele><time>2016-8-16T20:13:47Z</time></trkpt>
<trkpt lat="46.29315" lon="6.94358"><ele></ele><time>2016-8-16T20:13:50Z</time></trkpt>
<trkpt lat="46.29322" lon="6.94339"><ele></ele><time>2016-8-16T20:13:53Z</time></trkpt>
<trkpt lat="46.29329" lon="6.94321"><ele></ele><time>2016-8-16T20:13:56Z</time></trkpt>
<trkpt lat="46.29332" lon="6.94311"><ele></ele><time>2016-8-16T20:13:59Z</time></trkpt>
<trkpt lat="46.29335" lon="6.94301"><ele></ele><time>2016-8-16T20:14:2Z</time></trkpt>
<trkpt lat="46.29342" lon="6.94281"><ele></ele><time>2016-8-16T20:14:5Z</time></trkpt>
<trkpt lat="46.2935" lon="6.94263"><ele></ele><time>2016-8-16T20:14:8Z</time></trkpt>
<trkpt lat="46.29358" lon="6.94244"><ele></ele><time>2016-8-16T20:14:11Z</time></trkpt>
<trkpt lat="46.29367" lon="6.94226"><ele></ele><time>2016-8-16T20:14:14Z</time></trkpt>
<trkpt lat="46.29375" lon="6.94206"><ele></ele><time>2016-8-16T20:14:17Z</time></trkpt>
<trkpt lat="46.29384" lon="6.94186"><ele></ele><time>2016-8-16T20:14:20Z</time></trkpt>
<trkpt lat="46.29393" lon="6.94167"><ele></ele><time>2016-8-16T20:14:23Z</time></trkpt>
<trkpt lat="46.29402" lon="6.94148"><ele></ele><time>2016-8-16T20:14:26Z</time></trkpt>
<trkpt lat="46.29412" lon="6.9413"><ele></ele><time>2016-8-16T20:14:29Z</time></trkpt>
<trkpt lat="46.29422" lon="6.94112"><ele></ele><time>2016-8-16T20:14:32Z</time></trkpt>
<trkpt lat="46.29431" lon="6.94096"><ele></ele><time>2016-8-16T20:14:35Z</time></trkpt>
<trkpt lat="46.29441" lon="6.94081"><ele></ele><time>2016-8-16T20:14:38Z</time></trkpt>
<trkpt lat="46.2945" lon="6.94065"><ele></ele><time>2016-8-16T20:14:41Z</time></trkpt>
<trkpt lat="46.29455" lon="6.94057"><ele></ele><time>2016-8-16T20:14:44Z</time></trkpt>
<trkpt lat="46.2946" lon="6.94049"><ele></ele><time>2016-8-16T20:14:47Z</time></trkpt>
<trkpt lat="46.2947" lon="6.94032"><ele></ele><time>2016-8-16T20:14:50Z</time></trkpt>
<trkpt lat="46.29479" lon="6.94016"><ele></ele><time>2016-8-16T20:14:53Z</time></trkpt>
<trkpt lat="46.29484" lon="6.94007"><ele></ele><time>2016-8-16T20:14:56Z</time></trkpt>
<trkpt lat="46.29489" lon="6.93998"><ele></ele><time>2016-8-16T20:14:59Z</time></trkpt>
<trkpt lat="46.29499" lon="6.93981"><ele></ele><time>2016-8-16T20:15:2Z</time></trkpt>
<trkpt lat="46.29509" lon="6.93963"><ele></ele><time>2016-8-16T20:15:5Z</time></trkpt>
<trkpt lat="46.29513" lon="6.93955"><ele></ele><time>2016-8-16T20:15:8Z</time></trkpt>
<trkpt lat="46.29517" lon="6.93946"><ele></ele><time>2016-8-16T20:15:11Z</time></trkpt>
<trkpt lat="46.29522" lon="6.93929"><ele></ele><time>2016-8-16T20:15:14Z</time></trkpt>
<trkpt lat="46.29521" lon="6.93912"><ele></ele><time>2016-8-16T20:15:17Z</time></trkpt>
<trkpt lat="46.29518" lon="6.93902"><ele></ele><time>2016-8-16T20:15:20Z</time></trkpt>
<trkpt lat="46.29512" lon="6.93891"><ele></ele><time>2016-8-16T20:15:23Z</time></trkpt>
<trkpt lat="46.29499" lon="6.93873"><ele></ele><time>2016-8-16T20:15:26Z</time></trkpt>
<trkpt lat="46.2949" lon="6.93865"><ele></ele><time>2016-8-16T20:15:29Z</time></trkpt>
<trkpt lat="46.29484" lon="6.93855"><ele></ele><time>2016-8-16T20:15:32Z</time></trkpt>
<trkpt lat="46.29472" lon="6.93836"><ele></ele><time>2016-8-16T20:15:35Z</time></trkpt>
<trkpt lat="46.29466" lon="6.93827"><ele></ele><time>2016-8-16T20:15:38Z</time></trkpt>
<trkpt lat="46.2946" lon="6.93818"><ele></ele><time>2016-8-16T20:15:41Z</time></trkpt>
<trkpt lat="46.29454" lon="6.93809"><ele></ele><time>2016-8-16T20:15:44Z</time></trkpt>
<trkpt lat="46.2945" lon="6.938"><ele></ele><time>2016-8-16T20:15:47Z</time></trkpt>
<trkpt lat="46.29441" lon="6.93783"><ele></ele><time>2016-8-16T20:15:50Z</time></trkpt>
<trkpt lat="46.29432" lon="6.93766"><ele></ele><time>2016-8-16T20:15:53Z</time></trkpt>
<trkpt lat="46.29425" lon="6.93752"><ele></ele><time>2016-8-16T20:15:56Z</time></trkpt>
<trkpt lat="46.29419" lon="6.93743"><ele></ele><time>2016-8-16T20:15:59Z</time></trkpt>
<trkpt lat="46.29416" lon="6.93743"><ele></ele><time>2016-8-16T20:16:2Z</time></trkpt>
<trkpt lat="46.29412" lon="6.93746"><ele></ele><time>2016-8-16T20:16:5Z</time></trkpt>
<trkpt lat="46.29405" lon="6.93752"><ele></ele><time>2016-8-16T20:16:8Z</time></trkpt>
<trkpt lat="46.29398" lon="6.93759"><ele></ele><time>2016-8-16T20:16:11Z</time></trkpt>
<trkpt lat="46.29391" lon="6.93765"><ele></ele><time>2016-8-16T20:16:14Z</time></trkpt>
<trkpt lat="46.29384" lon="6.93772"><ele></ele><time>2016-8-16T20:16:17Z</time></trkpt>
<trkpt lat="46.29376" lon="6.93778"><ele></ele><time>2016-8-16T20:16:20Z</time></trkpt>
<trkpt lat="46.29369" lon="6.93785"><ele></ele><time>2016-8-16T20:16:23Z</time></trkpt>
<trkpt lat="46.29362" lon="6.93793"><ele></ele><time>2016-8-16T20:16:26Z</time></trkpt>
<trkpt lat="46.29355" lon="6.938"><ele></ele><time>2016-8-16T20:16:29Z</time></trkpt>
<trkpt lat="46.29348" lon="6.93807"><ele></ele><time>2016-8-16T20:16:32Z</time></trkpt>
<trkpt lat="46.29341" lon="6.93814"><ele></ele><time>2016-8-16T20:16:35Z</time></trkpt>
<trkpt lat="46.29337" lon="6.93817"><ele></ele><time>2016-8-16T20:16:38Z</time></trkpt>
<trkpt lat="46.29333" lon="6.9382"><ele></ele><time>2016-8-16T20:16:41Z</time></trkpt>
<trkpt lat="46.29329" lon="6.93821"><ele></ele><time>2016-8-16T20:16:44Z</time></trkpt>
<trkpt lat="46.29325" lon="6.93819"><ele></ele><time>2016-8-16T20:16:47Z</time></trkpt>
<trkpt lat="46.29322" lon="6.93815"><ele></ele><time>2016-8-16T20:16:50Z</time></trkpt>
<trkpt lat="46.2932" lon="6.93811"><ele></ele><time>2016-8-16T20:16:53Z</time></trkpt>
<trkpt lat="46.29317" lon="6.93801"><ele></ele><time>2016-8-16T20:16:56Z</time></trkpt>
<trkpt lat="46.29314" lon="6.93791"><ele></ele><time>2016-8-16T20:16:59Z</time></trkpt>
<trkpt lat="46.29311" lon="6.93782"><ele></ele><time>2016-8-16T20:17:2Z</time></trkpt>
<trkpt lat="46.29308" lon="6.93772"><ele></ele><time>2016-8-16T20:17:5Z</time></trkpt>
<trkpt lat="46.29305" lon="6.93762"><ele></ele><time>2016-8-16T20:17:8Z</time></trkpt>
<trkpt lat="46.29302" lon="6.93753"><ele></ele><time>2016-8-16T20:17:11Z</time></trkpt>
<trkpt lat="46.29299" lon="6.93746"><ele></ele><time>2016-8-16T20:17:14Z</time></trkpt>
<trkpt lat="46.29297" lon="6.93739"><ele></ele><time>2016-8-16T20:17:17Z</time></trkpt>
<trkpt lat="46.29295" lon="6.93732"><ele></ele><time>2016-8-16T20:17:20Z</time></trkpt>
<trkpt lat="46.29297" lon="6.93723"><ele></ele><time>2016-8-16T20:17:23Z</time></trkpt>
<trkpt lat="46.293" lon="6.93715"><ele></ele><time>2016-8-16T20:17:26Z</time></trkpt>
<trkpt lat="46.29302" lon="6.93706"><ele></ele><time>2016-8-16T20:17:29Z</time></trkpt>
<trkpt lat="46.29304" lon="6.93697"><ele></ele><time>2016-8-16T20:17:32Z</time></trkpt>
<trkpt lat="46.29304" lon="6.93695"><ele></ele><time>2016-8-16T20:17:35Z</time></trkpt>
<trkpt lat="46.29302" lon="6.93696"><ele></ele><time>2016-8-16T20:17:38Z</time></trkpt>
<trkpt lat="46.29301" lon="6.93697"><ele></ele><time>2016-8-16T20:17:41Z</time></trkpt>
<trkpt lat="46.29301" lon="6.937"><ele></ele><time>2016-8-16T20:17:44Z</time></trkpt>
<trkpt lat="46.29301" lon="6.93705"><ele></ele><time>2016-8-16T20:17:47Z</time></trkpt>
<trkpt lat="46.29301" lon="6.9371"><ele></ele><time>2016-8-16T20:17:50Z</time></trkpt>
<trkpt lat="46.29301" lon="6.93716"><ele></ele><time>2016-8-16T20:17:53Z</time></trkpt>
<trkpt lat="46.29301" lon="6.93721"><ele></ele><time>2016-8-16T20:17:56Z</time></trkpt>
<trkpt lat="46.29301" lon="6.93727"><ele></ele><time>2016-8-16T20:17:59Z</time></trkpt>
<trkpt lat="46.29301" lon="6.93732"><ele></ele><time>2016-8-16T20:18:2Z</time></trkpt>
<trkpt lat="46.29301" lon="6.93737"><ele></ele><time>2016-8-16T20:18:5Z</time></trkpt>
<trkpt lat="46.29301" lon="6.93743"><ele></ele><time>2016-8-16T20:18:8Z</time></trkpt>
<trkpt lat="46.29301" lon="6.93748"><ele></ele><time>2016-8-16T20:18:11Z</time></trkpt>
<trkpt lat="46.29301" lon="6.93753"><ele></ele><time>2016-8-16T20:18:14Z</time></trkpt>
<trkpt lat="46.29302" lon="6.93757"><ele></ele><time>2016-8-16T20:18:17Z</time></trkpt>
<trkpt lat="46.29304" lon="6.93761"><ele></ele><time>2016-8-16T20:18:20Z</time></trkpt>
<trkpt lat="46.29307" lon="6.93769"><ele></ele><time>2016-8-16T20:18:23Z</time></trkpt>
<trkpt lat="46.29311" lon="6.93778"><ele></ele><time>2016-8-16T20:18:26Z</time></trkpt>
<trkpt lat="46.29314" lon="6.93786"><ele></ele><time>2016-8-16T20:18:29Z</time></trkpt>
<trkpt lat="46.29318" lon="6.93795"><ele></ele><time>2016-8-16T20:18:32Z</time></trkpt>
<trkpt lat="46.29321" lon="6.93803"><ele></ele><time>2016-8-16T20:18:35Z</time></trkpt>
<trkpt lat="46.29325" lon="6.93812"><ele></ele><time>2016-8-16T20:18:38Z</time></trkpt>
<trkpt lat="46.29327" lon="6.93815"><ele></ele><time>2016-8-16T20:18:41Z</time></trkpt>
<trkpt lat="46.29329" lon="6.93818"><ele></ele><time>2016-8-16T20:18:44Z</time></trkpt>
<trkpt lat="46.29335" lon="6.93821"><ele></ele><time>2016-8-16T20:18:47Z</time></trkpt>
<trkpt lat="46.29342" lon="6.93815"><ele></ele><time>2016-8-16T20:18:50Z</time></trkpt>
<trkpt lat="46.29349" lon="6.93808"><ele></ele><time>2016-8-16T20:18:53Z</time></trkpt>
<trkpt lat="46.29356" lon="6.93802"><ele></ele><time>2016-8-16T20:18:56Z</time></trkpt>
<trkpt lat="46.29362" lon="6.93796"><ele></ele><time>2016-8-16T20:18:59Z</time></trkpt>
<trkpt lat="46.29369" lon="6.93789"><ele></ele><time>2016-8-16T20:19:2Z</time></trkpt>
<trkpt lat="46.29373" lon="6.93786"><ele></ele><time>2016-8-16T20:19:5Z</time></trkpt>
<trkpt lat="46.29376" lon="6.93783"><ele></ele><time>2016-8-16T20:19:8Z</time></trkpt>
<trkpt lat="46.29382" lon="6.93776"><ele></ele><time>2016-8-16T20:19:11Z</time></trkpt>
<trkpt lat="46.29388" lon="6.9377"><ele></ele><time>2016-8-16T20:19:14Z</time></trkpt>
<trkpt lat="46.29394" lon="6.93763"><ele></ele><time>2016-8-16T20:19:17Z</time></trkpt>
<trkpt lat="46.294" lon="6.93757"><ele></ele><time>2016-8-16T20:19:20Z</time></trkpt>
<trkpt lat="46.29406" lon="6.9375"><ele></ele><time>2016-8-16T20:19:23Z</time></trkpt>
<trkpt lat="46.29409" lon="6.93747"><ele></ele><time>2016-8-16T20:19:26Z</time></trkpt>
<trkpt lat="46.29412" lon="6.93743"><ele></ele><time>2016-8-16T20:19:29Z</time></trkpt>
<trkpt lat="46.29419" lon="6.93736"><ele></ele><time>2016-8-16T20:19:32Z</time></trkpt>
<trkpt lat="46.29425" lon="6.93729"><ele></ele><time>2016-8-16T20:19:35Z</time></trkpt>
<trkpt lat="46.29431" lon="6.93721"><ele></ele><time>2016-8-16T20:19:38Z</time></trkpt>
<trkpt lat="46.2944" lon="6.93715"><ele></ele><time>2016-8-16T20:19:41Z</time></trkpt>
<trkpt lat="46.29449" lon="6.93708"><ele></ele><time>2016-8-16T20:19:44Z</time></trkpt>
<trkpt lat="46.29457" lon="6.93701"><ele></ele><time>2016-8-16T20:19:47Z</time></trkpt>
<trkpt lat="46.29466" lon="6.93694"><ele></ele><time>2016-8-16T20:19:50Z</time></trkpt>
<trkpt lat="46.29471" lon="6.93691"><ele></ele><time>2016-8-16T20:19:53Z</time></trkpt>
<trkpt lat="46.29474" lon="6.93685"><ele></ele><time>2016-8-16T20:19:56Z</time></trkpt>
<trkpt lat="46.29476" lon="6.93676"><ele></ele><time>2016-8-16T20:19:59Z</time></trkpt>
<trkpt lat="46.2948" lon="6.93672"><ele></ele><time>2016-8-16T20:20:2Z</time></trkpt>
<trkpt lat="46.29488" lon="6.93664"><ele></ele><time>2016-8-16T20:20:5Z</time></trkpt>
<trkpt lat="46.29497" lon="6.93655"><ele></ele><time>2016-8-16T20:20:8Z</time></trkpt>
<trkpt lat="46.29505" lon="6.93647"><ele></ele><time>2016-8-16T20:20:11Z</time></trkpt>
<trkpt lat="46.29513" lon="6.93639"><ele></ele><time>2016-8-16T20:20:14Z</time></trkpt>
<trkpt lat="46.29518" lon="6.93635"><ele></ele><time>2016-8-16T20:20:17Z</time></trkpt>
<trkpt lat="46.29522" lon="6.9363"><ele></ele><time>2016-8-16T20:20:20Z</time></trkpt>
<trkpt lat="46.29532" lon="6.93621"><ele></ele><time>2016-8-16T20:20:23Z</time></trkpt>
<trkpt lat="46.29541" lon="6.93612"><ele></ele><time>2016-8-16T20:20:26Z</time></trkpt>
<trkpt lat="46.29551" lon="6.93603"><ele></ele><time>2016-8-16T20:20:29Z</time></trkpt>
<trkpt lat="46.2956" lon="6.93593"><ele></ele><time>2016-8-16T20:20:32Z</time></trkpt>
<trkpt lat="46.2957" lon="6.93584"><ele></ele><time>2016-8-16T20:20:35Z</time></trkpt>
<trkpt lat="46.2958" lon="6.93574"><ele></ele><time>2016-8-16T20:20:38Z</time></trkpt>
<trkpt lat="46.2959" lon="6.93564"><ele></ele><time>2016-8-16T20:20:41Z</time></trkpt>
<trkpt lat="46.29601" lon="6.93554"><ele></ele><time>2016-8-16T20:20:44Z</time></trkpt>
<trkpt lat="46.29612" lon="6.93543"><ele></ele><time>2016-8-16T20:20:47Z</time></trkpt>
<trkpt lat="46.29623" lon="6.93533"><ele></ele><time>2016-8-16T20:20:50Z</time></trkpt>
<trkpt lat="46.29634" lon="6.93522"><ele></ele><time>2016-8-16T20:20:53Z</time></trkpt>
<trkpt lat="46.29639" lon="6.93517"><ele></ele><time>2016-8-16T20:20:56Z</time></trkpt>
<trkpt lat="46.29642" lon="6.93514"><ele></ele><time>2016-8-16T20:20:59Z</time></trkpt>
<trkpt lat="46.29649" lon="6.93508"><ele></ele><time>2016-8-16T20:21:2Z</time></trkpt>
<trkpt lat="46.29656" lon="6.93501"><ele></ele><time>2016-8-16T20:21:5Z</time></trkpt>
<trkpt lat="46.29663" lon="6.93495"><ele></ele><time>2016-8-16T20:21:8Z</time></trkpt>
<trkpt lat="46.2967" lon="6.93488"><ele></ele><time>2016-8-16T20:21:11Z</time></trkpt>
<trkpt lat="46.29677" lon="6.93482"><ele></ele><time>2016-8-16T20:21:14Z</time></trkpt>
<trkpt lat="46.29684" lon="6.93477"><ele></ele><time>2016-8-16T20:21:17Z</time></trkpt>
<trkpt lat="46.2969" lon="6.93472"><ele></ele><time>2016-8-16T20:21:20Z</time></trkpt>
<trkpt lat="46.29697" lon="6.93467"><ele></ele><time>2016-8-16T20:21:23Z</time></trkpt>
<trkpt lat="46.29703" lon="6.93461"><ele></ele><time>2016-8-16T20:21:26Z</time></trkpt>
<trkpt lat="46.2971" lon="6.93456"><ele></ele><time>2016-8-16T20:21:29Z</time></trkpt>
<trkpt lat="46.29717" lon="6.93451"><ele></ele><time>2016-8-16T20:21:32Z</time></trkpt>
<trkpt lat="46.29728" lon="6.93446"><ele></ele><time>2016-8-16T20:21:35Z</time></trkpt>
<trkpt lat="46.29739" lon="6.93441"><ele></ele><time>2016-8-16T20:21:38Z</time></trkpt>
<trkpt lat="46.29749" lon="6.93435"><ele></ele><time>2016-8-16T20:21:41Z</time></trkpt>
<trkpt lat="46.2976" lon="6.9343"><ele></ele><time>2016-8-16T20:21:44Z</time></trkpt>
<trkpt lat="46.29765" lon="6.93427"><ele></ele><time>2016-8-16T20:21:47Z</time></trkpt>
<trkpt lat="46.29771" lon="6.93425"><ele></ele><time>2016-8-16T20:21:50Z</time></trkpt>
<trkpt lat="46.29782" lon="6.9342"><ele></ele><time>2016-8-16T20:21:53Z</time></trkpt>
<trkpt lat="46.29794" lon="6.93415"><ele></ele><time>2016-8-16T20:21:56Z</time></trkpt>
<trkpt lat="46.29805" lon="6.9341"><ele></ele><time>2016-8-16T20:21:59Z</time></trkpt>
<trkpt lat="46.29811" lon="6.93407"><ele></ele><time>2016-8-16T20:22:2Z</time></trkpt>
<trkpt lat="46.29817" lon="6.93404"><ele></ele><time>2016-8-16T20:22:5Z</time></trkpt>
<trkpt lat="46.2983" lon="6.93399"><ele></ele><time>2016-8-16T20:22:8Z</time></trkpt>
<trkpt lat="46.29842" lon="6.93394"><ele></ele><time>2016-8-16T20:22:11Z</time></trkpt>
<trkpt lat="46.29854" lon="6.93388"><ele></ele><time>2016-8-16T20:22:14Z</time></trkpt>
<trkpt lat="46.29866" lon="6.93383"><ele></ele><time>2016-8-16T20:22:17Z</time></trkpt>
<trkpt lat="46.29877" lon="6.93378"><ele></ele><time>2016-8-16T20:22:20Z</time></trkpt>
<trkpt lat="46.29889" lon="6.93373"><ele></ele><time>2016-8-16T20:22:23Z</time></trkpt>
<trkpt lat="46.299" lon="6.93368"><ele></ele><time>2016-8-16T20:22:26Z</time></trkpt>
<trkpt lat="46.29912" lon="6.93362"><ele></ele><time>2016-8-16T20:22:29Z</time></trkpt>
<trkpt lat="46.29924" lon="6.93357"><ele></ele><time>2016-8-16T20:22:32Z</time></trkpt>
<trkpt lat="46.29936" lon="6.93352"><ele></ele><time>2016-8-16T20:22:35Z</time></trkpt>
<trkpt lat="46.29948" lon="6.93346"><ele></ele><time>2016-8-16T20:22:38Z</time></trkpt>
<trkpt lat="46.29961" lon="6.93341"><ele></ele><time>2016-8-16T20:22:41Z</time></trkpt>
<trkpt lat="46.29973" lon="6.93336"><ele></ele><time>2016-8-16T20:22:44Z</time></trkpt>
<trkpt lat="46.29986" lon="6.9333"><ele></ele><time>2016-8-16T20:22:47Z</time></trkpt>
<trkpt lat="46.29999" lon="6.93326"><ele></ele><time>2016-8-16T20:22:50Z</time></trkpt>
<trkpt lat="46.30013" lon="6.93326"><ele></ele><time>2016-8-16T20:22:53Z</time></trkpt>
<trkpt lat="46.30027" lon="6.93326"><ele></ele><time>2016-8-16T20:22:56Z</time></trkpt>
<trkpt lat="46.30041" lon="6.93326"><ele></ele><time>2016-8-16T20:22:59Z</time></trkpt>
<trkpt lat="46.30048" lon="6.93326"><ele></ele><time>2016-8-16T20:23:2Z</time></trkpt>
<trkpt lat="46.30054" lon="6.93327"><ele></ele><time>2016-8-16T20:23:5Z</time></trkpt>
<trkpt lat="46.30068" lon="6.9333"><ele></ele><time>2016-8-16T20:23:8Z</time></trkpt>
<trkpt lat="46.30075" lon="6.93333"><ele></ele><time>2016-8-16T20:23:11Z</time></trkpt>
<trkpt lat="46.30082" lon="6.93334"><ele></ele><time>2016-8-16T20:23:14Z</time></trkpt>
<trkpt lat="46.30095" lon="6.93336"><ele></ele><time>2016-8-16T20:23:17Z</time></trkpt>
<trkpt lat="46.30108" lon="6.93338"><ele></ele><time>2016-8-16T20:23:20Z</time></trkpt>
<trkpt lat="46.30122" lon="6.93339"><ele></ele><time>2016-8-16T20:23:23Z</time></trkpt>
<trkpt lat="46.30135" lon="6.93341"><ele></ele><time>2016-8-16T20:23:26Z</time></trkpt>
<trkpt lat="46.30149" lon="6.93342"><ele></ele><time>2016-8-16T20:23:29Z</time></trkpt>
<trkpt lat="46.30163" lon="6.93344"><ele></ele><time>2016-8-16T20:23:32Z</time></trkpt>
<trkpt lat="46.3017" lon="6.93345"><ele></ele><time>2016-8-16T20:23:35Z</time></trkpt>
<trkpt lat="46.30176" lon="6.93346"><ele></ele><time>2016-8-16T20:23:38Z</time></trkpt>
<trkpt lat="46.30189" lon="6.93347"><ele></ele><time>2016-8-16T20:23:41Z</time></trkpt>
<trkpt lat="46.30202" lon="6.93349"><ele></ele><time>2016-8-16T20:23:44Z</time></trkpt>
<trkpt lat="46.30215" lon="6.9335"><ele></ele><time>2016-8-16T20:23:47Z</time></trkpt>
<trkpt lat="46.30228" lon="6.93352"><ele></ele><time>2016-8-16T20:23:50Z</time></trkpt>
<trkpt lat="46.30242" lon="6.93354"><ele></ele><time>2016-8-16T20:23:53Z</time></trkpt>
<trkpt lat="46.30255" lon="6.93356"><ele></ele><time>2016-8-16T20:23:56Z</time></trkpt>
<trkpt lat="46.30261" lon="6.93357"><ele></ele><time>2016-8-16T20:23:59Z</time></trkpt>
<trkpt lat="46.30269" lon="6.93358"><ele></ele><time>2016-8-16T20:24:2Z</time></trkpt>
<trkpt lat="46.30283" lon="6.9336"><ele></ele><time>2016-8-16T20:24:5Z</time></trkpt>
<trkpt lat="46.30298" lon="6.93363"><ele></ele><time>2016-8-16T20:24:8Z</time></trkpt>
<trkpt lat="46.30312" lon="6.93365"><ele></ele><time>2016-8-16T20:24:11Z</time></trkpt>
<trkpt lat="46.30326" lon="6.93368"><ele></ele><time>2016-8-16T20:24:14Z</time></trkpt>
<trkpt lat="46.30339" lon="6.9337"><ele></ele><time>2016-8-16T20:24:17Z</time></trkpt>
<trkpt lat="46.30353" lon="6.93373"><ele></ele><time>2016-8-16T20:24:20Z</time></trkpt>
<trkpt lat="46.3036" lon="6.93374"><ele></ele><time>2016-8-16T20:24:23Z</time></trkpt>
<trkpt lat="46.30367" lon="6.93375"><ele></ele><time>2016-8-16T20:24:26Z</time></trkpt>
<trkpt lat="46.30381" lon="6.93376"><ele></ele><time>2016-8-16T20:24:29Z</time></trkpt>
<trkpt lat="46.30395" lon="6.93378"><ele></ele><time>2016-8-16T20:24:32Z</time></trkpt>
<trkpt lat="46.30409" lon="6.9338"><ele></ele><time>2016-8-16T20:24:35Z</time></trkpt>
<trkpt lat="46.30424" lon="6.9338"><ele></ele><time>2016-8-16T20:24:38Z</time></trkpt>
<trkpt lat="46.30439" lon="6.93381"><ele></ele><time>2016-8-16T20:24:41Z</time></trkpt>
<trkpt lat="46.30455" lon="6.9338"><ele></ele><time>2016-8-16T20:24:44Z</time></trkpt>
<trkpt lat="46.3047" lon="6.93376"><ele></ele><time>2016-8-16T20:24:47Z</time></trkpt>
<trkpt lat="46.30485" lon="6.93372"><ele></ele><time>2016-8-16T20:24:50Z</time></trkpt>
<trkpt lat="46.305" lon="6.93367"><ele></ele><time>2016-8-16T20:24:53Z</time></trkpt>
<trkpt lat="46.30514" lon="6.93362"><ele></ele><time>2016-8-16T20:24:56Z</time></trkpt>
<trkpt lat="46.30529" lon="6.93357"><ele></ele><time>2016-8-16T20:24:59Z</time></trkpt>
<trkpt lat="46.30543" lon="6.93352"><ele></ele><time>2016-8-16T20:25:2Z</time></trkpt>
<trkpt lat="46.3055" lon="6.93349"><ele></ele><time>2016-8-16T20:25:5Z</time></trkpt>
<trkpt lat="46.30557" lon="6.93346"><ele></ele><time>2016-8-16T20:25:8Z</time></trkpt>
<trkpt lat="46.30571" lon="6.9334"><ele></ele><time>2016-8-16T20:25:11Z</time></trkpt>
<trkpt lat="46.30585" lon="6.93334"><ele></ele><time>2016-8-16T20:25:14Z</time></trkpt>
<trkpt lat="46.30599" lon="6.93328"><ele></ele><time>2016-8-16T20:25:17Z</time></trkpt>
<trkpt lat="46.30613" lon="6.93323"><ele></ele><time>2016-8-16T20:25:20Z</time></trkpt>
<trkpt lat="46.30627" lon="6.93317"><ele></ele><time>2016-8-16T20:25:23Z</time></trkpt>
<trkpt lat="46.30641" lon="6.93312"><ele></ele><time>2016-8-16T20:25:26Z</time></trkpt>
<trkpt lat="46.30648" lon="6.93309"><ele></ele><time>2016-8-16T20:25:29Z</time></trkpt>
<trkpt lat="46.30655" lon="6.93306"><ele></ele><time>2016-8-16T20:25:32Z</time></trkpt>
<trkpt lat="46.30669" lon="6.933"><ele></ele><time>2016-8-16T20:25:35Z</time></trkpt>
<trkpt lat="46.30683" lon="6.93295"><ele></ele><time>2016-8-16T20:25:38Z</time></trkpt>
<trkpt lat="46.30697" lon="6.93289"><ele></ele><time>2016-8-16T20:25:41Z</time></trkpt>
<trkpt lat="46.30711" lon="6.93282"><ele></ele><time>2016-8-16T20:25:44Z</time></trkpt>
<trkpt lat="46.30725" lon="6.93275"><ele></ele><time>2016-8-16T20:25:47Z</time></trkpt>
<trkpt lat="46.30739" lon="6.93268"><ele></ele><time>2016-8-16T20:25:50Z</time></trkpt>
<trkpt lat="46.30746" lon="6.93265"><ele></ele><time>2016-8-16T20:25:53Z</time></trkpt>
<trkpt lat="46.30753" lon="6.93262"><ele></ele><time>2016-8-16T20:25:56Z</time></trkpt>
<trkpt lat="46.30766" lon="6.93257"><ele></ele><time>2016-8-16T20:25:59Z</time></trkpt>
<trkpt lat="46.3078" lon="6.93251"><ele></ele><time>2016-8-16T20:26:2Z</time></trkpt>
<trkpt lat="46.30794" lon="6.93245"><ele></ele><time>2016-8-16T20:26:5Z</time></trkpt>
<trkpt lat="46.30807" lon="6.9324"><ele></ele><time>2016-8-16T20:26:8Z</time></trkpt>
<trkpt lat="46.30821" lon="6.93234"><ele></ele><time>2016-8-16T20:26:11Z</time></trkpt>
<trkpt lat="46.30835" lon="6.93229"><ele></ele><time>2016-8-16T20:26:14Z</time></trkpt>
<trkpt lat="46.30842" lon="6.93226"><ele></ele><time>2016-8-16T20:26:17Z</time></trkpt>
<trkpt lat="46.30849" lon="6.93223"><ele></ele><time>2016-8-16T20:26:20Z</time></trkpt>
<trkpt lat="46.30862" lon="6.93217"><ele></ele><time>2016-8-16T20:26:23Z</time></trkpt>
<trkpt lat="46.30875" lon="6.93212"><ele></ele><time>2016-8-16T20:26:26Z</time></trkpt>
<trkpt lat="46.30889" lon="6.93206"><ele></ele><time>2016-8-16T20:26:29Z</time></trkpt>
<trkpt lat="46.30902" lon="6.93202"><ele></ele><time>2016-8-16T20:26:32Z</time></trkpt>
<trkpt lat="46.30915" lon="6.93197"><ele></ele><time>2016-8-16T20:26:35Z</time></trkpt>
<trkpt lat="46.30928" lon="6.93192"><ele></ele><time>2016-8-16T20:26:38Z</time></trkpt>
<trkpt lat="46.30935" lon="6.93191"><ele></ele><time>2016-8-16T20:26:41Z</time></trkpt>
<trkpt lat="46.30942" lon="6.9319"><ele></ele><time>2016-8-16T20:26:44Z</time></trkpt>
<trkpt lat="46.30957" lon="6.93188"><ele></ele><time>2016-8-16T20:26:47Z</time></trkpt>
<trkpt lat="46.30971" lon="6.93187"><ele></ele><time>2016-8-16T20:26:50Z</time></trkpt>
<trkpt lat="46.30986" lon="6.93185"><ele></ele><time>2016-8-16T20:26:53Z</time></trkpt>
<trkpt lat="46.30999" lon="6.93185"><ele></ele><time>2016-8-16T20:26:56Z</time></trkpt>
<trkpt lat="46.31013" lon="6.93185"><ele></ele><time>2016-8-16T20:26:59Z</time></trkpt>
<trkpt lat="46.31027" lon="6.93184"><ele></ele><time>2016-8-16T20:27:2Z</time></trkpt>
<trkpt lat="46.31034" lon="6.93184"><ele></ele><time>2016-8-16T20:27:5Z</time></trkpt>
<trkpt lat="46.31041" lon="6.93183"><ele></ele><time>2016-8-16T20:27:8Z</time></trkpt>
<trkpt lat="46.31055" lon="6.93182"><ele></ele><time>2016-8-16T20:27:11Z</time></trkpt>
<trkpt lat="46.3107" lon="6.93181"><ele></ele><time>2016-8-16T20:27:14Z</time></trkpt>
<trkpt lat="46.31084" lon="6.9318"><ele></ele><time>2016-8-16T20:27:17Z</time></trkpt>
<trkpt lat="46.31098" lon="6.9318"><ele></ele><time>2016-8-16T20:27:20Z</time></trkpt>
<trkpt lat="46.31112" lon="6.93179"><ele></ele><time>2016-8-16T20:27:23Z</time></trkpt>
<trkpt lat="46.31126" lon="6.93178"><ele></ele><time>2016-8-16T20:27:26Z</time></trkpt>
<trkpt lat="46.31134" lon="6.93178"><ele></ele><time>2016-8-16T20:27:29Z</time></trkpt>
<trkpt lat="46.31141" lon="6.93178"><ele></ele><time>2016-8-16T20:27:32Z</time></trkpt>
<trkpt lat="46.31156" lon="6.93178"><ele></ele><time>2016-8-16T20:27:35Z</time></trkpt>
<trkpt lat="46.31171" lon="6.93178"><ele></ele><time>2016-8-16T20:27:38Z</time></trkpt>
<trkpt lat="46.31178" lon="6.93177"><ele></ele><time>2016-8-16T20:27:41Z</time></trkpt>
<trkpt lat="46.31186" lon="6.93176"><ele></ele><time>2016-8-16T20:27:44Z</time></trkpt>
<trkpt lat="46.312" lon="6.93173"><ele></ele><time>2016-8-16T20:27:47Z</time></trkpt>
<trkpt lat="46.31214" lon="6.93171"><ele></ele><time>2016-8-16T20:27:50Z</time></trkpt>
<trkpt lat="46.31228" lon="6.93167"><ele></ele><time>2016-8-16T20:27:53Z</time></trkpt>
<trkpt lat="46.31232" lon="6.9316"><ele></ele><time>2016-8-16T20:27:56Z</time></trkpt>
<trkpt lat="46.31234" lon="6.93152"><ele></ele><time>2016-8-16T20:27:59Z</time></trkpt>
<trkpt lat="46.31234" lon="6.93144"><ele></ele><time>2016-8-16T20:28:2Z</time></trkpt>
<trkpt lat="46.31233" lon="6.93137"><ele></ele><time>2016-8-16T20:28:5Z</time></trkpt>
<trkpt lat="46.31232" lon="6.93125"><ele></ele><time>2016-8-16T20:28:8Z</time></trkpt>
<trkpt lat="46.31234" lon="6.93117"><ele></ele><time>2016-8-16T20:28:11Z</time></trkpt>
<trkpt lat="46.31235" lon="6.93115"><ele></ele><time>2016-8-16T20:28:14Z</time></trkpt>
<trkpt lat="46.31237" lon="6.93117"><ele></ele><time>2016-8-16T20:28:17Z</time></trkpt>
<trkpt lat="46.31241" lon="6.9312"><ele></ele><time>2016-8-16T20:28:20Z</time></trkpt>
<trkpt lat="46.31243" lon="6.93123"><ele></ele><time>2016-8-16T20:28:23Z</time></trkpt>
<trkpt lat="46.31239" lon="6.93124"><ele></ele><time>2016-8-16T20:28:26Z</time></trkpt>
<trkpt lat="46.31235" lon="6.93123"><ele></ele><time>2016-8-16T20:28:29Z</time></trkpt>
<trkpt lat="46.31233" lon="6.93118"><ele></ele><time>2016-8-16T20:28:32Z</time></trkpt>
<trkpt lat="46.31232" lon="6.93113"><ele></ele><time>2016-8-16T20:28:35Z</time></trkpt>
<trkpt lat="46.31229" lon="6.93104"><ele></ele><time>2016-8-16T20:28:38Z</time></trkpt>
<trkpt lat="46.31226" lon="6.93094"><ele></ele><time>2016-8-16T20:28:41Z</time></trkpt>
<trkpt lat="46.31223" lon="6.93085"><ele></ele><time>2016-8-16T20:28:44Z</time></trkpt>
<trkpt lat="46.3122" lon="6.93075"><ele></ele><time>2016-8-16T20:28:47Z</time></trkpt>
<trkpt lat="46.31217" lon="6.93066"><ele></ele><time>2016-8-16T20:28:50Z</time></trkpt>
<trkpt lat="46.31216" lon="6.9306"><ele></ele><time>2016-8-16T20:28:53Z</time></trkpt>
<trkpt lat="46.31213" lon="6.93053"><ele></ele><time>2016-8-16T20:28:56Z</time></trkpt>
<trkpt lat="46.31209" lon="6.9304"><ele></ele><time>2016-8-16T20:28:59Z</time></trkpt>
<trkpt lat="46.31204" lon="6.93026"><ele></ele><time>2016-8-16T20:29:2Z</time></trkpt>
<trkpt lat="46.312" lon="6.93012"><ele></ele><time>2016-8-16T20:29:5Z</time></trkpt>
<trkpt lat="46.31195" lon="6.92998"><ele></ele><time>2016-8-16T20:29:8Z</time></trkpt>
<trkpt lat="46.31191" lon="6.92984"><ele></ele><time>2016-8-16T20:29:11Z</time></trkpt>
<trkpt lat="46.31186" lon="6.9297"><ele></ele><time>2016-8-16T20:29:14Z</time></trkpt>
<trkpt lat="46.31182" lon="6.92956"><ele></ele><time>2016-8-16T20:29:17Z</time></trkpt>
<trkpt lat="46.31177" lon="6.92941"><ele></ele><time>2016-8-16T20:29:20Z</time></trkpt>
<trkpt lat="46.31175" lon="6.92935"><ele></ele><time>2016-8-16T20:29:23Z</time></trkpt>
<trkpt lat="46.31173" lon="6.92928"><ele></ele><time>2016-8-16T20:29:26Z</time></trkpt>
<trkpt lat="46.31169" lon="6.92916"><ele></ele><time>2016-8-16T20:29:29Z</time></trkpt>
<trkpt lat="46.31167" lon="6.92903"><ele></ele><time>2016-8-16T20:29:32Z</time></trkpt>
<trkpt lat="46.31165" lon="6.92891"><ele></ele><time>2016-8-16T20:29:35Z</time></trkpt>
<trkpt lat="46.31163" lon="6.92878"><ele></ele><time>2016-8-16T20:29:38Z</time></trkpt>
<trkpt lat="46.31161" lon="6.92866"><ele></ele><time>2016-8-16T20:29:41Z</time></trkpt>
<trkpt lat="46.31158" lon="6.92854"><ele></ele><time>2016-8-16T20:29:44Z</time></trkpt>
<trkpt lat="46.31156" lon="6.92843"><ele></ele><time>2016-8-16T20:29:47Z</time></trkpt>
<trkpt lat="46.31152" lon="6.92832"><ele></ele><time>2016-8-16T20:29:50Z</time></trkpt>
<trkpt lat="46.31151" lon="6.92828"><ele></ele><time>2016-8-16T20:29:53Z</time></trkpt>
<trkpt lat="46.3115" lon="6.92823"><ele></ele><time>2016-8-16T20:29:56Z</time></trkpt>
<trkpt lat="46.31146" lon="6.92816"><ele></ele><time>2016-8-16T20:29:59Z</time></trkpt>
<trkpt lat="46.31142" lon="6.92811"><ele></ele><time>2016-8-16T20:30:2Z</time></trkpt>
<trkpt lat="46.31138" lon="6.92806"><ele></ele><time>2016-8-16T20:30:5Z</time></trkpt>
<trkpt lat="46.31134" lon="6.92799"><ele></ele><time>2016-8-16T20:30:8Z</time></trkpt>
<trkpt lat="46.31133" lon="6.92785"><ele></ele><time>2016-8-16T20:30:11Z</time></trkpt>
<trkpt lat="46.31131" lon="6.92771"><ele></ele><time>2016-8-16T20:30:14Z</time></trkpt>
<trkpt lat="46.31129" lon="6.92757"><ele></ele><time>2016-8-16T20:30:17Z</time></trkpt>
<trkpt lat="46.31125" lon="6.92744"><ele></ele><time>2016-8-16T20:30:20Z</time></trkpt>
<trkpt lat="46.31115" lon="6.92734"><ele></ele><time>2016-8-16T20:30:23Z</time></trkpt>
<trkpt lat="46.31104" lon="6.92723"><ele></ele><time>2016-8-16T20:30:26Z</time></trkpt>
<trkpt lat="46.31093" lon="6.92713"><ele></ele><time>2016-8-16T20:30:29Z</time></trkpt>
<trkpt lat="46.31082" lon="6.92703"><ele></ele><time>2016-8-16T20:30:32Z</time></trkpt>
<trkpt lat="46.31068" lon="6.92696"><ele></ele><time>2016-8-16T20:30:35Z</time></trkpt>
<trkpt lat="46.31054" lon="6.92688"><ele></ele><time>2016-8-16T20:30:38Z</time></trkpt>
<trkpt lat="46.3104" lon="6.92681"><ele></ele><time>2016-8-16T20:30:41Z</time></trkpt>
<trkpt lat="46.31033" lon="6.92677"><ele></ele><time>2016-8-16T20:30:44Z</time></trkpt>
<trkpt lat="46.31026" lon="6.92672"><ele></ele><time>2016-8-16T20:30:47Z</time></trkpt>
<trkpt lat="46.31011" lon="6.92662"><ele></ele><time>2016-8-16T20:30:50Z</time></trkpt>
<trkpt lat="46.30996" lon="6.92651"><ele></ele><time>2016-8-16T20:30:53Z</time></trkpt>
<trkpt lat="46.30989" lon="6.92646"><ele></ele><time>2016-8-16T20:30:56Z</time></trkpt>
<trkpt lat="46.30982" lon="6.92642"><ele></ele><time>2016-8-16T20:30:59Z</time></trkpt>
<trkpt lat="46.30968" lon="6.92632"><ele></ele><time>2016-8-16T20:31:2Z</time></trkpt>
<trkpt lat="46.30954" lon="6.92622"><ele></ele><time>2016-8-16T20:31:5Z</time></trkpt>
<trkpt lat="46.30947" lon="6.92618"><ele></ele><time>2016-8-16T20:31:8Z</time></trkpt>
<trkpt lat="46.30941" lon="6.92613"><ele></ele><time>2016-8-16T20:31:11Z</time></trkpt>
<trkpt lat="46.30928" lon="6.92605"><ele></ele><time>2016-8-16T20:31:14Z</time></trkpt>
<trkpt lat="46.30915" lon="6.92596"><ele></ele><time>2016-8-16T20:31:17Z</time></trkpt>
<trkpt lat="46.30902" lon="6.92588"><ele></ele><time>2016-8-16T20:31:20Z</time></trkpt>
<trkpt lat="46.30888" lon="6.92579"><ele></ele><time>2016-8-16T20:31:23Z</time></trkpt>
<trkpt lat="46.30875" lon="6.92571"><ele></ele><time>2016-8-16T20:31:26Z</time></trkpt>
<trkpt lat="46.30861" lon="6.92563"><ele></ele><time>2016-8-16T20:31:29Z</time></trkpt>
<trkpt lat="46.30854" lon="6.92559"><ele></ele><time>2016-8-16T20:31:32Z</time></trkpt>
<trkpt lat="46.30848" lon="6.92556"><ele></ele><time>2016-8-16T20:31:35Z</time></trkpt>
<trkpt lat="46.30834" lon="6.92548"><ele></ele><time>2016-8-16T20:31:38Z</time></trkpt>
<trkpt lat="46.30821" lon="6.92541"><ele></ele><time>2016-8-16T20:31:41Z</time></trkpt>
<trkpt lat="46.30808" lon="6.92534"><ele></ele><time>2016-8-16T20:31:44Z</time></trkpt>
<trkpt lat="46.30795" lon="6.92527"><ele></ele><time>2016-8-16T20:31:47Z</time></trkpt>
<trkpt lat="46.30781" lon="6.92521"><ele></ele><time>2016-8-16T20:31:50Z</time></trkpt>
<trkpt lat="46.30767" lon="6.92514"><ele></ele><time>2016-8-16T20:31:53Z</time></trkpt>
<trkpt lat="46.30761" lon="6.92512"><ele></ele><time>2016-8-16T20:31:56Z</time></trkpt>
<trkpt lat="46.30754" lon="6.92512"><ele></ele><time>2016-8-16T20:31:59Z</time></trkpt>
<trkpt lat="46.30741" lon="6.92511"><ele></ele><time>2016-8-16T20:32:2Z</time></trkpt>
<trkpt lat="46.30727" lon="6.92511"><ele></ele><time>2016-8-16T20:32:5Z</time></trkpt>
<trkpt lat="46.30714" lon="6.92511"><ele></ele><time>2016-8-16T20:32:8Z</time></trkpt>
<trkpt lat="46.307" lon="6.92513"><ele></ele><time>2016-8-16T20:32:11Z</time></trkpt>
<trkpt lat="46.30687" lon="6.92515"><ele></ele><time>2016-8-16T20:32:14Z</time></trkpt>
<trkpt lat="46.30673" lon="6.92518"><ele></ele><time>2016-8-16T20:32:17Z</time></trkpt>
<trkpt lat="46.30666" lon="6.92519"><ele></ele><time>2016-8-16T20:32:20Z</time></trkpt>
<trkpt lat="46.3066" lon="6.92521"><ele></ele><time>2016-8-16T20:32:23Z</time></trkpt>
<trkpt lat="46.30647" lon="6.92524"><ele></ele><time>2016-8-16T20:32:26Z</time></trkpt>
<trkpt lat="46.30634" lon="6.92527"><ele></ele><time>2016-8-16T20:32:29Z</time></trkpt>
<trkpt lat="46.30622" lon="6.9253"><ele></ele><time>2016-8-16T20:32:32Z</time></trkpt>
<trkpt lat="46.30613" lon="6.92533"><ele></ele><time>2016-8-16T20:32:35Z</time></trkpt>
<trkpt lat="46.30604" lon="6.92535"><ele></ele><time>2016-8-16T20:32:38Z</time></trkpt>
<trkpt lat="46.30595" lon="6.92538"><ele></ele><time>2016-8-16T20:32:41Z</time></trkpt>
<trkpt lat="46.30585" lon="6.9254"><ele></ele><time>2016-8-16T20:32:44Z</time></trkpt>
<trkpt lat="46.30576" lon="6.92542"><ele></ele><time>2016-8-16T20:32:47Z</time></trkpt>
<trkpt lat="46.30565" lon="6.92544"><ele></ele><time>2016-8-16T20:32:50Z</time></trkpt>
<trkpt lat="46.30555" lon="6.92546"><ele></ele><time>2016-8-16T20:32:53Z</time></trkpt>
<trkpt lat="46.30545" lon="6.92548"><ele></ele><time>2016-8-16T20:32:56Z</time></trkpt>
<trkpt lat="46.30535" lon="6.9255"><ele></ele><time>2016-8-16T20:32:59Z</time></trkpt>
<trkpt lat="46.30529" lon="6.92549"><ele></ele><time>2016-8-16T20:33:2Z</time></trkpt>
<trkpt lat="46.30524" lon="6.92547"><ele></ele><time>2016-8-16T20:33:5Z</time></trkpt>
<trkpt lat="46.30514" lon="6.92543"><ele></ele><time>2016-8-16T20:33:8Z</time></trkpt>
<trkpt lat="46.30503" lon="6.92539"><ele></ele><time>2016-8-16T20:33:11Z</time></trkpt>
<trkpt lat="46.30493" lon="6.92534"><ele></ele><time>2016-8-16T20:33:14Z</time></trkpt>
<trkpt lat="46.30482" lon="6.92529"><ele></ele><time>2016-8-16T20:33:17Z</time></trkpt>
<trkpt lat="46.30472" lon="6.9252"><ele></ele><time>2016-8-16T20:33:20Z</time></trkpt>
<trkpt lat="46.30462" lon="6.92511"><ele></ele><time>2016-8-16T20:33:23Z</time></trkpt>
<trkpt lat="46.30452" lon="6.92502"><ele></ele><time>2016-8-16T20:33:26Z</time></trkpt>
<trkpt lat="46.30441" lon="6.92492"><ele></ele><time>2016-8-16T20:33:29Z</time></trkpt>
<trkpt lat="46.30432" lon="6.9248"><ele></ele><time>2016-8-16T20:33:32Z</time></trkpt>
<trkpt lat="46.30422" lon="6.92468"><ele></ele><time>2016-8-16T20:33:35Z</time></trkpt>
<trkpt lat="46.30418" lon="6.92462"><ele></ele><time>2016-8-16T20:33:38Z</time></trkpt>
<trkpt lat="46.30415" lon="6.92454"><ele></ele><time>2016-8-16T20:33:41Z</time></trkpt>
<trkpt lat="46.30409" lon="6.92439"><ele></ele><time>2016-8-16T20:33:44Z</time></trkpt>
<trkpt lat="46.30403" lon="6.92424"><ele></ele><time>2016-8-16T20:33:47Z</time></trkpt>
<trkpt lat="46.30397" lon="6.92408"><ele></ele><time>2016-8-16T20:33:50Z</time></trkpt>
<trkpt lat="46.30393" lon="6.92401"><ele></ele><time>2016-8-16T20:33:53Z</time></trkpt>
<trkpt lat="46.30389" lon="6.92396"><ele></ele><time>2016-8-16T20:33:56Z</time></trkpt>
<trkpt lat="46.3038" lon="6.92384"><ele></ele><time>2016-8-16T20:33:59Z</time></trkpt>
<trkpt lat="46.30372" lon="6.92373"><ele></ele><time>2016-8-16T20:34:2Z</time></trkpt>
<trkpt lat="46.30363" lon="6.92362"><ele></ele><time>2016-8-16T20:34:5Z</time></trkpt>
<trkpt lat="46.30358" lon="6.92357"><ele></ele><time>2016-8-16T20:34:8Z</time></trkpt>
<trkpt lat="46.30354" lon="6.92352"><ele></ele><time>2016-8-16T20:34:11Z</time></trkpt>
<trkpt lat="46.30344" lon="6.92343"><ele></ele><time>2016-8-16T20:34:14Z</time></trkpt>
<trkpt lat="46.30334" lon="6.92335"><ele></ele><time>2016-8-16T20:34:17Z</time></trkpt>
<trkpt lat="46.30325" lon="6.92326"><ele></ele><time>2016-8-16T20:34:20Z</time></trkpt>
<trkpt lat="46.30321" lon="6.92322"><ele></ele><time>2016-8-16T20:34:23Z</time></trkpt>
<trkpt lat="46.30317" lon="6.92318"><ele></ele><time>2016-8-16T20:34:26Z</time></trkpt>
<trkpt lat="46.30309" lon="6.92311"><ele></ele><time>2016-8-16T20:34:29Z</time></trkpt>
<trkpt lat="46.30302" lon="6.92303"><ele></ele><time>2016-8-16T20:34:32Z</time></trkpt>
<trkpt lat="46.30294" lon="6.92296"><ele></ele><time>2016-8-16T20:34:35Z</time></trkpt>
<trkpt lat="46.30287" lon="6.92288"><ele></ele><time>2016-8-16T20:34:38Z</time></trkpt>
<trkpt lat="46.30283" lon="6.92284"><ele></ele><time>2016-8-16T20:34:41Z</time></trkpt>
<trkpt lat="46.3028" lon="6.92279"><ele></ele><time>2016-8-16T20:34:44Z</time></trkpt>
<trkpt lat="46.30275" lon="6.9227"><ele></ele><time>2016-8-16T20:34:47Z</time></trkpt>
<trkpt lat="46.30269" lon="6.9226"><ele></ele><time>2016-8-16T20:34:50Z</time></trkpt>
<trkpt lat="46.30264" lon="6.92251"><ele></ele><time>2016-8-16T20:34:53Z</time></trkpt>
<trkpt lat="46.30261" lon="6.92242"><ele></ele><time>2016-8-16T20:34:56Z</time></trkpt>
<trkpt lat="46.3027" lon="6.92235"><ele></ele><time>2016-8-16T20:34:59Z</time></trkpt>
<trkpt lat="46.3028" lon="6.92228"><ele></ele><time>2016-8-16T20:35:2Z</time></trkpt>
<trkpt lat="46.30289" lon="6.92222"><ele></ele><time>2016-8-16T20:35:5Z</time></trkpt>
<trkpt lat="46.30299" lon="6.92215"><ele></ele><time>2016-8-16T20:35:8Z</time></trkpt>
<trkpt lat="46.30304" lon="6.92211"><ele></ele><time>2016-8-16T20:35:11Z</time></trkpt>
<trkpt lat="46.30309" lon="6.92208"><ele></ele><time>2016-8-16T20:35:14Z</time></trkpt>
<trkpt lat="46.30319" lon="6.92201"><ele></ele><time>2016-8-16T20:35:17Z</time></trkpt>
<trkpt lat="46.3033" lon="6.92194"><ele></ele><time>2016-8-16T20:35:20Z</time></trkpt>
<trkpt lat="46.3034" lon="6.92187"><ele></ele><time>2016-8-16T20:35:23Z</time></trkpt>
<trkpt lat="46.30345" lon="6.92183"><ele></ele><time>2016-8-16T20:35:26Z</time></trkpt>
<trkpt lat="46.3035" lon="6.9218"><ele></ele><time>2016-8-16T20:35:29Z</time></trkpt>
<trkpt lat="46.3036" lon="6.92174"><ele></ele><time>2016-8-16T20:35:32Z</time></trkpt>
<trkpt lat="46.3037" lon="6.92167"><ele></ele><time>2016-8-16T20:35:35Z</time></trkpt>
<trkpt lat="46.3038" lon="6.92161"><ele></ele><time>2016-8-16T20:35:38Z</time></trkpt>
<trkpt lat="46.3039" lon="6.92154"><ele></ele><time>2016-8-16T20:35:41Z</time></trkpt>
<trkpt lat="46.30402" lon="6.92147"><ele></ele><time>2016-8-16T20:35:44Z</time></trkpt>
<trkpt lat="46.30413" lon="6.9214"><ele></ele><time>2016-8-16T20:35:47Z</time></trkpt>
<trkpt lat="46.30424" lon="6.92133"><ele></ele><time>2016-8-16T20:35:50Z</time></trkpt>
<trkpt lat="46.30435" lon="6.92126"><ele></ele><time>2016-8-16T20:35:53Z</time></trkpt>
<trkpt lat="46.30447" lon="6.92119"><ele></ele><time>2016-8-16T20:35:56Z</time></trkpt>
<trkpt lat="46.30459" lon="6.92112"><ele></ele><time>2016-8-16T20:35:59Z</time></trkpt>
<trkpt lat="46.3047" lon="6.92105"><ele></ele><time>2016-8-16T20:36:2Z</time></trkpt>
<trkpt lat="46.30482" lon="6.92098"><ele></ele><time>2016-8-16T20:36:5Z</time></trkpt>
<trkpt lat="46.30494" lon="6.92089"><ele></ele><time>2016-8-16T20:36:8Z</time></trkpt>
<trkpt lat="46.30505" lon="6.92081"><ele></ele><time>2016-8-16T20:36:11Z</time></trkpt>
<trkpt lat="46.30517" lon="6.92073"><ele></ele><time>2016-8-16T20:36:14Z</time></trkpt>
<trkpt lat="46.30523" lon="6.92069"><ele></ele><time>2016-8-16T20:36:17Z</time></trkpt>
<trkpt lat="46.30528" lon="6.92065"><ele></ele><time>2016-8-16T20:36:20Z</time></trkpt>
<trkpt lat="46.3054" lon="6.92058"><ele></ele><time>2016-8-16T20:36:23Z</time></trkpt>
<trkpt lat="46.30552" lon="6.9205"><ele></ele><time>2016-8-16T20:36:26Z</time></trkpt>
<trkpt lat="46.30563" lon="6.92043"><ele></ele><time>2016-8-16T20:36:29Z</time></trkpt>
<trkpt lat="46.30569" lon="6.92039"><ele></ele><time>2016-8-16T20:36:32Z</time></trkpt>
<trkpt lat="46.30575" lon="6.92035"><ele></ele><time>2016-8-16T20:36:35Z</time></trkpt>
<trkpt lat="46.30587" lon="6.92028"><ele></ele><time>2016-8-16T20:36:38Z</time></trkpt>
<trkpt lat="46.30599" lon="6.9202"><ele></ele><time>2016-8-16T20:36:41Z</time></trkpt>
<trkpt lat="46.3061" lon="6.92012"><ele></ele><time>2016-8-16T20:36:44Z</time></trkpt>
<trkpt lat="46.30622" lon="6.92004"><ele></ele><time>2016-8-16T20:36:47Z</time></trkpt>
<trkpt lat="46.30634" lon="6.91997"><ele></ele><time>2016-8-16T20:36:50Z</time></trkpt>
<trkpt lat="46.30646" lon="6.91989"><ele></ele><time>2016-8-16T20:36:53Z</time></trkpt>
<trkpt lat="46.30652" lon="6.91985"><ele></ele><time>2016-8-16T20:36:56Z</time></trkpt>
<trkpt lat="46.30658" lon="6.91981"><ele></ele><time>2016-8-16T20:36:59Z</time></trkpt>
<trkpt lat="46.3067" lon="6.91973"><ele></ele><time>2016-8-16T20:37:2Z</time></trkpt>
<trkpt lat="46.30682" lon="6.91964"><ele></ele><time>2016-8-16T20:37:5Z</time></trkpt>
<trkpt lat="46.30694" lon="6.91956"><ele></ele><time>2016-8-16T20:37:8Z</time></trkpt>
<trkpt lat="46.30706" lon="6.91949"><ele></ele><time>2016-8-16T20:37:11Z</time></trkpt>
<trkpt lat="46.30719" lon="6.91942"><ele></ele><time>2016-8-16T20:37:14Z</time></trkpt>
<trkpt lat="46.30731" lon="6.91934"><ele></ele><time>2016-8-16T20:37:17Z</time></trkpt>
<trkpt lat="46.30737" lon="6.9193"><ele></ele><time>2016-8-16T20:37:20Z</time></trkpt>
<trkpt lat="46.30743" lon="6.91927"><ele></ele><time>2016-8-16T20:37:23Z</time></trkpt>
<trkpt lat="46.30756" lon="6.91919"><ele></ele><time>2016-8-16T20:37:26Z</time></trkpt>
<trkpt lat="46.30768" lon="6.91911"><ele></ele><time>2016-8-16T20:37:29Z</time></trkpt>
<trkpt lat="46.30774" lon="6.91907"><ele></ele><time>2016-8-16T20:37:32Z</time></trkpt>
<trkpt lat="46.30779" lon="6.91902"><ele></ele><time>2016-8-16T20:37:35Z</time></trkpt>
<trkpt lat="46.30784" lon="6.91898"><ele></ele><time>2016-8-16T20:37:38Z</time></trkpt>
<trkpt lat="46.3079" lon="6.91894"><ele></ele><time>2016-8-16T20:37:41Z</time></trkpt>
<trkpt lat="46.30802" lon="6.91887"><ele></ele><time>2016-8-16T20:37:44Z</time></trkpt>
<trkpt lat="46.30814" lon="6.91879"><ele></ele><time>2016-8-16T20:37:47Z</time></trkpt>
<trkpt lat="46.30826" lon="6.91871"><ele></ele><time>2016-8-16T20:37:50Z</time></trkpt>
<trkpt lat="46.30839" lon="6.91863"><ele></ele><time>2016-8-16T20:37:53Z</time></trkpt>
<trkpt lat="46.30851" lon="6.91855"><ele></ele><time>2016-8-16T20:37:56Z</time></trkpt>
<trkpt lat="46.30863" lon="6.91847"><ele></ele><time>2016-8-16T20:37:59Z</time></trkpt>
<trkpt lat="46.30869" lon="6.91843"><ele></ele><time>2016-8-16T20:38:2Z</time></trkpt>
<trkpt lat="46.30876" lon="6.91839"><ele></ele><time>2016-8-16T20:38:5Z</time></trkpt>
<trkpt lat="46.30888" lon="6.91831"><ele></ele><time>2016-8-16T20:38:8Z</time></trkpt>
<trkpt lat="46.309" lon="6.91823"><ele></ele><time>2016-8-16T20:38:11Z</time></trkpt>
<trkpt lat="46.30913" lon="6.91814"><ele></ele><time>2016-8-16T20:38:14Z</time></trkpt>
<trkpt lat="46.30926" lon="6.91806"><ele></ele><time>2016-8-16T20:38:17Z</time></trkpt>
<trkpt lat="46.30939" lon="6.91798"><ele></ele><time>2016-8-16T20:38:20Z</time></trkpt>
<trkpt lat="46.30952" lon="6.91789"><ele></ele><time>2016-8-16T20:38:23Z</time></trkpt>
<trkpt lat="46.30958" lon="6.91785"><ele></ele><time>2016-8-16T20:38:26Z</time></trkpt>
<trkpt lat="46.30965" lon="6.91781"><ele></ele><time>2016-8-16T20:38:29Z</time></trkpt>
<trkpt lat="46.30978" lon="6.91773"><ele></ele><time>2016-8-16T20:38:32Z</time></trkpt>
<trkpt lat="46.30991" lon="6.91765"><ele></ele><time>2016-8-16T20:38:35Z</time></trkpt>
<trkpt lat="46.31004" lon="6.91756"><ele></ele><time>2016-8-16T20:38:38Z</time></trkpt>
<trkpt lat="46.31018" lon="6.91748"><ele></ele><time>2016-8-16T20:38:41Z</time></trkpt>
<trkpt lat="46.31031" lon="6.9174"><ele></ele><time>2016-8-16T20:38:44Z</time></trkpt>
<trkpt lat="46.31044" lon="6.91732"><ele></ele><time>2016-8-16T20:38:47Z</time></trkpt>
<trkpt lat="46.3105" lon="6.91728"><ele></ele><time>2016-8-16T20:38:50Z</time></trkpt>
<trkpt lat="46.31057" lon="6.91724"><ele></ele><time>2016-8-16T20:38:53Z</time></trkpt>
<trkpt lat="46.31069" lon="6.91716"><ele></ele><time>2016-8-16T20:38:56Z</time></trkpt>
<trkpt lat="46.31082" lon="6.91708"><ele></ele><time>2016-8-16T20:38:59Z</time></trkpt>
<trkpt lat="46.31094" lon="6.917"><ele></ele><time>2016-8-16T20:39:2Z</time></trkpt>
<trkpt lat="46.31107" lon="6.91692"><ele></ele><time>2016-8-16T20:39:5Z</time></trkpt>
<trkpt lat="46.3112" lon="6.91684"><ele></ele><time>2016-8-16T20:39:8Z</time></trkpt>
<trkpt lat="46.31133" lon="6.91676"><ele></ele><time>2016-8-16T20:39:11Z</time></trkpt>
<trkpt lat="46.3114" lon="6.91672"><ele></ele><time>2016-8-16T20:39:14Z</time></trkpt>
<trkpt lat="46.31146" lon="6.91668"><ele></ele><time>2016-8-16T20:39:17Z</time></trkpt>
<trkpt lat="46.31159" lon="6.91659"><ele></ele><time>2016-8-16T20:39:20Z</time></trkpt>
<trkpt lat="46.31173" lon="6.91651"><ele></ele><time>2016-8-16T20:39:23Z</time></trkpt>
<trkpt lat="46.31186" lon="6.91643"><ele></ele><time>2016-8-16T20:39:26Z</time></trkpt>
<trkpt lat="46.31199" lon="6.91634"><ele></ele><time>2016-8-16T20:39:29Z</time></trkpt>
<trkpt lat="46.31212" lon="6.91625"><ele></ele><time>2016-8-16T20:39:32Z</time></trkpt>
<trkpt lat="46.31225" lon="6.91616"><ele></ele><time>2016-8-16T20:39:35Z</time></trkpt>
<trkpt lat="46.31231" lon="6.91612"><ele></ele><time>2016-8-16T20:39:38Z</time></trkpt>
<trkpt lat="46.31237" lon="6.91608"><ele></ele><time>2016-8-16T20:39:41Z</time></trkpt>
<trkpt lat="46.3125" lon="6.91599"><ele></ele><time>2016-8-16T20:39:44Z</time></trkpt>
<trkpt lat="46.31263" lon="6.91591"><ele></ele><time>2016-8-16T20:39:47Z</time></trkpt>
<trkpt lat="46.31275" lon="6.91583"><ele></ele><time>2016-8-16T20:39:50Z</time></trkpt>
<trkpt lat="46.31288" lon="6.91575"><ele></ele><time>2016-8-16T20:39:53Z</time></trkpt>
<trkpt lat="46.313" lon="6.91567"><ele></ele><time>2016-8-16T20:39:56Z</time></trkpt>
<trkpt lat="46.31312" lon="6.9156"><ele></ele><time>2016-8-16T20:39:59Z</time></trkpt>
<trkpt lat="46.31319" lon="6.91556"><ele></ele><time>2016-8-16T20:40:2Z</time></trkpt>
<trkpt lat="46.31325" lon="6.91551"><ele></ele><time>2016-8-16T20:40:5Z</time></trkpt>
<trkpt lat="46.31338" lon="6.91543"><ele></ele><time>2016-8-16T20:40:8Z</time></trkpt>
<trkpt lat="46.31351" lon="6.91534"><ele></ele><time>2016-8-16T20:40:11Z</time></trkpt>
<trkpt lat="46.31364" lon="6.91526"><ele></ele><time>2016-8-16T20:40:14Z</time></trkpt>
<trkpt lat="46.31377" lon="6.91518"><ele></ele><time>2016-8-16T20:40:17Z</time></trkpt>
<trkpt lat="46.31389" lon="6.9151"><ele></ele><time>2016-8-16T20:40:20Z</time></trkpt>
<trkpt lat="46.31402" lon="6.91503"><ele></ele><time>2016-8-16T20:40:23Z</time></trkpt>
<trkpt lat="46.31408" lon="6.91499"><ele></ele><time>2016-8-16T20:40:26Z</time></trkpt>
<trkpt lat="46.31414" lon="6.91494"><ele></ele><time>2016-8-16T20:40:29Z</time></trkpt>
<trkpt lat="46.31426" lon="6.91486"><ele></ele><time>2016-8-16T20:40:32Z</time></trkpt>
<trkpt lat="46.31437" lon="6.91478"><ele></ele><time>2016-8-16T20:40:35Z</time></trkpt>
<trkpt lat="46.31449" lon="6.91469"><ele></ele><time>2016-8-16T20:40:38Z</time></trkpt>
<trkpt lat="46.31459" lon="6.9146"><ele></ele><time>2016-8-16T20:40:41Z</time></trkpt>
<trkpt lat="46.3147" lon="6.91452"><ele></ele><time>2016-8-16T20:40:44Z</time></trkpt>
<trkpt lat="46.3148" lon="6.91443"><ele></ele><time>2016-8-16T20:40:47Z</time></trkpt>
<trkpt lat="46.31491" lon="6.91433"><ele></ele><time>2016-8-16T20:40:50Z</time></trkpt>
<trkpt lat="46.31501" lon="6.91424"><ele></ele><time>2016-8-16T20:40:53Z</time></trkpt>
<trkpt lat="46.31511" lon="6.91414"><ele></ele><time>2016-8-16T20:40:56Z</time></trkpt>
<trkpt lat="46.31521" lon="6.91404"><ele></ele><time>2016-8-16T20:40:59Z</time></trkpt>
<trkpt lat="46.31531" lon="6.91394"><ele></ele><time>2016-8-16T20:41:2Z</time></trkpt>
<trkpt lat="46.31542" lon="6.91384"><ele></ele><time>2016-8-16T20:41:5Z</time></trkpt>
<trkpt lat="46.31552" lon="6.91374"><ele></ele><time>2016-8-16T20:41:8Z</time></trkpt>
<trkpt lat="46.31563" lon="6.91364"><ele></ele><time>2016-8-16T20:41:11Z</time></trkpt>
<trkpt lat="46.31574" lon="6.91354"><ele></ele><time>2016-8-16T20:41:14Z</time></trkpt>
<trkpt lat="46.31585" lon="6.91344"><ele></ele><time>2016-8-16T20:41:17Z</time></trkpt>
<trkpt lat="46.31595" lon="6.91333"><ele></ele><time>2016-8-16T20:41:20Z</time></trkpt>
<trkpt lat="46.31606" lon="6.91323"><ele></ele><time>2016-8-16T20:41:23Z</time></trkpt>
<trkpt lat="46.31612" lon="6.91318"><ele></ele><time>2016-8-16T20:41:26Z</time></trkpt>
<trkpt lat="46.31618" lon="6.91312"><ele></ele><time>2016-8-16T20:41:29Z</time></trkpt>
<trkpt lat="46.31629" lon="6.91301"><ele></ele><time>2016-8-16T20:41:32Z</time></trkpt>
<trkpt lat="46.3164" lon="6.9129"><ele></ele><time>2016-8-16T20:41:35Z</time></trkpt>
<trkpt lat="46.31652" lon="6.91278"><ele></ele><time>2016-8-16T20:41:38Z</time></trkpt>
<trkpt lat="46.31664" lon="6.91268"><ele></ele><time>2016-8-16T20:41:41Z</time></trkpt>
<trkpt lat="46.31677" lon="6.91257"><ele></ele><time>2016-8-16T20:41:44Z</time></trkpt>
<trkpt lat="46.31689" lon="6.91246"><ele></ele><time>2016-8-16T20:41:47Z</time></trkpt>
<trkpt lat="46.31695" lon="6.91241"><ele></ele><time>2016-8-16T20:41:50Z</time></trkpt>
<trkpt lat="46.31701" lon="6.91235"><ele></ele><time>2016-8-16T20:41:53Z</time></trkpt>
<trkpt lat="46.31712" lon="6.91224"><ele></ele><time>2016-8-16T20:41:56Z</time></trkpt>
<trkpt lat="46.31723" lon="6.91212"><ele></ele><time>2016-8-16T20:41:59Z</time></trkpt>
<trkpt lat="46.31735" lon="6.91201"><ele></ele><time>2016-8-16T20:42:2Z</time></trkpt>
<trkpt lat="46.31747" lon="6.9119"><ele></ele><time>2016-8-16T20:42:5Z</time></trkpt>
<trkpt lat="46.31759" lon="6.91179"><ele></ele><time>2016-8-16T20:42:8Z</time></trkpt>
<trkpt lat="46.31771" lon="6.91168"><ele></ele><time>2016-8-16T20:42:11Z</time></trkpt>
<trkpt lat="46.31777" lon="6.91162"><ele></ele><time>2016-8-16T20:42:14Z</time></trkpt>
<trkpt lat="46.31783" lon="6.91157"><ele></ele><time>2016-8-16T20:42:17Z</time></trkpt>
<trkpt lat="46.31795" lon="6.91146"><ele></ele><time>2016-8-16T20:42:20Z</time></trkpt>
<trkpt lat="46.31808" lon="6.91135"><ele></ele><time>2016-8-16T20:42:23Z</time></trkpt>
<trkpt lat="46.3182" lon="6.91124"><ele></ele><time>2016-8-16T20:42:26Z</time></trkpt>
<trkpt lat="46.31832" lon="6.91115"><ele></ele><time>2016-8-16T20:42:29Z</time></trkpt>
<trkpt lat="46.31845" lon="6.91106"><ele></ele><time>2016-8-16T20:42:32Z</time></trkpt>
<trkpt lat="46.31857" lon="6.91097"><ele></ele><time>2016-8-16T20:42:35Z</time></trkpt>
<trkpt lat="46.31863" lon="6.91092"><ele></ele><time>2016-8-16T20:42:38Z</time></trkpt>
<trkpt lat="46.31869" lon="6.91088"><ele></ele><time>2016-8-16T20:42:41Z</time></trkpt>
<trkpt lat="46.31881" lon="6.9108"><ele></ele><time>2016-8-16T20:42:44Z</time></trkpt>
<trkpt lat="46.31893" lon="6.91072"><ele></ele><time>2016-8-16T20:42:47Z</time></trkpt>
<trkpt lat="46.31905" lon="6.91063"><ele></ele><time>2016-8-16T20:42:50Z</time></trkpt>
<trkpt lat="46.31917" lon="6.91055"><ele></ele><time>2016-8-16T20:42:53Z</time></trkpt>
<trkpt lat="46.31929" lon="6.91046"><ele></ele><time>2016-8-16T20:42:56Z</time></trkpt>
<trkpt lat="46.31941" lon="6.91038"><ele></ele><time>2016-8-16T20:42:59Z</time></trkpt>
<trkpt lat="46.31947" lon="6.91034"><ele></ele><time>2016-8-16T20:43:2Z</time></trkpt>
<trkpt lat="46.31953" lon="6.9103"><ele></ele><time>2016-8-16T20:43:5Z</time></trkpt>
<trkpt lat="46.31965" lon="6.91023"><ele></ele><time>2016-8-16T20:43:8Z</time></trkpt>
<trkpt lat="46.31978" lon="6.91015"><ele></ele><time>2016-8-16T20:43:11Z</time></trkpt>
<trkpt lat="46.3199" lon="6.91008"><ele></ele><time>2016-8-16T20:43:14Z</time></trkpt>
<trkpt lat="46.32002" lon="6.91"><ele></ele><time>2016-8-16T20:43:17Z</time></trkpt>
<trkpt lat="46.32014" lon="6.90992"><ele></ele><time>2016-8-16T20:43:20Z</time></trkpt>
<trkpt lat="46.32026" lon="6.90984"><ele></ele><time>2016-8-16T20:43:23Z</time></trkpt>
<trkpt lat="46.32032" lon="6.9098"><ele></ele><time>2016-8-16T20:43:26Z</time></trkpt>
<trkpt lat="46.32038" lon="6.90977"><ele></ele><time>2016-8-16T20:43:29Z</time></trkpt>
<trkpt lat="46.3205" lon="6.9097"><ele></ele><time>2016-8-16T20:43:32Z</time></trkpt>
<trkpt lat="46.32062" lon="6.90963"><ele></ele><time>2016-8-16T20:43:35Z</time></trkpt>
<trkpt lat="46.32074" lon="6.90956"><ele></ele><time>2016-8-16T20:43:38Z</time></trkpt>
<trkpt lat="46.32085" lon="6.90951"><ele></ele><time>2016-8-16T20:43:41Z</time></trkpt>
<trkpt lat="46.32096" lon="6.90946"><ele></ele><time>2016-8-16T20:43:44Z</time></trkpt>
<trkpt lat="46.32107" lon="6.90941"><ele></ele><time>2016-8-16T20:43:47Z</time></trkpt>
<trkpt lat="46.32118" lon="6.90936"><ele></ele><time>2016-8-16T20:43:50Z</time></trkpt>
<trkpt lat="46.32129" lon="6.9093"><ele></ele><time>2016-8-16T20:43:53Z</time></trkpt>
<trkpt lat="46.3214" lon="6.90925"><ele></ele><time>2016-8-16T20:43:56Z</time></trkpt>
<trkpt lat="46.32151" lon="6.9092"><ele></ele><time>2016-8-16T20:43:59Z</time></trkpt>
<trkpt lat="46.32163" lon="6.90915"><ele></ele><time>2016-8-16T20:44:2Z</time></trkpt>
<trkpt lat="46.32174" lon="6.9091"><ele></ele><time>2016-8-16T20:44:5Z</time></trkpt>
<trkpt lat="46.32185" lon="6.90904"><ele></ele><time>2016-8-16T20:44:8Z</time></trkpt>
<trkpt lat="46.32196" lon="6.90898"><ele></ele><time>2016-8-16T20:44:11Z</time></trkpt>
<trkpt lat="46.32207" lon="6.90893"><ele></ele><time>2016-8-16T20:44:14Z</time></trkpt>
<trkpt lat="46.32218" lon="6.90887"><ele></ele><time>2016-8-16T20:44:17Z</time></trkpt>
<trkpt lat="46.32229" lon="6.90881"><ele></ele><time>2016-8-16T20:44:20Z</time></trkpt>
<trkpt lat="46.3224" lon="6.90875"><ele></ele><time>2016-8-16T20:44:23Z</time></trkpt>
<trkpt lat="46.32251" lon="6.90869"><ele></ele><time>2016-8-16T20:44:26Z</time></trkpt>
<trkpt lat="46.32262" lon="6.90864"><ele></ele><time>2016-8-16T20:44:29Z</time></trkpt>
<trkpt lat="46.32274" lon="6.90858"><ele></ele><time>2016-8-16T20:44:32Z</time></trkpt>
<trkpt lat="46.32285" lon="6.90852"><ele></ele><time>2016-8-16T20:44:35Z</time></trkpt>
<trkpt lat="46.32296" lon="6.90846"><ele></ele><time>2016-8-16T20:44:38Z</time></trkpt>
<trkpt lat="46.32307" lon="6.90841"><ele></ele><time>2016-8-16T20:44:41Z</time></trkpt>
<trkpt lat="46.32317" lon="6.90835"><ele></ele><time>2016-8-16T20:44:44Z</time></trkpt>
<trkpt lat="46.32322" lon="6.90831"><ele></ele><time>2016-8-16T20:44:47Z</time></trkpt>
<trkpt lat="46.32324" lon="6.90825"><ele></ele><time>2016-8-16T20:44:50Z</time></trkpt>
<trkpt lat="46.32325" lon="6.90819"><ele></ele><time>2016-8-16T20:44:53Z</time></trkpt>
<trkpt lat="46.32322" lon="6.90812"><ele></ele><time>2016-8-16T20:44:56Z</time></trkpt>
<trkpt lat="46.32316" lon="6.90799"><ele></ele><time>2016-8-16T20:44:59Z</time></trkpt>
<trkpt lat="46.32311" lon="6.90785"><ele></ele><time>2016-8-16T20:45:2Z</time></trkpt>
<trkpt lat="46.32305" lon="6.90772"><ele></ele><time>2016-8-16T20:45:5Z</time></trkpt>
<trkpt lat="46.323" lon="6.90758"><ele></ele><time>2016-8-16T20:45:8Z</time></trkpt>
<trkpt lat="46.32296" lon="6.90744"><ele></ele><time>2016-8-16T20:45:11Z</time></trkpt>
<trkpt lat="46.32291" lon="6.9073"><ele></ele><time>2016-8-16T20:45:14Z</time></trkpt>
<trkpt lat="46.32287" lon="6.90715"><ele></ele><time>2016-8-16T20:45:17Z</time></trkpt>
<trkpt lat="46.32283" lon="6.90701"><ele></ele><time>2016-8-16T20:45:20Z</time></trkpt>
<trkpt lat="46.32281" lon="6.90694"><ele></ele><time>2016-8-16T20:45:23Z</time></trkpt>
<trkpt lat="46.32279" lon="6.90687"><ele></ele><time>2016-8-16T20:45:26Z</time></trkpt>
<trkpt lat="46.32275" lon="6.90673"><ele></ele><time>2016-8-16T20:45:29Z</time></trkpt>
<trkpt lat="46.32271" lon="6.9066"><ele></ele><time>2016-8-16T20:45:32Z</time></trkpt>
<trkpt lat="46.32267" lon="6.90646"><ele></ele><time>2016-8-16T20:45:35Z</time></trkpt>
<trkpt lat="46.32263" lon="6.90632"><ele></ele><time>2016-8-16T20:45:38Z</time></trkpt>
<trkpt lat="46.32258" lon="6.90619"><ele></ele><time>2016-8-16T20:45:41Z</time></trkpt>
<trkpt lat="46.32254" lon="6.90605"><ele></ele><time>2016-8-16T20:45:44Z</time></trkpt>
<trkpt lat="46.32249" lon="6.90592"><ele></ele><time>2016-8-16T20:45:47Z</time></trkpt>
<trkpt lat="46.32245" lon="6.90578"><ele></ele><time>2016-8-16T20:45:50Z</time></trkpt>
<trkpt lat="46.32242" lon="6.90572"><ele></ele><time>2016-8-16T20:45:53Z</time></trkpt>
<trkpt lat="46.3224" lon="6.90566"><ele></ele><time>2016-8-16T20:45:56Z</time></trkpt>
<trkpt lat="46.32235" lon="6.90555"><ele></ele><time>2016-8-16T20:45:59Z</time></trkpt>
<trkpt lat="46.32229" lon="6.90544"><ele></ele><time>2016-8-16T20:46:2Z</time></trkpt>
<trkpt lat="46.32225" lon="6.90533"><ele></ele><time>2016-8-16T20:46:5Z</time></trkpt>
<trkpt lat="46.32223" lon="6.90518"><ele></ele><time>2016-8-16T20:46:8Z</time></trkpt>
<trkpt lat="46.32222" lon="6.90503"><ele></ele><time>2016-8-16T20:46:11Z</time></trkpt>
<trkpt lat="46.3222" lon="6.90489"><ele></ele><time>2016-8-16T20:46:14Z</time></trkpt>
<trkpt lat="46.32218" lon="6.90474"><ele></ele><time>2016-8-16T20:46:17Z</time></trkpt>
<trkpt lat="46.32214" lon="6.90459"><ele></ele><time>2016-8-16T20:46:20Z</time></trkpt>
<trkpt lat="46.3221" lon="6.90444"><ele></ele><time>2016-8-16T20:46:23Z</time></trkpt>
<trkpt lat="46.32206" lon="6.9043"><ele></ele><time>2016-8-16T20:46:26Z</time></trkpt>
<trkpt lat="46.32203" lon="6.90415"><ele></ele><time>2016-8-16T20:46:29Z</time></trkpt>
<trkpt lat="46.32201" lon="6.90408"><ele></ele><time>2016-8-16T20:46:32Z</time></trkpt>
<trkpt lat="46.32199" lon="6.90401"><ele></ele><time>2016-8-16T20:46:35Z</time></trkpt>
<trkpt lat="46.32196" lon="6.90387"><ele></ele><time>2016-8-16T20:46:38Z</time></trkpt>
<trkpt lat="46.32193" lon="6.90373"><ele></ele><time>2016-8-16T20:46:41Z</time></trkpt>
<trkpt lat="46.32189" lon="6.90359"><ele></ele><time>2016-8-16T20:46:44Z</time></trkpt>
<trkpt lat="46.32186" lon="6.90345"><ele></ele><time>2016-8-16T20:46:47Z</time></trkpt>
<trkpt lat="46.32184" lon="6.90328"><ele></ele><time>2016-8-16T20:46:50Z</time></trkpt>
<trkpt lat="46.32182" lon="6.90312"><ele></ele><time>2016-8-16T20:46:53Z</time></trkpt>
<trkpt lat="46.3218" lon="6.90295"><ele></ele><time>2016-8-16T20:46:56Z</time></trkpt>
<trkpt lat="46.32177" lon="6.90278"><ele></ele><time>2016-8-16T20:46:59Z</time></trkpt>
<trkpt lat="46.32174" lon="6.9026"><ele></ele><time>2016-8-16T20:47:2Z</time></trkpt>
<trkpt lat="46.32171" lon="6.90242"><ele></ele><time>2016-8-16T20:47:5Z</time></trkpt>
<trkpt lat="46.32168" lon="6.90224"><ele></ele><time>2016-8-16T20:47:8Z</time></trkpt>
<trkpt lat="46.32166" lon="6.90215"><ele></ele><time>2016-8-16T20:47:11Z</time></trkpt>
<trkpt lat="46.32164" lon="6.90206"><ele></ele><time>2016-8-16T20:47:14Z</time></trkpt>
<trkpt lat="46.3216" lon="6.90189"><ele></ele><time>2016-8-16T20:47:17Z</time></trkpt>
<trkpt lat="46.32155" lon="6.90172"><ele></ele><time>2016-8-16T20:47:20Z</time></trkpt>
<trkpt lat="46.3215" lon="6.90156"><ele></ele><time>2016-8-16T20:47:23Z</time></trkpt>
<trkpt lat="46.32142" lon="6.90143"><ele></ele><time>2016-8-16T20:47:26Z</time></trkpt>
<trkpt lat="46.32134" lon="6.90129"><ele></ele><time>2016-8-16T20:47:29Z</time></trkpt>
<trkpt lat="46.32125" lon="6.90116"><ele></ele><time>2016-8-16T20:47:32Z</time></trkpt>
<trkpt lat="46.32121" lon="6.9011"><ele></ele><time>2016-8-16T20:47:35Z</time></trkpt>
<trkpt lat="46.32116" lon="6.90105"><ele></ele><time>2016-8-16T20:47:38Z</time></trkpt>
<trkpt lat="46.32106" lon="6.90094"><ele></ele><time>2016-8-16T20:47:41Z</time></trkpt>
<trkpt lat="46.32097" lon="6.90083"><ele></ele><time>2016-8-16T20:47:44Z</time></trkpt>
<trkpt lat="46.32087" lon="6.90072"><ele></ele><time>2016-8-16T20:47:47Z</time></trkpt>
<trkpt lat="46.32082" lon="6.90066"><ele></ele><time>2016-8-16T20:47:50Z</time></trkpt>
<trkpt lat="46.32078" lon="6.90061"><ele></ele><time>2016-8-16T20:47:53Z</time></trkpt>
<trkpt lat="46.32069" lon="6.9005"><ele></ele><time>2016-8-16T20:47:56Z</time></trkpt>
<trkpt lat="46.32059" lon="6.90039"><ele></ele><time>2016-8-16T20:47:59Z</time></trkpt>
<trkpt lat="46.3205" lon="6.90029"><ele></ele><time>2016-8-16T20:48:2Z</time></trkpt>
<trkpt lat="46.32046" lon="6.90023"><ele></ele><time>2016-8-16T20:48:5Z</time></trkpt>
<trkpt lat="46.32042" lon="6.90019"><ele></ele><time>2016-8-16T20:48:8Z</time></trkpt>
<trkpt lat="46.32034" lon="6.90009"><ele></ele><time>2016-8-16T20:48:11Z</time></trkpt>
<trkpt lat="46.32026" lon="6.89999"><ele></ele><time>2016-8-16T20:48:14Z</time></trkpt>
<trkpt lat="46.32018" lon="6.89989"><ele></ele><time>2016-8-16T20:48:17Z</time></trkpt>
<trkpt lat="46.32011" lon="6.89979"><ele></ele><time>2016-8-16T20:48:20Z</time></trkpt>
<trkpt lat="46.32005" lon="6.89966"><ele></ele><time>2016-8-16T20:48:23Z</time></trkpt>
<trkpt lat="46.31999" lon="6.89954"><ele></ele><time>2016-8-16T20:48:26Z</time></trkpt>
<trkpt lat="46.31993" lon="6.89942"><ele></ele><time>2016-8-16T20:48:29Z</time></trkpt>
<trkpt lat="46.3199" lon="6.89935"><ele></ele><time>2016-8-16T20:48:32Z</time></trkpt>
<trkpt lat="46.31987" lon="6.89929"><ele></ele><time>2016-8-16T20:48:35Z</time></trkpt>
<trkpt lat="46.31985" lon="6.89923"><ele></ele><time>2016-8-16T20:48:38Z</time></trkpt>
<trkpt lat="46.31982" lon="6.89916"><ele></ele><time>2016-8-16T20:48:41Z</time></trkpt>
<trkpt lat="46.31978" lon="6.89902"><ele></ele><time>2016-8-16T20:48:44Z</time></trkpt>
<trkpt lat="46.31973" lon="6.89889"><ele></ele><time>2016-8-16T20:48:47Z</time></trkpt>
<trkpt lat="46.31968" lon="6.89875"><ele></ele><time>2016-8-16T20:48:50Z</time></trkpt>
<trkpt lat="46.31963" lon="6.89862"><ele></ele><time>2016-8-16T20:48:53Z</time></trkpt>
<trkpt lat="46.31956" lon="6.89856"><ele></ele><time>2016-8-16T20:48:56Z</time></trkpt>
<trkpt lat="46.31946" lon="6.89864"><ele></ele><time>2016-8-16T20:48:59Z</time></trkpt>
<trkpt lat="46.31936" lon="6.89872"><ele></ele><time>2016-8-16T20:49:2Z</time></trkpt>
<trkpt lat="46.31926" lon="6.89881"><ele></ele><time>2016-8-16T20:49:5Z</time></trkpt>
<trkpt lat="46.31915" lon="6.89889"><ele></ele><time>2016-8-16T20:49:8Z</time></trkpt>
<trkpt lat="46.31904" lon="6.89898"><ele></ele><time>2016-8-16T20:49:11Z</time></trkpt>
<trkpt lat="46.31893" lon="6.89907"><ele></ele><time>2016-8-16T20:49:14Z</time></trkpt>
<trkpt lat="46.31882" lon="6.89917"><ele></ele><time>2016-8-16T20:49:17Z</time></trkpt>
<trkpt lat="46.31871" lon="6.89926"><ele></ele><time>2016-8-16T20:49:20Z</time></trkpt>
<trkpt lat="46.3186" lon="6.89934"><ele></ele><time>2016-8-16T20:49:23Z</time></trkpt>
<trkpt lat="46.31849" lon="6.89943"><ele></ele><time>2016-8-16T20:49:26Z</time></trkpt>
<trkpt lat="46.31839" lon="6.89951"><ele></ele><time>2016-8-16T20:49:29Z</time></trkpt>
<trkpt lat="46.31828" lon="6.89959"><ele></ele><time>2016-8-16T20:49:32Z</time></trkpt>
<trkpt lat="46.31818" lon="6.89967"><ele></ele><time>2016-8-16T20:49:35Z</time></trkpt>
<trkpt lat="46.31808" lon="6.89975"><ele></ele><time>2016-8-16T20:49:38Z</time></trkpt>
<trkpt lat="46.31797" lon="6.89983"><ele></ele><time>2016-8-16T20:49:41Z</time></trkpt>
<trkpt lat="46.31787" lon="6.89991"><ele></ele><time>2016-8-16T20:49:44Z</time></trkpt>
<trkpt lat="46.31776" lon="6.89998"><ele></ele><time>2016-8-16T20:49:47Z</time></trkpt>
<trkpt lat="46.31766" lon="6.90006"><ele></ele><time>2016-8-16T20:49:50Z</time></trkpt>
<trkpt lat="46.31755" lon="6.90014"><ele></ele><time>2016-8-16T20:49:53Z</time></trkpt>
<trkpt lat="46.31745" lon="6.90021"><ele></ele><time>2016-8-16T20:49:56Z</time></trkpt>
<trkpt lat="46.31737" lon="6.90028"><ele></ele><time>2016-8-16T20:49:59Z</time></trkpt>
<trkpt lat="46.31729" lon="6.90035"><ele></ele><time>2016-8-16T20:50:2Z</time></trkpt>
<trkpt lat="46.31722" lon="6.90042"><ele></ele><time>2016-8-16T20:50:5Z</time></trkpt>
<trkpt lat="46.31714" lon="6.90049"><ele></ele><time>2016-8-16T20:50:8Z</time></trkpt>
<trkpt lat="46.31694" lon="6.90028"><ele></ele><time>2016-8-16T20:50:11Z</time></trkpt>
<trkpt lat="46.31694" lon="6.90028"><ele></ele><time>2016-8-16T20:50:14Z</time></trkpt>
<trkpt lat="46.3168" lon="6.90001"><ele></ele><time>2016-8-16T20:50:17Z</time></trkpt>
<trkpt lat="46.31679" lon="6.9"><ele></ele><time>2016-8-16T20:50:20Z</time></trkpt>
<trkpt lat="46.31679" lon="6.89998"><ele></ele><time>2016-8-16T20:50:23Z</time></trkpt>
<trkpt lat="46.31678" lon="6.89997"><ele></ele><time>2016-8-16T20:50:26Z</time></trkpt>
<trkpt lat="46.31678" lon="6.89995"><ele></ele><time>2016-8-16T20:50:29Z</time></trkpt>
<trkpt lat="46.31677" lon="6.89994"><ele></ele><time>2016-8-16T20:50:32Z</time></trkpt>
<trkpt lat="46.31676" lon="6.8999"><ele></ele><time>2016-8-16T20:50:35Z</time></trkpt>
<trkpt lat="46.31672" lon="6.8998"><ele></ele><time>2016-8-16T20:50:38Z</time></trkpt>
<trkpt lat="46.31668" lon="6.89969"><ele></ele><time>2016-8-16T20:50:41Z</time></trkpt>
<trkpt lat="46.31664" lon="6.89959"><ele></ele><time>2016-8-16T20:50:44Z</time></trkpt>
<trkpt lat="46.3166" lon="6.89948"><ele></ele><time>2016-8-16T20:50:47Z</time></trkpt>
<trkpt lat="46.31655" lon="6.89938"><ele></ele><time>2016-8-16T20:50:50Z</time></trkpt>
<trkpt lat="46.31654" lon="6.89933"><ele></ele><time>2016-8-16T20:50:53Z</time></trkpt>
<trkpt lat="46.31652" lon="6.89928"><ele></ele><time>2016-8-16T20:50:56Z</time></trkpt>
<trkpt lat="46.31648" lon="6.89918"><ele></ele><time>2016-8-16T20:50:59Z</time></trkpt>
<trkpt lat="46.31645" lon="6.89908"><ele></ele><time>2016-8-16T20:51:2Z</time></trkpt>
<trkpt lat="46.31642" lon="6.89898"><ele></ele><time>2016-8-16T20:51:5Z</time></trkpt>
<trkpt lat="46.3164" lon="6.89893"><ele></ele><time>2016-8-16T20:51:8Z</time></trkpt>
<trkpt lat="46.31638" lon="6.89888"><ele></ele><time>2016-8-16T20:51:11Z</time></trkpt>
<trkpt lat="46.31635" lon="6.89878"><ele></ele><time>2016-8-16T20:51:14Z</time></trkpt>
<trkpt lat="46.31634" lon="6.89873"><ele></ele><time>2016-8-16T20:51:17Z</time></trkpt>
<trkpt lat="46.31634" lon="6.89869"><ele></ele><time>2016-8-16T20:51:20Z</time></trkpt>
<trkpt lat="46.31633" lon="6.89861"><ele></ele><time>2016-8-16T20:51:23Z</time></trkpt>
<trkpt lat="46.31633" lon="6.89852"><ele></ele><time>2016-8-16T20:51:26Z</time></trkpt>
<trkpt lat="46.31634" lon="6.89848"><ele></ele><time>2016-8-16T20:51:29Z</time></trkpt>
<trkpt lat="46.31638" lon="6.89845"><ele></ele><time>2016-8-16T20:51:32Z</time></trkpt>
<trkpt lat="46.31644" lon="6.89839"><ele></ele><time>2016-8-16T20:51:35Z</time></trkpt>
<trkpt lat="46.31651" lon="6.89833"><ele></ele><time>2016-8-16T20:51:38Z</time></trkpt>
<trkpt lat="46.31658" lon="6.89827"><ele></ele><time>2016-8-16T20:51:41Z</time></trkpt>
<trkpt lat="46.31668" lon="6.8982"><ele></ele><time>2016-8-16T20:51:44Z</time></trkpt>
<trkpt lat="46.31677" lon="6.89813"><ele></ele><time>2016-8-16T20:51:47Z</time></trkpt>
<trkpt lat="46.31686" lon="6.89805"><ele></ele><time>2016-8-16T20:51:50Z</time></trkpt>
<trkpt lat="46.31695" lon="6.89798"><ele></ele><time>2016-8-16T20:51:53Z</time></trkpt>
<trkpt lat="46.317" lon="6.89793"><ele></ele><time>2016-8-16T20:51:56Z</time></trkpt>
<trkpt lat="46.31705" lon="6.89788"><ele></ele><time>2016-8-16T20:51:59Z</time></trkpt>
<trkpt lat="46.31715" lon="6.89777"><ele></ele><time>2016-8-16T20:52:2Z</time></trkpt>
<trkpt lat="46.31726" lon="6.89767"><ele></ele><time>2016-8-16T20:52:5Z</time></trkpt>
<trkpt lat="46.31736" lon="6.89756"><ele></ele><time>2016-8-16T20:52:8Z</time></trkpt>
<trkpt lat="46.31741" lon="6.89751"><ele></ele><time>2016-8-16T20:52:11Z</time></trkpt>
<trkpt lat="46.31746" lon="6.89745"><ele></ele><time>2016-8-16T20:52:14Z</time></trkpt>
<trkpt lat="46.31757" lon="6.89735"><ele></ele><time>2016-8-16T20:52:17Z</time></trkpt>
<trkpt lat="46.31767" lon="6.89724"><ele></ele><time>2016-8-16T20:52:20Z</time></trkpt>
<trkpt lat="46.31773" lon="6.89719"><ele></ele><time>2016-8-16T20:52:23Z</time></trkpt>
<trkpt lat="46.31779" lon="6.89715"><ele></ele><time>2016-8-16T20:52:26Z</time></trkpt>
<trkpt lat="46.3179" lon="6.89706"><ele></ele><time>2016-8-16T20:52:29Z</time></trkpt>
<trkpt lat="46.31801" lon="6.89698"><ele></ele><time>2016-8-16T20:52:32Z</time></trkpt>
<trkpt lat="46.31813" lon="6.89689"><ele></ele><time>2016-8-16T20:52:35Z</time></trkpt>
<trkpt lat="46.31819" lon="6.89685"><ele></ele><time>2016-8-16T20:52:38Z</time></trkpt>
<trkpt lat="46.31825" lon="6.89679"><ele></ele><time>2016-8-16T20:52:41Z</time></trkpt>
<trkpt lat="46.31838" lon="6.89669"><ele></ele><time>2016-8-16T20:52:44Z</time></trkpt>
<trkpt lat="46.31851" lon="6.89664"><ele></ele><time>2016-8-16T20:52:47Z</time></trkpt>
<trkpt lat="46.31864" lon="6.8966"><ele></ele><time>2016-8-16T20:52:50Z</time></trkpt>
<trkpt lat="46.31876" lon="6.89655"><ele></ele><time>2016-8-16T20:52:53Z</time></trkpt>
<trkpt lat="46.31882" lon="6.89652"><ele></ele><time>2016-8-16T20:52:56Z</time></trkpt>
<trkpt lat="46.31887" lon="6.89649"><ele></ele><time>2016-8-16T20:52:59Z</time></trkpt>
<trkpt lat="46.31898" lon="6.89642"><ele></ele><time>2016-8-16T20:53:2Z</time></trkpt>
<trkpt lat="46.31908" lon="6.89637"><ele></ele><time>2016-8-16T20:53:5Z</time></trkpt>
<trkpt lat="46.31919" lon="6.89635"><ele></ele><time>2016-8-16T20:53:8Z</time></trkpt>
<trkpt lat="46.31929" lon="6.89633"><ele></ele><time>2016-8-16T20:53:11Z</time></trkpt>
<trkpt lat="46.31939" lon="6.89631"><ele></ele><time>2016-8-16T20:53:14Z</time></trkpt>
<trkpt lat="46.31949" lon="6.89629"><ele></ele><time>2016-8-16T20:53:17Z</time></trkpt>
<trkpt lat="46.31954" lon="6.89629"><ele></ele><time>2016-8-16T20:53:20Z</time></trkpt>
<trkpt lat="46.31959" lon="6.89628"><ele></ele><time>2016-8-16T20:53:23Z</time></trkpt>
<trkpt lat="46.31968" lon="6.89628"><ele></ele><time>2016-8-16T20:53:26Z</time></trkpt>
<trkpt lat="46.31977" lon="6.89627"><ele></ele><time>2016-8-16T20:53:29Z</time></trkpt>
<trkpt lat="46.31982" lon="6.89627"><ele></ele><time>2016-8-16T20:53:32Z</time></trkpt>
<trkpt lat="46.31987" lon="6.89627"><ele></ele><time>2016-8-16T20:53:35Z</time></trkpt>
<trkpt lat="46.31996" lon="6.89626"><ele></ele><time>2016-8-16T20:53:38Z</time></trkpt>
<trkpt lat="46.32001" lon="6.89626"><ele></ele><time>2016-8-16T20:53:41Z</time></trkpt>
<trkpt lat="46.32006" lon="6.89626"><ele></ele><time>2016-8-16T20:53:44Z</time></trkpt>
<trkpt lat="46.32015" lon="6.89627"><ele></ele><time>2016-8-16T20:53:47Z</time></trkpt>
<trkpt lat="46.32025" lon="6.89627"><ele></ele><time>2016-8-16T20:53:50Z</time></trkpt>
<trkpt lat="46.32034" lon="6.89627"><ele></ele><time>2016-8-16T20:53:53Z</time></trkpt>
<trkpt lat="46.32044" lon="6.89627"><ele></ele><time>2016-8-16T20:53:56Z</time></trkpt>
<trkpt lat="46.32049" lon="6.89627"><ele></ele><time>2016-8-16T20:53:59Z</time></trkpt>
<trkpt lat="46.32054" lon="6.89627"><ele></ele><time>2016-8-16T20:54:2Z</time></trkpt>
<trkpt lat="46.32063" lon="6.89627"><ele></ele><time>2016-8-16T20:54:5Z</time></trkpt>
<trkpt lat="46.32073" lon="6.89627"><ele></ele><time>2016-8-16T20:54:8Z</time></trkpt>
<trkpt lat="46.32083" lon="6.89627"><ele></ele><time>2016-8-16T20:54:11Z</time></trkpt>
<trkpt lat="46.32092" lon="6.89627"><ele></ele><time>2016-8-16T20:54:14Z</time></trkpt>
<trkpt lat="46.32097" lon="6.89627"><ele></ele><time>2016-8-16T20:54:17Z</time></trkpt>
<trkpt lat="46.32101" lon="6.89627"><ele></ele><time>2016-8-16T20:54:20Z</time></trkpt>
<trkpt lat="46.3211" lon="6.89627"><ele></ele><time>2016-8-16T20:54:23Z</time></trkpt>
<trkpt lat="46.32119" lon="6.89627"><ele></ele><time>2016-8-16T20:54:26Z</time></trkpt>
<trkpt lat="46.32128" lon="6.89627"><ele></ele><time>2016-8-16T20:54:29Z</time></trkpt>
<trkpt lat="46.32138" lon="6.89627"><ele></ele><time>2016-8-16T20:54:32Z</time></trkpt>
<trkpt lat="46.32142" lon="6.89627"><ele></ele><time>2016-8-16T20:54:35Z</time></trkpt>
<trkpt lat="46.32147" lon="6.89626"><ele></ele><time>2016-8-16T20:54:38Z</time></trkpt>
<trkpt lat="46.32157" lon="6.89626"><ele></ele><time>2016-8-16T20:54:41Z</time></trkpt>
<trkpt lat="46.32166" lon="6.89625"><ele></ele><time>2016-8-16T20:54:44Z</time></trkpt>
<trkpt lat="46.32176" lon="6.89625"><ele></ele><time>2016-8-16T20:54:47Z</time></trkpt>
<trkpt lat="46.32186" lon="6.89624"><ele></ele><time>2016-8-16T20:54:50Z</time></trkpt>
<trkpt lat="46.32191" lon="6.89624"><ele></ele><time>2016-8-16T20:54:53Z</time></trkpt>
<trkpt lat="46.32196" lon="6.89623"><ele></ele><time>2016-8-16T20:54:56Z</time></trkpt>
<trkpt lat="46.32206" lon="6.89622"><ele></ele><time>2016-8-16T20:54:59Z</time></trkpt>
<trkpt lat="46.32216" lon="6.89621"><ele></ele><time>2016-8-16T20:55:2Z</time></trkpt>
<trkpt lat="46.32226" lon="6.8962"><ele></ele><time>2016-8-16T20:55:5Z</time></trkpt>
<trkpt lat="46.32236" lon="6.89619"><ele></ele><time>2016-8-16T20:55:8Z</time></trkpt>
<trkpt lat="46.32242" lon="6.89618"><ele></ele><time>2016-8-16T20:55:11Z</time></trkpt>
<trkpt lat="46.32247" lon="6.89616"><ele></ele><time>2016-8-16T20:55:14Z</time></trkpt>
<trkpt lat="46.32259" lon="6.89611"><ele></ele><time>2016-8-16T20:55:17Z</time></trkpt>
<trkpt lat="46.3227" lon="6.89607"><ele></ele><time>2016-8-16T20:55:20Z</time></trkpt>
<trkpt lat="46.32281" lon="6.89603"><ele></ele><time>2016-8-16T20:55:23Z</time></trkpt>
<trkpt lat="46.32287" lon="6.896"><ele></ele><time>2016-8-16T20:55:26Z</time></trkpt>
<trkpt lat="46.32292" lon="6.89596"><ele></ele><time>2016-8-16T20:55:29Z</time></trkpt>
<trkpt lat="46.32303" lon="6.8959"><ele></ele><time>2016-8-16T20:55:32Z</time></trkpt>
<trkpt lat="46.32314" lon="6.89583"><ele></ele><time>2016-8-16T20:55:35Z</time></trkpt>
<trkpt lat="46.32325" lon="6.89576"><ele></ele><time>2016-8-16T20:55:38Z</time></trkpt>
<trkpt lat="46.32331" lon="6.89572"><ele></ele><time>2016-8-16T20:55:41Z</time></trkpt>
<trkpt lat="46.32337" lon="6.89567"><ele></ele><time>2016-8-16T20:55:44Z</time></trkpt>
<trkpt lat="46.32348" lon="6.89556"><ele></ele><time>2016-8-16T20:55:47Z</time></trkpt>
<trkpt lat="46.3236" lon="6.89545"><ele></ele><time>2016-8-16T20:55:50Z</time></trkpt>
<trkpt lat="46.32372" lon="6.89533"><ele></ele><time>2016-8-16T20:55:53Z</time></trkpt>
<trkpt lat="46.32385" lon="6.8952"><ele></ele><time>2016-8-16T20:55:56Z</time></trkpt>
<trkpt lat="46.32398" lon="6.89506"><ele></ele><time>2016-8-16T20:55:59Z</time></trkpt>
<trkpt lat="46.32411" lon="6.89492"><ele></ele><time>2016-8-16T20:56:2Z</time></trkpt>
<trkpt lat="46.32425" lon="6.89477"><ele></ele><time>2016-8-16T20:56:5Z</time></trkpt>
<trkpt lat="46.32438" lon="6.89462"><ele></ele><time>2016-8-16T20:56:8Z</time></trkpt>
<trkpt lat="46.32452" lon="6.89447"><ele></ele><time>2016-8-16T20:56:11Z</time></trkpt>
<trkpt lat="46.32465" lon="6.89431"><ele></ele><time>2016-8-16T20:56:14Z</time></trkpt>
<trkpt lat="46.32472" lon="6.89423"><ele></ele><time>2016-8-16T20:56:17Z</time></trkpt>
<trkpt lat="46.32478" lon="6.89415"><ele></ele><time>2016-8-16T20:56:20Z</time></trkpt>
<trkpt lat="46.32491" lon="6.89399"><ele></ele><time>2016-8-16T20:56:23Z</time></trkpt>
<trkpt lat="46.32505" lon="6.89383"><ele></ele><time>2016-8-16T20:56:26Z</time></trkpt>
<trkpt lat="46.32519" lon="6.89367"><ele></ele><time>2016-8-16T20:56:29Z</time></trkpt>
<trkpt lat="46.32533" lon="6.89352"><ele></ele><time>2016-8-16T20:56:32Z</time></trkpt>
<trkpt lat="46.32547" lon="6.89337"><ele></ele><time>2016-8-16T20:56:35Z</time></trkpt>
<trkpt lat="46.32561" lon="6.89322"><ele></ele><time>2016-8-16T20:56:38Z</time></trkpt>
<trkpt lat="46.32575" lon="6.89308"><ele></ele><time>2016-8-16T20:56:41Z</time></trkpt>
<trkpt lat="46.32589" lon="6.89294"><ele></ele><time>2016-8-16T20:56:44Z</time></trkpt>
<trkpt lat="46.32604" lon="6.89281"><ele></ele><time>2016-8-16T20:56:47Z</time></trkpt>
<trkpt lat="46.32618" lon="6.89267"><ele></ele><time>2016-8-16T20:56:50Z</time></trkpt>
<trkpt lat="46.32633" lon="6.89253"><ele></ele><time>2016-8-16T20:56:53Z</time></trkpt>
<trkpt lat="46.32647" lon="6.89239"><ele></ele><time>2016-8-16T20:56:56Z</time></trkpt>
<trkpt lat="46.32662" lon="6.89226"><ele></ele><time>2016-8-16T20:56:59Z</time></trkpt>
<trkpt lat="46.32674" lon="6.89217"><ele></ele><time>2016-8-16T20:57:2Z</time></trkpt>
<trkpt lat="46.32687" lon="6.8921"><ele></ele><time>2016-8-16T20:57:5Z</time></trkpt>
<trkpt lat="46.32697" lon="6.89213"><ele></ele><time>2016-8-16T20:57:8Z</time></trkpt>
<trkpt lat="46.32699" lon="6.8922"><ele></ele><time>2016-8-16T20:57:11Z</time></trkpt>
<trkpt lat="46.327" lon="6.89231"><ele></ele><time>2016-8-16T20:57:14Z</time></trkpt>
<trkpt lat="46.32706" lon="6.8925"><ele></ele><time>2016-8-16T20:57:17Z</time></trkpt>
<trkpt lat="46.32711" lon="6.8927"><ele></ele><time>2016-8-16T20:57:20Z</time></trkpt>
<trkpt lat="46.32713" lon="6.8928"><ele></ele><time>2016-8-16T20:57:23Z</time></trkpt>
<trkpt lat="46.32716" lon="6.89289"><ele></ele><time>2016-8-16T20:57:26Z</time></trkpt>
<trkpt lat="46.32718" lon="6.89299"><ele></ele><time>2016-8-16T20:57:29Z</time></trkpt>
<trkpt lat="46.32721" lon="6.89309"><ele></ele><time>2016-8-16T20:57:32Z</time></trkpt>
<trkpt lat="46.32726" lon="6.89328"><ele></ele><time>2016-8-16T20:57:35Z</time></trkpt>
<trkpt lat="46.3273" lon="6.89348"><ele></ele><time>2016-8-16T20:57:38Z</time></trkpt>
<trkpt lat="46.32735" lon="6.89367"><ele></ele><time>2016-8-16T20:57:41Z</time></trkpt>
<trkpt lat="46.32741" lon="6.89385"><ele></ele><time>2016-8-16T20:57:44Z</time></trkpt>
<trkpt lat="46.32747" lon="6.89403"><ele></ele><time>2016-8-16T20:57:47Z</time></trkpt>
<trkpt lat="46.32752" lon="6.8942"><ele></ele><time>2016-8-16T20:57:50Z</time></trkpt>
<trkpt lat="46.32755" lon="6.89429"><ele></ele><time>2016-8-16T20:57:53Z</time></trkpt>
<trkpt lat="46.32757" lon="6.89438"><ele></ele><time>2016-8-16T20:57:56Z</time></trkpt>
<trkpt lat="46.32762" lon="6.89456"><ele></ele><time>2016-8-16T20:57:59Z</time></trkpt>
<trkpt lat="46.32767" lon="6.89474"><ele></ele><time>2016-8-16T20:58:2Z</time></trkpt>
<trkpt lat="46.32772" lon="6.89492"><ele></ele><time>2016-8-16T20:58:5Z</time></trkpt>
<trkpt lat="46.32777" lon="6.8951"><ele></ele><time>2016-8-16T20:58:8Z</time></trkpt>
<trkpt lat="46.32781" lon="6.89529"><ele></ele><time>2016-8-16T20:58:11Z</time></trkpt>
<trkpt lat="46.32786" lon="6.89547"><ele></ele><time>2016-8-16T20:58:14Z</time></trkpt>
<trkpt lat="46.32789" lon="6.89556"><ele></ele><time>2016-8-16T20:58:17Z</time></trkpt>
<trkpt lat="46.32792" lon="6.89564"><ele></ele><time>2016-8-16T20:58:20Z</time></trkpt>
<trkpt lat="46.32798" lon="6.89581"><ele></ele><time>2016-8-16T20:58:23Z</time></trkpt>
<trkpt lat="46.32804" lon="6.89599"><ele></ele><time>2016-8-16T20:58:26Z</time></trkpt>
<trkpt lat="46.32809" lon="6.89616"><ele></ele><time>2016-8-16T20:58:29Z</time></trkpt>
<trkpt lat="46.32815" lon="6.89635"><ele></ele><time>2016-8-16T20:58:32Z</time></trkpt>
<trkpt lat="46.3282" lon="6.89654"><ele></ele><time>2016-8-16T20:58:35Z</time></trkpt>
<trkpt lat="46.32825" lon="6.89673"><ele></ele><time>2016-8-16T20:58:38Z</time></trkpt>
<trkpt lat="46.32828" lon="6.89683"><ele></ele><time>2016-8-16T20:58:41Z</time></trkpt>
<trkpt lat="46.3283" lon="6.89692"><ele></ele><time>2016-8-16T20:58:44Z</time></trkpt>
<trkpt lat="46.32836" lon="6.89711"><ele></ele><time>2016-8-16T20:58:47Z</time></trkpt>
<trkpt lat="46.32841" lon="6.89729"><ele></ele><time>2016-8-16T20:58:50Z</time></trkpt>
<trkpt lat="46.32846" lon="6.89747"><ele></ele><time>2016-8-16T20:58:53Z</time></trkpt>
<trkpt lat="46.3285" lon="6.89763"><ele></ele><time>2016-8-16T20:58:56Z</time></trkpt>
<trkpt lat="46.32855" lon="6.89778"><ele></ele><time>2016-8-16T20:58:59Z</time></trkpt>
<trkpt lat="46.3286" lon="6.89794"><ele></ele><time>2016-8-16T20:59:2Z</time></trkpt>
<trkpt lat="46.32864" lon="6.89809"><ele></ele><time>2016-8-16T20:59:5Z</time></trkpt>
<trkpt lat="46.32868" lon="6.89823"><ele></ele><time>2016-8-16T20:59:8Z</time></trkpt>
<trkpt lat="46.32872" lon="6.89837"><ele></ele><time>2016-8-16T20:59:11Z</time></trkpt>
<trkpt lat="46.32877" lon="6.89851"><ele></ele><time>2016-8-16T20:59:14Z</time></trkpt>
<trkpt lat="46.32881" lon="6.89865"><ele></ele><time>2016-8-16T20:59:17Z</time></trkpt>
<trkpt lat="46.32883" lon="6.89872"><ele></ele><time>2016-8-16T20:59:20Z</time></trkpt>
<trkpt lat="46.32885" lon="6.89878"><ele></ele><time>2016-8-16T20:59:23Z</time></trkpt>
<trkpt lat="46.32889" lon="6.89891"><ele></ele><time>2016-8-16T20:59:26Z</time></trkpt>
<trkpt lat="46.32893" lon="6.89904"><ele></ele><time>2016-8-16T20:59:29Z</time></trkpt>
<trkpt lat="46.32898" lon="6.89914"><ele></ele><time>2016-8-16T20:59:32Z</time></trkpt>
<trkpt lat="46.32904" lon="6.89913"><ele></ele><time>2016-8-16T20:59:35Z</time></trkpt>
<trkpt lat="46.3291" lon="6.89911"><ele></ele><time>2016-8-16T20:59:38Z</time></trkpt>
<trkpt lat="46.32918" lon="6.89905"><ele></ele><time>2016-8-16T20:59:41Z</time></trkpt>
<trkpt lat="46.32927" lon="6.89898"><ele></ele><time>2016-8-16T20:59:44Z</time></trkpt>
<trkpt lat="46.32936" lon="6.89892"><ele></ele><time>2016-8-16T20:59:47Z</time></trkpt>
<trkpt lat="46.32945" lon="6.89885"><ele></ele><time>2016-8-16T20:59:50Z</time></trkpt>
<trkpt lat="46.32954" lon="6.89879"><ele></ele><time>2016-8-16T20:59:53Z</time></trkpt>
<trkpt lat="46.32964" lon="6.89872"><ele></ele><time>2016-8-16T20:59:56Z</time></trkpt>
<trkpt lat="46.32974" lon="6.89865"><ele></ele><time>2016-8-16T20:59:59Z</time></trkpt>
<trkpt lat="46.32984" lon="6.89858"><ele></ele><time>2016-8-16T21:0:2Z</time></trkpt>
<trkpt lat="46.32995" lon="6.89851"><ele></ele><time>2016-8-16T21:0:5Z</time></trkpt>
<trkpt lat="46.33" lon="6.89847"><ele></ele><time>2016-8-16T21:0:8Z</time></trkpt>
<trkpt lat="46.33006" lon="6.89843"><ele></ele><time>2016-8-16T21:0:11Z</time></trkpt>
<trkpt lat="46.33017" lon="6.89835"><ele></ele><time>2016-8-16T21:0:14Z</time></trkpt>
<trkpt lat="46.33028" lon="6.89828"><ele></ele><time>2016-8-16T21:0:17Z</time></trkpt>
<trkpt lat="46.3304" lon="6.8982"><ele></ele><time>2016-8-16T21:0:20Z</time></trkpt>
<trkpt lat="46.33046" lon="6.89816"><ele></ele><time>2016-8-16T21:0:23Z</time></trkpt>
<trkpt lat="46.33051" lon="6.89812"><ele></ele><time>2016-8-16T21:0:26Z</time></trkpt>
<trkpt lat="46.33063" lon="6.89805"><ele></ele><time>2016-8-16T21:0:29Z</time></trkpt>
<trkpt lat="46.33075" lon="6.89797"><ele></ele><time>2016-8-16T21:0:32Z</time></trkpt>
<trkpt lat="46.33087" lon="6.8979"><ele></ele><time>2016-8-16T21:0:35Z</time></trkpt>
<trkpt lat="46.33092" lon="6.89786"><ele></ele><time>2016-8-16T21:0:38Z</time></trkpt>
<trkpt lat="46.33098" lon="6.89782"><ele></ele><time>2016-8-16T21:0:41Z</time></trkpt>
<trkpt lat="46.33109" lon="6.89774"><ele></ele><time>2016-8-16T21:0:44Z</time></trkpt>
<trkpt lat="46.3312" lon="6.89766"><ele></ele><time>2016-8-16T21:0:47Z</time></trkpt>
<trkpt lat="46.3313" lon="6.89758"><ele></ele><time>2016-8-16T21:0:50Z</time></trkpt>
<trkpt lat="46.33136" lon="6.89755"><ele></ele><time>2016-8-16T21:0:53Z</time></trkpt>
<trkpt lat="46.33141" lon="6.89751"><ele></ele><time>2016-8-16T21:0:56Z</time></trkpt>
<trkpt lat="46.33151" lon="6.89745"><ele></ele><time>2016-8-16T21:0:59Z</time></trkpt>
<trkpt lat="46.33161" lon="6.89738"><ele></ele><time>2016-8-16T21:1:2Z</time></trkpt>
<trkpt lat="46.33171" lon="6.89731"><ele></ele><time>2016-8-16T21:1:5Z</time></trkpt>
<trkpt lat="46.3318" lon="6.89725"><ele></ele><time>2016-8-16T21:1:8Z</time></trkpt>
<trkpt lat="46.33189" lon="6.89719"><ele></ele><time>2016-8-16T21:1:11Z</time></trkpt>
<trkpt lat="46.33197" lon="6.89713"><ele></ele><time>2016-8-16T21:1:14Z</time></trkpt>
<trkpt lat="46.33205" lon="6.89707"><ele></ele><time>2016-8-16T21:1:17Z</time></trkpt>
<trkpt lat="46.33213" lon="6.89701"><ele></ele><time>2016-8-16T21:1:20Z</time></trkpt>
<trkpt lat="46.33221" lon="6.89696"><ele></ele><time>2016-8-16T21:1:23Z</time></trkpt>
<trkpt lat="46.33228" lon="6.8969"><ele></ele><time>2016-8-16T21:1:26Z</time></trkpt>
<trkpt lat="46.33236" lon="6.89685"><ele></ele><time>2016-8-16T21:1:29Z</time></trkpt>
<trkpt lat="46.33244" lon="6.8968"><ele></ele><time>2016-8-16T21:1:32Z</time></trkpt>
<trkpt lat="46.33251" lon="6.89674"><ele></ele><time>2016-8-16T21:1:35Z</time></trkpt>
<trkpt lat="46.33255" lon="6.89672"><ele></ele><time>2016-8-16T21:1:38Z</time></trkpt>
<trkpt lat="46.33259" lon="6.89669"><ele></ele><time>2016-8-16T21:1:41Z</time></trkpt>
<trkpt lat="46.33266" lon="6.89664"><ele></ele><time>2016-8-16T21:1:44Z</time></trkpt>
<trkpt lat="46.33274" lon="6.89658"><ele></ele><time>2016-8-16T21:1:47Z</time></trkpt>
<trkpt lat="46.33281" lon="6.89653"><ele></ele><time>2016-8-16T21:1:50Z</time></trkpt>
<trkpt lat="46.33289" lon="6.89648"><ele></ele><time>2016-8-16T21:1:53Z</time></trkpt>
<trkpt lat="46.33296" lon="6.89643"><ele></ele><time>2016-8-16T21:1:56Z</time></trkpt>
<trkpt lat="46.33303" lon="6.89638"><ele></ele><time>2016-8-16T21:1:59Z</time></trkpt>
<trkpt lat="46.3331" lon="6.89633"><ele></ele><time>2016-8-16T21:2:2Z</time></trkpt>
<trkpt lat="46.33317" lon="6.89628"><ele></ele><time>2016-8-16T21:2:5Z</time></trkpt>
<trkpt lat="46.33323" lon="6.89622"><ele></ele><time>2016-8-16T21:2:8Z</time></trkpt>
<trkpt lat="46.3333" lon="6.89617"><ele></ele><time>2016-8-16T21:2:11Z</time></trkpt>
<trkpt lat="46.33337" lon="6.89612"><ele></ele><time>2016-8-16T21:2:14Z</time></trkpt>
<trkpt lat="46.33344" lon="6.89608"><ele></ele><time>2016-8-16T21:2:17Z</time></trkpt>
<trkpt lat="46.33351" lon="6.89603"><ele></ele><time>2016-8-16T21:2:20Z</time></trkpt>
<trkpt lat="46.33358" lon="6.89598"><ele></ele><time>2016-8-16T21:2:23Z</time></trkpt>
<trkpt lat="46.33364" lon="6.89593"><ele></ele><time>2016-8-16T21:2:26Z</time></trkpt>
<trkpt lat="46.33371" lon="6.89588"><ele></ele><time>2016-8-16T21:2:29Z</time></trkpt>
<trkpt lat="46.33378" lon="6.89583"><ele></ele><time>2016-8-16T21:2:32Z</time></trkpt>
<trkpt lat="46.33385" lon="6.89578"><ele></ele><time>2016-8-16T21:2:35Z</time></trkpt>
<trkpt lat="46.33393" lon="6.89572"><ele></ele><time>2016-8-16T21:2:38Z</time></trkpt>
<trkpt lat="46.334" lon="6.89567"><ele></ele><time>2016-8-16T21:2:41Z</time></trkpt>
<trkpt lat="46.33407" lon="6.89562"><ele></ele><time>2016-8-16T21:2:44Z</time></trkpt>
<trkpt lat="46.33414" lon="6.89556"><ele></ele><time>2016-8-16T21:2:47Z</time></trkpt>
<trkpt lat="46.33422" lon="6.89551"><ele></ele><time>2016-8-16T21:2:50Z</time></trkpt>
<trkpt lat="46.33429" lon="6.89547"><ele></ele><time>2016-8-16T21:2:53Z</time></trkpt>
<trkpt lat="46.33436" lon="6.89543"><ele></ele><time>2016-8-16T21:2:56Z</time></trkpt>
<trkpt lat="46.33444" lon="6.89539"><ele></ele><time>2016-8-16T21:2:59Z</time></trkpt>
<trkpt lat="46.33451" lon="6.89535"><ele></ele><time>2016-8-16T21:3:2Z</time></trkpt>
<trkpt lat="46.33458" lon="6.8953"><ele></ele><time>2016-8-16T21:3:5Z</time></trkpt>
<trkpt lat="46.33466" lon="6.89526"><ele></ele><time>2016-8-16T21:3:8Z</time></trkpt>
<trkpt lat="46.33472" lon="6.89522"><ele></ele><time>2016-8-16T21:3:11Z</time></trkpt>
<trkpt lat="46.33479" lon="6.8952"><ele></ele><time>2016-8-16T21:3:14Z</time></trkpt>
<trkpt lat="46.33485" lon="6.89526"><ele></ele><time>2016-8-16T21:3:17Z</time></trkpt>
<trkpt lat="46.33488" lon="6.89539"><ele></ele><time>2016-8-16T21:3:20Z</time></trkpt>
<trkpt lat="46.33489" lon="6.89552"><ele></ele><time>2016-8-16T21:3:23Z</time></trkpt>
<trkpt lat="46.33491" lon="6.89566"><ele></ele><time>2016-8-16T21:3:26Z</time></trkpt>
<trkpt lat="46.33492" lon="6.8958"><ele></ele><time>2016-8-16T21:3:29Z</time></trkpt>
<trkpt lat="46.33493" lon="6.89593"><ele></ele><time>2016-8-16T21:3:32Z</time></trkpt>
<trkpt lat="46.33495" lon="6.89606"><ele></ele><time>2016-8-16T21:3:35Z</time></trkpt>
<trkpt lat="46.33498" lon="6.89617"><ele></ele><time>2016-8-16T21:3:38Z</time></trkpt>
<trkpt lat="46.33501" lon="6.89629"><ele></ele><time>2016-8-16T21:3:41Z</time></trkpt>
<trkpt lat="46.33503" lon="6.8964"><ele></ele><time>2016-8-16T21:3:44Z</time></trkpt>
<trkpt lat="46.33506" lon="6.89651"><ele></ele><time>2016-8-16T21:3:47Z</time></trkpt>
<trkpt lat="46.33509" lon="6.89662"><ele></ele><time>2016-8-16T21:3:50Z</time></trkpt>
<trkpt lat="46.33511" lon="6.89668"><ele></ele><time>2016-8-16T21:3:53Z</time></trkpt>
<trkpt lat="46.33512" lon="6.89673"><ele></ele><time>2016-8-16T21:3:56Z</time></trkpt>
<trkpt lat="46.33516" lon="6.89685"><ele></ele><time>2016-8-16T21:3:59Z</time></trkpt>
<trkpt lat="46.33519" lon="6.89697"><ele></ele><time>2016-8-16T21:4:2Z</time></trkpt>
<trkpt lat="46.33522" lon="6.89709"><ele></ele><time>2016-8-16T21:4:5Z</time></trkpt>
<trkpt lat="46.33526" lon="6.89721"><ele></ele><time>2016-8-16T21:4:8Z</time></trkpt>
<trkpt lat="46.33529" lon="6.89733"><ele></ele><time>2016-8-16T21:4:11Z</time></trkpt>
<trkpt lat="46.33533" lon="6.89746"><ele></ele><time>2016-8-16T21:4:14Z</time></trkpt>
<trkpt lat="46.33537" lon="6.89759"><ele></ele><time>2016-8-16T21:4:17Z</time></trkpt>
<trkpt lat="46.33541" lon="6.89771"><ele></ele><time>2016-8-16T21:4:20Z</time></trkpt>
<trkpt lat="46.33544" lon="6.89784"><ele></ele><time>2016-8-16T21:4:23Z</time></trkpt>
<trkpt lat="46.33549" lon="6.89796"><ele></ele><time>2016-8-16T21:4:26Z</time></trkpt>
<trkpt lat="46.33552" lon="6.89802"><ele></ele><time>2016-8-16T21:4:29Z</time></trkpt>
<trkpt lat="46.33553" lon="6.89808"><ele></ele><time>2016-8-16T21:4:32Z</time></trkpt>
<trkpt lat="46.33557" lon="6.8982"><ele></ele><time>2016-8-16T21:4:35Z</time></trkpt>
<trkpt lat="46.33561" lon="6.89832"><ele></ele><time>2016-8-16T21:4:38Z</time></trkpt>
<trkpt lat="46.33564" lon="6.89844"><ele></ele><time>2016-8-16T21:4:41Z</time></trkpt>
<trkpt lat="46.33569" lon="6.89854"><ele></ele><time>2016-8-16T21:4:44Z</time></trkpt>
<trkpt lat="46.33576" lon="6.89857"><ele></ele><time>2016-8-16T21:4:47Z</time></trkpt>
<trkpt lat="46.3358" lon="6.89855"><ele></ele><time>2016-8-16T21:4:50Z</time></trkpt>
<trkpt lat="46.33582" lon="6.8985"><ele></ele><time>2016-8-16T21:4:53Z</time></trkpt>
<trkpt lat="46.33588" lon="6.8984"><ele></ele><time>2016-8-16T21:4:56Z</time></trkpt>
<trkpt lat="46.33594" lon="6.8983"><ele></ele><time>2016-8-16T21:4:59Z</time></trkpt>
<trkpt lat="46.336" lon="6.8982"><ele></ele><time>2016-8-16T21:5:2Z</time></trkpt>
<trkpt lat="46.33605" lon="6.8981"><ele></ele><time>2016-8-16T21:5:5Z</time></trkpt>
<trkpt lat="46.33608" lon="6.89804"><ele></ele><time>2016-8-16T21:5:8Z</time></trkpt>
<trkpt lat="46.33611" lon="6.89799"><ele></ele><time>2016-8-16T21:5:11Z</time></trkpt>
<trkpt lat="46.33616" lon="6.89787"><ele></ele><time>2016-8-16T21:5:14Z</time></trkpt>
<trkpt lat="46.33622" lon="6.89776"><ele></ele><time>2016-8-16T21:5:17Z</time></trkpt>
<trkpt lat="46.33627" lon="6.89765"><ele></ele><time>2016-8-16T21:5:20Z</time></trkpt>
<trkpt lat="46.33633" lon="6.89754"><ele></ele><time>2016-8-16T21:5:23Z</time></trkpt>
<trkpt lat="46.33636" lon="6.89749"><ele></ele><time>2016-8-16T21:5:26Z</time></trkpt>
<trkpt lat="46.33638" lon="6.89744"><ele></ele><time>2016-8-16T21:5:29Z</time></trkpt>
<trkpt lat="46.33644" lon="6.89734"><ele></ele><time>2016-8-16T21:5:32Z</time></trkpt>
<trkpt lat="46.3365" lon="6.89724"><ele></ele><time>2016-8-16T21:5:35Z</time></trkpt>
<trkpt lat="46.33655" lon="6.89714"><ele></ele><time>2016-8-16T21:5:38Z</time></trkpt>
<trkpt lat="46.33661" lon="6.89705"><ele></ele><time>2016-8-16T21:5:41Z</time></trkpt>
<trkpt lat="46.33666" lon="6.89695"><ele></ele><time>2016-8-16T21:5:44Z</time></trkpt>
<trkpt lat="46.3367" lon="6.89687"><ele></ele><time>2016-8-16T21:5:47Z</time></trkpt>
<trkpt lat="46.33674" lon="6.89679"><ele></ele><time>2016-8-16T21:5:50Z</time></trkpt>
<trkpt lat="46.33678" lon="6.89671"><ele></ele><time>2016-8-16T21:5:53Z</time></trkpt>
<trkpt lat="46.33682" lon="6.89662"><ele></ele><time>2016-8-16T21:5:56Z</time></trkpt>
<trkpt lat="46.33686" lon="6.89654"><ele></ele><time>2016-8-16T21:5:59Z</time></trkpt>
<trkpt lat="46.3369" lon="6.89646"><ele></ele><time>2016-8-16T21:6:2Z</time></trkpt>
<trkpt lat="46.33691" lon="6.89642"><ele></ele><time>2016-8-16T21:6:5Z</time></trkpt>
<trkpt lat="46.33691" lon="6.89638"><ele></ele><time>2016-8-16T21:6:8Z</time></trkpt>
<trkpt lat="46.33691" lon="6.89631"><ele></ele><time>2016-8-16T21:6:11Z</time></trkpt>
<trkpt lat="46.33691" lon="6.89624"><ele></ele><time>2016-8-16T21:6:14Z</time></trkpt>
<trkpt lat="46.33692" lon="6.89617"><ele></ele><time>2016-8-16T21:6:17Z</time></trkpt>
<trkpt lat="46.33693" lon="6.89615"><ele></ele><time>2016-8-16T21:6:20Z</time></trkpt>
<trkpt lat="46.33696" lon="6.89615"><ele></ele><time>2016-8-16T21:6:23Z</time></trkpt>
<trkpt lat="46.33701" lon="6.89615"><ele></ele><time>2016-8-16T21:6:26Z</time></trkpt>
<trkpt lat="46.33703" lon="6.89616"><ele></ele><time>2016-8-16T21:6:29Z</time></trkpt>
<trkpt lat="46.33706" lon="6.89619"><ele></ele><time>2016-8-16T21:6:32Z</time></trkpt>
<trkpt lat="46.3371" lon="6.89624"><ele></ele><time>2016-8-16T21:6:35Z</time></trkpt>
<trkpt lat="46.33714" lon="6.8963"><ele></ele><time>2016-8-16T21:6:38Z</time></trkpt>
<trkpt lat="46.33718" lon="6.89634"><ele></ele><time>2016-8-16T21:6:41Z</time></trkpt>
<trkpt lat="46.33722" lon="6.89631"><ele></ele><time>2016-8-16T21:6:44Z</time></trkpt>
<trkpt lat="46.33725" lon="6.89628"><ele></ele><time>2016-8-16T21:6:47Z</time></trkpt>
<trkpt lat="46.33729" lon="6.89626"><ele></ele><time>2016-8-16T21:6:50Z</time></trkpt>
<trkpt lat="46.33732" lon="6.89623"><ele></ele><time>2016-8-16T21:6:53Z</time></trkpt>
<trkpt lat="46.33736" lon="6.8962"><ele></ele><time>2016-8-16T21:6:56Z</time></trkpt>
<trkpt lat="46.33739" lon="6.89618"><ele></ele><time>2016-8-16T21:6:59Z</time></trkpt>
<trkpt lat="46.33743" lon="6.89615"><ele></ele><time>2016-8-16T21:7:2Z</time></trkpt>
<trkpt lat="46.33746" lon="6.89613"><ele></ele><time>2016-8-16T21:7:5Z</time></trkpt>
<trkpt lat="46.3375" lon="6.8961"><ele></ele><time>2016-8-16T21:7:8Z</time></trkpt>
<trkpt lat="46.33753" lon="6.89607"><ele></ele><time>2016-8-16T21:7:11Z</time></trkpt>
<trkpt lat="46.33755" lon="6.89606"><ele></ele><time>2016-8-16T21:7:14Z</time></trkpt>
<trkpt lat="46.33756" lon="6.89606"><ele></ele><time>2016-8-16T21:7:17Z</time></trkpt>
<trkpt lat="46.33758" lon="6.89606"><ele></ele><time>2016-8-16T21:7:20Z</time></trkpt>
<trkpt lat="46.33761" lon="6.89605"><ele></ele><time>2016-8-16T21:7:23Z</time></trkpt>
<trkpt lat="46.33763" lon="6.89604"><ele></ele><time>2016-8-16T21:7:26Z</time></trkpt>
<trkpt lat="46.33766" lon="6.89604"><ele></ele><time>2016-8-16T21:7:29Z</time></trkpt>
<trkpt lat="46.33769" lon="6.89603"><ele></ele><time>2016-8-16T21:7:32Z</time></trkpt>
<trkpt lat="46.33771" lon="6.89603"><ele></ele><time>2016-8-16T21:7:35Z</time></trkpt>
<trkpt lat="46.33774" lon="6.89602"><ele></ele><time>2016-8-16T21:7:38Z</time></trkpt>
<trkpt lat="46.33776" lon="6.89602"><ele></ele><time>2016-8-16T21:7:41Z</time></trkpt>
<trkpt lat="46.33779" lon="6.89601"><ele></ele><time>2016-8-16T21:7:44Z</time></trkpt>
<trkpt lat="46.33781" lon="6.89601"><ele></ele><time>2016-8-16T21:7:47Z</time></trkpt>
<trkpt lat="46.33783" lon="6.89601"><ele></ele><time>2016-8-16T21:7:50Z</time></trkpt>
<trkpt lat="46.3378" lon="6.89604"><ele></ele><time>2016-8-16T21:7:53Z</time></trkpt>
<trkpt lat="46.33778" lon="6.89607"><ele></ele><time>2016-8-16T21:7:56Z</time></trkpt>
<trkpt lat="46.33776" lon="6.8961"><ele></ele><time>2016-8-16T21:7:59Z</time></trkpt>
<trkpt lat="46.33773" lon="6.89613"><ele></ele><time>2016-8-16T21:8:2Z</time></trkpt>
<trkpt lat="46.33771" lon="6.89614"><ele></ele><time>2016-8-16T21:8:5Z</time></trkpt>
<trkpt lat="46.33768" lon="6.89615"><ele></ele><time>2016-8-16T21:8:8Z</time></trkpt>
<trkpt lat="46.33762" lon="6.89616"><ele></ele><time>2016-8-16T21:8:11Z</time></trkpt>
<trkpt lat="46.33757" lon="6.89617"><ele></ele><time>2016-8-16T21:8:14Z</time></trkpt>
<trkpt lat="46.33751" lon="6.89618"><ele></ele><time>2016-8-16T21:8:17Z</time></trkpt>
<trkpt lat="46.33745" lon="6.89619"><ele></ele><time>2016-8-16T21:8:20Z</time></trkpt>
<trkpt lat="46.33739" lon="6.8962"><ele></ele><time>2016-8-16T21:8:23Z</time></trkpt>
<trkpt lat="46.33733" lon="6.89622"><ele></ele><time>2016-8-16T21:8:26Z</time></trkpt>
<trkpt lat="46.33725" lon="6.89631"><ele></ele><time>2016-8-16T21:8:29Z</time></trkpt>
<trkpt lat="46.33718" lon="6.89638"><ele></ele><time>2016-8-16T21:8:32Z</time></trkpt>
<trkpt lat="46.33709" lon="6.89641"><ele></ele><time>2016-8-16T21:8:35Z</time></trkpt>
<trkpt lat="46.33699" lon="6.89645"><ele></ele><time>2016-8-16T21:8:38Z</time></trkpt>
<trkpt lat="46.33696" lon="6.89647"><ele></ele><time>2016-8-16T21:8:41Z</time></trkpt>
<trkpt lat="46.33694" lon="6.89651"><ele></ele><time>2016-8-16T21:8:44Z</time></trkpt>
<trkpt lat="46.33691" lon="6.89659"><ele></ele><time>2016-8-16T21:8:47Z</time></trkpt>
<trkpt lat="46.33693" lon="6.89671"><ele></ele><time>2016-8-16T21:8:50Z</time></trkpt>
<trkpt lat="46.33695" lon="6.89684"><ele></ele><time>2016-8-16T21:8:53Z</time></trkpt>
<trkpt lat="46.33697" lon="6.89696"><ele></ele><time>2016-8-16T21:8:56Z</time></trkpt>
<trkpt lat="46.33698" lon="6.89708"><ele></ele><time>2016-8-16T21:8:59Z</time></trkpt>
<trkpt lat="46.337" lon="6.8972"><ele></ele><time>2016-8-16T21:9:2Z</time></trkpt>
<trkpt lat="46.33702" lon="6.89726"><ele></ele><time>2016-8-16T21:9:5Z</time></trkpt>
<trkpt lat="46.33703" lon="6.89732"><ele></ele><time>2016-8-16T21:9:8Z</time></trkpt>
<trkpt lat="46.33707" lon="6.89745"><ele></ele><time>2016-8-16T21:9:11Z</time></trkpt>
<trkpt lat="46.3371" lon="6.89757"><ele></ele><time>2016-8-16T21:9:14Z</time></trkpt>
<trkpt lat="46.33714" lon="6.89769"><ele></ele><time>2016-8-16T21:9:17Z</time></trkpt>
<trkpt lat="46.33717" lon="6.89782"><ele></ele><time>2016-8-16T21:9:20Z</time></trkpt>
<trkpt lat="46.33719" lon="6.89788"><ele></ele><time>2016-8-16T21:9:23Z</time></trkpt>
<trkpt lat="46.3372" lon="6.89795"><ele></ele><time>2016-8-16T21:9:26Z</time></trkpt>
<trkpt lat="46.33723" lon="6.89808"><ele></ele><time>2016-8-16T21:9:29Z</time></trkpt>
<trkpt lat="46.33725" lon="6.89821"><ele></ele><time>2016-8-16T21:9:32Z</time></trkpt>
<trkpt lat="46.33727" lon="6.89834"><ele></ele><time>2016-8-16T21:9:35Z</time></trkpt>
<trkpt lat="46.3373" lon="6.89847"><ele></ele><time>2016-8-16T21:9:38Z</time></trkpt>
<trkpt lat="46.33731" lon="6.89854"><ele></ele><time>2016-8-16T21:9:41Z</time></trkpt>
<trkpt lat="46.33731" lon="6.89861"><ele></ele><time>2016-8-16T21:9:44Z</time></trkpt>
<trkpt lat="46.33733" lon="6.89876"><ele></ele><time>2016-8-16T21:9:47Z</time></trkpt>
<trkpt lat="46.33734" lon="6.8989"><ele></ele><time>2016-8-16T21:9:50Z</time></trkpt>
<trkpt lat="46.33736" lon="6.89905"><ele></ele><time>2016-8-16T21:9:53Z</time></trkpt>
<trkpt lat="46.33737" lon="6.89919"><ele></ele><time>2016-8-16T21:9:56Z</time></trkpt>
<trkpt lat="46.33738" lon="6.89934"><ele></ele><time>2016-8-16T21:9:59Z</time></trkpt>
<trkpt lat="46.33739" lon="6.89948"><ele></ele><time>2016-8-16T21:10:2Z</time></trkpt>
<trkpt lat="46.3374" lon="6.89962"><ele></ele><time>2016-8-16T21:10:5Z</time></trkpt>
<trkpt lat="46.33742" lon="6.89977"><ele></ele><time>2016-8-16T21:10:8Z</time></trkpt>
<trkpt lat="46.33743" lon="6.89991"><ele></ele><time>2016-8-16T21:10:11Z</time></trkpt>
<trkpt lat="46.33745" lon="6.90007"><ele></ele><time>2016-8-16T21:10:14Z</time></trkpt>
<trkpt lat="46.33746" lon="6.90022"><ele></ele><time>2016-8-16T21:10:17Z</time></trkpt>
<trkpt lat="46.33748" lon="6.90037"><ele></ele><time>2016-8-16T21:10:20Z</time></trkpt>
<trkpt lat="46.3375" lon="6.90052"><ele></ele><time>2016-8-16T21:10:23Z</time></trkpt>
<trkpt lat="46.33751" lon="6.9006"><ele></ele><time>2016-8-16T21:10:26Z</time></trkpt>
<trkpt lat="46.33751" lon="6.90067"><ele></ele><time>2016-8-16T21:10:29Z</time></trkpt>
<trkpt lat="46.33753" lon="6.90082"><ele></ele><time>2016-8-16T21:10:32Z</time></trkpt>
<trkpt lat="46.33754" lon="6.90097"><ele></ele><time>2016-8-16T21:10:35Z</time></trkpt>
<trkpt lat="46.33755" lon="6.90112"><ele></ele><time>2016-8-16T21:10:38Z</time></trkpt>
<trkpt lat="46.33757" lon="6.90127"><ele></ele><time>2016-8-16T21:10:41Z</time></trkpt>
<trkpt lat="46.33759" lon="6.90142"><ele></ele><time>2016-8-16T21:10:44Z</time></trkpt>
<trkpt lat="46.3376" lon="6.90157"><ele></ele><time>2016-8-16T21:10:47Z</time></trkpt>
<trkpt lat="46.33762" lon="6.90172"><ele></ele><time>2016-8-16T21:10:50Z</time></trkpt>
<trkpt lat="46.33764" lon="6.90188"><ele></ele><time>2016-8-16T21:10:53Z</time></trkpt>
<trkpt lat="46.33764" lon="6.90195"><ele></ele><time>2016-8-16T21:10:56Z</time></trkpt>
<trkpt lat="46.33765" lon="6.90202"><ele></ele><time>2016-8-16T21:10:59Z</time></trkpt>
<trkpt lat="46.33767" lon="6.90216"><ele></ele><time>2016-8-16T21:11:2Z</time></trkpt>
<trkpt lat="46.33768" lon="6.90231"><ele></ele><time>2016-8-16T21:11:5Z</time></trkpt>
<trkpt lat="46.3377" lon="6.90244"><ele></ele><time>2016-8-16T21:11:8Z</time></trkpt>
<trkpt lat="46.33774" lon="6.90257"><ele></ele><time>2016-8-16T21:11:11Z</time></trkpt>
<trkpt lat="46.33778" lon="6.9027"><ele></ele><time>2016-8-16T21:11:14Z</time></trkpt>
<trkpt lat="46.33781" lon="6.90283"><ele></ele><time>2016-8-16T21:11:17Z</time></trkpt>
<trkpt lat="46.33782" lon="6.903"><ele></ele><time>2016-8-16T21:11:20Z</time></trkpt>
<trkpt lat="46.33784" lon="6.90316"><ele></ele><time>2016-8-16T21:11:23Z</time></trkpt>
<trkpt lat="46.33786" lon="6.90333"><ele></ele><time>2016-8-16T21:11:26Z</time></trkpt>
<trkpt lat="46.33787" lon="6.9035"><ele></ele><time>2016-8-16T21:11:29Z</time></trkpt>
<trkpt lat="46.33789" lon="6.90367"><ele></ele><time>2016-8-16T21:11:32Z</time></trkpt>
<trkpt lat="46.3379" lon="6.90384"><ele></ele><time>2016-8-16T21:11:35Z</time></trkpt>
<trkpt lat="46.33792" lon="6.90401"><ele></ele><time>2016-8-16T21:11:38Z</time></trkpt>
<trkpt lat="46.33794" lon="6.90417"><ele></ele><time>2016-8-16T21:11:41Z</time></trkpt>
<trkpt lat="46.33795" lon="6.90433"><ele></ele><time>2016-8-16T21:11:44Z</time></trkpt>
<trkpt lat="46.33797" lon="6.90449"><ele></ele><time>2016-8-16T21:11:47Z</time></trkpt>
<trkpt lat="46.33798" lon="6.90465"><ele></ele><time>2016-8-16T21:11:50Z</time></trkpt>
<trkpt lat="46.338" lon="6.90481"><ele></ele><time>2016-8-16T21:11:53Z</time></trkpt>
<trkpt lat="46.33801" lon="6.90489"><ele></ele><time>2016-8-16T21:11:56Z</time></trkpt>
<trkpt lat="46.33802" lon="6.90497"><ele></ele><time>2016-8-16T21:11:59Z</time></trkpt>
<trkpt lat="46.33804" lon="6.90512"><ele></ele><time>2016-8-16T21:12:2Z</time></trkpt>
<trkpt lat="46.33805" lon="6.90528"><ele></ele><time>2016-8-16T21:12:5Z</time></trkpt>
<trkpt lat="46.33807" lon="6.90543"><ele></ele><time>2016-8-16T21:12:8Z</time></trkpt>
<trkpt lat="46.33809" lon="6.90559"><ele></ele><time>2016-8-16T21:12:11Z</time></trkpt>
<trkpt lat="46.3381" lon="6.90573"><ele></ele><time>2016-8-16T21:12:14Z</time></trkpt>
<trkpt lat="46.33812" lon="6.90588"><ele></ele><time>2016-8-16T21:12:17Z</time></trkpt>
<trkpt lat="46.33813" lon="6.90603"><ele></ele><time>2016-8-16T21:12:20Z</time></trkpt>
<trkpt lat="46.33814" lon="6.90618"><ele></ele><time>2016-8-16T21:12:23Z</time></trkpt>
<trkpt lat="46.33815" lon="6.90625"><ele></ele><time>2016-8-16T21:12:26Z</time></trkpt>
<trkpt lat="46.33816" lon="6.90633"><ele></ele><time>2016-8-16T21:12:29Z</time></trkpt>
<trkpt lat="46.33818" lon="6.90649"><ele></ele><time>2016-8-16T21:12:32Z</time></trkpt>
<trkpt lat="46.33819" lon="6.90665"><ele></ele><time>2016-8-16T21:12:35Z</time></trkpt>
<trkpt lat="46.33821" lon="6.90681"><ele></ele><time>2016-8-16T21:12:38Z</time></trkpt>
<trkpt lat="46.33822" lon="6.90697"><ele></ele><time>2016-8-16T21:12:41Z</time></trkpt>
<trkpt lat="46.33824" lon="6.90713"><ele></ele><time>2016-8-16T21:12:44Z</time></trkpt>
<trkpt lat="46.33825" lon="6.90729"><ele></ele><time>2016-8-16T21:12:47Z</time></trkpt>
<trkpt lat="46.33827" lon="6.90745"><ele></ele><time>2016-8-16T21:12:50Z</time></trkpt>
<trkpt lat="46.33828" lon="6.90753"><ele></ele><time>2016-8-16T21:12:53Z</time></trkpt>
<trkpt lat="46.33828" lon="6.90761"><ele></ele><time>2016-8-16T21:12:56Z</time></trkpt>
<trkpt lat="46.3383" lon="6.90776"><ele></ele><time>2016-8-16T21:12:59Z</time></trkpt>
<trkpt lat="46.33832" lon="6.90791"><ele></ele><time>2016-8-16T21:13:2Z</time></trkpt>
<trkpt lat="46.33833" lon="6.90807"><ele></ele><time>2016-8-16T21:13:5Z</time></trkpt>
<trkpt lat="46.33835" lon="6.90822"><ele></ele><time>2016-8-16T21:13:8Z</time></trkpt>
<trkpt lat="46.33837" lon="6.9084"><ele></ele><time>2016-8-16T21:13:11Z</time></trkpt>
<trkpt lat="46.33838" lon="6.90857"><ele></ele><time>2016-8-16T21:13:14Z</time></trkpt>
<trkpt lat="46.3384" lon="6.90874"><ele></ele><time>2016-8-16T21:13:17Z</time></trkpt>
<trkpt lat="46.33841" lon="6.90891"><ele></ele><time>2016-8-16T21:13:20Z</time></trkpt>
<trkpt lat="46.33843" lon="6.90907"><ele></ele><time>2016-8-16T21:13:23Z</time></trkpt>
<trkpt lat="46.33844" lon="6.90924"><ele></ele><time>2016-8-16T21:13:26Z</time></trkpt>
<trkpt lat="46.33846" lon="6.9094"><ele></ele><time>2016-8-16T21:13:29Z</time></trkpt>
<trkpt lat="46.33847" lon="6.90957"><ele></ele><time>2016-8-16T21:13:32Z</time></trkpt>
<trkpt lat="46.33849" lon="6.90974"><ele></ele><time>2016-8-16T21:13:35Z</time></trkpt>
<trkpt lat="46.33851" lon="6.90991"><ele></ele><time>2016-8-16T21:13:38Z</time></trkpt>
<trkpt lat="46.33853" lon="6.91008"><ele></ele><time>2016-8-16T21:13:41Z</time></trkpt>
<trkpt lat="46.33855" lon="6.91025"><ele></ele><time>2016-8-16T21:13:44Z</time></trkpt>
<trkpt lat="46.33856" lon="6.91043"><ele></ele><time>2016-8-16T21:13:47Z</time></trkpt>
<trkpt lat="46.33858" lon="6.9106"><ele></ele><time>2016-8-16T21:13:50Z</time></trkpt>
<trkpt lat="46.33859" lon="6.91078"><ele></ele><time>2016-8-16T21:13:53Z</time></trkpt>
<trkpt lat="46.3386" lon="6.91095"><ele></ele><time>2016-8-16T21:13:56Z</time></trkpt>
<trkpt lat="46.33862" lon="6.91113"><ele></ele><time>2016-8-16T21:13:59Z</time></trkpt>
<trkpt lat="46.33864" lon="6.9113"><ele></ele><time>2016-8-16T21:14:2Z</time></trkpt>
<trkpt lat="46.33866" lon="6.91147"><ele></ele><time>2016-8-16T21:14:5Z</time></trkpt>
<trkpt lat="46.33868" lon="6.91165"><ele></ele><time>2016-8-16T21:14:8Z</time></trkpt>
<trkpt lat="46.3387" lon="6.91181"><ele></ele><time>2016-8-16T21:14:11Z</time></trkpt>
<trkpt lat="46.33872" lon="6.91198"><ele></ele><time>2016-8-16T21:14:14Z</time></trkpt>
<trkpt lat="46.33874" lon="6.91215"><ele></ele><time>2016-8-16T21:14:17Z</time></trkpt>
<trkpt lat="46.33876" lon="6.91232"><ele></ele><time>2016-8-16T21:14:20Z</time></trkpt>
<trkpt lat="46.33877" lon="6.9125"><ele></ele><time>2016-8-16T21:14:23Z</time></trkpt>
<trkpt lat="46.33879" lon="6.91267"><ele></ele><time>2016-8-16T21:14:26Z</time></trkpt>
<trkpt lat="46.3388" lon="6.91285"><ele></ele><time>2016-8-16T21:14:29Z</time></trkpt>
<trkpt lat="46.33882" lon="6.91303"><ele></ele><time>2016-8-16T21:14:32Z</time></trkpt>
<trkpt lat="46.33884" lon="6.9132"><ele></ele><time>2016-8-16T21:14:35Z</time></trkpt>
<trkpt lat="46.33887" lon="6.91338"><ele></ele><time>2016-8-16T21:14:38Z</time></trkpt>
<trkpt lat="46.33889" lon="6.91356"><ele></ele><time>2016-8-16T21:14:41Z</time></trkpt>
<trkpt lat="46.33891" lon="6.91373"><ele></ele><time>2016-8-16T21:14:44Z</time></trkpt>
<trkpt lat="46.33894" lon="6.91389"><ele></ele><time>2016-8-16T21:14:47Z</time></trkpt>
<trkpt lat="46.33897" lon="6.91404"><ele></ele><time>2016-8-16T21:14:50Z</time></trkpt>
<trkpt lat="46.339" lon="6.9142"><ele></ele><time>2016-8-16T21:14:53Z</time></trkpt>
<trkpt lat="46.33903" lon="6.91436"><ele></ele><time>2016-8-16T21:14:56Z</time></trkpt>
<trkpt lat="46.33904" lon="6.91445"><ele></ele><time>2016-8-16T21:14:59Z</time></trkpt>
<trkpt lat="46.33905" lon="6.91454"><ele></ele><time>2016-8-16T21:15:2Z</time></trkpt>
<trkpt lat="46.33908" lon="6.91472"><ele></ele><time>2016-8-16T21:15:5Z</time></trkpt>
<trkpt lat="46.3391" lon="6.9149"><ele></ele><time>2016-8-16T21:15:8Z</time></trkpt>
<trkpt lat="46.33912" lon="6.91508"><ele></ele><time>2016-8-16T21:15:11Z</time></trkpt>
<trkpt lat="46.33914" lon="6.91517"><ele></ele><time>2016-8-16T21:15:14Z</time></trkpt>
<trkpt lat="46.33915" lon="6.91526"><ele></ele><time>2016-8-16T21:15:17Z</time></trkpt>
<trkpt lat="46.33916" lon="6.91544"><ele></ele><time>2016-8-16T21:15:20Z</time></trkpt>
<trkpt lat="46.33918" lon="6.91562"><ele></ele><time>2016-8-16T21:15:23Z</time></trkpt>
<trkpt lat="46.3392" lon="6.91581"><ele></ele><time>2016-8-16T21:15:26Z</time></trkpt>
<trkpt lat="46.33921" lon="6.9159"><ele></ele><time>2016-8-16T21:15:29Z</time></trkpt>
<trkpt lat="46.33921" lon="6.91598"><ele></ele><time>2016-8-16T21:15:32Z</time></trkpt>
<trkpt lat="46.33921" lon="6.91616"><ele></ele><time>2016-8-16T21:15:35Z</time></trkpt>
<trkpt lat="46.33922" lon="6.91634"><ele></ele><time>2016-8-16T21:15:38Z</time></trkpt>
<trkpt lat="46.33922" lon="6.91652"><ele></ele><time>2016-8-16T21:15:41Z</time></trkpt>
<trkpt lat="46.33922" lon="6.9166"><ele></ele><time>2016-8-16T21:15:44Z</time></trkpt>
<trkpt lat="46.3392" lon="6.91669"><ele></ele><time>2016-8-16T21:15:47Z</time></trkpt>
<trkpt lat="46.33917" lon="6.91687"><ele></ele><time>2016-8-16T21:15:50Z</time></trkpt>
<trkpt lat="46.33914" lon="6.91704"><ele></ele><time>2016-8-16T21:15:53Z</time></trkpt>
<trkpt lat="46.33912" lon="6.91722"><ele></ele><time>2016-8-16T21:15:56Z</time></trkpt>
<trkpt lat="46.3391" lon="6.91731"><ele></ele><time>2016-8-16T21:15:59Z</time></trkpt>
<trkpt lat="46.33907" lon="6.91739"><ele></ele><time>2016-8-16T21:16:2Z</time></trkpt>
<trkpt lat="46.33902" lon="6.91755"><ele></ele><time>2016-8-16T21:16:5Z</time></trkpt>
<trkpt lat="46.33897" lon="6.91771"><ele></ele><time>2016-8-16T21:16:8Z</time></trkpt>
<trkpt lat="46.33892" lon="6.91787"><ele></ele><time>2016-8-16T21:16:11Z</time></trkpt>
<trkpt lat="46.3389" lon="6.91795"><ele></ele><time>2016-8-16T21:16:14Z</time></trkpt>
<trkpt lat="46.33887" lon="6.91802"><ele></ele><time>2016-8-16T21:16:17Z</time></trkpt>
<trkpt lat="46.33882" lon="6.91818"><ele></ele><time>2016-8-16T21:16:20Z</time></trkpt>
<trkpt lat="46.33877" lon="6.91833"><ele></ele><time>2016-8-16T21:16:23Z</time></trkpt>
<trkpt lat="46.33872" lon="6.91849"><ele></ele><time>2016-8-16T21:16:26Z</time></trkpt>
<trkpt lat="46.33869" lon="6.91856"><ele></ele><time>2016-8-16T21:16:29Z</time></trkpt>
<trkpt lat="46.33866" lon="6.91864"><ele></ele><time>2016-8-16T21:16:32Z</time></trkpt>
<trkpt lat="46.33861" lon="6.9188"><ele></ele><time>2016-8-16T21:16:35Z</time></trkpt>
<trkpt lat="46.33854" lon="6.91894"><ele></ele><time>2016-8-16T21:16:38Z</time></trkpt>
<trkpt lat="46.33849" lon="6.919"><ele></ele><time>2016-8-16T21:16:41Z</time></trkpt>
<trkpt lat="46.33846" lon="6.91908"><ele></ele><time>2016-8-16T21:16:44Z</time></trkpt>
<trkpt lat="46.3384" lon="6.91923"><ele></ele><time>2016-8-16T21:16:47Z</time></trkpt>
<trkpt lat="46.33834" lon="6.91938"><ele></ele><time>2016-8-16T21:16:50Z</time></trkpt>
<trkpt lat="46.33829" lon="6.91954"><ele></ele><time>2016-8-16T21:16:53Z</time></trkpt>
<trkpt lat="46.33825" lon="6.91961"><ele></ele><time>2016-8-16T21:16:56Z</time></trkpt>
<trkpt lat="46.33821" lon="6.91968"><ele></ele><time>2016-8-16T21:16:59Z</time></trkpt>
<trkpt lat="46.33813" lon="6.91982"><ele></ele><time>2016-8-16T21:17:2Z</time></trkpt>
<trkpt lat="46.33805" lon="6.91996"><ele></ele><time>2016-8-16T21:17:5Z</time></trkpt>
<trkpt lat="46.33797" lon="6.9201"><ele></ele><time>2016-8-16T21:17:8Z</time></trkpt>
<trkpt lat="46.33792" lon="6.92016"><ele></ele><time>2016-8-16T21:17:11Z</time></trkpt>
<trkpt lat="46.33788" lon="6.92023"><ele></ele><time>2016-8-16T21:17:14Z</time></trkpt>
<trkpt lat="46.33778" lon="6.92036"><ele></ele><time>2016-8-16T21:17:17Z</time></trkpt>
<trkpt lat="46.33769" lon="6.92049"><ele></ele><time>2016-8-16T21:17:20Z</time></trkpt>
<trkpt lat="46.33759" lon="6.92061"><ele></ele><time>2016-8-16T21:17:23Z</time></trkpt>
<trkpt lat="46.3375" lon="6.92072"><ele></ele><time>2016-8-16T21:17:26Z</time></trkpt>
<trkpt lat="46.3374" lon="6.92083"><ele></ele><time>2016-8-16T21:17:29Z</time></trkpt>
<trkpt lat="46.3373" lon="6.92094"><ele></ele><time>2016-8-16T21:17:32Z</time></trkpt>
<trkpt lat="46.3372" lon="6.92105"><ele></ele><time>2016-8-16T21:17:35Z</time></trkpt>
<trkpt lat="46.33711" lon="6.92116"><ele></ele><time>2016-8-16T21:17:38Z</time></trkpt>
<trkpt lat="46.33701" lon="6.92126"><ele></ele><time>2016-8-16T21:17:41Z</time></trkpt>
<trkpt lat="46.33692" lon="6.92136"><ele></ele><time>2016-8-16T21:17:44Z</time></trkpt>
<trkpt lat="46.33682" lon="6.92147"><ele></ele><time>2016-8-16T21:17:47Z</time></trkpt>
<trkpt lat="46.33672" lon="6.92158"><ele></ele><time>2016-8-16T21:17:50Z</time></trkpt>
<trkpt lat="46.33662" lon="6.92168"><ele></ele><time>2016-8-16T21:17:53Z</time></trkpt>
<trkpt lat="46.33651" lon="6.92179"><ele></ele><time>2016-8-16T21:17:56Z</time></trkpt>
<trkpt lat="46.33645" lon="6.92184"><ele></ele><time>2016-8-16T21:17:59Z</time></trkpt>
<trkpt lat="46.33639" lon="6.92189"><ele></ele><time>2016-8-16T21:18:2Z</time></trkpt>
<trkpt lat="46.33629" lon="6.92201"><ele></ele><time>2016-8-16T21:18:5Z</time></trkpt>
<trkpt lat="46.33618" lon="6.92214"><ele></ele><time>2016-8-16T21:18:8Z</time></trkpt>
<trkpt lat="46.33613" lon="6.92218"><ele></ele><time>2016-8-16T21:18:11Z</time></trkpt>
<trkpt lat="46.33607" lon="6.92222"><ele></ele><time>2016-8-16T21:18:14Z</time></trkpt>
<trkpt lat="46.33597" lon="6.92233"><ele></ele><time>2016-8-16T21:18:17Z</time></trkpt>
<trkpt lat="46.33588" lon="6.92244"><ele></ele><time>2016-8-16T21:18:20Z</time></trkpt>
<trkpt lat="46.33579" lon="6.92255"><ele></ele><time>2016-8-16T21:18:23Z</time></trkpt>
<trkpt lat="46.33574" lon="6.92261"><ele></ele><time>2016-8-16T21:18:26Z</time></trkpt>
<trkpt lat="46.33569" lon="6.92266"><ele></ele><time>2016-8-16T21:18:29Z</time></trkpt>
<trkpt lat="46.3356" lon="6.92277"><ele></ele><time>2016-8-16T21:18:32Z</time></trkpt>
<trkpt lat="46.33551" lon="6.92288"><ele></ele><time>2016-8-16T21:18:35Z</time></trkpt>
<trkpt lat="46.33542" lon="6.92299"><ele></ele><time>2016-8-16T21:18:38Z</time></trkpt>
<trkpt lat="46.33531" lon="6.92308"><ele></ele><time>2016-8-16T21:18:41Z</time></trkpt>
<trkpt lat="46.33521" lon="6.92318"><ele></ele><time>2016-8-16T21:18:44Z</time></trkpt>
<trkpt lat="46.33511" lon="6.92328"><ele></ele><time>2016-8-16T21:18:47Z</time></trkpt>
<trkpt lat="46.335" lon="6.92338"><ele></ele><time>2016-8-16T21:18:50Z</time></trkpt>
<trkpt lat="46.3349" lon="6.9235"><ele></ele><time>2016-8-16T21:18:53Z</time></trkpt>
<trkpt lat="46.33481" lon="6.92361"><ele></ele><time>2016-8-16T21:18:56Z</time></trkpt>
<trkpt lat="46.33471" lon="6.92372"><ele></ele><time>2016-8-16T21:18:59Z</time></trkpt>
<trkpt lat="46.33461" lon="6.92384"><ele></ele><time>2016-8-16T21:19:2Z</time></trkpt>
<trkpt lat="46.3345" lon="6.92396"><ele></ele><time>2016-8-16T21:19:5Z</time></trkpt>
<trkpt lat="46.3344" lon="6.92408"><ele></ele><time>2016-8-16T21:19:8Z</time></trkpt>
<trkpt lat="46.33429" lon="6.92421"><ele></ele><time>2016-8-16T21:19:11Z</time></trkpt>
<trkpt lat="46.33424" lon="6.92427"><ele></ele><time>2016-8-16T21:19:14Z</time></trkpt>
<trkpt lat="46.3342" lon="6.92432"><ele></ele><time>2016-8-16T21:19:17Z</time></trkpt>
<trkpt lat="46.33411" lon="6.92441"><ele></ele><time>2016-8-16T21:19:20Z</time></trkpt>
<trkpt lat="46.33403" lon="6.92451"><ele></ele><time>2016-8-16T21:19:23Z</time></trkpt>
<trkpt lat="46.33394" lon="6.92461"><ele></ele><time>2016-8-16T21:19:26Z</time></trkpt>
<trkpt lat="46.33385" lon="6.92471"><ele></ele><time>2016-8-16T21:19:29Z</time></trkpt>
<trkpt lat="46.33375" lon="6.92483"><ele></ele><time>2016-8-16T21:19:32Z</time></trkpt>
<trkpt lat="46.33365" lon="6.92494"><ele></ele><time>2016-8-16T21:19:35Z</time></trkpt>
<trkpt lat="46.33356" lon="6.92505"><ele></ele><time>2016-8-16T21:19:38Z</time></trkpt>
<trkpt lat="46.33346" lon="6.92515"><ele></ele><time>2016-8-16T21:19:41Z</time></trkpt>
<trkpt lat="46.33336" lon="6.92526"><ele></ele><time>2016-8-16T21:19:44Z</time></trkpt>
<trkpt lat="46.33327" lon="6.92536"><ele></ele><time>2016-8-16T21:19:47Z</time></trkpt>
<trkpt lat="46.33317" lon="6.92548"><ele></ele><time>2016-8-16T21:19:50Z</time></trkpt>
<trkpt lat="46.33308" lon="6.9256"><ele></ele><time>2016-8-16T21:19:53Z</time></trkpt>
<trkpt lat="46.33298" lon="6.92572"><ele></ele><time>2016-8-16T21:19:56Z</time></trkpt>
<trkpt lat="46.33288" lon="6.92584"><ele></ele><time>2016-8-16T21:19:59Z</time></trkpt>
<trkpt lat="46.33279" lon="6.92595"><ele></ele><time>2016-8-16T21:20:2Z</time></trkpt>
<trkpt lat="46.3327" lon="6.92606"><ele></ele><time>2016-8-16T21:20:5Z</time></trkpt>
<trkpt lat="46.3326" lon="6.92618"><ele></ele><time>2016-8-16T21:20:8Z</time></trkpt>
<trkpt lat="46.33251" lon="6.92629"><ele></ele><time>2016-8-16T21:20:11Z</time></trkpt>
<trkpt lat="46.33241" lon="6.9264"><ele></ele><time>2016-8-16T21:20:14Z</time></trkpt>
<trkpt lat="46.33232" lon="6.92651"><ele></ele><time>2016-8-16T21:20:17Z</time></trkpt>
<trkpt lat="46.33222" lon="6.92662"><ele></ele><time>2016-8-16T21:20:20Z</time></trkpt>
<trkpt lat="46.33211" lon="6.92672"><ele></ele><time>2016-8-16T21:20:23Z</time></trkpt>
<trkpt lat="46.33199" lon="6.92683"><ele></ele><time>2016-8-16T21:20:26Z</time></trkpt>
<trkpt lat="46.33188" lon="6.92693"><ele></ele><time>2016-8-16T21:20:29Z</time></trkpt>
<trkpt lat="46.33183" lon="6.92699"><ele></ele><time>2016-8-16T21:20:32Z</time></trkpt>
<trkpt lat="46.33178" lon="6.92705"><ele></ele><time>2016-8-16T21:20:35Z</time></trkpt>
<trkpt lat="46.33167" lon="6.92717"><ele></ele><time>2016-8-16T21:20:38Z</time></trkpt>
<trkpt lat="46.33156" lon="6.92729"><ele></ele><time>2016-8-16T21:20:41Z</time></trkpt>
<trkpt lat="46.33146" lon="6.92741"><ele></ele><time>2016-8-16T21:20:44Z</time></trkpt>
<trkpt lat="46.33135" lon="6.92754"><ele></ele><time>2016-8-16T21:20:47Z</time></trkpt>
<trkpt lat="46.33124" lon="6.92768"><ele></ele><time>2016-8-16T21:20:50Z</time></trkpt>
<trkpt lat="46.33113" lon="6.92781"><ele></ele><time>2016-8-16T21:20:53Z</time></trkpt>
<trkpt lat="46.33108" lon="6.92788"><ele></ele><time>2016-8-16T21:20:56Z</time></trkpt>
<trkpt lat="46.33102" lon="6.92794"><ele></ele><time>2016-8-16T21:20:59Z</time></trkpt>
<trkpt lat="46.33091" lon="6.92806"><ele></ele><time>2016-8-16T21:21:2Z</time></trkpt>
<trkpt lat="46.3308" lon="6.92817"><ele></ele><time>2016-8-16T21:21:5Z</time></trkpt>
<trkpt lat="46.33069" lon="6.92829"><ele></ele><time>2016-8-16T21:21:8Z</time></trkpt>
<trkpt lat="46.33058" lon="6.92841"><ele></ele><time>2016-8-16T21:21:11Z</time></trkpt>
<trkpt lat="46.33047" lon="6.92852"><ele></ele><time>2016-8-16T21:21:14Z</time></trkpt>
<trkpt lat="46.33036" lon="6.92863"><ele></ele><time>2016-8-16T21:21:17Z</time></trkpt>
<trkpt lat="46.3303" lon="6.92869"><ele></ele><time>2016-8-16T21:21:20Z</time></trkpt>
<trkpt lat="46.33025" lon="6.92874"><ele></ele><time>2016-8-16T21:21:23Z</time></trkpt>
<trkpt lat="46.33014" lon="6.92884"><ele></ele><time>2016-8-16T21:21:26Z</time></trkpt>
<trkpt lat="46.33004" lon="6.92895"><ele></ele><time>2016-8-16T21:21:29Z</time></trkpt>
<trkpt lat="46.32993" lon="6.92905"><ele></ele><time>2016-8-16T21:21:32Z</time></trkpt>
<trkpt lat="46.32988" lon="6.9291"><ele></ele><time>2016-8-16T21:21:35Z</time></trkpt>
<trkpt lat="46.32983" lon="6.92915"><ele></ele><time>2016-8-16T21:21:38Z</time></trkpt>
<trkpt lat="46.32974" lon="6.92925"><ele></ele><time>2016-8-16T21:21:41Z</time></trkpt>
<trkpt lat="46.32965" lon="6.92934"><ele></ele><time>2016-8-16T21:21:44Z</time></trkpt>
<trkpt lat="46.32955" lon="6.92944"><ele></ele><time>2016-8-16T21:21:47Z</time></trkpt>
<trkpt lat="46.3295" lon="6.92949"><ele></ele><time>2016-8-16T21:21:50Z</time></trkpt>
<trkpt lat="46.32945" lon="6.92953"><ele></ele><time>2016-8-16T21:21:53Z</time></trkpt>
<trkpt lat="46.32935" lon="6.92962"><ele></ele><time>2016-8-16T21:21:56Z</time></trkpt>
<trkpt lat="46.32924" lon="6.92971"><ele></ele><time>2016-8-16T21:21:59Z</time></trkpt>
<trkpt lat="46.32911" lon="6.92977"><ele></ele><time>2016-8-16T21:22:2Z</time></trkpt>
<trkpt lat="46.32899" lon="6.92984"><ele></ele><time>2016-8-16T21:22:5Z</time></trkpt>
<trkpt lat="46.32888" lon="6.92992"><ele></ele><time>2016-8-16T21:22:8Z</time></trkpt>
<trkpt lat="46.32877" lon="6.93"><ele></ele><time>2016-8-16T21:22:11Z</time></trkpt>
<trkpt lat="46.32866" lon="6.93008"><ele></ele><time>2016-8-16T21:22:14Z</time></trkpt>
<trkpt lat="46.32855" lon="6.93015"><ele></ele><time>2016-8-16T21:22:17Z</time></trkpt>
<trkpt lat="46.32844" lon="6.93022"><ele></ele><time>2016-8-16T21:22:20Z</time></trkpt>
<trkpt lat="46.32832" lon="6.93028"><ele></ele><time>2016-8-16T21:22:23Z</time></trkpt>
<trkpt lat="46.32821" lon="6.93035"><ele></ele><time>2016-8-16T21:22:26Z</time></trkpt>
<trkpt lat="46.32809" lon="6.93041"><ele></ele><time>2016-8-16T21:22:29Z</time></trkpt>
<trkpt lat="46.32798" lon="6.93046"><ele></ele><time>2016-8-16T21:22:32Z</time></trkpt>
<trkpt lat="46.32786" lon="6.93051"><ele></ele><time>2016-8-16T21:22:35Z</time></trkpt>
<trkpt lat="46.32775" lon="6.93056"><ele></ele><time>2016-8-16T21:22:38Z</time></trkpt>
<trkpt lat="46.32764" lon="6.93062"><ele></ele><time>2016-8-16T21:22:41Z</time></trkpt>
<trkpt lat="46.32752" lon="6.93067"><ele></ele><time>2016-8-16T21:22:44Z</time></trkpt>
<trkpt lat="46.32741" lon="6.93072"><ele></ele><time>2016-8-16T21:22:47Z</time></trkpt>
<trkpt lat="46.32729" lon="6.93077"><ele></ele><time>2016-8-16T21:22:50Z</time></trkpt>
<trkpt lat="46.32717" lon="6.93081"><ele></ele><time>2016-8-16T21:22:53Z</time></trkpt>
<trkpt lat="46.32705" lon="6.93085"><ele></ele><time>2016-8-16T21:22:56Z</time></trkpt>
<trkpt lat="46.32693" lon="6.93089"><ele></ele><time>2016-8-16T21:22:59Z</time></trkpt>
<trkpt lat="46.32681" lon="6.93092"><ele></ele><time>2016-8-16T21:23:2Z</time></trkpt>
<trkpt lat="46.32669" lon="6.93096"><ele></ele><time>2016-8-16T21:23:5Z</time></trkpt>
<trkpt lat="46.32657" lon="6.93099"><ele></ele><time>2016-8-16T21:23:8Z</time></trkpt>
<trkpt lat="46.32646" lon="6.93102"><ele></ele><time>2016-8-16T21:23:11Z</time></trkpt>
<trkpt lat="46.32634" lon="6.93105"><ele></ele><time>2016-8-16T21:23:14Z</time></trkpt>
<trkpt lat="46.32623" lon="6.93107"><ele></ele><time>2016-8-16T21:23:17Z</time></trkpt>
<trkpt lat="46.32611" lon="6.9311"><ele></ele><time>2016-8-16T21:23:20Z</time></trkpt>
<trkpt lat="46.32599" lon="6.93112"><ele></ele><time>2016-8-16T21:23:23Z</time></trkpt>
<trkpt lat="46.32587" lon="6.93115"><ele></ele><time>2016-8-16T21:23:26Z</time></trkpt>
<trkpt lat="46.32575" lon="6.93117"><ele></ele><time>2016-8-16T21:23:29Z</time></trkpt>
<trkpt lat="46.32563" lon="6.9312"><ele></ele><time>2016-8-16T21:23:32Z</time></trkpt>
<trkpt lat="46.32551" lon="6.93122"><ele></ele><time>2016-8-16T21:23:35Z</time></trkpt>
<trkpt lat="46.32539" lon="6.93124"><ele></ele><time>2016-8-16T21:23:38Z</time></trkpt>
<trkpt lat="46.32527" lon="6.93127"><ele></ele><time>2016-8-16T21:23:41Z</time></trkpt>
<trkpt lat="46.32515" lon="6.9313"><ele></ele><time>2016-8-16T21:23:44Z</time></trkpt>
<trkpt lat="46.32503" lon="6.93133"><ele></ele><time>2016-8-16T21:23:47Z</time></trkpt>
<trkpt lat="46.32492" lon="6.93136"><ele></ele><time>2016-8-16T21:23:50Z</time></trkpt>
<trkpt lat="46.3248" lon="6.93139"><ele></ele><time>2016-8-16T21:23:53Z</time></trkpt>
<trkpt lat="46.32468" lon="6.93142"><ele></ele><time>2016-8-16T21:23:56Z</time></trkpt>
<trkpt lat="46.32455" lon="6.93144"><ele></ele><time>2016-8-16T21:23:59Z</time></trkpt>
<trkpt lat="46.32443" lon="6.93147"><ele></ele><time>2016-8-16T21:24:2Z</time></trkpt>
<trkpt lat="46.32431" lon="6.93149"><ele></ele><time>2016-8-16T21:24:5Z</time></trkpt>
<trkpt lat="46.32418" lon="6.9315"><ele></ele><time>2016-8-16T21:24:8Z</time></trkpt>
<trkpt lat="46.32406" lon="6.93152"><ele></ele><time>2016-8-16T21:24:11Z</time></trkpt>
<trkpt lat="46.32394" lon="6.93153"><ele></ele><time>2016-8-16T21:24:14Z</time></trkpt>
<trkpt lat="46.32382" lon="6.93155"><ele></ele><time>2016-8-16T21:24:17Z</time></trkpt>
<trkpt lat="46.3237" lon="6.93156"><ele></ele><time>2016-8-16T21:24:20Z</time></trkpt>
<trkpt lat="46.32358" lon="6.93158"><ele></ele><time>2016-8-16T21:24:23Z</time></trkpt>
<trkpt lat="46.32346" lon="6.9316"><ele></ele><time>2016-8-16T21:24:26Z</time></trkpt>
<trkpt lat="46.32334" lon="6.93161"><ele></ele><time>2016-8-16T21:24:29Z</time></trkpt>
<trkpt lat="46.32323" lon="6.93162"><ele></ele><time>2016-8-16T21:24:32Z</time></trkpt>
<trkpt lat="46.32312" lon="6.93162"><ele></ele><time>2016-8-16T21:24:35Z</time></trkpt>
<trkpt lat="46.32301" lon="6.93163"><ele></ele><time>2016-8-16T21:24:38Z</time></trkpt>
<trkpt lat="46.3229" lon="6.93164"><ele></ele><time>2016-8-16T21:24:41Z</time></trkpt>
<trkpt lat="46.32285" lon="6.93164"><ele></ele><time>2016-8-16T21:24:44Z</time></trkpt>
<trkpt lat="46.32279" lon="6.93164"><ele></ele><time>2016-8-16T21:24:47Z</time></trkpt>
<trkpt lat="46.32267" lon="6.93165"><ele></ele><time>2016-8-16T21:24:50Z</time></trkpt>
<trkpt lat="46.32256" lon="6.93166"><ele></ele><time>2016-8-16T21:24:53Z</time></trkpt>
<trkpt lat="46.32244" lon="6.93167"><ele></ele><time>2016-8-16T21:24:56Z</time></trkpt>
<trkpt lat="46.32238" lon="6.93167"><ele></ele><time>2016-8-16T21:24:59Z</time></trkpt>
<trkpt lat="46.32233" lon="6.93167"><ele></ele><time>2016-8-16T21:25:2Z</time></trkpt>
<trkpt lat="46.32221" lon="6.93167"><ele></ele><time>2016-8-16T21:25:5Z</time></trkpt>
<trkpt lat="46.3221" lon="6.93166"><ele></ele><time>2016-8-16T21:25:8Z</time></trkpt>
<trkpt lat="46.32199" lon="6.93166"><ele></ele><time>2016-8-16T21:25:11Z</time></trkpt>
<trkpt lat="46.32188" lon="6.93165"><ele></ele><time>2016-8-16T21:25:14Z</time></trkpt>
<trkpt lat="46.32176" lon="6.93165"><ele></ele><time>2016-8-16T21:25:17Z</time></trkpt>
<trkpt lat="46.32165" lon="6.93165"><ele></ele><time>2016-8-16T21:25:20Z</time></trkpt>
<trkpt lat="46.32154" lon="6.93165"><ele></ele><time>2016-8-16T21:25:23Z</time></trkpt>
<trkpt lat="46.32142" lon="6.93164"><ele></ele><time>2016-8-16T21:25:26Z</time></trkpt>
<trkpt lat="46.3213" lon="6.93163"><ele></ele><time>2016-8-16T21:25:29Z</time></trkpt>
<trkpt lat="46.32119" lon="6.93162"><ele></ele><time>2016-8-16T21:25:32Z</time></trkpt>
<trkpt lat="46.32107" lon="6.93161"><ele></ele><time>2016-8-16T21:25:35Z</time></trkpt>
<trkpt lat="46.32095" lon="6.9316"><ele></ele><time>2016-8-16T21:25:38Z</time></trkpt>
<trkpt lat="46.32083" lon="6.93158"><ele></ele><time>2016-8-16T21:25:41Z</time></trkpt>
<trkpt lat="46.3207" lon="6.93156"><ele></ele><time>2016-8-16T21:25:44Z</time></trkpt>
<trkpt lat="46.32058" lon="6.93154"><ele></ele><time>2016-8-16T21:25:47Z</time></trkpt>
<trkpt lat="46.32046" lon="6.93152"><ele></ele><time>2016-8-16T21:25:50Z</time></trkpt>
<trkpt lat="46.32034" lon="6.9315"><ele></ele><time>2016-8-16T21:25:53Z</time></trkpt>
<trkpt lat="46.32022" lon="6.93148"><ele></ele><time>2016-8-16T21:25:56Z</time></trkpt>
<trkpt lat="46.32011" lon="6.93144"><ele></ele><time>2016-8-16T21:25:59Z</time></trkpt>
<trkpt lat="46.32" lon="6.9314"><ele></ele><time>2016-8-16T21:26:2Z</time></trkpt>
<trkpt lat="46.31989" lon="6.93136"><ele></ele><time>2016-8-16T21:26:5Z</time></trkpt>
<trkpt lat="46.31977" lon="6.93132"><ele></ele><time>2016-8-16T21:26:8Z</time></trkpt>
<trkpt lat="46.31964" lon="6.93127"><ele></ele><time>2016-8-16T21:26:11Z</time></trkpt>
<trkpt lat="46.3195" lon="6.93123"><ele></ele><time>2016-8-16T21:26:14Z</time></trkpt>
<trkpt lat="46.31937" lon="6.9312"><ele></ele><time>2016-8-16T21:26:17Z</time></trkpt>
<trkpt lat="46.31923" lon="6.93122"><ele></ele><time>2016-8-16T21:26:20Z</time></trkpt>
<trkpt lat="46.31909" lon="6.93123"><ele></ele><time>2016-8-16T21:26:23Z</time></trkpt>
<trkpt lat="46.31896" lon="6.93125"><ele></ele><time>2016-8-16T21:26:26Z</time></trkpt>
<trkpt lat="46.31889" lon="6.93125"><ele></ele><time>2016-8-16T21:26:29Z</time></trkpt>
<trkpt lat="46.31883" lon="6.93125"><ele></ele><time>2016-8-16T21:26:32Z</time></trkpt>
<trkpt lat="46.31872" lon="6.93125"><ele></ele><time>2016-8-16T21:26:35Z</time></trkpt>
<trkpt lat="46.3186" lon="6.93125"><ele></ele><time>2016-8-16T21:26:38Z</time></trkpt>
<trkpt lat="46.31848" lon="6.93125"><ele></ele><time>2016-8-16T21:26:41Z</time></trkpt>
<trkpt lat="46.31842" lon="6.93124"><ele></ele><time>2016-8-16T21:26:44Z</time></trkpt>
<trkpt lat="46.31836" lon="6.93124"><ele></ele><time>2016-8-16T21:26:47Z</time></trkpt>
<trkpt lat="46.31824" lon="6.93123"><ele></ele><time>2016-8-16T21:26:50Z</time></trkpt>
<trkpt lat="46.31812" lon="6.93122"><ele></ele><time>2016-8-16T21:26:53Z</time></trkpt>
<trkpt lat="46.318" lon="6.93121"><ele></ele><time>2016-8-16T21:26:56Z</time></trkpt>
<trkpt lat="46.31794" lon="6.93121"><ele></ele><time>2016-8-16T21:26:59Z</time></trkpt>
<trkpt lat="46.31788" lon="6.93121"><ele></ele><time>2016-8-16T21:27:2Z</time></trkpt>
<trkpt lat="46.31776" lon="6.93121"><ele></ele><time>2016-8-16T21:27:5Z</time></trkpt>
<trkpt lat="46.3177" lon="6.93121"><ele></ele><time>2016-8-16T21:27:8Z</time></trkpt>
<trkpt lat="46.31764" lon="6.93121"><ele></ele><time>2016-8-16T21:27:11Z</time></trkpt>
<trkpt lat="46.31752" lon="6.93122"><ele></ele><time>2016-8-16T21:27:14Z</time></trkpt>
<trkpt lat="46.31746" lon="6.93122"><ele></ele><time>2016-8-16T21:27:17Z</time></trkpt>
<trkpt lat="46.3174" lon="6.93122"><ele></ele><time>2016-8-16T21:27:20Z</time></trkpt>
<trkpt lat="46.31728" lon="6.93122"><ele></ele><time>2016-8-16T21:27:23Z</time></trkpt>
<trkpt lat="46.31716" lon="6.93122"><ele></ele><time>2016-8-16T21:27:26Z</time></trkpt>
<trkpt lat="46.31704" lon="6.93123"><ele></ele><time>2016-8-16T21:27:29Z</time></trkpt>
<trkpt lat="46.31698" lon="6.93123"><ele></ele><time>2016-8-16T21:27:32Z</time></trkpt>
<trkpt lat="46.31693" lon="6.93123"><ele></ele><time>2016-8-16T21:27:35Z</time></trkpt>
<trkpt lat="46.31681" lon="6.93124"><ele></ele><time>2016-8-16T21:27:38Z</time></trkpt>
<trkpt lat="46.3167" lon="6.93125"><ele></ele><time>2016-8-16T21:27:41Z</time></trkpt>
<trkpt lat="46.31659" lon="6.93125"><ele></ele><time>2016-8-16T21:27:44Z</time></trkpt>
<trkpt lat="46.31648" lon="6.93127"><ele></ele><time>2016-8-16T21:27:47Z</time></trkpt>
<trkpt lat="46.31636" lon="6.9313"><ele></ele><time>2016-8-16T21:27:50Z</time></trkpt>
<trkpt lat="46.31624" lon="6.93133"><ele></ele><time>2016-8-16T21:27:53Z</time></trkpt>
<trkpt lat="46.31612" lon="6.93136"><ele></ele><time>2016-8-16T21:27:56Z</time></trkpt>
<trkpt lat="46.31601" lon="6.93139"><ele></ele><time>2016-8-16T21:27:59Z</time></trkpt>
<trkpt lat="46.31588" lon="6.93143"><ele></ele><time>2016-8-16T21:28:2Z</time></trkpt>
<trkpt lat="46.31576" lon="6.93147"><ele></ele><time>2016-8-16T21:28:5Z</time></trkpt>
<trkpt lat="46.31563" lon="6.93151"><ele></ele><time>2016-8-16T21:28:8Z</time></trkpt>
<trkpt lat="46.31551" lon="6.93155"><ele></ele><time>2016-8-16T21:28:11Z</time></trkpt>
<trkpt lat="46.31539" lon="6.93161"><ele></ele><time>2016-8-16T21:28:14Z</time></trkpt>
<trkpt lat="46.31534" lon="6.93163"><ele></ele><time>2016-8-16T21:28:17Z</time></trkpt>
<trkpt lat="46.31528" lon="6.93165"><ele></ele><time>2016-8-16T21:28:20Z</time></trkpt>
<trkpt lat="46.31515" lon="6.93168"><ele></ele><time>2016-8-16T21:28:23Z</time></trkpt>
<trkpt lat="46.31503" lon="6.93171"><ele></ele><time>2016-8-16T21:28:26Z</time></trkpt>
<trkpt lat="46.31491" lon="6.93174"><ele></ele><time>2016-8-16T21:28:29Z</time></trkpt>
<trkpt lat="46.31486" lon="6.93175"><ele></ele><time>2016-8-16T21:28:32Z</time></trkpt>
<trkpt lat="46.31481" lon="6.93177"><ele></ele><time>2016-8-16T21:28:35Z</time></trkpt>
<trkpt lat="46.3147" lon="6.9318"><ele></ele><time>2016-8-16T21:28:38Z</time></trkpt>
<trkpt lat="46.3146" lon="6.93184"><ele></ele><time>2016-8-16T21:28:41Z</time></trkpt>
<trkpt lat="46.31449" lon="6.93187"><ele></ele><time>2016-8-16T21:28:44Z</time></trkpt>
<trkpt lat="46.31439" lon="6.9319"><ele></ele><time>2016-8-16T21:28:47Z</time></trkpt>
<trkpt lat="46.31428" lon="6.93195"><ele></ele><time>2016-8-16T21:28:50Z</time></trkpt>
<trkpt lat="46.31417" lon="6.93199"><ele></ele><time>2016-8-16T21:28:53Z</time></trkpt>
<trkpt lat="46.31406" lon="6.93204"><ele></ele><time>2016-8-16T21:28:56Z</time></trkpt>
<trkpt lat="46.31395" lon="6.93208"><ele></ele><time>2016-8-16T21:28:59Z</time></trkpt>
<trkpt lat="46.31384" lon="6.93212"><ele></ele><time>2016-8-16T21:29:2Z</time></trkpt>
<trkpt lat="46.31373" lon="6.93217"><ele></ele><time>2016-8-16T21:29:5Z</time></trkpt>
<trkpt lat="46.31362" lon="6.93221"><ele></ele><time>2016-8-16T21:29:8Z</time></trkpt>
<trkpt lat="46.31352" lon="6.93225"><ele></ele><time>2016-8-16T21:29:11Z</time></trkpt>
<trkpt lat="46.31347" lon="6.93227"><ele></ele><time>2016-8-16T21:29:14Z</time></trkpt>
<trkpt lat="46.31342" lon="6.93229"><ele></ele><time>2016-8-16T21:29:17Z</time></trkpt>
<trkpt lat="46.31333" lon="6.93233"><ele></ele><time>2016-8-16T21:29:20Z</time></trkpt>
<trkpt lat="46.31324" lon="6.93236"><ele></ele><time>2016-8-16T21:29:23Z</time></trkpt>
<trkpt lat="46.31315" lon="6.9324"><ele></ele><time>2016-8-16T21:29:26Z</time></trkpt>
<trkpt lat="46.31306" lon="6.93244"><ele></ele><time>2016-8-16T21:29:29Z</time></trkpt>
<trkpt lat="46.31302" lon="6.93246"><ele></ele><time>2016-8-16T21:29:32Z</time></trkpt>
<trkpt lat="46.31299" lon="6.93247"><ele></ele><time>2016-8-16T21:29:35Z</time></trkpt>
<trkpt lat="46.31292" lon="6.93249"><ele></ele><time>2016-8-16T21:29:38Z</time></trkpt>
<trkpt lat="46.31286" lon="6.93251"><ele></ele><time>2016-8-16T21:29:41Z</time></trkpt>
<trkpt lat="46.31279" lon="6.93254"><ele></ele><time>2016-8-16T21:29:44Z</time></trkpt>
<trkpt lat="46.31273" lon="6.93256"><ele></ele><time>2016-8-16T21:29:47Z</time></trkpt>
<trkpt lat="46.31267" lon="6.93258"><ele></ele><time>2016-8-16T21:29:50Z</time></trkpt>
<trkpt lat="46.31262" lon="6.93262"><ele></ele><time>2016-8-16T21:29:53Z</time></trkpt>
<trkpt lat="46.31264" lon="6.93271"><ele></ele><time>2016-8-16T21:29:56Z</time></trkpt>
<trkpt lat="46.31265" lon="6.9328"><ele></ele><time>2016-8-16T21:29:59Z</time></trkpt>
<trkpt lat="46.31267" lon="6.93288"><ele></ele><time>2016-8-16T21:30:2Z</time></trkpt>
<trkpt lat="46.31269" lon="6.93297"><ele></ele><time>2016-8-16T21:30:5Z</time></trkpt>
<trkpt lat="46.3127" lon="6.93306"><ele></ele><time>2016-8-16T21:30:8Z</time></trkpt>
<trkpt lat="46.31272" lon="6.93315"><ele></ele><time>2016-8-16T21:30:11Z</time></trkpt>
<trkpt lat="46.31273" lon="6.93324"><ele></ele><time>2016-8-16T21:30:14Z</time></trkpt>
<trkpt lat="46.31274" lon="6.93328"><ele></ele><time>2016-8-16T21:30:17Z</time></trkpt>
<trkpt lat="46.31275" lon="6.93332"><ele></ele><time>2016-8-16T21:30:20Z</time></trkpt>
<trkpt lat="46.31277" lon="6.9334"><ele></ele><time>2016-8-16T21:30:23Z</time></trkpt>
<trkpt lat="46.31279" lon="6.93347"><ele></ele><time>2016-8-16T21:30:26Z</time></trkpt>
<trkpt lat="46.3128" lon="6.93355"><ele></ele><time>2016-8-16T21:30:29Z</time></trkpt>
<trkpt lat="46.31282" lon="6.93363"><ele></ele><time>2016-8-16T21:30:32Z</time></trkpt>
<trkpt lat="46.31284" lon="6.93371"><ele></ele><time>2016-8-16T21:30:35Z</time></trkpt>
<trkpt lat="46.31286" lon="6.93378"><ele></ele><time>2016-8-16T21:30:38Z</time></trkpt>
<trkpt lat="46.31294" lon="6.9338"><ele></ele><time>2016-8-16T21:30:41Z</time></trkpt>
<trkpt lat="46.31303" lon="6.93373"><ele></ele><time>2016-8-16T21:30:44Z</time></trkpt>
<trkpt lat="46.31313" lon="6.93366"><ele></ele><time>2016-8-16T21:30:47Z</time></trkpt>
<trkpt lat="46.31323" lon="6.93364"><ele></ele><time>2016-8-16T21:30:50Z</time></trkpt>
<trkpt lat="46.31333" lon="6.93362"><ele></ele><time>2016-8-16T21:30:53Z</time></trkpt>
<trkpt lat="46.31343" lon="6.9336"><ele></ele><time>2016-8-16T21:30:56Z</time></trkpt>
<trkpt lat="46.31353" lon="6.93357"><ele></ele><time>2016-8-16T21:30:59Z</time></trkpt>
<trkpt lat="46.31363" lon="6.93355"><ele></ele><time>2016-8-16T21:31:2Z</time></trkpt>
<trkpt lat="46.31376" lon="6.93352"><ele></ele><time>2016-8-16T21:31:5Z</time></trkpt>
<trkpt lat="46.31389" lon="6.93349"><ele></ele><time>2016-8-16T21:31:8Z</time></trkpt>
<trkpt lat="46.31401" lon="6.93345"><ele></ele><time>2016-8-16T21:31:11Z</time></trkpt>
<trkpt lat="46.31408" lon="6.93344"><ele></ele><time>2016-8-16T21:31:14Z</time></trkpt>
<trkpt lat="46.31415" lon="6.93341"><ele></ele><time>2016-8-16T21:31:17Z</time></trkpt>
<trkpt lat="46.31429" lon="6.93337"><ele></ele><time>2016-8-16T21:31:20Z</time></trkpt>
<trkpt lat="46.31443" lon="6.93332"><ele></ele><time>2016-8-16T21:31:23Z</time></trkpt>
<trkpt lat="46.31457" lon="6.93328"><ele></ele><time>2016-8-16T21:31:26Z</time></trkpt>
<trkpt lat="46.31472" lon="6.93322"><ele></ele><time>2016-8-16T21:31:29Z</time></trkpt>
<trkpt lat="46.31487" lon="6.93317"><ele></ele><time>2016-8-16T21:31:32Z</time></trkpt>
<trkpt lat="46.31502" lon="6.93312"><ele></ele><time>2016-8-16T21:31:35Z</time></trkpt>
<trkpt lat="46.31515" lon="6.93306"><ele></ele><time>2016-8-16T21:31:38Z</time></trkpt>
<trkpt lat="46.31528" lon="6.93301"><ele></ele><time>2016-8-16T21:31:41Z</time></trkpt>
<trkpt lat="46.31541" lon="6.93296"><ele></ele><time>2016-8-16T21:31:44Z</time></trkpt>
<trkpt lat="46.31548" lon="6.93293"><ele></ele><time>2016-8-16T21:31:47Z</time></trkpt>
<trkpt lat="46.31554" lon="6.9329"><ele></ele><time>2016-8-16T21:31:50Z</time></trkpt>
<trkpt lat="46.31567" lon="6.93285"><ele></ele><time>2016-8-16T21:31:53Z</time></trkpt>
<trkpt lat="46.31581" lon="6.9328"><ele></ele><time>2016-8-16T21:31:56Z</time></trkpt>
<trkpt lat="46.31594" lon="6.93275"><ele></ele><time>2016-8-16T21:31:59Z</time></trkpt>
<trkpt lat="46.31606" lon="6.93272"><ele></ele><time>2016-8-16T21:32:2Z</time></trkpt>
<trkpt lat="46.31619" lon="6.93268"><ele></ele><time>2016-8-16T21:32:5Z</time></trkpt>
<trkpt lat="46.31632" lon="6.93264"><ele></ele><time>2016-8-16T21:32:8Z</time></trkpt>
<trkpt lat="46.31638" lon="6.93263"><ele></ele><time>2016-8-16T21:32:11Z</time></trkpt>
<trkpt lat="46.31645" lon="6.93262"><ele></ele><time>2016-8-16T21:32:14Z</time></trkpt>
<trkpt lat="46.31657" lon="6.9326"><ele></ele><time>2016-8-16T21:32:17Z</time></trkpt>
<trkpt lat="46.3167" lon="6.93259"><ele></ele><time>2016-8-16T21:32:20Z</time></trkpt>
<trkpt lat="46.31683" lon="6.93257"><ele></ele><time>2016-8-16T21:32:23Z</time></trkpt>
<trkpt lat="46.31689" lon="6.93256"><ele></ele><time>2016-8-16T21:32:26Z</time></trkpt>
<trkpt lat="46.31694" lon="6.93256"><ele></ele><time>2016-8-16T21:32:29Z</time></trkpt>
<trkpt lat="46.31706" lon="6.93256"><ele></ele><time>2016-8-16T21:32:32Z</time></trkpt>
<trkpt lat="46.31717" lon="6.93255"><ele></ele><time>2016-8-16T21:32:35Z</time></trkpt>
<trkpt lat="46.31729" lon="6.93255"><ele></ele><time>2016-8-16T21:32:38Z</time></trkpt>
<trkpt lat="46.31734" lon="6.93255"><ele></ele><time>2016-8-16T21:32:41Z</time></trkpt>
<trkpt lat="46.31738" lon="6.93255"><ele></ele><time>2016-8-16T21:32:44Z</time></trkpt>
<trkpt lat="46.31747" lon="6.93255"><ele></ele><time>2016-8-16T21:32:47Z</time></trkpt>
<trkpt lat="46.31755" lon="6.93254"><ele></ele><time>2016-8-16T21:32:50Z</time></trkpt>
<trkpt lat="46.31764" lon="6.93254"><ele></ele><time>2016-8-16T21:32:53Z</time></trkpt>
<trkpt lat="46.31773" lon="6.93254"><ele></ele><time>2016-8-16T21:32:56Z</time></trkpt>
<trkpt lat="46.31781" lon="6.93254"><ele></ele><time>2016-8-16T21:32:59Z</time></trkpt>
<trkpt lat="46.31788" lon="6.93254"><ele></ele><time>2016-8-16T21:33:2Z</time></trkpt>
<trkpt lat="46.31794" lon="6.93254"><ele></ele><time>2016-8-16T21:33:5Z</time></trkpt>
<trkpt lat="46.31801" lon="6.93254"><ele></ele><time>2016-8-16T21:33:8Z</time></trkpt>
<trkpt lat="46.31807" lon="6.93256"><ele></ele><time>2016-8-16T21:33:11Z</time></trkpt>
<trkpt lat="46.3181" lon="6.93264"><ele></ele><time>2016-8-16T21:33:14Z</time></trkpt>
<trkpt lat="46.3181" lon="6.93267"><ele></ele><time>2016-8-16T21:33:17Z</time></trkpt>
<trkpt lat="46.31808" lon="6.93271"><ele></ele><time>2016-8-16T21:33:20Z</time></trkpt>
<trkpt lat="46.31805" lon="6.93272"><ele></ele><time>2016-8-16T21:33:23Z</time></trkpt>
<trkpt lat="46.31801" lon="6.93272"><ele></ele><time>2016-8-16T21:33:26Z</time></trkpt>
<trkpt lat="46.31793" lon="6.93272"><ele></ele><time>2016-8-16T21:33:29Z</time></trkpt>
<trkpt lat="46.31785" lon="6.93272"><ele></ele><time>2016-8-16T21:33:32Z</time></trkpt>
<trkpt lat="46.31782" lon="6.93273"><ele></ele><time>2016-8-16T21:33:35Z</time></trkpt>
<trkpt lat="46.31781" lon="6.93275"><ele></ele><time>2016-8-16T21:33:38Z</time></trkpt>
<trkpt lat="46.3178" lon="6.9328"><ele></ele><time>2016-8-16T21:33:41Z</time></trkpt>
<trkpt lat="46.31779" lon="6.93285"><ele></ele><time>2016-8-16T21:33:44Z</time></trkpt>
<trkpt lat="46.31783" lon="6.93289"><ele></ele><time>2016-8-16T21:33:47Z</time></trkpt>
<trkpt lat="46.31785" lon="6.93294"><ele></ele><time>2016-8-16T21:33:50Z</time></trkpt>
<trkpt lat="46.31782" lon="6.933"><ele></ele><time>2016-8-16T21:33:53Z</time></trkpt>
<trkpt lat="46.31781" lon="6.93303"><ele></ele><time>2016-8-16T21:33:56Z</time></trkpt>
<trkpt lat="46.3178" lon="6.93306"><ele></ele><time>2016-8-16T21:33:59Z</time></trkpt>
<trkpt lat="46.31778" lon="6.93312"><ele></ele><time>2016-8-16T21:34:2Z</time></trkpt>
<trkpt lat="46.31775" lon="6.93317"><ele></ele><time>2016-8-16T21:34:5Z</time></trkpt>
<trkpt lat="46.31773" lon="6.93323"><ele></ele><time>2016-8-16T21:34:8Z</time></trkpt>
<trkpt lat="46.31772" lon="6.9333"><ele></ele><time>2016-8-16T21:34:11Z</time></trkpt>
<trkpt lat="46.31773" lon="6.93339"><ele></ele><time>2016-8-16T21:34:14Z</time></trkpt>
<trkpt lat="46.31774" lon="6.93349"><ele></ele><time>2016-8-16T21:34:17Z</time></trkpt>
<trkpt lat="46.31775" lon="6.93359"><ele></ele><time>2016-8-16T21:34:20Z</time></trkpt>
<trkpt lat="46.31777" lon="6.93369"><ele></ele><time>2016-8-16T21:34:23Z</time></trkpt>
<trkpt lat="46.31778" lon="6.93378"><ele></ele><time>2016-8-16T21:34:26Z</time></trkpt>
<trkpt lat="46.31779" lon="6.93388"><ele></ele><time>2016-8-16T21:34:29Z</time></trkpt>
<trkpt lat="46.31781" lon="6.93397"><ele></ele><time>2016-8-16T21:34:32Z</time></trkpt>
<trkpt lat="46.31782" lon="6.93404"><ele></ele><time>2016-8-16T21:34:35Z</time></trkpt>
<trkpt lat="46.31783" lon="6.9341"><ele></ele><time>2016-8-16T21:34:38Z</time></trkpt>
<trkpt lat="46.31785" lon="6.93416"><ele></ele><time>2016-8-16T21:34:41Z</time></trkpt>
<trkpt lat="46.3179" lon="6.93418"><ele></ele><time>2016-8-16T21:34:44Z</time></trkpt>
<trkpt lat="46.31795" lon="6.93421"><ele></ele><time>2016-8-16T21:34:47Z</time></trkpt>
<trkpt lat="46.31799" lon="6.93423"><ele></ele><time>2016-8-16T21:34:50Z</time></trkpt>
<trkpt lat="46.31804" lon="6.93425"><ele></ele><time>2016-8-16T21:34:53Z</time></trkpt>
<trkpt lat="46.31809" lon="6.93427"><ele></ele><time>2016-8-16T21:34:56Z</time></trkpt>
<trkpt lat="46.31813" lon="6.93453"><ele></ele><time>2016-8-16T21:34:59Z</time></trkpt>
<trkpt lat="46.31813" lon="6.93453"><ele></ele><time>2016-8-16T21:35:2Z</time></trkpt>
<trkpt lat="46.31814" lon="6.93475"><ele></ele><time>2016-8-16T21:35:5Z</time></trkpt>
<trkpt lat="46.31813" lon="6.9348"><ele></ele><time>2016-8-16T21:35:8Z</time></trkpt>
<trkpt lat="46.3181" lon="6.93479"><ele></ele><time>2016-8-16T21:35:11Z</time></trkpt>
<trkpt lat="46.31808" lon="6.93479"><ele></ele><time>2016-8-16T21:35:14Z</time></trkpt>
<trkpt lat="46.31806" lon="6.93479"><ele></ele><time>2016-8-16T21:35:17Z</time></trkpt>
<trkpt lat="46.31804" lon="6.93478"><ele></ele><time>2016-8-16T21:35:20Z</time></trkpt>
<trkpt lat="46.31802" lon="6.93478"><ele></ele><time>2016-8-16T21:35:23Z</time></trkpt>
<trkpt lat="46.318" lon="6.93478"><ele></ele><time>2016-8-16T21:35:26Z</time></trkpt>
<trkpt lat="46.31798" lon="6.93477"><ele></ele><time>2016-8-16T21:35:29Z</time></trkpt>
<trkpt lat="46.31796" lon="6.93477"><ele></ele><time>2016-8-16T21:35:32Z</time></trkpt>
<trkpt lat="46.31793" lon="6.93477"><ele></ele><time>2016-8-16T21:35:35Z</time></trkpt>
<trkpt lat="46.31791" lon="6.93476"><ele></ele><time>2016-8-16T21:35:38Z</time></trkpt>
<trkpt lat="46.31789" lon="6.93476"><ele></ele><time>2016-8-16T21:35:41Z</time></trkpt>
<trkpt lat="46.31787" lon="6.93476"><ele></ele><time>2016-8-16T21:35:44Z</time></trkpt>
<trkpt lat="46.31785" lon="6.93476"><ele></ele><time>2016-8-16T21:35:47Z</time></trkpt>
<trkpt lat="46.31783" lon="6.93475"><ele></ele><time>2016-8-16T21:35:50Z</time></trkpt>
<trkpt lat="46.31781" lon="6.93475"><ele></ele><time>2016-8-16T21:35:53Z</time></trkpt>
<trkpt lat="46.31779" lon="6.93475"><ele></ele><time>2016-8-16T21:35:56Z</time></trkpt>
<trkpt lat="46.31776" lon="6.93474"><ele></ele><time>2016-8-16T21:35:59Z</time></trkpt>
<trkpt lat="46.31774" lon="6.93474"><ele></ele><time>2016-8-16T21:36:2Z</time></trkpt>
<trkpt lat="46.31772" lon="6.93474"><ele></ele><time>2016-8-16T21:36:5Z</time></trkpt>
<trkpt lat="46.3177" lon="6.93473"><ele></ele><time>2016-8-16T21:36:8Z</time></trkpt>
<trkpt lat="46.31768" lon="6.93473"><ele></ele><time>2016-8-16T21:36:11Z</time></trkpt>
<trkpt lat="46.31766" lon="6.93473"><ele></ele><time>2016-8-16T21:36:14Z</time></trkpt>
<trkpt lat="46.31763" lon="6.93473"><ele></ele><time>2016-8-16T21:36:17Z</time></trkpt>
<trkpt lat="46.31758" lon="6.93474"><ele></ele><time>2016-8-16T21:36:20Z</time></trkpt>
<trkpt lat="46.31752" lon="6.93475"><ele></ele><time>2016-8-16T21:36:23Z</time></trkpt>
<trkpt lat="46.31746" lon="6.93476"><ele></ele><time>2016-8-16T21:36:26Z</time></trkpt>
<trkpt lat="46.31741" lon="6.93477"><ele></ele><time>2016-8-16T21:36:29Z</time></trkpt>
<trkpt lat="46.31735" lon="6.93478"><ele></ele><time>2016-8-16T21:36:32Z</time></trkpt>
<trkpt lat="46.31729" lon="6.93478"><ele></ele><time>2016-8-16T21:36:35Z</time></trkpt>
<trkpt lat="46.31724" lon="6.93479"><ele></ele><time>2016-8-16T21:36:38Z</time></trkpt>
<trkpt lat="46.31718" lon="6.9348"><ele></ele><time>2016-8-16T21:36:41Z</time></trkpt>
<trkpt lat="46.31712" lon="6.93481"><ele></ele><time>2016-8-16T21:36:44Z</time></trkpt>
<trkpt lat="46.31706" lon="6.93482"><ele></ele><time>2016-8-16T21:36:47Z</time></trkpt>
<trkpt lat="46.317" lon="6.93482"><ele></ele><time>2016-8-16T21:36:50Z</time></trkpt>
<trkpt lat="46.31694" lon="6.93483"><ele></ele><time>2016-8-16T21:36:53Z</time></trkpt>
<trkpt lat="46.31688" lon="6.93484"><ele></ele><time>2016-8-16T21:36:56Z</time></trkpt>
<trkpt lat="46.31682" lon="6.93485"><ele></ele><time>2016-8-16T21:36:59Z</time></trkpt>
<trkpt lat="46.31676" lon="6.93486"><ele></ele><time>2016-8-16T21:37:2Z</time></trkpt>
<trkpt lat="46.3167" lon="6.93486"><ele></ele><time>2016-8-16T21:37:5Z</time></trkpt>
<trkpt lat="46.31662" lon="6.93485"><ele></ele><time>2016-8-16T21:37:8Z</time></trkpt>
<trkpt lat="46.31655" lon="6.93484"><ele></ele><time>2016-8-16T21:37:11Z</time></trkpt>
<trkpt lat="46.31647" lon="6.93482"><ele></ele><time>2016-8-16T21:37:14Z</time></trkpt>
<trkpt lat="46.31639" lon="6.93481"><ele></ele><time>2016-8-16T21:37:17Z</time></trkpt>
<trkpt lat="46.31632" lon="6.9348"><ele></ele><time>2016-8-16T21:37:20Z</time></trkpt>
<trkpt lat="46.31624" lon="6.93479"><ele></ele><time>2016-8-16T21:37:23Z</time></trkpt>
<trkpt lat="46.31616" lon="6.9348"><ele></ele><time>2016-8-16T21:37:26Z</time></trkpt>
<trkpt lat="46.31608" lon="6.93481"><ele></ele><time>2016-8-16T21:37:29Z</time></trkpt>
<trkpt lat="46.316" lon="6.93482"><ele></ele><time>2016-8-16T21:37:32Z</time></trkpt>
<trkpt lat="46.31592" lon="6.93483"><ele></ele><time>2016-8-16T21:37:35Z</time></trkpt>
<trkpt lat="46.31584" lon="6.93486"><ele></ele><time>2016-8-16T21:37:38Z</time></trkpt>
<trkpt lat="46.31577" lon="6.93492"><ele></ele><time>2016-8-16T21:37:41Z</time></trkpt>
<trkpt lat="46.31569" lon="6.93499"><ele></ele><time>2016-8-16T21:37:44Z</time></trkpt>
<trkpt lat="46.31562" lon="6.93504"><ele></ele><time>2016-8-16T21:37:47Z</time></trkpt>
<trkpt lat="46.31556" lon="6.93499"><ele></ele><time>2016-8-16T21:37:50Z</time></trkpt>
<trkpt lat="46.31554" lon="6.93488"><ele></ele><time>2016-8-16T21:37:53Z</time></trkpt>
<trkpt lat="46.31551" lon="6.93477"><ele></ele><time>2016-8-16T21:37:56Z</time></trkpt>
<trkpt lat="46.31549" lon="6.93466"><ele></ele><time>2016-8-16T21:37:59Z</time></trkpt>
<trkpt lat="46.31546" lon="6.93456"><ele></ele><time>2016-8-16T21:38:2Z</time></trkpt>
<trkpt lat="46.31539" lon="6.93455"><ele></ele><time>2016-8-16T21:38:5Z</time></trkpt>
<trkpt lat="46.31531" lon="6.93461"><ele></ele><time>2016-8-16T21:38:8Z</time></trkpt>
<trkpt lat="46.31522" lon="6.93467"><ele></ele><time>2016-8-16T21:38:11Z</time></trkpt>
<trkpt lat="46.31514" lon="6.93472"><ele></ele><time>2016-8-16T21:38:14Z</time></trkpt>
<trkpt lat="46.31505" lon="6.93478"><ele></ele><time>2016-8-16T21:38:17Z</time></trkpt>
<trkpt lat="46.31496" lon="6.93484"><ele></ele><time>2016-8-16T21:38:20Z</time></trkpt>
<trkpt lat="46.31485" lon="6.93491"><ele></ele><time>2016-8-16T21:38:23Z</time></trkpt>
<trkpt lat="46.31475" lon="6.93497"><ele></ele><time>2016-8-16T21:38:26Z</time></trkpt>
<trkpt lat="46.31464" lon="6.93504"><ele></ele><time>2016-8-16T21:38:29Z</time></trkpt>
<trkpt lat="46.31457" lon="6.93506"><ele></ele><time>2016-8-16T21:38:32Z</time></trkpt>
<trkpt lat="46.3145" lon="6.93507"><ele></ele><time>2016-8-16T21:38:35Z</time></trkpt>
<trkpt lat="46.31435" lon="6.93511"><ele></ele><time>2016-8-16T21:38:38Z</time></trkpt>
<trkpt lat="46.31423" lon="6.93517"><ele></ele><time>2016-8-16T21:38:41Z</time></trkpt>
<trkpt lat="46.31412" lon="6.93523"><ele></ele><time>2016-8-16T21:38:44Z</time></trkpt>
<trkpt lat="46.314" lon="6.93529"><ele></ele><time>2016-8-16T21:38:47Z</time></trkpt>
<trkpt lat="46.31389" lon="6.93535"><ele></ele><time>2016-8-16T21:38:50Z</time></trkpt>
<trkpt lat="46.31379" lon="6.93539"><ele></ele><time>2016-8-16T21:38:53Z</time></trkpt>
<trkpt lat="46.31369" lon="6.93543"><ele></ele><time>2016-8-16T21:38:56Z</time></trkpt>
<trkpt lat="46.3136" lon="6.93548"><ele></ele><time>2016-8-16T21:38:59Z</time></trkpt>
<trkpt lat="46.3135" lon="6.93552"><ele></ele><time>2016-8-16T21:39:2Z</time></trkpt>
<trkpt lat="46.31345" lon="6.93554"><ele></ele><time>2016-8-16T21:39:5Z</time></trkpt>
<trkpt lat="46.3134" lon="6.93555"><ele></ele><time>2016-8-16T21:39:8Z</time></trkpt>
<trkpt lat="46.31331" lon="6.9356"><ele></ele><time>2016-8-16T21:39:11Z</time></trkpt>
<trkpt lat="46.31326" lon="6.93572"><ele></ele><time>2016-8-16T21:39:14Z</time></trkpt>
<trkpt lat="46.31326" lon="6.93586"><ele></ele><time>2016-8-16T21:39:17Z</time></trkpt>
<trkpt lat="46.31326" lon="6.936"><ele></ele><time>2016-8-16T21:39:20Z</time></trkpt>
<trkpt lat="46.31327" lon="6.93608"><ele></ele><time>2016-8-16T21:39:23Z</time></trkpt>
<trkpt lat="46.31328" lon="6.93616"><ele></ele><time>2016-8-16T21:39:26Z</time></trkpt>
<trkpt lat="46.31331" lon="6.93632"><ele></ele><time>2016-8-16T21:39:29Z</time></trkpt>
<trkpt lat="46.31333" lon="6.93648"><ele></ele><time>2016-8-16T21:39:32Z</time></trkpt>
<trkpt lat="46.31336" lon="6.93663"><ele></ele><time>2016-8-16T21:39:35Z</time></trkpt>
<trkpt lat="46.31338" lon="6.9368"><ele></ele><time>2016-8-16T21:39:38Z</time></trkpt>
<trkpt lat="46.31341" lon="6.93697"><ele></ele><time>2016-8-16T21:39:41Z</time></trkpt>
<trkpt lat="46.31343" lon="6.93714"><ele></ele><time>2016-8-16T21:39:44Z</time></trkpt>
<trkpt lat="46.31346" lon="6.93731"><ele></ele><time>2016-8-16T21:39:47Z</time></trkpt>
<trkpt lat="46.31348" lon="6.93748"><ele></ele><time>2016-8-16T21:39:50Z</time></trkpt>
<trkpt lat="46.3135" lon="6.93766"><ele></ele><time>2016-8-16T21:39:53Z</time></trkpt>
<trkpt lat="46.31351" lon="6.93784"><ele></ele><time>2016-8-16T21:39:56Z</time></trkpt>
<trkpt lat="46.31353" lon="6.93802"><ele></ele><time>2016-8-16T21:39:59Z</time></trkpt>
<trkpt lat="46.31355" lon="6.9382"><ele></ele><time>2016-8-16T21:40:2Z</time></trkpt>
<trkpt lat="46.31358" lon="6.93838"><ele></ele><time>2016-8-16T21:40:5Z</time></trkpt>
<trkpt lat="46.31361" lon="6.93856"><ele></ele><time>2016-8-16T21:40:8Z</time></trkpt>
<trkpt lat="46.31364" lon="6.93874"><ele></ele><time>2016-8-16T21:40:11Z</time></trkpt>
<trkpt lat="46.31365" lon="6.93883"><ele></ele><time>2016-8-16T21:40:14Z</time></trkpt>
<trkpt lat="46.31366" lon="6.93893"><ele></ele><time>2016-8-16T21:40:17Z</time></trkpt>
<trkpt lat="46.31367" lon="6.93911"><ele></ele><time>2016-8-16T21:40:20Z</time></trkpt>
<trkpt lat="46.31368" lon="6.9393"><ele></ele><time>2016-8-16T21:40:23Z</time></trkpt>
<trkpt lat="46.3137" lon="6.93949"><ele></ele><time>2016-8-16T21:40:26Z</time></trkpt>
<trkpt lat="46.31373" lon="6.9397"><ele></ele><time>2016-8-16T21:40:29Z</time></trkpt>
<trkpt lat="46.31375" lon="6.9399"><ele></ele><time>2016-8-16T21:40:32Z</time></trkpt>
<trkpt lat="46.31378" lon="6.9401"><ele></ele><time>2016-8-16T21:40:35Z</time></trkpt>
<trkpt lat="46.31379" lon="6.9402"><ele></ele><time>2016-8-16T21:40:38Z</time></trkpt>
<trkpt lat="46.3138" lon="6.94029"><ele></ele><time>2016-8-16T21:40:41Z</time></trkpt>
<trkpt lat="46.31382" lon="6.94048"><ele></ele><time>2016-8-16T21:40:44Z</time></trkpt>
<trkpt lat="46.31384" lon="6.94066"><ele></ele><time>2016-8-16T21:40:47Z</time></trkpt>
<trkpt lat="46.31385" lon="6.94084"><ele></ele><time>2016-8-16T21:40:50Z</time></trkpt>
<trkpt lat="46.31384" lon="6.94101"><ele></ele><time>2016-8-16T21:40:53Z</time></trkpt>
<trkpt lat="46.31384" lon="6.94117"><ele></ele><time>2016-8-16T21:40:56Z</time></trkpt>
<trkpt lat="46.31384" lon="6.94133"><ele></ele><time>2016-8-16T21:40:59Z</time></trkpt>
<trkpt lat="46.31387" lon="6.9415"><ele></ele><time>2016-8-16T21:41:2Z</time></trkpt>
<trkpt lat="46.3139" lon="6.94166"><ele></ele><time>2016-8-16T21:41:5Z</time></trkpt>
<trkpt lat="46.31394" lon="6.94183"><ele></ele><time>2016-8-16T21:41:8Z</time></trkpt>
<trkpt lat="46.31397" lon="6.942"><ele></ele><time>2016-8-16T21:41:11Z</time></trkpt>
<trkpt lat="46.31399" lon="6.94218"><ele></ele><time>2016-8-16T21:41:14Z</time></trkpt>
<trkpt lat="46.314" lon="6.94237"><ele></ele><time>2016-8-16T21:41:17Z</time></trkpt>
<trkpt lat="46.31402" lon="6.94255"><ele></ele><time>2016-8-16T21:41:20Z</time></trkpt>
<trkpt lat="46.31403" lon="6.94264"><ele></ele><time>2016-8-16T21:41:23Z</time></trkpt>
<trkpt lat="46.31404" lon="6.94272"><ele></ele><time>2016-8-16T21:41:26Z</time></trkpt>
<trkpt lat="46.31407" lon="6.94288"><ele></ele><time>2016-8-16T21:41:29Z</time></trkpt>
<trkpt lat="46.31409" lon="6.94304"><ele></ele><time>2016-8-16T21:41:32Z</time></trkpt>
<trkpt lat="46.31411" lon="6.94321"><ele></ele><time>2016-8-16T21:41:35Z</time></trkpt>
<trkpt lat="46.31412" lon="6.94329"><ele></ele><time>2016-8-16T21:41:38Z</time></trkpt>
<trkpt lat="46.31413" lon="6.94336"><ele></ele><time>2016-8-16T21:41:41Z</time></trkpt>
<trkpt lat="46.31414" lon="6.94352"><ele></ele><time>2016-8-16T21:41:44Z</time></trkpt>
<trkpt lat="46.31416" lon="6.94367"><ele></ele><time>2016-8-16T21:41:47Z</time></trkpt>
<trkpt lat="46.31416" lon="6.94374"><ele></ele><time>2016-8-16T21:41:50Z</time></trkpt>
<trkpt lat="46.31418" lon="6.94382"><ele></ele><time>2016-8-16T21:41:53Z</time></trkpt>
<trkpt lat="46.3142" lon="6.94396"><ele></ele><time>2016-8-16T21:41:56Z</time></trkpt>
<trkpt lat="46.31422" lon="6.94411"><ele></ele><time>2016-8-16T21:41:59Z</time></trkpt>
<trkpt lat="46.31424" lon="6.94426"><ele></ele><time>2016-8-16T21:42:2Z</time></trkpt>
<trkpt lat="46.31427" lon="6.9444"><ele></ele><time>2016-8-16T21:42:5Z</time></trkpt>
<trkpt lat="46.31429" lon="6.94453"><ele></ele><time>2016-8-16T21:42:8Z</time></trkpt>
<trkpt lat="46.31431" lon="6.94467"><ele></ele><time>2016-8-16T21:42:11Z</time></trkpt>
<trkpt lat="46.31434" lon="6.9448"><ele></ele><time>2016-8-16T21:42:14Z</time></trkpt>
<trkpt lat="46.31436" lon="6.94493"><ele></ele><time>2016-8-16T21:42:17Z</time></trkpt>
<trkpt lat="46.31438" lon="6.94506"><ele></ele><time>2016-8-16T21:42:20Z</time></trkpt>
<trkpt lat="46.3144" lon="6.94521"><ele></ele><time>2016-8-16T21:42:23Z</time></trkpt>
<trkpt lat="46.31442" lon="6.94536"><ele></ele><time>2016-8-16T21:42:26Z</time></trkpt>
<trkpt lat="46.31445" lon="6.9455"><ele></ele><time>2016-8-16T21:42:29Z</time></trkpt>
<trkpt lat="46.31447" lon="6.94565"><ele></ele><time>2016-8-16T21:42:32Z</time></trkpt>
<trkpt lat="46.3145" lon="6.94581"><ele></ele><time>2016-8-16T21:42:35Z</time></trkpt>
<trkpt lat="46.31453" lon="6.94597"><ele></ele><time>2016-8-16T21:42:38Z</time></trkpt>
<trkpt lat="46.31455" lon="6.94613"><ele></ele><time>2016-8-16T21:42:41Z</time></trkpt>
<trkpt lat="46.3146" lon="6.94631"><ele></ele><time>2016-8-16T21:42:44Z</time></trkpt>
<trkpt lat="46.31466" lon="6.94648"><ele></ele><time>2016-8-16T21:42:47Z</time></trkpt>
<trkpt lat="46.31471" lon="6.94666"><ele></ele><time>2016-8-16T21:42:50Z</time></trkpt>
<trkpt lat="46.31476" lon="6.94687"><ele></ele><time>2016-8-16T21:42:53Z</time></trkpt>
<trkpt lat="46.31478" lon="6.94698"><ele></ele><time>2016-8-16T21:42:56Z</time></trkpt>
<trkpt lat="46.31481" lon="6.94708"><ele></ele><time>2016-8-16T21:42:59Z</time></trkpt>
<trkpt lat="46.31487" lon="6.94729"><ele></ele><time>2016-8-16T21:43:2Z</time></trkpt>
<trkpt lat="46.31494" lon="6.94747"><ele></ele><time>2016-8-16T21:43:5Z</time></trkpt>
<trkpt lat="46.31493" lon="6.94757"><ele></ele><time>2016-8-16T21:43:8Z</time></trkpt>
<trkpt lat="46.31489" lon="6.94765"><ele></ele><time>2016-8-16T21:43:11Z</time></trkpt>
<trkpt lat="46.31485" lon="6.94773"><ele></ele><time>2016-8-16T21:43:14Z</time></trkpt>
<trkpt lat="46.31479" lon="6.94778"><ele></ele><time>2016-8-16T21:43:17Z</time></trkpt>
<trkpt lat="46.31467" lon="6.94789"><ele></ele><time>2016-8-16T21:43:20Z</time></trkpt>
<trkpt lat="46.31455" lon="6.948"><ele></ele><time>2016-8-16T21:43:23Z</time></trkpt>
<trkpt lat="46.31444" lon="6.9481"><ele></ele><time>2016-8-16T21:43:26Z</time></trkpt>
<trkpt lat="46.31432" lon="6.94817"><ele></ele><time>2016-8-16T21:43:29Z</time></trkpt>
<trkpt lat="46.31421" lon="6.94825"><ele></ele><time>2016-8-16T21:43:32Z</time></trkpt>
<trkpt lat="46.3141" lon="6.94833"><ele></ele><time>2016-8-16T21:43:35Z</time></trkpt>
<trkpt lat="46.31404" lon="6.94837"><ele></ele><time>2016-8-16T21:43:38Z</time></trkpt>
<trkpt lat="46.31399" lon="6.94841"><ele></ele><time>2016-8-16T21:43:41Z</time></trkpt>
<trkpt lat="46.31388" lon="6.94849"><ele></ele><time>2016-8-16T21:43:44Z</time></trkpt>
<trkpt lat="46.31378" lon="6.94858"><ele></ele><time>2016-8-16T21:43:47Z</time></trkpt>
<trkpt lat="46.31367" lon="6.94867"><ele></ele><time>2016-8-16T21:43:50Z</time></trkpt>
<trkpt lat="46.31357" lon="6.94875"><ele></ele><time>2016-8-16T21:43:53Z</time></trkpt>
<trkpt lat="46.31347" lon="6.94884"><ele></ele><time>2016-8-16T21:43:56Z</time></trkpt>
<trkpt lat="46.31336" lon="6.94892"><ele></ele><time>2016-8-16T21:43:59Z</time></trkpt>
<trkpt lat="46.31326" lon="6.94901"><ele></ele><time>2016-8-16T21:44:2Z</time></trkpt>
<trkpt lat="46.31315" lon="6.94909"><ele></ele><time>2016-8-16T21:44:5Z</time></trkpt>
<trkpt lat="46.31305" lon="6.94918"><ele></ele><time>2016-8-16T21:44:8Z</time></trkpt>
<trkpt lat="46.31295" lon="6.94926"><ele></ele><time>2016-8-16T21:44:11Z</time></trkpt>
<trkpt lat="46.31284" lon="6.94934"><ele></ele><time>2016-8-16T21:44:14Z</time></trkpt>
<trkpt lat="46.31274" lon="6.94942"><ele></ele><time>2016-8-16T21:44:17Z</time></trkpt>
<trkpt lat="46.31263" lon="6.94951"><ele></ele><time>2016-8-16T21:44:20Z</time></trkpt>
<trkpt lat="46.31251" lon="6.94959"><ele></ele><time>2016-8-16T21:44:23Z</time></trkpt>
<trkpt lat="46.3124" lon="6.94968"><ele></ele><time>2016-8-16T21:44:26Z</time></trkpt>
<trkpt lat="46.3123" lon="6.94976"><ele></ele><time>2016-8-16T21:44:29Z</time></trkpt>
<trkpt lat="46.3122" lon="6.94985"><ele></ele><time>2016-8-16T21:44:32Z</time></trkpt>
<trkpt lat="46.3121" lon="6.94993"><ele></ele><time>2016-8-16T21:44:35Z</time></trkpt>
<trkpt lat="46.312" lon="6.95002"><ele></ele><time>2016-8-16T21:44:38Z</time></trkpt>
<trkpt lat="46.31189" lon="6.9501"><ele></ele><time>2016-8-16T21:44:41Z</time></trkpt>
<trkpt lat="46.31179" lon="6.95019"><ele></ele><time>2016-8-16T21:44:44Z</time></trkpt>
<trkpt lat="46.31168" lon="6.95028"><ele></ele><time>2016-8-16T21:44:47Z</time></trkpt>
<trkpt lat="46.31157" lon="6.95037"><ele></ele><time>2016-8-16T21:44:50Z</time></trkpt>
<trkpt lat="46.31146" lon="6.95045"><ele></ele><time>2016-8-16T21:44:53Z</time></trkpt>
<trkpt lat="46.31136" lon="6.95053"><ele></ele><time>2016-8-16T21:44:56Z</time></trkpt>
<trkpt lat="46.31126" lon="6.95062"><ele></ele><time>2016-8-16T21:44:59Z</time></trkpt>
<trkpt lat="46.31115" lon="6.9507"><ele></ele><time>2016-8-16T21:45:2Z</time></trkpt>
<trkpt lat="46.31105" lon="6.95078"><ele></ele><time>2016-8-16T21:45:5Z</time></trkpt>
<trkpt lat="46.31095" lon="6.95086"><ele></ele><time>2016-8-16T21:45:8Z</time></trkpt>
<trkpt lat="46.31084" lon="6.95095"><ele></ele><time>2016-8-16T21:45:11Z</time></trkpt>
<trkpt lat="46.31073" lon="6.95103"><ele></ele><time>2016-8-16T21:45:14Z</time></trkpt>
<trkpt lat="46.31063" lon="6.95111"><ele></ele><time>2016-8-16T21:45:17Z</time></trkpt>
<trkpt lat="46.31053" lon="6.95119"><ele></ele><time>2016-8-16T21:45:20Z</time></trkpt>
<trkpt lat="46.31043" lon="6.95127"><ele></ele><time>2016-8-16T21:45:23Z</time></trkpt>
<trkpt lat="46.31034" lon="6.95136"><ele></ele><time>2016-8-16T21:45:26Z</time></trkpt>
<trkpt lat="46.31024" lon="6.95144"><ele></ele><time>2016-8-16T21:45:29Z</time></trkpt>
<trkpt lat="46.31015" lon="6.95152"><ele></ele><time>2016-8-16T21:45:32Z</time></trkpt>
<trkpt lat="46.31012" lon="6.95157"><ele></ele><time>2016-8-16T21:45:35Z</time></trkpt>
<trkpt lat="46.3101" lon="6.95163"><ele></ele><time>2016-8-16T21:45:38Z</time></trkpt>
<trkpt lat="46.31011" lon="6.95169"><ele></ele><time>2016-8-16T21:45:41Z</time></trkpt>
<trkpt lat="46.31014" lon="6.95175"><ele></ele><time>2016-8-16T21:45:44Z</time></trkpt>
<trkpt lat="46.3102" lon="6.95187"><ele></ele><time>2016-8-16T21:45:47Z</time></trkpt>
<trkpt lat="46.31027" lon="6.95199"><ele></ele><time>2016-8-16T21:45:50Z</time></trkpt>
<trkpt lat="46.31034" lon="6.95211"><ele></ele><time>2016-8-16T21:45:53Z</time></trkpt>
<trkpt lat="46.31041" lon="6.95224"><ele></ele><time>2016-8-16T21:45:56Z</time></trkpt>
<trkpt lat="46.31048" lon="6.95236"><ele></ele><time>2016-8-16T21:45:59Z</time></trkpt>
<trkpt lat="46.31056" lon="6.95249"><ele></ele><time>2016-8-16T21:46:2Z</time></trkpt>
<trkpt lat="46.31063" lon="6.95261"><ele></ele><time>2016-8-16T21:46:5Z</time></trkpt>
<trkpt lat="46.31071" lon="6.95274"><ele></ele><time>2016-8-16T21:46:8Z</time></trkpt>
<trkpt lat="46.31077" lon="6.95286"><ele></ele><time>2016-8-16T21:46:11Z</time></trkpt>
<trkpt lat="46.31084" lon="6.95298"><ele></ele><time>2016-8-16T21:46:14Z</time></trkpt>
<trkpt lat="46.3109" lon="6.9531"><ele></ele><time>2016-8-16T21:46:17Z</time></trkpt>
<trkpt lat="46.31096" lon="6.95322"><ele></ele><time>2016-8-16T21:46:20Z</time></trkpt>
<trkpt lat="46.31099" lon="6.95328"><ele></ele><time>2016-8-16T21:46:23Z</time></trkpt>
<trkpt lat="46.31103" lon="6.95333"><ele></ele><time>2016-8-16T21:46:26Z</time></trkpt>
<trkpt lat="46.31109" lon="6.95343"><ele></ele><time>2016-8-16T21:46:29Z</time></trkpt>
<trkpt lat="46.31116" lon="6.95353"><ele></ele><time>2016-8-16T21:46:32Z</time></trkpt>
<trkpt lat="46.31122" lon="6.95363"><ele></ele><time>2016-8-16T21:46:35Z</time></trkpt>
<trkpt lat="46.31129" lon="6.95373"><ele></ele><time>2016-8-16T21:46:38Z</time></trkpt>
<trkpt lat="46.31136" lon="6.95383"><ele></ele><time>2016-8-16T21:46:41Z</time></trkpt>
<trkpt lat="46.31142" lon="6.95393"><ele></ele><time>2016-8-16T21:46:44Z</time></trkpt>
<trkpt lat="46.31147" lon="6.95403"><ele></ele><time>2016-8-16T21:46:47Z</time></trkpt>
<trkpt lat="46.31152" lon="6.95414"><ele></ele><time>2016-8-16T21:46:50Z</time></trkpt>
<trkpt lat="46.31157" lon="6.95424"><ele></ele><time>2016-8-16T21:46:53Z</time></trkpt>
<trkpt lat="46.31162" lon="6.95434"><ele></ele><time>2016-8-16T21:46:56Z</time></trkpt>
<trkpt lat="46.31164" lon="6.9544"><ele></ele><time>2016-8-16T21:46:59Z</time></trkpt>
<trkpt lat="46.31167" lon="6.95445"><ele></ele><time>2016-8-16T21:47:2Z</time></trkpt>
<trkpt lat="46.31168" lon="6.9545"><ele></ele><time>2016-8-16T21:47:5Z</time></trkpt>
<trkpt lat="46.31168" lon="6.95456"><ele></ele><time>2016-8-16T21:47:8Z</time></trkpt>
<trkpt lat="46.31167" lon="6.95461"><ele></ele><time>2016-8-16T21:47:11Z</time></trkpt>
<trkpt lat="46.31164" lon="6.95465"><ele></ele><time>2016-8-16T21:47:14Z</time></trkpt>
<trkpt lat="46.3116" lon="6.95469"><ele></ele><time>2016-8-16T21:47:17Z</time></trkpt>
<trkpt lat="46.31156" lon="6.95472"><ele></ele><time>2016-8-16T21:47:20Z</time></trkpt>
<trkpt lat="46.31147" lon="6.95478"><ele></ele><time>2016-8-16T21:47:23Z</time></trkpt>
<trkpt lat="46.31138" lon="6.95483"><ele></ele><time>2016-8-16T21:47:26Z</time></trkpt>
<trkpt lat="46.31129" lon="6.9549"><ele></ele><time>2016-8-16T21:47:29Z</time></trkpt>
<trkpt lat="46.31121" lon="6.955"><ele></ele><time>2016-8-16T21:47:32Z</time></trkpt>
<trkpt lat="46.31113" lon="6.9551"><ele></ele><time>2016-8-16T21:47:35Z</time></trkpt>
<trkpt lat="46.31105" lon="6.9552"><ele></ele><time>2016-8-16T21:47:38Z</time></trkpt>
<trkpt lat="46.31097" lon="6.9553"><ele></ele><time>2016-8-16T21:47:41Z</time></trkpt>
<trkpt lat="46.31093" lon="6.95535"><ele></ele><time>2016-8-16T21:47:44Z</time></trkpt>
<trkpt lat="46.31089" lon="6.95541"><ele></ele><time>2016-8-16T21:47:47Z</time></trkpt>
<trkpt lat="46.31081" lon="6.95552"><ele></ele><time>2016-8-16T21:47:50Z</time></trkpt>
<trkpt lat="46.31073" lon="6.95563"><ele></ele><time>2016-8-16T21:47:53Z</time></trkpt>
<trkpt lat="46.31064" lon="6.95573"><ele></ele><time>2016-8-16T21:47:56Z</time></trkpt>
<trkpt lat="46.31053" lon="6.95581"><ele></ele><time>2016-8-16T21:47:59Z</time></trkpt>
<trkpt lat="46.31043" lon="6.95593"><ele></ele><time>2016-8-16T21:48:2Z</time></trkpt>
<trkpt lat="46.31032" lon="6.95604"><ele></ele><time>2016-8-16T21:48:5Z</time></trkpt>
<trkpt lat="46.31022" lon="6.95615"><ele></ele><time>2016-8-16T21:48:8Z</time></trkpt>
<trkpt lat="46.31017" lon="6.95621"><ele></ele><time>2016-8-16T21:48:11Z</time></trkpt>
<trkpt lat="46.31012" lon="6.95627"><ele></ele><time>2016-8-16T21:48:14Z</time></trkpt>
<trkpt lat="46.31002" lon="6.95639"><ele></ele><time>2016-8-16T21:48:17Z</time></trkpt>
<trkpt lat="46.30993" lon="6.9565"><ele></ele><time>2016-8-16T21:48:20Z</time></trkpt>
<trkpt lat="46.30983" lon="6.95662"><ele></ele><time>2016-8-16T21:48:23Z</time></trkpt>
<trkpt lat="46.30978" lon="6.95668"><ele></ele><time>2016-8-16T21:48:26Z</time></trkpt>
<trkpt lat="46.30973" lon="6.95674"><ele></ele><time>2016-8-16T21:48:29Z</time></trkpt>
<trkpt lat="46.30963" lon="6.95686"><ele></ele><time>2016-8-16T21:48:32Z</time></trkpt>
<trkpt lat="46.30954" lon="6.95697"><ele></ele><time>2016-8-16T21:48:35Z</time></trkpt>
<trkpt lat="46.30944" lon="6.95709"><ele></ele><time>2016-8-16T21:48:38Z</time></trkpt>
<trkpt lat="46.30939" lon="6.95715"><ele></ele><time>2016-8-16T21:48:41Z</time></trkpt>
<trkpt lat="46.30935" lon="6.9572"><ele></ele><time>2016-8-16T21:48:44Z</time></trkpt>
<trkpt lat="46.30925" lon="6.9573"><ele></ele><time>2016-8-16T21:48:47Z</time></trkpt>
<trkpt lat="46.30921" lon="6.95735"><ele></ele><time>2016-8-16T21:48:50Z</time></trkpt>
<trkpt lat="46.30916" lon="6.95741"><ele></ele><time>2016-8-16T21:48:53Z</time></trkpt>
<trkpt lat="46.30907" lon="6.95751"><ele></ele><time>2016-8-16T21:48:56Z</time></trkpt>
<trkpt lat="46.30902" lon="6.95756"><ele></ele><time>2016-8-16T21:48:59Z</time></trkpt>
<trkpt lat="46.30898" lon="6.95761"><ele></ele><time>2016-8-16T21:49:2Z</time></trkpt>
<trkpt lat="46.30889" lon="6.95772"><ele></ele><time>2016-8-16T21:49:5Z</time></trkpt>
<trkpt lat="46.30881" lon="6.95782"><ele></ele><time>2016-8-16T21:49:8Z</time></trkpt>
<trkpt lat="46.30872" lon="6.95793"><ele></ele><time>2016-8-16T21:49:11Z</time></trkpt>
<trkpt lat="46.30867" lon="6.95798"><ele></ele><time>2016-8-16T21:49:14Z</time></trkpt>
<trkpt lat="46.30863" lon="6.95803"><ele></ele><time>2016-8-16T21:49:17Z</time></trkpt>
<trkpt lat="46.30854" lon="6.95814"><ele></ele><time>2016-8-16T21:49:20Z</time></trkpt>
<trkpt lat="46.30844" lon="6.95824"><ele></ele><time>2016-8-16T21:49:23Z</time></trkpt>
<trkpt lat="46.30835" lon="6.95835"><ele></ele><time>2016-8-16T21:49:26Z</time></trkpt>
<trkpt lat="46.3083" lon="6.9584"><ele></ele><time>2016-8-16T21:49:29Z</time></trkpt>
<trkpt lat="46.30825" lon="6.95846"><ele></ele><time>2016-8-16T21:49:32Z</time></trkpt>
<trkpt lat="46.30816" lon="6.95857"><ele></ele><time>2016-8-16T21:49:35Z</time></trkpt>
<trkpt lat="46.30806" lon="6.95869"><ele></ele><time>2016-8-16T21:49:38Z</time></trkpt>
<trkpt lat="46.30796" lon="6.9588"><ele></ele><time>2016-8-16T21:49:41Z</time></trkpt>
<trkpt lat="46.30791" lon="6.95886"><ele></ele><time>2016-8-16T21:49:44Z</time></trkpt>
<trkpt lat="46.30785" lon="6.95892"><ele></ele><time>2016-8-16T21:49:47Z</time></trkpt>
<trkpt lat="46.30775" lon="6.95905"><ele></ele><time>2016-8-16T21:49:50Z</time></trkpt>
<trkpt lat="46.30764" lon="6.95918"><ele></ele><time>2016-8-16T21:49:53Z</time></trkpt>
<trkpt lat="46.30754" lon="6.9593"><ele></ele><time>2016-8-16T21:49:56Z</time></trkpt>
<trkpt lat="46.30744" lon="6.95942"><ele></ele><time>2016-8-16T21:49:59Z</time></trkpt>
<trkpt lat="46.30735" lon="6.95953"><ele></ele><time>2016-8-16T21:50:2Z</time></trkpt>
<trkpt lat="46.30725" lon="6.95965"><ele></ele><time>2016-8-16T21:50:5Z</time></trkpt>
<trkpt lat="46.30715" lon="6.95977"><ele></ele><time>2016-8-16T21:50:8Z</time></trkpt>
<trkpt lat="46.30704" lon="6.95989"><ele></ele><time>2016-8-16T21:50:11Z</time></trkpt>
<trkpt lat="46.30693" lon="6.96001"><ele></ele><time>2016-8-16T21:50:14Z</time></trkpt>
<trkpt lat="46.30682" lon="6.96013"><ele></ele><time>2016-8-16T21:50:17Z</time></trkpt>
<trkpt lat="46.30677" lon="6.96019"><ele></ele><time>2016-8-16T21:50:20Z</time></trkpt>
<trkpt lat="46.30673" lon="6.96025"><ele></ele><time>2016-8-16T21:50:23Z</time></trkpt>
<trkpt lat="46.30664" lon="6.96036"><ele></ele><time>2016-8-16T21:50:26Z</time></trkpt>
<trkpt lat="46.30656" lon="6.96047"><ele></ele><time>2016-8-16T21:50:29Z</time></trkpt>
<trkpt lat="46.30647" lon="6.96058"><ele></ele><time>2016-8-16T21:50:32Z</time></trkpt>
<trkpt lat="46.30643" lon="6.96063"><ele></ele><time>2016-8-16T21:50:35Z</time></trkpt>
<trkpt lat="46.30638" lon="6.96068"><ele></ele><time>2016-8-16T21:50:38Z</time></trkpt>
<trkpt lat="46.30629" lon="6.96077"><ele></ele><time>2016-8-16T21:50:41Z</time></trkpt>
<trkpt lat="46.3062" lon="6.96087"><ele></ele><time>2016-8-16T21:50:44Z</time></trkpt>
<trkpt lat="46.30611" lon="6.96096"><ele></ele><time>2016-8-16T21:50:47Z</time></trkpt>
<trkpt lat="46.30602" lon="6.96105"><ele></ele><time>2016-8-16T21:50:50Z</time></trkpt>
<trkpt lat="46.30593" lon="6.96114"><ele></ele><time>2016-8-16T21:50:53Z</time></trkpt>
<trkpt lat="46.30583" lon="6.96123"><ele></ele><time>2016-8-16T21:50:56Z</time></trkpt>
<trkpt lat="46.30573" lon="6.96133"><ele></ele><time>2016-8-16T21:50:59Z</time></trkpt>
<trkpt lat="46.30564" lon="6.96142"><ele></ele><time>2016-8-16T21:51:2Z</time></trkpt>
<trkpt lat="46.30554" lon="6.96151"><ele></ele><time>2016-8-16T21:51:5Z</time></trkpt>
<trkpt lat="46.30545" lon="6.9616"><ele></ele><time>2016-8-16T21:51:8Z</time></trkpt>
<trkpt lat="46.30536" lon="6.96169"><ele></ele><time>2016-8-16T21:51:11Z</time></trkpt>
<trkpt lat="46.30526" lon="6.96178"><ele></ele><time>2016-8-16T21:51:14Z</time></trkpt>
<trkpt lat="46.30522" lon="6.96182"><ele></ele><time>2016-8-16T21:51:17Z</time></trkpt>
<trkpt lat="46.30517" lon="6.96187"><ele></ele><time>2016-8-16T21:51:20Z</time></trkpt>
<trkpt lat="46.30509" lon="6.96196"><ele></ele><time>2016-8-16T21:51:23Z</time></trkpt>
<trkpt lat="46.305" lon="6.96205"><ele></ele><time>2016-8-16T21:51:26Z</time></trkpt>
<trkpt lat="46.30491" lon="6.96214"><ele></ele><time>2016-8-16T21:51:29Z</time></trkpt>
<trkpt lat="46.30483" lon="6.96223"><ele></ele><time>2016-8-16T21:51:32Z</time></trkpt>
<trkpt lat="46.30474" lon="6.96232"><ele></ele><time>2016-8-16T21:51:35Z</time></trkpt>
<trkpt lat="46.30465" lon="6.9624"><ele></ele><time>2016-8-16T21:51:38Z</time></trkpt>
<trkpt lat="46.30456" lon="6.96249"><ele></ele><time>2016-8-16T21:51:41Z</time></trkpt>
<trkpt lat="46.30448" lon="6.96257"><ele></ele><time>2016-8-16T21:51:44Z</time></trkpt>
<trkpt lat="46.30443" lon="6.96261"><ele></ele><time>2016-8-16T21:51:47Z</time></trkpt>
<trkpt lat="46.3044" lon="6.96266"><ele></ele><time>2016-8-16T21:51:50Z</time></trkpt>
<trkpt lat="46.30432" lon="6.96274"><ele></ele><time>2016-8-16T21:51:53Z</time></trkpt>
<trkpt lat="46.30425" lon="6.96282"><ele></ele><time>2016-8-16T21:51:56Z</time></trkpt>
<trkpt lat="46.30417" lon="6.96291"><ele></ele><time>2016-8-16T21:51:59Z</time></trkpt>
<trkpt lat="46.30409" lon="6.96299"><ele></ele><time>2016-8-16T21:52:2Z</time></trkpt>
<trkpt lat="46.30408" lon="6.96303"><ele></ele><time>2016-8-16T21:52:5Z</time></trkpt>
<trkpt lat="46.30409" lon="6.96306"><ele></ele><time>2016-8-16T21:52:8Z</time></trkpt>
<trkpt lat="46.30412" lon="6.96313"><ele></ele><time>2016-8-16T21:52:11Z</time></trkpt>
<trkpt lat="46.30415" lon="6.9632"><ele></ele><time>2016-8-16T21:52:14Z</time></trkpt>
<trkpt lat="46.30418" lon="6.96327"><ele></ele><time>2016-8-16T21:52:17Z</time></trkpt>
<trkpt lat="46.3042" lon="6.96333"><ele></ele><time>2016-8-16T21:52:20Z</time></trkpt>
<trkpt lat="46.30423" lon="6.9634"><ele></ele><time>2016-8-16T21:52:23Z</time></trkpt>
<trkpt lat="46.30426" lon="6.96347"><ele></ele><time>2016-8-16T21:52:26Z</time></trkpt>
<trkpt lat="46.30429" lon="6.96354"><ele></ele><time>2016-8-16T21:52:29Z</time></trkpt>
<trkpt lat="46.30431" lon="6.96361"><ele></ele><time>2016-8-16T21:52:32Z</time></trkpt>
<trkpt lat="46.30434" lon="6.9637"><ele></ele><time>2016-8-16T21:52:35Z</time></trkpt>
<trkpt lat="46.30436" lon="6.96379"><ele></ele><time>2016-8-16T21:52:38Z</time></trkpt>
<trkpt lat="46.30439" lon="6.96388"><ele></ele><time>2016-8-16T21:52:41Z</time></trkpt>
<trkpt lat="46.30442" lon="6.96397"><ele></ele><time>2016-8-16T21:52:44Z</time></trkpt>
<trkpt lat="46.30443" lon="6.96402"><ele></ele><time>2016-8-16T21:52:47Z</time></trkpt>
<trkpt lat="46.30446" lon="6.96408"><ele></ele><time>2016-8-16T21:52:50Z</time></trkpt>
<trkpt lat="46.30451" lon="6.96419"><ele></ele><time>2016-8-16T21:52:53Z</time></trkpt>
<trkpt lat="46.30456" lon="6.96431"><ele></ele><time>2016-8-16T21:52:56Z</time></trkpt>
<trkpt lat="46.30462" lon="6.96442"><ele></ele><time>2016-8-16T21:52:59Z</time></trkpt>
<trkpt lat="46.30467" lon="6.96453"><ele></ele><time>2016-8-16T21:53:2Z</time></trkpt>
<trkpt lat="46.30469" lon="6.96459"><ele></ele><time>2016-8-16T21:53:5Z</time></trkpt>
<trkpt lat="46.30472" lon="6.96465"><ele></ele><time>2016-8-16T21:53:8Z</time></trkpt>
<trkpt lat="46.30476" lon="6.96477"><ele></ele><time>2016-8-16T21:53:11Z</time></trkpt>
<trkpt lat="46.30481" lon="6.96489"><ele></ele><time>2016-8-16T21:53:14Z</time></trkpt>
<trkpt lat="46.30485" lon="6.96502"><ele></ele><time>2016-8-16T21:53:17Z</time></trkpt>
<trkpt lat="46.3049" lon="6.96514"><ele></ele><time>2016-8-16T21:53:20Z</time></trkpt>
<trkpt lat="46.30492" lon="6.96519"><ele></ele><time>2016-8-16T21:53:23Z</time></trkpt>
<trkpt lat="46.30494" lon="6.96525"><ele></ele><time>2016-8-16T21:53:26Z</time></trkpt>
<trkpt lat="46.30499" lon="6.96537"><ele></ele><time>2016-8-16T21:53:29Z</time></trkpt>
<trkpt lat="46.30503" lon="6.96548"><ele></ele><time>2016-8-16T21:53:32Z</time></trkpt>
<trkpt lat="46.30508" lon="6.9656"><ele></ele><time>2016-8-16T21:53:35Z</time></trkpt>
<trkpt lat="46.30512" lon="6.96571"><ele></ele><time>2016-8-16T21:53:38Z</time></trkpt>
<trkpt lat="46.30514" lon="6.96576"><ele></ele><time>2016-8-16T21:53:41Z</time></trkpt>
<trkpt lat="46.30515" lon="6.96579"><ele></ele><time>2016-8-16T21:53:44Z</time></trkpt>
<trkpt lat="46.30518" lon="6.96585"><ele></ele><time>2016-8-16T21:53:47Z</time></trkpt>
<trkpt lat="46.30521" lon="6.96591"><ele></ele><time>2016-8-16T21:53:50Z</time></trkpt>
<trkpt lat="46.30523" lon="6.96597"><ele></ele><time>2016-8-16T21:53:53Z</time></trkpt>
<trkpt lat="46.30526" lon="6.96603"><ele></ele><time>2016-8-16T21:53:56Z</time></trkpt>
<trkpt lat="46.30529" lon="6.96609"><ele></ele><time>2016-8-16T21:53:59Z</time></trkpt>
<trkpt lat="46.30531" lon="6.96615"><ele></ele><time>2016-8-16T21:54:2Z</time></trkpt>
<trkpt lat="46.30534" lon="6.96621"><ele></ele><time>2016-8-16T21:54:5Z</time></trkpt>
<trkpt lat="46.30537" lon="6.96628"><ele></ele><time>2016-8-16T21:54:8Z</time></trkpt>
<trkpt lat="46.30538" lon="6.9663"><ele></ele><time>2016-8-16T21:54:11Z</time></trkpt>
<trkpt lat="46.30539" lon="6.96632"><ele></ele><time>2016-8-16T21:54:14Z</time></trkpt>
<trkpt lat="46.30541" lon="6.96635"><ele></ele><time>2016-8-16T21:54:17Z</time></trkpt>
<trkpt lat="46.30543" lon="6.96639"><ele></ele><time>2016-8-16T21:54:20Z</time></trkpt>
<trkpt lat="46.30545" lon="6.96643"><ele></ele><time>2016-8-16T21:54:23Z</time></trkpt>
<trkpt lat="46.30547" lon="6.96646"><ele></ele><time>2016-8-16T21:54:26Z</time></trkpt>
<trkpt lat="46.30549" lon="6.9665"><ele></ele><time>2016-8-16T21:54:29Z</time></trkpt>
<trkpt lat="46.30551" lon="6.96654"><ele></ele><time>2016-8-16T21:54:32Z</time></trkpt>
<trkpt lat="46.30554" lon="6.96657"><ele></ele><time>2016-8-16T21:54:35Z</time></trkpt>
<trkpt lat="46.30556" lon="6.96661"><ele></ele><time>2016-8-16T21:54:38Z</time></trkpt>
<trkpt lat="46.30558" lon="6.96662"><ele></ele><time>2016-8-16T21:54:41Z</time></trkpt>
<trkpt lat="46.30562" lon="6.96661"><ele></ele><time>2016-8-16T21:54:44Z</time></trkpt>
<trkpt lat="46.30569" lon="6.96659"><ele></ele><time>2016-8-16T21:54:47Z</time></trkpt>
<trkpt lat="46.30577" lon="6.96657"><ele></ele><time>2016-8-16T21:54:50Z</time></trkpt>
<trkpt lat="46.30584" lon="6.96655"><ele></ele><time>2016-8-16T21:54:53Z</time></trkpt>
<trkpt lat="46.30592" lon="6.96653"><ele></ele><time>2016-8-16T21:54:56Z</time></trkpt>
<trkpt lat="46.306" lon="6.96652"><ele></ele><time>2016-8-16T21:54:59Z</time></trkpt>
<trkpt lat="46.30603" lon="6.96652"><ele></ele><time>2016-8-16T21:55:2Z</time></trkpt>
<trkpt lat="46.30607" lon="6.96653"><ele></ele><time>2016-8-16T21:55:5Z</time></trkpt>
<trkpt lat="46.30615" lon="6.96653"><ele></ele><time>2016-8-16T21:55:8Z</time></trkpt>
<trkpt lat="46.30621" lon="6.96652"><ele></ele><time>2016-8-16T21:55:11Z</time></trkpt>
<trkpt lat="46.30628" lon="6.9665"><ele></ele><time>2016-8-16T21:55:14Z</time></trkpt>
<trkpt lat="46.30634" lon="6.96648"><ele></ele><time>2016-8-16T21:55:17Z</time></trkpt>
<trkpt lat="46.30641" lon="6.96647"><ele></ele><time>2016-8-16T21:55:20Z</time></trkpt>
<trkpt lat="46.30647" lon="6.96645"><ele></ele><time>2016-8-16T21:55:23Z</time></trkpt>
<trkpt lat="46.30653" lon="6.96643"><ele></ele><time>2016-8-16T21:55:26Z</time></trkpt>
<trkpt lat="46.30661" lon="6.96641"><ele></ele><time>2016-8-16T21:55:29Z</time></trkpt>
<trkpt lat="46.3067" lon="6.96639"><ele></ele><time>2016-8-16T21:55:32Z</time></trkpt>
<trkpt lat="46.30679" lon="6.96636"><ele></ele><time>2016-8-16T21:55:35Z</time></trkpt>
<trkpt lat="46.30689" lon="6.96633"><ele></ele><time>2016-8-16T21:55:38Z</time></trkpt>
<trkpt lat="46.30696" lon="6.96633"><ele></ele><time>2016-8-16T21:55:41Z</time></trkpt>
<trkpt lat="46.30702" lon="6.96632"><ele></ele><time>2016-8-16T21:55:44Z</time></trkpt>
<trkpt lat="46.30715" lon="6.96631"><ele></ele><time>2016-8-16T21:55:47Z</time></trkpt>
<trkpt lat="46.30727" lon="6.9663"><ele></ele><time>2016-8-16T21:55:50Z</time></trkpt>
<trkpt lat="46.3074" lon="6.96628"><ele></ele><time>2016-8-16T21:55:53Z</time></trkpt>
<trkpt lat="46.30751" lon="6.96626"><ele></ele><time>2016-8-16T21:55:56Z</time></trkpt>
<trkpt lat="46.30762" lon="6.96624"><ele></ele><time>2016-8-16T21:55:59Z</time></trkpt>
<trkpt lat="46.30773" lon="6.96622"><ele></ele><time>2016-8-16T21:56:2Z</time></trkpt>
<trkpt lat="46.30784" lon="6.9662"><ele></ele><time>2016-8-16T21:56:5Z</time></trkpt>
<trkpt lat="46.30795" lon="6.96618"><ele></ele><time>2016-8-16T21:56:8Z</time></trkpt>
<trkpt lat="46.30805" lon="6.96616"><ele></ele><time>2016-8-16T21:56:11Z</time></trkpt>
<trkpt lat="46.30815" lon="6.96614"><ele></ele><time>2016-8-16T21:56:14Z</time></trkpt>
<trkpt lat="46.30826" lon="6.96612"><ele></ele><time>2016-8-16T21:56:17Z</time></trkpt>
<trkpt lat="46.30831" lon="6.96611"><ele></ele><time>2016-8-16T21:56:20Z</time></trkpt>
<trkpt lat="46.30836" lon="6.9661"><ele></ele><time>2016-8-16T21:56:23Z</time></trkpt>
<trkpt lat="46.30845" lon="6.96608"><ele></ele><time>2016-8-16T21:56:26Z</time></trkpt>
<trkpt lat="46.30855" lon="6.96607"><ele></ele><time>2016-8-16T21:56:29Z</time></trkpt>
<trkpt lat="46.30864" lon="6.96605"><ele></ele><time>2016-8-16T21:56:32Z</time></trkpt>
<trkpt lat="46.30873" lon="6.96603"><ele></ele><time>2016-8-16T21:56:35Z</time></trkpt>
<trkpt lat="46.30878" lon="6.96602"><ele></ele><time>2016-8-16T21:56:38Z</time></trkpt>
<trkpt lat="46.30883" lon="6.96601"><ele></ele><time>2016-8-16T21:56:41Z</time></trkpt>
<trkpt lat="46.30894" lon="6.96599"><ele></ele><time>2016-8-16T21:56:44Z</time></trkpt>
<trkpt lat="46.30904" lon="6.96597"><ele></ele><time>2016-8-16T21:56:47Z</time></trkpt>
<trkpt lat="46.30914" lon="6.96595"><ele></ele><time>2016-8-16T21:56:50Z</time></trkpt>
<trkpt lat="46.30924" lon="6.96593"><ele></ele><time>2016-8-16T21:56:53Z</time></trkpt>
<trkpt lat="46.30934" lon="6.96591"><ele></ele><time>2016-8-16T21:56:56Z</time></trkpt>
<trkpt lat="46.30944" lon="6.96589"><ele></ele><time>2016-8-16T21:56:59Z</time></trkpt>
<trkpt lat="46.30954" lon="6.96587"><ele></ele><time>2016-8-16T21:57:2Z</time></trkpt>
<trkpt lat="46.30964" lon="6.96585"><ele></ele><time>2016-8-16T21:57:5Z</time></trkpt>
<trkpt lat="46.30968" lon="6.96584"><ele></ele><time>2016-8-16T21:57:8Z</time></trkpt>
<trkpt lat="46.30973" lon="6.96583"><ele></ele><time>2016-8-16T21:57:11Z</time></trkpt>
<trkpt lat="46.30983" lon="6.96581"><ele></ele><time>2016-8-16T21:57:14Z</time></trkpt>
<trkpt lat="46.30993" lon="6.96579"><ele></ele><time>2016-8-16T21:57:17Z</time></trkpt>
<trkpt lat="46.31003" lon="6.96577"><ele></ele><time>2016-8-16T21:57:20Z</time></trkpt>
<trkpt lat="46.31013" lon="6.96575"><ele></ele><time>2016-8-16T21:57:23Z</time></trkpt>
<trkpt lat="46.31022" lon="6.96573"><ele></ele><time>2016-8-16T21:57:26Z</time></trkpt>
<trkpt lat="46.31031" lon="6.96571"><ele></ele><time>2016-8-16T21:57:29Z</time></trkpt>
<trkpt lat="46.3104" lon="6.96569"><ele></ele><time>2016-8-16T21:57:32Z</time></trkpt>
<trkpt lat="46.31049" lon="6.96568"><ele></ele><time>2016-8-16T21:57:35Z</time></trkpt>
<trkpt lat="46.31052" lon="6.9657"><ele></ele><time>2016-8-16T21:57:38Z</time></trkpt>
<trkpt lat="46.31053" lon="6.96575"><ele></ele><time>2016-8-16T21:57:41Z</time></trkpt>
<trkpt lat="46.31054" lon="6.96581"><ele></ele><time>2016-8-16T21:57:44Z</time></trkpt>
<trkpt lat="46.31055" lon="6.96586"><ele></ele><time>2016-8-16T21:57:47Z</time></trkpt>
<trkpt lat="46.31058" lon="6.96597"><ele></ele><time>2016-8-16T21:57:50Z</time></trkpt>
<trkpt lat="46.3106" lon="6.96608"><ele></ele><time>2016-8-16T21:57:53Z</time></trkpt>
<trkpt lat="46.31062" lon="6.96619"><ele></ele><time>2016-8-16T21:57:56Z</time></trkpt>
<trkpt lat="46.31064" lon="6.96631"><ele></ele><time>2016-8-16T21:57:59Z</time></trkpt>
<trkpt lat="46.31065" lon="6.96648"><ele></ele><time>2016-8-16T21:58:2Z</time></trkpt>
<trkpt lat="46.31065" lon="6.96656"><ele></ele><time>2016-8-16T21:58:5Z</time></trkpt>
<trkpt lat="46.31065" lon="6.96664"><ele></ele><time>2016-8-16T21:58:8Z</time></trkpt>
<trkpt lat="46.31066" lon="6.96673"><ele></ele><time>2016-8-16T21:58:11Z</time></trkpt>
<trkpt lat="46.31066" lon="6.96681"><ele></ele><time>2016-8-16T21:58:14Z</time></trkpt>
<trkpt lat="46.31067" lon="6.96697"><ele></ele><time>2016-8-16T21:58:17Z</time></trkpt>
<trkpt lat="46.31067" lon="6.96705"><ele></ele><time>2016-8-16T21:58:20Z</time></trkpt>
<trkpt lat="46.31068" lon="6.96713"><ele></ele><time>2016-8-16T21:58:23Z</time></trkpt>
<trkpt lat="46.31066" lon="6.96719"><ele></ele><time>2016-8-16T21:58:26Z</time></trkpt>
<trkpt lat="46.31063" lon="6.96724"><ele></ele><time>2016-8-16T21:58:29Z</time></trkpt>
<trkpt lat="46.31058" lon="6.96727"><ele></ele><time>2016-8-16T21:58:32Z</time></trkpt>
<trkpt lat="46.31052" lon="6.96727"><ele></ele><time>2016-8-16T21:58:35Z</time></trkpt>
<trkpt lat="46.31037" lon="6.96723"><ele></ele><time>2016-8-16T21:58:38Z</time></trkpt>
<trkpt lat="46.31022" lon="6.96719"><ele></ele><time>2016-8-16T21:58:41Z</time></trkpt>
<trkpt lat="46.31007" lon="6.96715"><ele></ele><time>2016-8-16T21:58:44Z</time></trkpt>
<trkpt lat="46.30992" lon="6.9671"><ele></ele><time>2016-8-16T21:58:47Z</time></trkpt>
<trkpt lat="46.30976" lon="6.96706"><ele></ele><time>2016-8-16T21:58:50Z</time></trkpt>
<trkpt lat="46.30962" lon="6.96702"><ele></ele><time>2016-8-16T21:58:53Z</time></trkpt>
<trkpt lat="46.30947" lon="6.96702"><ele></ele><time>2016-8-16T21:58:56Z</time></trkpt>
<trkpt lat="46.30932" lon="6.96701"><ele></ele><time>2016-8-16T21:58:59Z</time></trkpt>
<trkpt lat="46.30918" lon="6.96702"><ele></ele><time>2016-8-16T21:59:2Z</time></trkpt>
<trkpt lat="46.30904" lon="6.96706"><ele></ele><time>2016-8-16T21:59:5Z</time></trkpt>
<trkpt lat="46.3089" lon="6.9671"><ele></ele><time>2016-8-16T21:59:8Z</time></trkpt>
<trkpt lat="46.30883" lon="6.96713"><ele></ele><time>2016-8-16T21:59:11Z</time></trkpt>
<trkpt lat="46.30878" lon="6.96717"><ele></ele><time>2016-8-16T21:59:14Z</time></trkpt>
<trkpt lat="46.30867" lon="6.96725"><ele></ele><time>2016-8-16T21:59:17Z</time></trkpt>
<trkpt lat="46.30862" lon="6.96728"><ele></ele><time>2016-8-16T21:59:20Z</time></trkpt>
<trkpt lat="46.30856" lon="6.96732"><ele></ele><time>2016-8-16T21:59:23Z</time></trkpt>
<trkpt lat="46.30842" lon="6.96738"><ele></ele><time>2016-8-16T21:59:26Z</time></trkpt>
<trkpt lat="46.30828" lon="6.96744"><ele></ele><time>2016-8-16T21:59:29Z</time></trkpt>
<trkpt lat="46.30815" lon="6.9675"><ele></ele><time>2016-8-16T21:59:32Z</time></trkpt>
<trkpt lat="46.30809" lon="6.96752"><ele></ele><time>2016-8-16T21:59:35Z</time></trkpt>
<trkpt lat="46.30804" lon="6.96754"><ele></ele><time>2016-8-16T21:59:38Z</time></trkpt>
<trkpt lat="46.30794" lon="6.96758"><ele></ele><time>2016-8-16T21:59:41Z</time></trkpt>
<trkpt lat="46.30785" lon="6.96761"><ele></ele><time>2016-8-16T21:59:44Z</time></trkpt>
<trkpt lat="46.30775" lon="6.96764"><ele></ele><time>2016-8-16T21:59:47Z</time></trkpt>
<trkpt lat="46.30766" lon="6.96768"><ele></ele><time>2016-8-16T21:59:50Z</time></trkpt>
<trkpt lat="46.30761" lon="6.96769"><ele></ele><time>2016-8-16T21:59:53Z</time></trkpt>
<trkpt lat="46.30756" lon="6.9677"><ele></ele><time>2016-8-16T21:59:56Z</time></trkpt>
<trkpt lat="46.30745" lon="6.96772"><ele></ele><time>2016-8-16T21:59:59Z</time></trkpt>
<trkpt lat="46.30735" lon="6.96774"><ele></ele><time>2016-8-16T22:0:2Z</time></trkpt>
<trkpt lat="46.3073" lon="6.96774"><ele></ele><time>2016-8-16T22:0:5Z</time></trkpt>
<trkpt lat="46.30723" lon="6.96773"><ele></ele><time>2016-8-16T22:0:8Z</time></trkpt>
<trkpt lat="46.30711" lon="6.96771"><ele></ele><time>2016-8-16T22:0:11Z</time></trkpt>
<trkpt lat="46.30698" lon="6.96769"><ele></ele><time>2016-8-16T22:0:14Z</time></trkpt>
<trkpt lat="46.30686" lon="6.96766"><ele></ele><time>2016-8-16T22:0:17Z</time></trkpt>
<trkpt lat="46.30679" lon="6.96765"><ele></ele><time>2016-8-16T22:0:20Z</time></trkpt>
<trkpt lat="46.30672" lon="6.96763"><ele></ele><time>2016-8-16T22:0:23Z</time></trkpt>
<trkpt lat="46.30659" lon="6.96758"><ele></ele><time>2016-8-16T22:0:26Z</time></trkpt>
<trkpt lat="46.30645" lon="6.96754"><ele></ele><time>2016-8-16T22:0:29Z</time></trkpt>
<trkpt lat="46.30632" lon="6.96749"><ele></ele><time>2016-8-16T22:0:32Z</time></trkpt>
<trkpt lat="46.30618" lon="6.96741"><ele></ele><time>2016-8-16T22:0:35Z</time></trkpt>
<trkpt lat="46.30604" lon="6.96733"><ele></ele><time>2016-8-16T22:0:38Z</time></trkpt>
<trkpt lat="46.30591" lon="6.96725"><ele></ele><time>2016-8-16T22:0:41Z</time></trkpt>
<trkpt lat="46.30584" lon="6.96721"><ele></ele><time>2016-8-16T22:0:44Z</time></trkpt>
<trkpt lat="46.30577" lon="6.96715"><ele></ele><time>2016-8-16T22:0:47Z</time></trkpt>
<trkpt lat="46.30563" lon="6.96706"><ele></ele><time>2016-8-16T22:0:50Z</time></trkpt>
<trkpt lat="46.30547" lon="6.96702"><ele></ele><time>2016-8-16T22:0:53Z</time></trkpt>
<trkpt lat="46.30538" lon="6.967"><ele></ele><time>2016-8-16T22:0:56Z</time></trkpt>
<trkpt lat="46.3053" lon="6.96698"><ele></ele><time>2016-8-16T22:0:59Z</time></trkpt>
<trkpt lat="46.30515" lon="6.96697"><ele></ele><time>2016-8-16T22:1:2Z</time></trkpt>
<trkpt lat="46.30503" lon="6.9671"><ele></ele><time>2016-8-16T22:1:5Z</time></trkpt>
<trkpt lat="46.30491" lon="6.96724"><ele></ele><time>2016-8-16T22:1:8Z</time></trkpt>
<trkpt lat="46.30479" lon="6.96737"><ele></ele><time>2016-8-16T22:1:11Z</time></trkpt>
<trkpt lat="46.30474" lon="6.96744"><ele></ele><time>2016-8-16T22:1:14Z</time></trkpt>
<trkpt lat="46.30469" lon="6.96752"><ele></ele><time>2016-8-16T22:1:17Z</time></trkpt>
<trkpt lat="46.30459" lon="6.96768"><ele></ele><time>2016-8-16T22:1:20Z</time></trkpt>
<trkpt lat="46.30449" lon="6.96783"><ele></ele><time>2016-8-16T22:1:23Z</time></trkpt>
<trkpt lat="46.30445" lon="6.96791"><ele></ele><time>2016-8-16T22:1:26Z</time></trkpt>
<trkpt lat="46.3044" lon="6.96799"><ele></ele><time>2016-8-16T22:1:29Z</time></trkpt>
<trkpt lat="46.30432" lon="6.96815"><ele></ele><time>2016-8-16T22:1:32Z</time></trkpt>
<trkpt lat="46.30425" lon="6.9683"><ele></ele><time>2016-8-16T22:1:35Z</time></trkpt>
<trkpt lat="46.30417" lon="6.96846"><ele></ele><time>2016-8-16T22:1:38Z</time></trkpt>
<trkpt lat="46.30414" lon="6.96854"><ele></ele><time>2016-8-16T22:1:41Z</time></trkpt>
<trkpt lat="46.30411" lon="6.96861"><ele></ele><time>2016-8-16T22:1:44Z</time></trkpt>
<trkpt lat="46.30405" lon="6.96876"><ele></ele><time>2016-8-16T22:1:47Z</time></trkpt>
<trkpt lat="46.30399" lon="6.96891"><ele></ele><time>2016-8-16T22:1:50Z</time></trkpt>
<trkpt lat="46.30393" lon="6.96905"><ele></ele><time>2016-8-16T22:1:53Z</time></trkpt>
<trkpt lat="46.30391" lon="6.96913"><ele></ele><time>2016-8-16T22:1:56Z</time></trkpt>
<trkpt lat="46.30389" lon="6.9692"><ele></ele><time>2016-8-16T22:1:59Z</time></trkpt>
<trkpt lat="46.30385" lon="6.96935"><ele></ele><time>2016-8-16T22:2:2Z</time></trkpt>
<trkpt lat="46.30381" lon="6.96949"><ele></ele><time>2016-8-16T22:2:5Z</time></trkpt>
<trkpt lat="46.30377" lon="6.96964"><ele></ele><time>2016-8-16T22:2:8Z</time></trkpt>
<trkpt lat="46.30373" lon="6.96978"><ele></ele><time>2016-8-16T22:2:11Z</time></trkpt>
<trkpt lat="46.30371" lon="6.96992"><ele></ele><time>2016-8-16T22:2:14Z</time></trkpt>
<trkpt lat="46.30369" lon="6.97006"><ele></ele><time>2016-8-16T22:2:17Z</time></trkpt>
<trkpt lat="46.30367" lon="6.97011"><ele></ele><time>2016-8-16T22:2:20Z</time></trkpt>
<trkpt lat="46.30362" lon="6.97014"><ele></ele><time>2016-8-16T22:2:23Z</time></trkpt>
<trkpt lat="46.30354" lon="6.97019"><ele></ele><time>2016-8-16T22:2:26Z</time></trkpt>
<trkpt lat="46.30346" lon="6.97019"><ele></ele><time>2016-8-16T22:2:29Z</time></trkpt>
<trkpt lat="46.30338" lon="6.97019"><ele></ele><time>2016-8-16T22:2:32Z</time></trkpt>
<trkpt lat="46.30329" lon="6.97019"><ele></ele><time>2016-8-16T22:2:35Z</time></trkpt>
<trkpt lat="46.30321" lon="6.97019"><ele></ele><time>2016-8-16T22:2:38Z</time></trkpt>
<trkpt lat="46.30313" lon="6.97019"><ele></ele><time>2016-8-16T22:2:41Z</time></trkpt>
<trkpt lat="46.30309" lon="6.97018"><ele></ele><time>2016-8-16T22:2:44Z</time></trkpt>
<trkpt lat="46.30306" lon="6.97017"><ele></ele><time>2016-8-16T22:2:47Z</time></trkpt>
<trkpt lat="46.303" lon="6.97011"><ele></ele><time>2016-8-16T22:2:50Z</time></trkpt>
<trkpt lat="46.30298" lon="6.96999"><ele></ele><time>2016-8-16T22:2:53Z</time></trkpt>
<trkpt lat="46.30296" lon="6.96986"><ele></ele><time>2016-8-16T22:2:56Z</time></trkpt>
<trkpt lat="46.30294" lon="6.96974"><ele></ele><time>2016-8-16T22:2:59Z</time></trkpt>
<trkpt lat="46.30292" lon="6.96961"><ele></ele><time>2016-8-16T22:3:2Z</time></trkpt>
<trkpt lat="46.3029" lon="6.96949"><ele></ele><time>2016-8-16T22:3:5Z</time></trkpt>
<trkpt lat="46.30289" lon="6.96943"><ele></ele><time>2016-8-16T22:3:8Z</time></trkpt>
<trkpt lat="46.30288" lon="6.96939"><ele></ele><time>2016-8-16T22:3:11Z</time></trkpt>
<trkpt lat="46.30287" lon="6.9693"><ele></ele><time>2016-8-16T22:3:14Z</time></trkpt>
<trkpt lat="46.30285" lon="6.96921"><ele></ele><time>2016-8-16T22:3:17Z</time></trkpt>
<trkpt lat="46.30284" lon="6.96912"><ele></ele><time>2016-8-16T22:3:20Z</time></trkpt>
<trkpt lat="46.30282" lon="6.96904"><ele></ele><time>2016-8-16T22:3:23Z</time></trkpt>
<trkpt lat="46.30281" lon="6.96895"><ele></ele><time>2016-8-16T22:3:26Z</time></trkpt>
<trkpt lat="46.3028" lon="6.96887"><ele></ele><time>2016-8-16T22:3:29Z</time></trkpt>
<trkpt lat="46.30283" lon="6.96885"><ele></ele><time>2016-8-16T22:3:32Z</time></trkpt>
<trkpt lat="46.30286" lon="6.96882"><ele></ele><time>2016-8-16T22:3:35Z</time></trkpt>
<trkpt lat="46.30289" lon="6.96879"><ele></ele><time>2016-8-16T22:3:38Z</time></trkpt>
<trkpt lat="46.30292" lon="6.96876"><ele></ele><time>2016-8-16T22:3:41Z</time></trkpt>
<trkpt lat="46.30311" lon="6.96868"><ele></ele><time>2016-8-16T22:3:44Z</time></trkpt>
<trkpt lat="46.30311" lon="6.96868"><ele></ele><time>2016-8-16T22:3:47Z</time></trkpt>
<trkpt lat="46.30327" lon="6.96862"><ele></ele><time>2016-8-16T22:3:50Z</time></trkpt>
<trkpt lat="46.30328" lon="6.96862"><ele></ele><time>2016-8-16T22:3:53Z</time></trkpt>
<trkpt lat="46.3033" lon="6.96862"><ele></ele><time>2016-8-16T22:3:56Z</time></trkpt>
<trkpt lat="46.30331" lon="6.96862"><ele></ele><time>2016-8-16T22:3:59Z</time></trkpt>
<trkpt lat="46.30333" lon="6.96862"><ele></ele><time>2016-8-16T22:4:2Z</time></trkpt>
<trkpt lat="46.30334" lon="6.96862"><ele></ele><time>2016-8-16T22:4:5Z</time></trkpt>
<trkpt lat="46.30335" lon="6.96862"><ele></ele><time>2016-8-16T22:4:8Z</time></trkpt>
<trkpt lat="46.30337" lon="6.96862"><ele></ele><time>2016-8-16T22:4:11Z</time></trkpt>
<trkpt lat="46.30338" lon="6.96863"><ele></ele><time>2016-8-16T22:4:14Z</time></trkpt>
<trkpt lat="46.3034" lon="6.96863"><ele></ele><time>2016-8-16T22:4:17Z</time></trkpt>
<trkpt lat="46.30341" lon="6.96863"><ele></ele><time>2016-8-16T22:4:20Z</time></trkpt>
<trkpt lat="46.30342" lon="6.96863"><ele></ele><time>2016-8-16T22:4:23Z</time></trkpt>
<trkpt lat="46.30343" lon="6.96863"><ele></ele><time>2016-8-16T22:4:26Z</time></trkpt>
<trkpt lat="46.30344" lon="6.96863"><ele></ele><time>2016-8-16T22:4:29Z</time></trkpt>
<trkpt lat="46.30345" lon="6.96862"><ele></ele><time>2016-8-16T22:4:32Z</time></trkpt>
<trkpt lat="46.30346" lon="6.96862"><ele></ele><time>2016-8-16T22:4:35Z</time></trkpt>
<trkpt lat="46.30348" lon="6.96862"><ele></ele><time>2016-8-16T22:4:38Z</time></trkpt>
<trkpt lat="46.30349" lon="6.96861"><ele></ele><time>2016-8-16T22:4:41Z</time></trkpt>
<trkpt lat="46.3035" lon="6.96861"><ele></ele><time>2016-8-16T22:4:44Z</time></trkpt>
<trkpt lat="46.30349" lon="6.9686"><ele></ele><time>2016-8-16T22:4:47Z</time></trkpt>
<trkpt lat="46.30348" lon="6.9686"><ele></ele><time>2016-8-16T22:4:50Z</time></trkpt>
<trkpt lat="46.30325" lon="6.96862"><ele></ele><time>2016-8-16T22:4:53Z</time></trkpt>
<trkpt lat="46.30325" lon="6.96862"><ele></ele><time>2016-8-16T22:4:56Z</time></trkpt>
<trkpt lat="46.30303" lon="6.96864"><ele></ele><time>2016-8-16T22:4:59Z</time></trkpt>
<trkpt lat="46.30298" lon="6.96865"><ele></ele><time>2016-8-16T22:5:2Z</time></trkpt>
<trkpt lat="46.30293" lon="6.96866"><ele></ele><time>2016-8-16T22:5:5Z</time></trkpt>
<trkpt lat="46.30288" lon="6.96867"><ele></ele><time>2016-8-16T22:5:8Z</time></trkpt>
<trkpt lat="46.30283" lon="6.96869"><ele></ele><time>2016-8-16T22:5:11Z</time></trkpt>
<trkpt lat="46.30278" lon="6.9687"><ele></ele><time>2016-8-16T22:5:14Z</time></trkpt>
<trkpt lat="46.30276" lon="6.96872"><ele></ele><time>2016-8-16T22:5:17Z</time></trkpt>
<trkpt lat="46.30275" lon="6.96876"><ele></ele><time>2016-8-16T22:5:20Z</time></trkpt>
<trkpt lat="46.30273" lon="6.96885"><ele></ele><time>2016-8-16T22:5:23Z</time></trkpt>
<trkpt lat="46.30275" lon="6.96893"><ele></ele><time>2016-8-16T22:5:26Z</time></trkpt>
<trkpt lat="46.30277" lon="6.96902"><ele></ele><time>2016-8-16T22:5:29Z</time></trkpt>
<trkpt lat="46.3028" lon="6.96911"><ele></ele><time>2016-8-16T22:5:32Z</time></trkpt>
<trkpt lat="46.30282" lon="6.9692"><ele></ele><time>2016-8-16T22:5:35Z</time></trkpt>
<trkpt lat="46.30284" lon="6.96929"><ele></ele><time>2016-8-16T22:5:38Z</time></trkpt>
<trkpt lat="46.30287" lon="6.96938"><ele></ele><time>2016-8-16T22:5:41Z</time></trkpt>
<trkpt lat="46.30289" lon="6.96947"><ele></ele><time>2016-8-16T22:5:44Z</time></trkpt>
<trkpt lat="46.30291" lon="6.96955"><ele></ele><time>2016-8-16T22:5:47Z</time></trkpt>
<trkpt lat="46.30293" lon="6.96963"><ele></ele><time>2016-8-16T22:5:50Z</time></trkpt>
<trkpt lat="46.30295" lon="6.96971"><ele></ele><time>2016-8-16T22:5:53Z</time></trkpt>
<trkpt lat="46.30297" lon="6.9698"><ele></ele><time>2016-8-16T22:5:56Z</time></trkpt>
<trkpt lat="46.30299" lon="6.96988"><ele></ele><time>2016-8-16T22:5:59Z</time></trkpt>
<trkpt lat="46.30302" lon="6.96996"><ele></ele><time>2016-8-16T22:6:2Z</time></trkpt>
<trkpt lat="46.30304" lon="6.97004"><ele></ele><time>2016-8-16T22:6:5Z</time></trkpt>
<trkpt lat="46.30304" lon="6.97008"><ele></ele><time>2016-8-16T22:6:8Z</time></trkpt>
<trkpt lat="46.30304" lon="6.97013"><ele></ele><time>2016-8-16T22:6:11Z</time></trkpt>
<trkpt lat="46.30302" lon="6.9702"><ele></ele><time>2016-8-16T22:6:14Z</time></trkpt>
<trkpt lat="46.30294" lon="6.97025"><ele></ele><time>2016-8-16T22:6:17Z</time></trkpt>
<trkpt lat="46.30285" lon="6.97028"><ele></ele><time>2016-8-16T22:6:20Z</time></trkpt>
<trkpt lat="46.30273" lon="6.9703"><ele></ele><time>2016-8-16T22:6:23Z</time></trkpt>
<trkpt lat="46.30261" lon="6.97031"><ele></ele><time>2016-8-16T22:6:26Z</time></trkpt>
<trkpt lat="46.30249" lon="6.97032"><ele></ele><time>2016-8-16T22:6:29Z</time></trkpt>
<trkpt lat="46.30236" lon="6.97034"><ele></ele><time>2016-8-16T22:6:32Z</time></trkpt>
<trkpt lat="46.30221" lon="6.97036"><ele></ele><time>2016-8-16T22:6:35Z</time></trkpt>
<trkpt lat="46.30206" lon="6.97037"><ele></ele><time>2016-8-16T22:6:38Z</time></trkpt>
<trkpt lat="46.30191" lon="6.97039"><ele></ele><time>2016-8-16T22:6:41Z</time></trkpt>
<trkpt lat="46.30185" lon="6.9704"><ele></ele><time>2016-8-16T22:6:44Z</time></trkpt>
<trkpt lat="46.3018" lon="6.97043"><ele></ele><time>2016-8-16T22:6:47Z</time></trkpt>
<trkpt lat="46.3017" lon="6.97047"><ele></ele><time>2016-8-16T22:6:50Z</time></trkpt>
<trkpt lat="46.30161" lon="6.9705"><ele></ele><time>2016-8-16T22:6:53Z</time></trkpt>
<trkpt lat="46.30152" lon="6.97051"><ele></ele><time>2016-8-16T22:6:56Z</time></trkpt>
<trkpt lat="46.30144" lon="6.97052"><ele></ele><time>2016-8-16T22:6:59Z</time></trkpt>
<trkpt lat="46.30136" lon="6.97053"><ele></ele><time>2016-8-16T22:7:2Z</time></trkpt>
<trkpt lat="46.30127" lon="6.97054"><ele></ele><time>2016-8-16T22:7:5Z</time></trkpt>
<trkpt lat="46.30119" lon="6.97055"><ele></ele><time>2016-8-16T22:7:8Z</time></trkpt>
<trkpt lat="46.3011" lon="6.97056"><ele></ele><time>2016-8-16T22:7:11Z</time></trkpt>
<trkpt lat="46.30097" lon="6.97057"><ele></ele><time>2016-8-16T22:7:14Z</time></trkpt>
<trkpt lat="46.30085" lon="6.97059"><ele></ele><time>2016-8-16T22:7:17Z</time></trkpt>
<trkpt lat="46.30072" lon="6.9706"><ele></ele><time>2016-8-16T22:7:20Z</time></trkpt>
<trkpt lat="46.3006" lon="6.97061"><ele></ele><time>2016-8-16T22:7:23Z</time></trkpt>
<trkpt lat="46.30047" lon="6.97064"><ele></ele><time>2016-8-16T22:7:26Z</time></trkpt>
<trkpt lat="46.30035" lon="6.97066"><ele></ele><time>2016-8-16T22:7:29Z</time></trkpt>
<trkpt lat="46.30028" lon="6.97067"><ele></ele><time>2016-8-16T22:7:32Z</time></trkpt>
<trkpt lat="46.30022" lon="6.97069"><ele></ele><time>2016-8-16T22:7:35Z</time></trkpt>
<trkpt lat="46.30009" lon="6.97071"><ele></ele><time>2016-8-16T22:7:38Z</time></trkpt>
<trkpt lat="46.29995" lon="6.97072"><ele></ele><time>2016-8-16T22:7:41Z</time></trkpt>
<trkpt lat="46.29981" lon="6.97073"><ele></ele><time>2016-8-16T22:7:44Z</time></trkpt>
<trkpt lat="46.29967" lon="6.97075"><ele></ele><time>2016-8-16T22:7:47Z</time></trkpt>
<trkpt lat="46.2996" lon="6.97075"><ele></ele><time>2016-8-16T22:7:50Z</time></trkpt>
<trkpt lat="46.29953" lon="6.97076"><ele></ele><time>2016-8-16T22:7:53Z</time></trkpt>
<trkpt lat="46.29939" lon="6.97078"><ele></ele><time>2016-8-16T22:7:56Z</time></trkpt>
<trkpt lat="46.29924" lon="6.9708"><ele></ele><time>2016-8-16T22:7:59Z</time></trkpt>
<trkpt lat="46.2991" lon="6.97082"><ele></ele><time>2016-8-16T22:8:2Z</time></trkpt>
<trkpt lat="46.29896" lon="6.97085"><ele></ele><time>2016-8-16T22:8:5Z</time></trkpt>
<trkpt lat="46.29882" lon="6.97087"><ele></ele><time>2016-8-16T22:8:8Z</time></trkpt>
<trkpt lat="46.29868" lon="6.9709"><ele></ele><time>2016-8-16T22:8:11Z</time></trkpt>
<trkpt lat="46.29861" lon="6.97091"><ele></ele><time>2016-8-16T22:8:14Z</time></trkpt>
<trkpt lat="46.29853" lon="6.97093"><ele></ele><time>2016-8-16T22:8:17Z</time></trkpt>
<trkpt lat="46.29838" lon="6.97096"><ele></ele><time>2016-8-16T22:8:20Z</time></trkpt>
<trkpt lat="46.29823" lon="6.97098"><ele></ele><time>2016-8-16T22:8:23Z</time></trkpt>
<trkpt lat="46.29816" lon="6.971"><ele></ele><time>2016-8-16T22:8:26Z</time></trkpt>
<trkpt lat="46.29808" lon="6.97101"><ele></ele><time>2016-8-16T22:8:29Z</time></trkpt>
<trkpt lat="46.29793" lon="6.97104"><ele></ele><time>2016-8-16T22:8:32Z</time></trkpt>
<trkpt lat="46.29778" lon="6.97107"><ele></ele><time>2016-8-16T22:8:35Z</time></trkpt>
<trkpt lat="46.29771" lon="6.97108"><ele></ele><time>2016-8-16T22:8:38Z</time></trkpt>
<trkpt lat="46.29763" lon="6.9711"><ele></ele><time>2016-8-16T22:8:41Z</time></trkpt>
<trkpt lat="46.29748" lon="6.97113"><ele></ele><time>2016-8-16T22:8:44Z</time></trkpt>
<trkpt lat="46.29733" lon="6.97116"><ele></ele><time>2016-8-16T22:8:47Z</time></trkpt>
<trkpt lat="46.29725" lon="6.97117"><ele></ele><time>2016-8-16T22:8:50Z</time></trkpt>
<trkpt lat="46.29719" lon="6.97118"><ele></ele><time>2016-8-16T22:8:53Z</time></trkpt>
<trkpt lat="46.29705" lon="6.97121"><ele></ele><time>2016-8-16T22:8:56Z</time></trkpt>
<trkpt lat="46.29692" lon="6.97124"><ele></ele><time>2016-8-16T22:8:59Z</time></trkpt>
<trkpt lat="46.29679" lon="6.97126"><ele></ele><time>2016-8-16T22:9:2Z</time></trkpt>
<trkpt lat="46.29667" lon="6.97128"><ele></ele><time>2016-8-16T22:9:5Z</time></trkpt>
<trkpt lat="46.29655" lon="6.97129"><ele></ele><time>2016-8-16T22:9:8Z</time></trkpt>
<trkpt lat="46.29643" lon="6.97131"><ele></ele><time>2016-8-16T22:9:11Z</time></trkpt>
<trkpt lat="46.29631" lon="6.97131"><ele></ele><time>2016-8-16T22:9:14Z</time></trkpt>
<trkpt lat="46.29621" lon="6.97126"><ele></ele><time>2016-8-16T22:9:17Z</time></trkpt>
<trkpt lat="46.29613" lon="6.97113"><ele></ele><time>2016-8-16T22:9:20Z</time></trkpt>
<trkpt lat="46.29605" lon="6.971"><ele></ele><time>2016-8-16T22:9:23Z</time></trkpt>
<trkpt lat="46.29597" lon="6.97087"><ele></ele><time>2016-8-16T22:9:26Z</time></trkpt>
<trkpt lat="46.29592" lon="6.97082"><ele></ele><time>2016-8-16T22:9:29Z</time></trkpt>
<trkpt lat="46.29586" lon="6.97078"><ele></ele><time>2016-8-16T22:9:32Z</time></trkpt>
<trkpt lat="46.29575" lon="6.97071"><ele></ele><time>2016-8-16T22:9:35Z</time></trkpt>
<trkpt lat="46.29562" lon="6.97066"><ele></ele><time>2016-8-16T22:9:38Z</time></trkpt>
<trkpt lat="46.2955" lon="6.97062"><ele></ele><time>2016-8-16T22:9:41Z</time></trkpt>
<trkpt lat="46.29538" lon="6.97057"><ele></ele><time>2016-8-16T22:9:44Z</time></trkpt>
<trkpt lat="46.29526" lon="6.97053"><ele></ele><time>2016-8-16T22:9:47Z</time></trkpt>
<trkpt lat="46.29514" lon="6.97049"><ele></ele><time>2016-8-16T22:9:50Z</time></trkpt>
<trkpt lat="46.29502" lon="6.97044"><ele></ele><time>2016-8-16T22:9:53Z</time></trkpt>
<trkpt lat="46.29493" lon="6.97034"><ele></ele><time>2016-8-16T22:9:56Z</time></trkpt>
<trkpt lat="46.29484" lon="6.97024"><ele></ele><time>2016-8-16T22:9:59Z</time></trkpt>
<trkpt lat="46.29478" lon="6.9702"><ele></ele><time>2016-8-16T22:10:2Z</time></trkpt>
<trkpt lat="46.29471" lon="6.97015"><ele></ele><time>2016-8-16T22:10:5Z</time></trkpt>
<trkpt lat="46.29463" lon="6.97007"><ele></ele><time>2016-8-16T22:10:8Z</time></trkpt>
<trkpt lat="46.29455" lon="6.96998"><ele></ele><time>2016-8-16T22:10:11Z</time></trkpt>
<trkpt lat="46.29451" lon="6.96995"><ele></ele><time>2016-8-16T22:10:14Z</time></trkpt>
<trkpt lat="46.29446" lon="6.96993"><ele></ele><time>2016-8-16T22:10:17Z</time></trkpt>
<trkpt lat="46.29437" lon="6.96989"><ele></ele><time>2016-8-16T22:10:20Z</time></trkpt>
<trkpt lat="46.29432" lon="6.96989"><ele></ele><time>2016-8-16T22:10:23Z</time></trkpt>
<trkpt lat="46.29428" lon="6.96992"><ele></ele><time>2016-8-16T22:10:26Z</time></trkpt>
<trkpt lat="46.29421" lon="6.96999"><ele></ele><time>2016-8-16T22:10:29Z</time></trkpt>
<trkpt lat="46.29417" lon="6.97011"><ele></ele><time>2016-8-16T22:10:32Z</time></trkpt>
<trkpt lat="46.29417" lon="6.97018"><ele></ele><time>2016-8-16T22:10:35Z</time></trkpt>
<trkpt lat="46.29419" lon="6.97024"><ele></ele><time>2016-8-16T22:10:38Z</time></trkpt>
<trkpt lat="46.29419" lon="6.9703"><ele></ele><time>2016-8-16T22:10:41Z</time></trkpt>
<trkpt lat="46.2942" lon="6.97037"><ele></ele><time>2016-8-16T22:10:44Z</time></trkpt>
<trkpt lat="46.29425" lon="6.97048"><ele></ele><time>2016-8-16T22:10:47Z</time></trkpt>
<trkpt lat="46.2943" lon="6.97059"><ele></ele><time>2016-8-16T22:10:50Z</time></trkpt>
<trkpt lat="46.29432" lon="6.97065"><ele></ele><time>2016-8-16T22:10:53Z</time></trkpt>
<trkpt lat="46.29433" lon="6.97072"><ele></ele><time>2016-8-16T22:10:56Z</time></trkpt>
<trkpt lat="46.29432" lon="6.97078"><ele></ele><time>2016-8-16T22:10:59Z</time></trkpt>
<trkpt lat="46.29428" lon="6.97083"><ele></ele><time>2016-8-16T22:11:2Z</time></trkpt>
<trkpt lat="46.29423" lon="6.97084"><ele></ele><time>2016-8-16T22:11:5Z</time></trkpt>
<trkpt lat="46.29418" lon="6.97082"><ele></ele><time>2016-8-16T22:11:8Z</time></trkpt>
<trkpt lat="46.29408" lon="6.97078"><ele></ele><time>2016-8-16T22:11:11Z</time></trkpt>
<trkpt lat="46.29398" lon="6.97074"><ele></ele><time>2016-8-16T22:11:14Z</time></trkpt>
<trkpt lat="46.29388" lon="6.9707"><ele></ele><time>2016-8-16T22:11:17Z</time></trkpt>
<trkpt lat="46.29377" lon="6.97067"><ele></ele><time>2016-8-16T22:11:20Z</time></trkpt>
<trkpt lat="46.29365" lon="6.97065"><ele></ele><time>2016-8-16T22:11:23Z</time></trkpt>
<trkpt lat="46.29353" lon="6.97062"><ele></ele><time>2016-8-16T22:11:26Z</time></trkpt>
<trkpt lat="46.29341" lon="6.9706"><ele></ele><time>2016-8-16T22:11:29Z</time></trkpt>
<trkpt lat="46.29329" lon="6.97058"><ele></ele><time>2016-8-16T22:11:32Z</time></trkpt>
<trkpt lat="46.29317" lon="6.97055"><ele></ele><time>2016-8-16T22:11:35Z</time></trkpt>
<trkpt lat="46.29305" lon="6.97051"><ele></ele><time>2016-8-16T22:11:38Z</time></trkpt>
<trkpt lat="46.29293" lon="6.97048"><ele></ele><time>2016-8-16T22:11:41Z</time></trkpt>
<trkpt lat="46.29282" lon="6.97045"><ele></ele><time>2016-8-16T22:11:44Z</time></trkpt>
<trkpt lat="46.29272" lon="6.97042"><ele></ele><time>2016-8-16T22:11:47Z</time></trkpt>
<trkpt lat="46.29262" lon="6.9704"><ele></ele><time>2016-8-16T22:11:50Z</time></trkpt>
<trkpt lat="46.29252" lon="6.97037"><ele></ele><time>2016-8-16T22:11:53Z</time></trkpt>
<trkpt lat="46.29242" lon="6.97034"><ele></ele><time>2016-8-16T22:11:56Z</time></trkpt>
<trkpt lat="46.29234" lon="6.9703"><ele></ele><time>2016-8-16T22:11:59Z</time></trkpt>
<trkpt lat="46.29226" lon="6.97026"><ele></ele><time>2016-8-16T22:12:2Z</time></trkpt>
<trkpt lat="46.29218" lon="6.97022"><ele></ele><time>2016-8-16T22:12:5Z</time></trkpt>
<trkpt lat="46.29209" lon="6.97018"><ele></ele><time>2016-8-16T22:12:8Z</time></trkpt>
<trkpt lat="46.29205" lon="6.97017"><ele></ele><time>2016-8-16T22:12:11Z</time></trkpt>
<trkpt lat="46.29199" lon="6.97016"><ele></ele><time>2016-8-16T22:12:14Z</time></trkpt>
<trkpt lat="46.29188" lon="6.97016"><ele></ele><time>2016-8-16T22:12:17Z</time></trkpt>
<trkpt lat="46.29177" lon="6.97016"><ele></ele><time>2016-8-16T22:12:20Z</time></trkpt>
<trkpt lat="46.29165" lon="6.97016"><ele></ele><time>2016-8-16T22:12:23Z</time></trkpt>
<trkpt lat="46.29159" lon="6.97016"><ele></ele><time>2016-8-16T22:12:26Z</time></trkpt>
<trkpt lat="46.29153" lon="6.97016"><ele></ele><time>2016-8-16T22:12:29Z</time></trkpt>
<trkpt lat="46.29141" lon="6.97017"><ele></ele><time>2016-8-16T22:12:32Z</time></trkpt>
<trkpt lat="46.29129" lon="6.97019"><ele></ele><time>2016-8-16T22:12:35Z</time></trkpt>
<trkpt lat="46.29117" lon="6.9702"><ele></ele><time>2016-8-16T22:12:38Z</time></trkpt>
<trkpt lat="46.29111" lon="6.97021"><ele></ele><time>2016-8-16T22:12:41Z</time></trkpt>
<trkpt lat="46.29105" lon="6.97023"><ele></ele><time>2016-8-16T22:12:44Z</time></trkpt>
<trkpt lat="46.29093" lon="6.97027"><ele></ele><time>2016-8-16T22:12:47Z</time></trkpt>
<trkpt lat="46.29081" lon="6.97031"><ele></ele><time>2016-8-16T22:12:50Z</time></trkpt>
<trkpt lat="46.29069" lon="6.97035"><ele></ele><time>2016-8-16T22:12:53Z</time></trkpt>
<trkpt lat="46.29062" lon="6.97036"><ele></ele><time>2016-8-16T22:12:56Z</time></trkpt>
<trkpt lat="46.29055" lon="6.97036"><ele></ele><time>2016-8-16T22:12:59Z</time></trkpt>
<trkpt lat="46.2904" lon="6.97034"><ele></ele><time>2016-8-16T22:13:2Z</time></trkpt>
<trkpt lat="46.29026" lon="6.97033"><ele></ele><time>2016-8-16T22:13:5Z</time></trkpt>
<trkpt lat="46.29011" lon="6.97031"><ele></ele><time>2016-8-16T22:13:8Z</time></trkpt>
<trkpt lat="46.28997" lon="6.97028"><ele></ele><time>2016-8-16T22:13:11Z</time></trkpt>
<trkpt lat="46.28983" lon="6.97024"><ele></ele><time>2016-8-16T22:13:14Z</time></trkpt>
<trkpt lat="46.28969" lon="6.9702"><ele></ele><time>2016-8-16T22:13:17Z</time></trkpt>
<trkpt lat="46.28962" lon="6.97019"><ele></ele><time>2016-8-16T22:13:20Z</time></trkpt>
<trkpt lat="46.28955" lon="6.9702"><ele></ele><time>2016-8-16T22:13:23Z</time></trkpt>
<trkpt lat="46.28941" lon="6.97021"><ele></ele><time>2016-8-16T22:13:26Z</time></trkpt>
<trkpt lat="46.28927" lon="6.97021"><ele></ele><time>2016-8-16T22:13:29Z</time></trkpt>
<trkpt lat="46.28914" lon="6.97022"><ele></ele><time>2016-8-16T22:13:32Z</time></trkpt>
<trkpt lat="46.28904" lon="6.97023"><ele></ele><time>2016-8-16T22:13:35Z</time></trkpt>
<trkpt lat="46.28894" lon="6.97025"><ele></ele><time>2016-8-16T22:13:38Z</time></trkpt>
<trkpt lat="46.28883" lon="6.97026"><ele></ele><time>2016-8-16T22:13:41Z</time></trkpt>
<trkpt lat="46.28873" lon="6.97027"><ele></ele><time>2016-8-16T22:13:44Z</time></trkpt>
<trkpt lat="46.28868" lon="6.97027"><ele></ele><time>2016-8-16T22:13:47Z</time></trkpt>
<trkpt lat="46.28863" lon="6.97027"><ele></ele><time>2016-8-16T22:13:50Z</time></trkpt>
<trkpt lat="46.28853" lon="6.97026"><ele></ele><time>2016-8-16T22:13:53Z</time></trkpt>
<trkpt lat="46.28843" lon="6.97025"><ele></ele><time>2016-8-16T22:13:56Z</time></trkpt>
<trkpt lat="46.28832" lon="6.97024"><ele></ele><time>2016-8-16T22:13:59Z</time></trkpt>
<trkpt lat="46.28821" lon="6.97022"><ele></ele><time>2016-8-16T22:14:2Z</time></trkpt>
<trkpt lat="46.28807" lon="6.97016"><ele></ele><time>2016-8-16T22:14:5Z</time></trkpt>
<trkpt lat="46.28793" lon="6.9701"><ele></ele><time>2016-8-16T22:14:8Z</time></trkpt>
<trkpt lat="46.28778" lon="6.97004"><ele></ele><time>2016-8-16T22:14:11Z</time></trkpt>
<trkpt lat="46.28771" lon="6.97002"><ele></ele><time>2016-8-16T22:14:14Z</time></trkpt>
<trkpt lat="46.28763" lon="6.97001"><ele></ele><time>2016-8-16T22:14:17Z</time></trkpt>
<trkpt lat="46.28748" lon="6.96998"><ele></ele><time>2016-8-16T22:14:20Z</time></trkpt>
<trkpt lat="46.28733" lon="6.96997"><ele></ele><time>2016-8-16T22:14:23Z</time></trkpt>
<trkpt lat="46.28719" lon="6.96998"><ele></ele><time>2016-8-16T22:14:26Z</time></trkpt>
<trkpt lat="46.28705" lon="6.96999"><ele></ele><time>2016-8-16T22:14:29Z</time></trkpt>
<trkpt lat="46.28691" lon="6.97001"><ele></ele><time>2016-8-16T22:14:32Z</time></trkpt>
<trkpt lat="46.28684" lon="6.97002"><ele></ele><time>2016-8-16T22:14:35Z</time></trkpt>
<trkpt lat="46.28678" lon="6.97003"><ele></ele><time>2016-8-16T22:14:38Z</time></trkpt>
<trkpt lat="46.28665" lon="6.97006"><ele></ele><time>2016-8-16T22:14:41Z</time></trkpt>
<trkpt lat="46.28653" lon="6.97009"><ele></ele><time>2016-8-16T22:14:44Z</time></trkpt>
<trkpt lat="46.28641" lon="6.97012"><ele></ele><time>2016-8-16T22:14:47Z</time></trkpt>
<trkpt lat="46.28635" lon="6.97013"><ele></ele><time>2016-8-16T22:14:50Z</time></trkpt>
<trkpt lat="46.28628" lon="6.97014"><ele></ele><time>2016-8-16T22:14:53Z</time></trkpt>
<trkpt lat="46.28615" lon="6.97016"><ele></ele><time>2016-8-16T22:14:56Z</time></trkpt>
<trkpt lat="46.28602" lon="6.97017"><ele></ele><time>2016-8-16T22:14:59Z</time></trkpt>
<trkpt lat="46.28589" lon="6.97019"><ele></ele><time>2016-8-16T22:15:2Z</time></trkpt>
<trkpt lat="46.28576" lon="6.97021"><ele></ele><time>2016-8-16T22:15:5Z</time></trkpt>
<trkpt lat="46.28563" lon="6.97023"><ele></ele><time>2016-8-16T22:15:8Z</time></trkpt>
<trkpt lat="46.28549" lon="6.97025"><ele></ele><time>2016-8-16T22:15:11Z</time></trkpt>
<trkpt lat="46.28543" lon="6.97026"><ele></ele><time>2016-8-16T22:15:14Z</time></trkpt>
<trkpt lat="46.28536" lon="6.97028"><ele></ele><time>2016-8-16T22:15:17Z</time></trkpt>
<trkpt lat="46.28523" lon="6.9703"><ele></ele><time>2016-8-16T22:15:20Z</time></trkpt>
<trkpt lat="46.2851" lon="6.97033"><ele></ele><time>2016-8-16T22:15:23Z</time></trkpt>
<trkpt lat="46.28497" lon="6.97035"><ele></ele><time>2016-8-16T22:15:26Z</time></trkpt>
<trkpt lat="46.28485" lon="6.97038"><ele></ele><time>2016-8-16T22:15:29Z</time></trkpt>
<trkpt lat="46.28474" lon="6.97041"><ele></ele><time>2016-8-16T22:15:32Z</time></trkpt>
<trkpt lat="46.28462" lon="6.97044"><ele></ele><time>2016-8-16T22:15:35Z</time></trkpt>
<trkpt lat="46.2845" lon="6.97047"><ele></ele><time>2016-8-16T22:15:38Z</time></trkpt>
<trkpt lat="46.28437" lon="6.97051"><ele></ele><time>2016-8-16T22:15:41Z</time></trkpt>
<trkpt lat="46.28424" lon="6.97054"><ele></ele><time>2016-8-16T22:15:44Z</time></trkpt>
<trkpt lat="46.28411" lon="6.97058"><ele></ele><time>2016-8-16T22:15:47Z</time></trkpt>
<trkpt lat="46.28405" lon="6.97059"><ele></ele><time>2016-8-16T22:15:50Z</time></trkpt>
<trkpt lat="46.28399" lon="6.97061"><ele></ele><time>2016-8-16T22:15:53Z</time></trkpt>
<trkpt lat="46.28387" lon="6.97063"><ele></ele><time>2016-8-16T22:15:56Z</time></trkpt>
<trkpt lat="46.28375" lon="6.97066"><ele></ele><time>2016-8-16T22:15:59Z</time></trkpt>
<trkpt lat="46.28363" lon="6.97068"><ele></ele><time>2016-8-16T22:16:2Z</time></trkpt>
<trkpt lat="46.28357" lon="6.97069"><ele></ele><time>2016-8-16T22:16:5Z</time></trkpt>
<trkpt lat="46.2835" lon="6.9707"><ele></ele><time>2016-8-16T22:16:8Z</time></trkpt>
<trkpt lat="46.28337" lon="6.97072"><ele></ele><time>2016-8-16T22:16:11Z</time></trkpt>
<trkpt lat="46.28324" lon="6.97075"><ele></ele><time>2016-8-16T22:16:14Z</time></trkpt>
<trkpt lat="46.28311" lon="6.97077"><ele></ele><time>2016-8-16T22:16:17Z</time></trkpt>
<trkpt lat="46.28298" lon="6.97079"><ele></ele><time>2016-8-16T22:16:20Z</time></trkpt>
<trkpt lat="46.28285" lon="6.97081"><ele></ele><time>2016-8-16T22:16:23Z</time></trkpt>
<trkpt lat="46.28272" lon="6.97083"><ele></ele><time>2016-8-16T22:16:26Z</time></trkpt>
<trkpt lat="46.28266" lon="6.97084"><ele></ele><time>2016-8-16T22:16:29Z</time></trkpt>
<trkpt lat="46.28259" lon="6.97085"><ele></ele><time>2016-8-16T22:16:32Z</time></trkpt>
<trkpt lat="46.28245" lon="6.97088"><ele></ele><time>2016-8-16T22:16:35Z</time></trkpt>
<trkpt lat="46.28232" lon="6.97091"><ele></ele><time>2016-8-16T22:16:38Z</time></trkpt>
<trkpt lat="46.28218" lon="6.97093"><ele></ele><time>2016-8-16T22:16:41Z</time></trkpt>
<trkpt lat="46.28205" lon="6.97096"><ele></ele><time>2016-8-16T22:16:44Z</time></trkpt>
<trkpt lat="46.28192" lon="6.97099"><ele></ele><time>2016-8-16T22:16:47Z</time></trkpt>
<trkpt lat="46.28179" lon="6.97102"><ele></ele><time>2016-8-16T22:16:50Z</time></trkpt>
<trkpt lat="46.28173" lon="6.97104"><ele></ele><time>2016-8-16T22:16:53Z</time></trkpt>
<trkpt lat="46.28166" lon="6.97105"><ele></ele><time>2016-8-16T22:16:56Z</time></trkpt>
<trkpt lat="46.28153" lon="6.97108"><ele></ele><time>2016-8-16T22:16:59Z</time></trkpt>
<trkpt lat="46.28141" lon="6.97112"><ele></ele><time>2016-8-16T22:17:2Z</time></trkpt>
<trkpt lat="46.28128" lon="6.97115"><ele></ele><time>2016-8-16T22:17:5Z</time></trkpt>
<trkpt lat="46.28118" lon="6.97119"><ele></ele><time>2016-8-16T22:17:8Z</time></trkpt>
<trkpt lat="46.28107" lon="6.97123"><ele></ele><time>2016-8-16T22:17:11Z</time></trkpt>
<trkpt lat="46.28097" lon="6.97126"><ele></ele><time>2016-8-16T22:17:14Z</time></trkpt>
<trkpt lat="46.28086" lon="6.9713"><ele></ele><time>2016-8-16T22:17:17Z</time></trkpt>
<trkpt lat="46.28081" lon="6.97133"><ele></ele><time>2016-8-16T22:17:20Z</time></trkpt>
<trkpt lat="46.28075" lon="6.97137"><ele></ele><time>2016-8-16T22:17:23Z</time></trkpt>
<trkpt lat="46.28065" lon="6.97144"><ele></ele><time>2016-8-16T22:17:26Z</time></trkpt>
<trkpt lat="46.28054" lon="6.97152"><ele></ele><time>2016-8-16T22:17:29Z</time></trkpt>
<trkpt lat="46.28043" lon="6.97159"><ele></ele><time>2016-8-16T22:17:32Z</time></trkpt>
<trkpt lat="46.28038" lon="6.97163"><ele></ele><time>2016-8-16T22:17:35Z</time></trkpt>
<trkpt lat="46.28033" lon="6.97166"><ele></ele><time>2016-8-16T22:17:38Z</time></trkpt>
<trkpt lat="46.28023" lon="6.97173"><ele></ele><time>2016-8-16T22:17:41Z</time></trkpt>
<trkpt lat="46.28013" lon="6.9718"><ele></ele><time>2016-8-16T22:17:44Z</time></trkpt>
<trkpt lat="46.28002" lon="6.97187"><ele></ele><time>2016-8-16T22:17:47Z</time></trkpt>
<trkpt lat="46.27998" lon="6.9719"><ele></ele><time>2016-8-16T22:17:50Z</time></trkpt>
<trkpt lat="46.27993" lon="6.97192"><ele></ele><time>2016-8-16T22:17:53Z</time></trkpt>
<trkpt lat="46.27985" lon="6.97195"><ele></ele><time>2016-8-16T22:17:56Z</time></trkpt>
<trkpt lat="46.27976" lon="6.97199"><ele></ele><time>2016-8-16T22:17:59Z</time></trkpt>
<trkpt lat="46.27967" lon="6.97203"><ele></ele><time>2016-8-16T22:18:2Z</time></trkpt>
<trkpt lat="46.27959" lon="6.97206"><ele></ele><time>2016-8-16T22:18:5Z</time></trkpt>
<trkpt lat="46.27955" lon="6.97208"><ele></ele><time>2016-8-16T22:18:8Z</time></trkpt>
<trkpt lat="46.27953" lon="6.97208"><ele></ele><time>2016-8-16T22:18:11Z</time></trkpt>
<trkpt lat="46.27949" lon="6.97209"><ele></ele><time>2016-8-16T22:18:14Z</time></trkpt>
<trkpt lat="46.27944" lon="6.97211"><ele></ele><time>2016-8-16T22:18:17Z</time></trkpt>
<trkpt lat="46.2794" lon="6.97212"><ele></ele><time>2016-8-16T22:18:20Z</time></trkpt>
<trkpt lat="46.27936" lon="6.97213"><ele></ele><time>2016-8-16T22:18:23Z</time></trkpt>
<trkpt lat="46.27931" lon="6.97214"><ele></ele><time>2016-8-16T22:18:26Z</time></trkpt>
<trkpt lat="46.27927" lon="6.97215"><ele></ele><time>2016-8-16T22:18:29Z</time></trkpt>
<trkpt lat="46.27923" lon="6.97216"><ele></ele><time>2016-8-16T22:18:32Z</time></trkpt>
<trkpt lat="46.27918" lon="6.97216"><ele></ele><time>2016-8-16T22:18:35Z</time></trkpt>
<trkpt lat="46.27914" lon="6.97213"><ele></ele><time>2016-8-16T22:18:38Z</time></trkpt>
<trkpt lat="46.27909" lon="6.9721"><ele></ele><time>2016-8-16T22:18:41Z</time></trkpt>
<trkpt lat="46.27904" lon="6.97206"><ele></ele><time>2016-8-16T22:18:44Z</time></trkpt>
<trkpt lat="46.27902" lon="6.97206"><ele></ele><time>2016-8-16T22:18:47Z</time></trkpt>
<trkpt lat="46.27899" lon="6.97206"><ele></ele><time>2016-8-16T22:18:50Z</time></trkpt>
<trkpt lat="46.27893" lon="6.97207"><ele></ele><time>2016-8-16T22:18:53Z</time></trkpt>
<trkpt lat="46.27886" lon="6.97208"><ele></ele><time>2016-8-16T22:18:56Z</time></trkpt>
<trkpt lat="46.2788" lon="6.97208"><ele></ele><time>2016-8-16T22:18:59Z</time></trkpt>
<trkpt lat="46.27874" lon="6.97209"><ele></ele><time>2016-8-16T22:19:2Z</time></trkpt>
<trkpt lat="46.27868" lon="6.9721"><ele></ele><time>2016-8-16T22:19:5Z</time></trkpt>
<trkpt lat="46.27864" lon="6.97209"><ele></ele><time>2016-8-16T22:19:8Z</time></trkpt>
<trkpt lat="46.2786" lon="6.97206"><ele></ele><time>2016-8-16T22:19:11Z</time></trkpt>
<trkpt lat="46.27852" lon="6.97201"><ele></ele><time>2016-8-16T22:19:14Z</time></trkpt>
<trkpt lat="46.27848" lon="6.97201"><ele></ele><time>2016-8-16T22:19:17Z</time></trkpt>
<trkpt lat="46.27843" lon="6.97203"><ele></ele><time>2016-8-16T22:19:20Z</time></trkpt>
<trkpt lat="46.27833" lon="6.97206"><ele></ele><time>2016-8-16T22:19:23Z</time></trkpt>
<trkpt lat="46.27822" lon="6.9721"><ele></ele><time>2016-8-16T22:19:26Z</time></trkpt>
<trkpt lat="46.27817" lon="6.97212"><ele></ele><time>2016-8-16T22:19:29Z</time></trkpt>
<trkpt lat="46.27811" lon="6.97215"><ele></ele><time>2016-8-16T22:19:32Z</time></trkpt>
<trkpt lat="46.278" lon="6.97222"><ele></ele><time>2016-8-16T22:19:35Z</time></trkpt>
<trkpt lat="46.27796" lon="6.97225"><ele></ele><time>2016-8-16T22:19:38Z</time></trkpt>
<trkpt lat="46.27792" lon="6.97229"><ele></ele><time>2016-8-16T22:19:41Z</time></trkpt>
<trkpt lat="46.2778" lon="6.97236"><ele></ele><time>2016-8-16T22:19:44Z</time></trkpt>
<trkpt lat="46.27767" lon="6.97242"><ele></ele><time>2016-8-16T22:19:47Z</time></trkpt>
<trkpt lat="46.27754" lon="6.97248"><ele></ele><time>2016-8-16T22:19:50Z</time></trkpt>
<trkpt lat="46.27748" lon="6.97251"><ele></ele><time>2016-8-16T22:19:53Z</time></trkpt>
<trkpt lat="46.27742" lon="6.97254"><ele></ele><time>2016-8-16T22:19:56Z</time></trkpt>
<trkpt lat="46.27729" lon="6.97259"><ele></ele><time>2016-8-16T22:19:59Z</time></trkpt>
<trkpt lat="46.27716" lon="6.97264"><ele></ele><time>2016-8-16T22:20:2Z</time></trkpt>
<trkpt lat="46.27704" lon="6.97269"><ele></ele><time>2016-8-16T22:20:5Z</time></trkpt>
<trkpt lat="46.27694" lon="6.97273"><ele></ele><time>2016-8-16T22:20:8Z</time></trkpt>
<trkpt lat="46.27683" lon="6.97278"><ele></ele><time>2016-8-16T22:20:11Z</time></trkpt>
<trkpt lat="46.27673" lon="6.97282"><ele></ele><time>2016-8-16T22:20:14Z</time></trkpt>
<trkpt lat="46.27663" lon="6.97287"><ele></ele><time>2016-8-16T22:20:17Z</time></trkpt>
<trkpt lat="46.27658" lon="6.97289"><ele></ele><time>2016-8-16T22:20:20Z</time></trkpt>
<trkpt lat="46.27653" lon="6.97291"><ele></ele><time>2016-8-16T22:20:23Z</time></trkpt>
<trkpt lat="46.27643" lon="6.97296"><ele></ele><time>2016-8-16T22:20:26Z</time></trkpt>
<trkpt lat="46.27633" lon="6.97301"><ele></ele><time>2016-8-16T22:20:29Z</time></trkpt>
<trkpt lat="46.27623" lon="6.97305"><ele></ele><time>2016-8-16T22:20:32Z</time></trkpt>
<trkpt lat="46.27613" lon="6.9731"><ele></ele><time>2016-8-16T22:20:35Z</time></trkpt>
<trkpt lat="46.27602" lon="6.97315"><ele></ele><time>2016-8-16T22:20:38Z</time></trkpt>
<trkpt lat="46.27591" lon="6.9732"><ele></ele><time>2016-8-16T22:20:41Z</time></trkpt>
<trkpt lat="46.2758" lon="6.97325"><ele></ele><time>2016-8-16T22:20:44Z</time></trkpt>
<trkpt lat="46.2757" lon="6.9733"><ele></ele><time>2016-8-16T22:20:47Z</time></trkpt>
<trkpt lat="46.27561" lon="6.97333"><ele></ele><time>2016-8-16T22:20:50Z</time></trkpt>
<trkpt lat="46.27553" lon="6.97336"><ele></ele><time>2016-8-16T22:20:53Z</time></trkpt>
<trkpt lat="46.27544" lon="6.97339"><ele></ele><time>2016-8-16T22:20:56Z</time></trkpt>
<trkpt lat="46.27536" lon="6.97342"><ele></ele><time>2016-8-16T22:20:59Z</time></trkpt>
<trkpt lat="46.27528" lon="6.97345"><ele></ele><time>2016-8-16T22:21:2Z</time></trkpt>
<trkpt lat="46.27523" lon="6.97346"><ele></ele><time>2016-8-16T22:21:5Z</time></trkpt>
<trkpt lat="46.27518" lon="6.97349"><ele></ele><time>2016-8-16T22:21:8Z</time></trkpt>
<trkpt lat="46.27509" lon="6.97353"><ele></ele><time>2016-8-16T22:21:11Z</time></trkpt>
<trkpt lat="46.275" lon="6.97357"><ele></ele><time>2016-8-16T22:21:14Z</time></trkpt>
<trkpt lat="46.2749" lon="6.97361"><ele></ele><time>2016-8-16T22:21:17Z</time></trkpt>
<trkpt lat="46.27485" lon="6.97363"><ele></ele><time>2016-8-16T22:21:20Z</time></trkpt>
<trkpt lat="46.27481" lon="6.97365"><ele></ele><time>2016-8-16T22:21:23Z</time></trkpt>
<trkpt lat="46.27476" lon="6.97367"><ele></ele><time>2016-8-16T22:21:26Z</time></trkpt>
<trkpt lat="46.27471" lon="6.97369"><ele></ele><time>2016-8-16T22:21:29Z</time></trkpt>
<trkpt lat="46.27462" lon="6.97373"><ele></ele><time>2016-8-16T22:21:32Z</time></trkpt>
<trkpt lat="46.27452" lon="6.97378"><ele></ele><time>2016-8-16T22:21:35Z</time></trkpt>
<trkpt lat="46.27443" lon="6.97382"><ele></ele><time>2016-8-16T22:21:38Z</time></trkpt>
<trkpt lat="46.27434" lon="6.97386"><ele></ele><time>2016-8-16T22:21:41Z</time></trkpt>
<trkpt lat="46.27429" lon="6.97389"><ele></ele><time>2016-8-16T22:21:44Z</time></trkpt>
<trkpt lat="46.27425" lon="6.97392"><ele></ele><time>2016-8-16T22:21:47Z</time></trkpt>
<trkpt lat="46.27417" lon="6.97398"><ele></ele><time>2016-8-16T22:21:50Z</time></trkpt>
<trkpt lat="46.27409" lon="6.97404"><ele></ele><time>2016-8-16T22:21:53Z</time></trkpt>
<trkpt lat="46.27405" lon="6.97407"><ele></ele><time>2016-8-16T22:21:56Z</time></trkpt>
<trkpt lat="46.27401" lon="6.97411"><ele></ele><time>2016-8-16T22:21:59Z</time></trkpt>
<trkpt lat="46.27395" lon="6.97421"><ele></ele><time>2016-8-16T22:22:2Z</time></trkpt>
<trkpt lat="46.27394" lon="6.97426"><ele></ele><time>2016-8-16T22:22:5Z</time></trkpt>
<trkpt lat="46.27396" lon="6.97432"><ele></ele><time>2016-8-16T22:22:8Z</time></trkpt>
<trkpt lat="46.27399" lon="6.97444"><ele></ele><time>2016-8-16T22:22:11Z</time></trkpt>
<trkpt lat="46.27403" lon="6.97455"><ele></ele><time>2016-8-16T22:22:14Z</time></trkpt>
<trkpt lat="46.27407" lon="6.97466"><ele></ele><time>2016-8-16T22:22:17Z</time></trkpt>
<trkpt lat="46.2741" lon="6.97478"><ele></ele><time>2016-8-16T22:22:20Z</time></trkpt>
<trkpt lat="46.27414" lon="6.97489"><ele></ele><time>2016-8-16T22:22:23Z</time></trkpt>
<trkpt lat="46.27419" lon="6.97502"><ele></ele><time>2016-8-16T22:22:26Z</time></trkpt>
<trkpt lat="46.27423" lon="6.97514"><ele></ele><time>2016-8-16T22:22:29Z</time></trkpt>
<trkpt lat="46.27428" lon="6.97527"><ele></ele><time>2016-8-16T22:22:32Z</time></trkpt>
<trkpt lat="46.27433" lon="6.97539"><ele></ele><time>2016-8-16T22:22:35Z</time></trkpt>
<trkpt lat="46.27437" lon="6.97552"><ele></ele><time>2016-8-16T22:22:38Z</time></trkpt>
<trkpt lat="46.27443" lon="6.97564"><ele></ele><time>2016-8-16T22:22:41Z</time></trkpt>
<trkpt lat="46.27448" lon="6.97577"><ele></ele><time>2016-8-16T22:22:44Z</time></trkpt>
<trkpt lat="46.27453" lon="6.97589"><ele></ele><time>2016-8-16T22:22:47Z</time></trkpt>
<trkpt lat="46.27459" lon="6.97602"><ele></ele><time>2016-8-16T22:22:50Z</time></trkpt>
<trkpt lat="46.27461" lon="6.97607"><ele></ele><time>2016-8-16T22:22:53Z</time></trkpt>
<trkpt lat="46.27463" lon="6.97612"><ele></ele><time>2016-8-16T22:22:56Z</time></trkpt>
<trkpt lat="46.27468" lon="6.97623"><ele></ele><time>2016-8-16T22:22:59Z</time></trkpt>
<trkpt lat="46.27472" lon="6.97633"><ele></ele><time>2016-8-16T22:23:2Z</time></trkpt>
<trkpt lat="46.27477" lon="6.97643"><ele></ele><time>2016-8-16T22:23:5Z</time></trkpt>
<trkpt lat="46.27482" lon="6.9765"><ele></ele><time>2016-8-16T22:23:8Z</time></trkpt>
<trkpt lat="46.27493" lon="6.97646"><ele></ele><time>2016-8-16T22:23:11Z</time></trkpt>
<trkpt lat="46.27503" lon="6.97643"><ele></ele><time>2016-8-16T22:23:14Z</time></trkpt>
<trkpt lat="46.27513" lon="6.97639"><ele></ele><time>2016-8-16T22:23:17Z</time></trkpt>
<trkpt lat="46.27524" lon="6.97635"><ele></ele><time>2016-8-16T22:23:20Z</time></trkpt>
<trkpt lat="46.27529" lon="6.97633"><ele></ele><time>2016-8-16T22:23:23Z</time></trkpt>
<trkpt lat="46.27534" lon="6.97631"><ele></ele><time>2016-8-16T22:23:26Z</time></trkpt>
<trkpt lat="46.27545" lon="6.97626"><ele></ele><time>2016-8-16T22:23:29Z</time></trkpt>
<trkpt lat="46.27556" lon="6.97621"><ele></ele><time>2016-8-16T22:23:32Z</time></trkpt>
<trkpt lat="46.27567" lon="6.97615"><ele></ele><time>2016-8-16T22:23:35Z</time></trkpt>
<trkpt lat="46.27578" lon="6.9761"><ele></ele><time>2016-8-16T22:23:38Z</time></trkpt>
<trkpt lat="46.27591" lon="6.97605"><ele></ele><time>2016-8-16T22:23:41Z</time></trkpt>
<trkpt lat="46.27603" lon="6.97599"><ele></ele><time>2016-8-16T22:23:44Z</time></trkpt>
<trkpt lat="46.27616" lon="6.97593"><ele></ele><time>2016-8-16T22:23:47Z</time></trkpt>
<trkpt lat="46.27622" lon="6.97591"><ele></ele><time>2016-8-16T22:23:50Z</time></trkpt>
<trkpt lat="46.27627" lon="6.97588"><ele></ele><time>2016-8-16T22:23:53Z</time></trkpt>
<trkpt lat="46.27638" lon="6.97583"><ele></ele><time>2016-8-16T22:23:56Z</time></trkpt>
<trkpt lat="46.27649" lon="6.97578"><ele></ele><time>2016-8-16T22:23:59Z</time></trkpt>
<trkpt lat="46.27659" lon="6.97573"><ele></ele><time>2016-8-16T22:24:2Z</time></trkpt>
<trkpt lat="46.27664" lon="6.9757"><ele></ele><time>2016-8-16T22:24:5Z</time></trkpt>
<trkpt lat="46.27669" lon="6.97568"><ele></ele><time>2016-8-16T22:24:8Z</time></trkpt>
<trkpt lat="46.27679" lon="6.97564"><ele></ele><time>2016-8-16T22:24:11Z</time></trkpt>
<trkpt lat="46.27688" lon="6.9756"><ele></ele><time>2016-8-16T22:24:14Z</time></trkpt>
<trkpt lat="46.27696" lon="6.97554"><ele></ele><time>2016-8-16T22:24:17Z</time></trkpt>
<trkpt lat="46.27696" lon="6.97543"><ele></ele><time>2016-8-16T22:24:20Z</time></trkpt>
<trkpt lat="46.27695" lon="6.97537"><ele></ele><time>2016-8-16T22:24:23Z</time></trkpt>
<trkpt lat="46.27692" lon="6.9753"><ele></ele><time>2016-8-16T22:24:26Z</time></trkpt>
<trkpt lat="46.27687" lon="6.97517"><ele></ele><time>2016-8-16T22:24:29Z</time></trkpt>
<trkpt lat="46.27681" lon="6.97504"><ele></ele><time>2016-8-16T22:24:32Z</time></trkpt>
<trkpt lat="46.27676" lon="6.97492"><ele></ele><time>2016-8-16T22:24:35Z</time></trkpt>
<trkpt lat="46.2767" lon="6.97478"><ele></ele><time>2016-8-16T22:24:38Z</time></trkpt>
<trkpt lat="46.27664" lon="6.97462"><ele></ele><time>2016-8-16T22:24:41Z</time></trkpt>
<trkpt lat="46.27658" lon="6.97447"><ele></ele><time>2016-8-16T22:24:44Z</time></trkpt>
<trkpt lat="46.27651" lon="6.97431"><ele></ele><time>2016-8-16T22:24:47Z</time></trkpt>
<trkpt lat="46.27645" lon="6.97415"><ele></ele><time>2016-8-16T22:24:50Z</time></trkpt>
<trkpt lat="46.2764" lon="6.974"><ele></ele><time>2016-8-16T22:24:53Z</time></trkpt>
<trkpt lat="46.27635" lon="6.97385"><ele></ele><time>2016-8-16T22:24:56Z</time></trkpt>
<trkpt lat="46.2763" lon="6.9737"><ele></ele><time>2016-8-16T22:24:59Z</time></trkpt>
<trkpt lat="46.27624" lon="6.97355"><ele></ele><time>2016-8-16T22:25:2Z</time></trkpt>
<trkpt lat="46.2762" lon="6.9734"><ele></ele><time>2016-8-16T22:25:5Z</time></trkpt>
<trkpt lat="46.27615" lon="6.97325"><ele></ele><time>2016-8-16T22:25:8Z</time></trkpt>
<trkpt lat="46.27612" lon="6.97312"><ele></ele><time>2016-8-16T22:25:11Z</time></trkpt>
<trkpt lat="46.27609" lon="6.97299"><ele></ele><time>2016-8-16T22:25:14Z</time></trkpt>
<trkpt lat="46.27605" lon="6.97285"><ele></ele><time>2016-8-16T22:25:17Z</time></trkpt>
<trkpt lat="46.27604" lon="6.97278"><ele></ele><time>2016-8-16T22:25:20Z</time></trkpt>
<trkpt lat="46.27602" lon="6.97272"><ele></ele><time>2016-8-16T22:25:23Z</time></trkpt>
<trkpt lat="46.27599" lon="6.97258"><ele></ele><time>2016-8-16T22:25:26Z</time></trkpt>
<trkpt lat="46.27596" lon="6.97244"><ele></ele><time>2016-8-16T22:25:29Z</time></trkpt>
<trkpt lat="46.27594" lon="6.97235"><ele></ele><time>2016-8-16T22:25:32Z</time></trkpt>
<trkpt lat="46.27591" lon="6.97226"><ele></ele><time>2016-8-16T22:25:35Z</time></trkpt>
<trkpt lat="46.27586" lon="6.97207"><ele></ele><time>2016-8-16T22:25:38Z</time></trkpt>
<trkpt lat="46.2758" lon="6.97188"><ele></ele><time>2016-8-16T22:25:41Z</time></trkpt>
<trkpt lat="46.27578" lon="6.97178"><ele></ele><time>2016-8-16T22:25:44Z</time></trkpt>
<trkpt lat="46.27575" lon="6.97168"><ele></ele><time>2016-8-16T22:25:47Z</time></trkpt>
<trkpt lat="46.27571" lon="6.97145"><ele></ele><time>2016-8-16T22:25:50Z</time></trkpt>
<trkpt lat="46.27569" lon="6.97133"><ele></ele><time>2016-8-16T22:25:53Z</time></trkpt>
<trkpt lat="46.27568" lon="6.97122"><ele></ele><time>2016-8-16T22:25:56Z</time></trkpt>
<trkpt lat="46.27564" lon="6.97115"><ele></ele><time>2016-8-16T22:25:59Z</time></trkpt>
<trkpt lat="46.27558" lon="6.97111"><ele></ele><time>2016-8-16T22:26:2Z</time></trkpt>
<trkpt lat="46.27551" lon="6.97112"><ele></ele><time>2016-8-16T22:26:5Z</time></trkpt>
<trkpt lat="46.27544" lon="6.97116"><ele></ele><time>2016-8-16T22:26:8Z</time></trkpt>
<trkpt lat="46.27529" lon="6.97124"><ele></ele><time>2016-8-16T22:26:11Z</time></trkpt>
<trkpt lat="46.27515" lon="6.97132"><ele></ele><time>2016-8-16T22:26:14Z</time></trkpt>
<trkpt lat="46.27508" lon="6.97135"><ele></ele><time>2016-8-16T22:26:17Z</time></trkpt>
<trkpt lat="46.27502" lon="6.97138"><ele></ele><time>2016-8-16T22:26:20Z</time></trkpt>
<trkpt lat="46.2749" lon="6.97145"><ele></ele><time>2016-8-16T22:26:23Z</time></trkpt>
<trkpt lat="46.27479" lon="6.97151"><ele></ele><time>2016-8-16T22:26:26Z</time></trkpt>
<trkpt lat="46.27467" lon="6.97157"><ele></ele><time>2016-8-16T22:26:29Z</time></trkpt>
<trkpt lat="46.27461" lon="6.9716"><ele></ele><time>2016-8-16T22:26:32Z</time></trkpt>
<trkpt lat="46.27455" lon="6.97163"><ele></ele><time>2016-8-16T22:26:35Z</time></trkpt>
<trkpt lat="46.27442" lon="6.9717"><ele></ele><time>2016-8-16T22:26:38Z</time></trkpt>
<trkpt lat="46.27436" lon="6.97173"><ele></ele><time>2016-8-16T22:26:41Z</time></trkpt>
<trkpt lat="46.27429" lon="6.97176"><ele></ele><time>2016-8-16T22:26:44Z</time></trkpt>
<trkpt lat="46.27417" lon="6.97183"><ele></ele><time>2016-8-16T22:26:47Z</time></trkpt>
<trkpt lat="46.27406" lon="6.97189"><ele></ele><time>2016-8-16T22:26:50Z</time></trkpt>
<trkpt lat="46.27394" lon="6.97195"><ele></ele><time>2016-8-16T22:26:53Z</time></trkpt>
<trkpt lat="46.27382" lon="6.97201"><ele></ele><time>2016-8-16T22:26:56Z</time></trkpt>
<trkpt lat="46.27371" lon="6.97207"><ele></ele><time>2016-8-16T22:26:59Z</time></trkpt>
<trkpt lat="46.2736" lon="6.97214"><ele></ele><time>2016-8-16T22:27:2Z</time></trkpt>
<trkpt lat="46.2735" lon="6.97222"><ele></ele><time>2016-8-16T22:27:5Z</time></trkpt>
<trkpt lat="46.27339" lon="6.97229"><ele></ele><time>2016-8-16T22:27:8Z</time></trkpt>
<trkpt lat="46.27328" lon="6.97236"><ele></ele><time>2016-8-16T22:27:11Z</time></trkpt>
<trkpt lat="46.27315" lon="6.97241"><ele></ele><time>2016-8-16T22:27:14Z</time></trkpt>
<trkpt lat="46.27302" lon="6.97247"><ele></ele><time>2016-8-16T22:27:17Z</time></trkpt>
<trkpt lat="46.27289" lon="6.97253"><ele></ele><time>2016-8-16T22:27:20Z</time></trkpt>
<trkpt lat="46.27283" lon="6.97256"><ele></ele><time>2016-8-16T22:27:23Z</time></trkpt>
<trkpt lat="46.27277" lon="6.97261"><ele></ele><time>2016-8-16T22:27:26Z</time></trkpt>
<trkpt lat="46.27267" lon="6.97269"><ele></ele><time>2016-8-16T22:27:29Z</time></trkpt>
<trkpt lat="46.27256" lon="6.97278"><ele></ele><time>2016-8-16T22:27:32Z</time></trkpt>
<trkpt lat="46.27245" lon="6.97287"><ele></ele><time>2016-8-16T22:27:35Z</time></trkpt>
<trkpt lat="46.27239" lon="6.97291"><ele></ele><time>2016-8-16T22:27:38Z</time></trkpt>
<trkpt lat="46.27233" lon="6.97295"><ele></ele><time>2016-8-16T22:27:41Z</time></trkpt>
<trkpt lat="46.27221" lon="6.97303"><ele></ele><time>2016-8-16T22:27:44Z</time></trkpt>
<trkpt lat="46.27209" lon="6.97311"><ele></ele><time>2016-8-16T22:27:47Z</time></trkpt>
<trkpt lat="46.27198" lon="6.97319"><ele></ele><time>2016-8-16T22:27:50Z</time></trkpt>
<trkpt lat="46.27187" lon="6.97327"><ele></ele><time>2016-8-16T22:27:53Z</time></trkpt>
<trkpt lat="46.27177" lon="6.97334"><ele></ele><time>2016-8-16T22:27:56Z</time></trkpt>
<trkpt lat="46.27166" lon="6.97342"><ele></ele><time>2016-8-16T22:27:59Z</time></trkpt>
<trkpt lat="46.27156" lon="6.97349"><ele></ele><time>2016-8-16T22:28:2Z</time></trkpt>
<trkpt lat="46.27146" lon="6.97357"><ele></ele><time>2016-8-16T22:28:5Z</time></trkpt>
<trkpt lat="46.27138" lon="6.97366"><ele></ele><time>2016-8-16T22:28:8Z</time></trkpt>
<trkpt lat="46.2713" lon="6.97376"><ele></ele><time>2016-8-16T22:28:11Z</time></trkpt>
<trkpt lat="46.27122" lon="6.97386"><ele></ele><time>2016-8-16T22:28:14Z</time></trkpt>
<trkpt lat="46.27113" lon="6.97395"><ele></ele><time>2016-8-16T22:28:17Z</time></trkpt>
<trkpt lat="46.27109" lon="6.974"><ele></ele><time>2016-8-16T22:28:20Z</time></trkpt>
<trkpt lat="46.27105" lon="6.97404"><ele></ele><time>2016-8-16T22:28:23Z</time></trkpt>
<trkpt lat="46.27096" lon="6.97413"><ele></ele><time>2016-8-16T22:28:26Z</time></trkpt>
<trkpt lat="46.27087" lon="6.97422"><ele></ele><time>2016-8-16T22:28:29Z</time></trkpt>
<trkpt lat="46.27079" lon="6.9743"><ele></ele><time>2016-8-16T22:28:32Z</time></trkpt>
<trkpt lat="46.2707" lon="6.97439"><ele></ele><time>2016-8-16T22:28:35Z</time></trkpt>
<trkpt lat="46.27062" lon="6.97447"><ele></ele><time>2016-8-16T22:28:38Z</time></trkpt>
<trkpt lat="46.27053" lon="6.97455"><ele></ele><time>2016-8-16T22:28:41Z</time></trkpt>
<trkpt lat="46.27045" lon="6.97463"><ele></ele><time>2016-8-16T22:28:44Z</time></trkpt>
<trkpt lat="46.27037" lon="6.9747"><ele></ele><time>2016-8-16T22:28:47Z</time></trkpt>
<trkpt lat="46.27032" lon="6.97474"><ele></ele><time>2016-8-16T22:28:50Z</time></trkpt>
<trkpt lat="46.27027" lon="6.97477"><ele></ele><time>2016-8-16T22:28:53Z</time></trkpt>
<trkpt lat="46.27018" lon="6.97484"><ele></ele><time>2016-8-16T22:28:56Z</time></trkpt>
<trkpt lat="46.27008" lon="6.97491"><ele></ele><time>2016-8-16T22:28:59Z</time></trkpt>
<trkpt lat="46.26999" lon="6.97497"><ele></ele><time>2016-8-16T22:29:2Z</time></trkpt>
<trkpt lat="46.26989" lon="6.97503"><ele></ele><time>2016-8-16T22:29:5Z</time></trkpt>
<trkpt lat="46.2698" lon="6.97506"><ele></ele><time>2016-8-16T22:29:8Z</time></trkpt>
<trkpt lat="46.26971" lon="6.97509"><ele></ele><time>2016-8-16T22:29:11Z</time></trkpt>
<trkpt lat="46.26961" lon="6.97512"><ele></ele><time>2016-8-16T22:29:14Z</time></trkpt>
<trkpt lat="46.26952" lon="6.97515"><ele></ele><time>2016-8-16T22:29:17Z</time></trkpt>
<trkpt lat="46.26942" lon="6.97519"><ele></ele><time>2016-8-16T22:29:20Z</time></trkpt>
<trkpt lat="46.26933" lon="6.97524"><ele></ele><time>2016-8-16T22:29:23Z</time></trkpt>
<trkpt lat="46.26923" lon="6.9753"><ele></ele><time>2016-8-16T22:29:26Z</time></trkpt>
<trkpt lat="46.26914" lon="6.97535"><ele></ele><time>2016-8-16T22:29:29Z</time></trkpt>
<trkpt lat="46.26904" lon="6.97541"><ele></ele><time>2016-8-16T22:29:32Z</time></trkpt>
<trkpt lat="46.26899" lon="6.97544"><ele></ele><time>2016-8-16T22:29:35Z</time></trkpt>
<trkpt lat="46.26894" lon="6.97546"><ele></ele><time>2016-8-16T22:29:38Z</time></trkpt>
<trkpt lat="46.26884" lon="6.97551"><ele></ele><time>2016-8-16T22:29:41Z</time></trkpt>
<trkpt lat="46.26875" lon="6.97556"><ele></ele><time>2016-8-16T22:29:44Z</time></trkpt>
<trkpt lat="46.26865" lon="6.97561"><ele></ele><time>2016-8-16T22:29:47Z</time></trkpt>
<trkpt lat="46.26855" lon="6.97565"><ele></ele><time>2016-8-16T22:29:50Z</time></trkpt>
<trkpt lat="46.26846" lon="6.97569"><ele></ele><time>2016-8-16T22:29:53Z</time></trkpt>
<trkpt lat="46.26837" lon="6.97572"><ele></ele><time>2016-8-16T22:29:56Z</time></trkpt>
<trkpt lat="46.26828" lon="6.97575"><ele></ele><time>2016-8-16T22:29:59Z</time></trkpt>
<trkpt lat="46.26819" lon="6.97578"><ele></ele><time>2016-8-16T22:30:2Z</time></trkpt>
<trkpt lat="46.2681" lon="6.97581"><ele></ele><time>2016-8-16T22:30:5Z</time></trkpt>
<trkpt lat="46.26801" lon="6.97585"><ele></ele><time>2016-8-16T22:30:8Z</time></trkpt>
<trkpt lat="46.26792" lon="6.97589"><ele></ele><time>2016-8-16T22:30:11Z</time></trkpt>
<trkpt lat="46.26783" lon="6.97592"><ele></ele><time>2016-8-16T22:30:14Z</time></trkpt>
<trkpt lat="46.26774" lon="6.97596"><ele></ele><time>2016-8-16T22:30:17Z</time></trkpt>
<trkpt lat="46.26765" lon="6.976"><ele></ele><time>2016-8-16T22:30:20Z</time></trkpt>
<trkpt lat="46.26755" lon="6.97606"><ele></ele><time>2016-8-16T22:30:23Z</time></trkpt>
<trkpt lat="46.26746" lon="6.97611"><ele></ele><time>2016-8-16T22:30:26Z</time></trkpt>
<trkpt lat="46.26737" lon="6.97616"><ele></ele><time>2016-8-16T22:30:29Z</time></trkpt>
<trkpt lat="46.26728" lon="6.97622"><ele></ele><time>2016-8-16T22:30:32Z</time></trkpt>
<trkpt lat="46.26719" lon="6.97627"><ele></ele><time>2016-8-16T22:30:35Z</time></trkpt>
<trkpt lat="46.26711" lon="6.97633"><ele></ele><time>2016-8-16T22:30:38Z</time></trkpt>
<trkpt lat="46.26703" lon="6.97639"><ele></ele><time>2016-8-16T22:30:41Z</time></trkpt>
<trkpt lat="46.26695" lon="6.97644"><ele></ele><time>2016-8-16T22:30:44Z</time></trkpt>
<trkpt lat="46.26686" lon="6.9765"><ele></ele><time>2016-8-16T22:30:47Z</time></trkpt>
<trkpt lat="46.26678" lon="6.97656"><ele></ele><time>2016-8-16T22:30:50Z</time></trkpt>
<trkpt lat="46.2667" lon="6.97662"><ele></ele><time>2016-8-16T22:30:53Z</time></trkpt>
<trkpt lat="46.26662" lon="6.97668"><ele></ele><time>2016-8-16T22:30:56Z</time></trkpt>
<trkpt lat="46.26653" lon="6.97675"><ele></ele><time>2016-8-16T22:30:59Z</time></trkpt>
<trkpt lat="46.26645" lon="6.97681"><ele></ele><time>2016-8-16T22:31:2Z</time></trkpt>
<trkpt lat="46.26636" lon="6.97687"><ele></ele><time>2016-8-16T22:31:5Z</time></trkpt>
<trkpt lat="46.26628" lon="6.97693"><ele></ele><time>2016-8-16T22:31:8Z</time></trkpt>
<trkpt lat="46.2662" lon="6.977"><ele></ele><time>2016-8-16T22:31:11Z</time></trkpt>
<trkpt lat="46.26612" lon="6.97706"><ele></ele><time>2016-8-16T22:31:14Z</time></trkpt>
<trkpt lat="46.26604" lon="6.97712"><ele></ele><time>2016-8-16T22:31:17Z</time></trkpt>
<trkpt lat="46.26597" lon="6.97718"><ele></ele><time>2016-8-16T22:31:20Z</time></trkpt>
<trkpt lat="46.26592" lon="6.97721"><ele></ele><time>2016-8-16T22:31:23Z</time></trkpt>
<trkpt lat="46.26587" lon="6.97725"><ele></ele><time>2016-8-16T22:31:26Z</time></trkpt>
<trkpt lat="46.26582" lon="6.97728"><ele></ele><time>2016-8-16T22:31:29Z</time></trkpt>
<trkpt lat="46.26577" lon="6.97733"><ele></ele><time>2016-8-16T22:31:32Z</time></trkpt>
<trkpt lat="46.26572" lon="6.97742"><ele></ele><time>2016-8-16T22:31:35Z</time></trkpt>
<trkpt lat="46.26566" lon="6.97751"><ele></ele><time>2016-8-16T22:31:38Z</time></trkpt>
<trkpt lat="46.26563" lon="6.97756"><ele></ele><time>2016-8-16T22:31:41Z</time></trkpt>
<trkpt lat="46.2656" lon="6.9776"><ele></ele><time>2016-8-16T22:31:44Z</time></trkpt>
<trkpt lat="46.26554" lon="6.97769"><ele></ele><time>2016-8-16T22:31:47Z</time></trkpt>
<trkpt lat="46.26549" lon="6.97778"><ele></ele><time>2016-8-16T22:31:50Z</time></trkpt>
<trkpt lat="46.26545" lon="6.97782"><ele></ele><time>2016-8-16T22:31:53Z</time></trkpt>
<trkpt lat="46.26542" lon="6.97784"><ele></ele><time>2016-8-16T22:31:56Z</time></trkpt>
<trkpt lat="46.26534" lon="6.97789"><ele></ele><time>2016-8-16T22:31:59Z</time></trkpt>
<trkpt lat="46.26526" lon="6.97793"><ele></ele><time>2016-8-16T22:32:2Z</time></trkpt>
<trkpt lat="46.26522" lon="6.97796"><ele></ele><time>2016-8-16T22:32:5Z</time></trkpt>
<trkpt lat="46.26519" lon="6.97799"><ele></ele><time>2016-8-16T22:32:8Z</time></trkpt>
<trkpt lat="46.26514" lon="6.97805"><ele></ele><time>2016-8-16T22:32:11Z</time></trkpt>
<trkpt lat="46.26508" lon="6.97811"><ele></ele><time>2016-8-16T22:32:14Z</time></trkpt>
<trkpt lat="46.26505" lon="6.97814"><ele></ele><time>2016-8-16T22:32:17Z</time></trkpt>
<trkpt lat="46.26502" lon="6.97817"><ele></ele><time>2016-8-16T22:32:20Z</time></trkpt>
<trkpt lat="46.26497" lon="6.97823"><ele></ele><time>2016-8-16T22:32:23Z</time></trkpt>
<trkpt lat="46.26491" lon="6.97829"><ele></ele><time>2016-8-16T22:32:26Z</time></trkpt>
<trkpt lat="46.26485" lon="6.97835"><ele></ele><time>2016-8-16T22:32:29Z</time></trkpt>
<trkpt lat="46.26479" lon="6.97841"><ele></ele><time>2016-8-16T22:32:32Z</time></trkpt>
<trkpt lat="46.26472" lon="6.97846"><ele></ele><time>2016-8-16T22:32:35Z</time></trkpt>
<trkpt lat="46.26466" lon="6.97852"><ele></ele><time>2016-8-16T22:32:38Z</time></trkpt>
<trkpt lat="46.2646" lon="6.97857"><ele></ele><time>2016-8-16T22:32:41Z</time></trkpt>
<trkpt lat="46.26453" lon="6.97863"><ele></ele><time>2016-8-16T22:32:44Z</time></trkpt>
<trkpt lat="46.26447" lon="6.97868"><ele></ele><time>2016-8-16T22:32:47Z</time></trkpt>
<trkpt lat="46.26443" lon="6.9787"><ele></ele><time>2016-8-16T22:32:50Z</time></trkpt>
<trkpt lat="46.26437" lon="6.97869"><ele></ele><time>2016-8-16T22:32:53Z</time></trkpt>
<trkpt lat="46.26427" lon="6.97868"><ele></ele><time>2016-8-16T22:32:56Z</time></trkpt>
<trkpt lat="46.26417" lon="6.97867"><ele></ele><time>2016-8-16T22:32:59Z</time></trkpt>
<trkpt lat="46.26406" lon="6.97865"><ele></ele><time>2016-8-16T22:33:2Z</time></trkpt>
<trkpt lat="46.26396" lon="6.97864"><ele></ele><time>2016-8-16T22:33:5Z</time></trkpt>
<trkpt lat="46.26385" lon="6.97862"><ele></ele><time>2016-8-16T22:33:8Z</time></trkpt>
<trkpt lat="46.26375" lon="6.97862"><ele></ele><time>2016-8-16T22:33:11Z</time></trkpt>
<trkpt lat="46.26369" lon="6.97865"><ele></ele><time>2016-8-16T22:33:14Z</time></trkpt>
<trkpt lat="46.26364" lon="6.97869"><ele></ele><time>2016-8-16T22:33:17Z</time></trkpt>
<trkpt lat="46.26354" lon="6.97875"><ele></ele><time>2016-8-16T22:33:20Z</time></trkpt>
<trkpt lat="46.26344" lon="6.97882"><ele></ele><time>2016-8-16T22:33:23Z</time></trkpt>
<trkpt lat="46.26333" lon="6.97888"><ele></ele><time>2016-8-16T22:33:26Z</time></trkpt>
<trkpt lat="46.26328" lon="6.97892"><ele></ele><time>2016-8-16T22:33:29Z</time></trkpt>
<trkpt lat="46.26322" lon="6.97897"><ele></ele><time>2016-8-16T22:33:32Z</time></trkpt>
<trkpt lat="46.26309" lon="6.97906"><ele></ele><time>2016-8-16T22:33:35Z</time></trkpt>
<trkpt lat="46.26297" lon="6.97916"><ele></ele><time>2016-8-16T22:33:38Z</time></trkpt>
<trkpt lat="46.26284" lon="6.97925"><ele></ele><time>2016-8-16T22:33:41Z</time></trkpt>
<trkpt lat="46.26277" lon="6.97931"><ele></ele><time>2016-8-16T22:33:44Z</time></trkpt>
<trkpt lat="46.26271" lon="6.97936"><ele></ele><time>2016-8-16T22:33:47Z</time></trkpt>
<trkpt lat="46.26257" lon="6.97947"><ele></ele><time>2016-8-16T22:33:50Z</time></trkpt>
<trkpt lat="46.26244" lon="6.97958"><ele></ele><time>2016-8-16T22:33:53Z</time></trkpt>
<trkpt lat="46.26232" lon="6.97969"><ele></ele><time>2016-8-16T22:33:56Z</time></trkpt>
<trkpt lat="46.26219" lon="6.97979"><ele></ele><time>2016-8-16T22:33:59Z</time></trkpt>
<trkpt lat="46.26207" lon="6.97989"><ele></ele><time>2016-8-16T22:34:2Z</time></trkpt>
<trkpt lat="46.26201" lon="6.97994"><ele></ele><time>2016-8-16T22:34:5Z</time></trkpt>
<trkpt lat="46.26196" lon="6.97999"><ele></ele><time>2016-8-16T22:34:8Z</time></trkpt>
<trkpt lat="46.26186" lon="6.98008"><ele></ele><time>2016-8-16T22:34:11Z</time></trkpt>
<trkpt lat="46.26175" lon="6.98017"><ele></ele><time>2016-8-16T22:34:14Z</time></trkpt>
<trkpt lat="46.26165" lon="6.98026"><ele></ele><time>2016-8-16T22:34:17Z</time></trkpt>
<trkpt lat="46.2616" lon="6.98031"><ele></ele><time>2016-8-16T22:34:20Z</time></trkpt>
<trkpt lat="46.26154" lon="6.98035"><ele></ele><time>2016-8-16T22:34:23Z</time></trkpt>
<trkpt lat="46.26144" lon="6.98043"><ele></ele><time>2016-8-16T22:34:26Z</time></trkpt>
<trkpt lat="46.26134" lon="6.98051"><ele></ele><time>2016-8-16T22:34:29Z</time></trkpt>
<trkpt lat="46.26124" lon="6.98059"><ele></ele><time>2016-8-16T22:34:32Z</time></trkpt>
<trkpt lat="46.26119" lon="6.98064"><ele></ele><time>2016-8-16T22:34:35Z</time></trkpt>
<trkpt lat="46.26114" lon="6.98068"><ele></ele><time>2016-8-16T22:34:38Z</time></trkpt>
<trkpt lat="46.26105" lon="6.98076"><ele></ele><time>2016-8-16T22:34:41Z</time></trkpt>
<trkpt lat="46.26095" lon="6.98085"><ele></ele><time>2016-8-16T22:34:44Z</time></trkpt>
<trkpt lat="46.26086" lon="6.98094"><ele></ele><time>2016-8-16T22:34:47Z</time></trkpt>
<trkpt lat="46.26081" lon="6.98098"><ele></ele><time>2016-8-16T22:34:50Z</time></trkpt>
<trkpt lat="46.26076" lon="6.98102"><ele></ele><time>2016-8-16T22:34:53Z</time></trkpt>
<trkpt lat="46.26066" lon="6.98111"><ele></ele><time>2016-8-16T22:34:56Z</time></trkpt>
<trkpt lat="46.26056" lon="6.98119"><ele></ele><time>2016-8-16T22:34:59Z</time></trkpt>
<trkpt lat="46.26046" lon="6.98128"><ele></ele><time>2016-8-16T22:35:2Z</time></trkpt>
<trkpt lat="46.26041" lon="6.98132"><ele></ele><time>2016-8-16T22:35:5Z</time></trkpt>
<trkpt lat="46.26036" lon="6.98136"><ele></ele><time>2016-8-16T22:35:8Z</time></trkpt>
<trkpt lat="46.26026" lon="6.98145"><ele></ele><time>2016-8-16T22:35:11Z</time></trkpt>
<trkpt lat="46.26017" lon="6.98154"><ele></ele><time>2016-8-16T22:35:14Z</time></trkpt>
<trkpt lat="46.26007" lon="6.98163"><ele></ele><time>2016-8-16T22:35:17Z</time></trkpt>
<trkpt lat="46.26002" lon="6.98168"><ele></ele><time>2016-8-16T22:35:20Z</time></trkpt>
<trkpt lat="46.25997" lon="6.98173"><ele></ele><time>2016-8-16T22:35:23Z</time></trkpt>
<trkpt lat="46.25987" lon="6.98183"><ele></ele><time>2016-8-16T22:35:26Z</time></trkpt>
<trkpt lat="46.25977" lon="6.98193"><ele></ele><time>2016-8-16T22:35:29Z</time></trkpt>
<trkpt lat="46.25966" lon="6.98203"><ele></ele><time>2016-8-16T22:35:32Z</time></trkpt>
<trkpt lat="46.25961" lon="6.98208"><ele></ele><time>2016-8-16T22:35:35Z</time></trkpt>
<trkpt lat="46.25957" lon="6.98213"><ele></ele><time>2016-8-16T22:35:38Z</time></trkpt>
<trkpt lat="46.25947" lon="6.98223"><ele></ele><time>2016-8-16T22:35:41Z</time></trkpt>
<trkpt lat="46.25937" lon="6.98233"><ele></ele><time>2016-8-16T22:35:44Z</time></trkpt>
<trkpt lat="46.25928" lon="6.98242"><ele></ele><time>2016-8-16T22:35:47Z</time></trkpt>
<trkpt lat="46.25923" lon="6.98247"><ele></ele><time>2016-8-16T22:35:50Z</time></trkpt>
<trkpt lat="46.25917" lon="6.98252"><ele></ele><time>2016-8-16T22:35:53Z</time></trkpt>
<trkpt lat="46.25907" lon="6.98261"><ele></ele><time>2016-8-16T22:35:56Z</time></trkpt>
<trkpt lat="46.25896" lon="6.98271"><ele></ele><time>2016-8-16T22:35:59Z</time></trkpt>
<trkpt lat="46.25887" lon="6.98282"><ele></ele><time>2016-8-16T22:36:2Z</time></trkpt>
<trkpt lat="46.25878" lon="6.98292"><ele></ele><time>2016-8-16T22:36:5Z</time></trkpt>
<trkpt lat="46.25869" lon="6.98303"><ele></ele><time>2016-8-16T22:36:8Z</time></trkpt>
<trkpt lat="46.25865" lon="6.98308"><ele></ele><time>2016-8-16T22:36:11Z</time></trkpt>
<trkpt lat="46.2586" lon="6.98312"><ele></ele><time>2016-8-16T22:36:14Z</time></trkpt>
<trkpt lat="46.2585" lon="6.98321"><ele></ele><time>2016-8-16T22:36:17Z</time></trkpt>
<trkpt lat="46.2584" lon="6.98331"><ele></ele><time>2016-8-16T22:36:20Z</time></trkpt>
<trkpt lat="46.25831" lon="6.9834"><ele></ele><time>2016-8-16T22:36:23Z</time></trkpt>
<trkpt lat="46.25826" lon="6.98345"><ele></ele><time>2016-8-16T22:36:26Z</time></trkpt>
<trkpt lat="46.25821" lon="6.98349"><ele></ele><time>2016-8-16T22:36:29Z</time></trkpt>
<trkpt lat="46.25811" lon="6.98358"><ele></ele><time>2016-8-16T22:36:32Z</time></trkpt>
<trkpt lat="46.25802" lon="6.98368"><ele></ele><time>2016-8-16T22:36:35Z</time></trkpt>
<trkpt lat="46.25792" lon="6.98377"><ele></ele><time>2016-8-16T22:36:38Z</time></trkpt>
<trkpt lat="46.25787" lon="6.98382"><ele></ele><time>2016-8-16T22:36:41Z</time></trkpt>
<trkpt lat="46.25782" lon="6.98387"><ele></ele><time>2016-8-16T22:36:44Z</time></trkpt>
<trkpt lat="46.25772" lon="6.98396"><ele></ele><time>2016-8-16T22:36:47Z</time></trkpt>
<trkpt lat="46.25761" lon="6.98406"><ele></ele><time>2016-8-16T22:36:50Z</time></trkpt>
<trkpt lat="46.25751" lon="6.98415"><ele></ele><time>2016-8-16T22:36:53Z</time></trkpt>
<trkpt lat="46.25746" lon="6.9842"><ele></ele><time>2016-8-16T22:36:56Z</time></trkpt>
<trkpt lat="46.25741" lon="6.98425"><ele></ele><time>2016-8-16T22:36:59Z</time></trkpt>
<trkpt lat="46.25732" lon="6.98434"><ele></ele><time>2016-8-16T22:37:2Z</time></trkpt>
<trkpt lat="46.25722" lon="6.98444"><ele></ele><time>2016-8-16T22:37:5Z</time></trkpt>
<trkpt lat="46.25713" lon="6.98453"><ele></ele><time>2016-8-16T22:37:8Z</time></trkpt>
<trkpt lat="46.25708" lon="6.98458"><ele></ele><time>2016-8-16T22:37:11Z</time></trkpt>
<trkpt lat="46.25704" lon="6.98462"><ele></ele><time>2016-8-16T22:37:14Z</time></trkpt>
<trkpt lat="46.25694" lon="6.98472"><ele></ele><time>2016-8-16T22:37:17Z</time></trkpt>
<trkpt lat="46.25685" lon="6.98481"><ele></ele><time>2016-8-16T22:37:20Z</time></trkpt>
<trkpt lat="46.25675" lon="6.9849"><ele></ele><time>2016-8-16T22:37:23Z</time></trkpt>
<trkpt lat="46.25667" lon="6.98499"><ele></ele><time>2016-8-16T22:37:26Z</time></trkpt>
<trkpt lat="46.25659" lon="6.98509"><ele></ele><time>2016-8-16T22:37:29Z</time></trkpt>
<trkpt lat="46.25657" lon="6.98515"><ele></ele><time>2016-8-16T22:37:32Z</time></trkpt>
<trkpt lat="46.25657" lon="6.98521"><ele></ele><time>2016-8-16T22:37:35Z</time></trkpt>
<trkpt lat="46.25657" lon="6.98534"><ele></ele><time>2016-8-16T22:37:38Z</time></trkpt>
<trkpt lat="46.25657" lon="6.98546"><ele></ele><time>2016-8-16T22:37:41Z</time></trkpt>
<trkpt lat="46.25657" lon="6.98552"><ele></ele><time>2016-8-16T22:37:44Z</time></trkpt>
<trkpt lat="46.25657" lon="6.98558"><ele></ele><time>2016-8-16T22:37:47Z</time></trkpt>
<trkpt lat="46.25658" lon="6.98571"><ele></ele><time>2016-8-16T22:37:50Z</time></trkpt>
<trkpt lat="46.25658" lon="6.98583"><ele></ele><time>2016-8-16T22:37:53Z</time></trkpt>
<trkpt lat="46.25657" lon="6.98594"><ele></ele><time>2016-8-16T22:37:56Z</time></trkpt>
<trkpt lat="46.25657" lon="6.98605"><ele></ele><time>2016-8-16T22:37:59Z</time></trkpt>
<trkpt lat="46.25657" lon="6.98617"><ele></ele><time>2016-8-16T22:38:2Z</time></trkpt>
<trkpt lat="46.25657" lon="6.98628"><ele></ele><time>2016-8-16T22:38:5Z</time></trkpt>
<trkpt lat="46.25657" lon="6.98639"><ele></ele><time>2016-8-16T22:38:8Z</time></trkpt>
<trkpt lat="46.25656" lon="6.98651"><ele></ele><time>2016-8-16T22:38:11Z</time></trkpt>
<trkpt lat="46.25652" lon="6.98662"><ele></ele><time>2016-8-16T22:38:14Z</time></trkpt>
<trkpt lat="46.25647" lon="6.98672"><ele></ele><time>2016-8-16T22:38:17Z</time></trkpt>
<trkpt lat="46.25643" lon="6.98677"><ele></ele><time>2016-8-16T22:38:20Z</time></trkpt>
<trkpt lat="46.2564" lon="6.98681"><ele></ele><time>2016-8-16T22:38:23Z</time></trkpt>
<trkpt lat="46.25632" lon="6.9869"><ele></ele><time>2016-8-16T22:38:26Z</time></trkpt>
<trkpt lat="46.25624" lon="6.98698"><ele></ele><time>2016-8-16T22:38:29Z</time></trkpt>
<trkpt lat="46.25617" lon="6.98707"><ele></ele><time>2016-8-16T22:38:32Z</time></trkpt>
<trkpt lat="46.25609" lon="6.98716"><ele></ele><time>2016-8-16T22:38:35Z</time></trkpt>
<trkpt lat="46.25602" lon="6.98725"><ele></ele><time>2016-8-16T22:38:38Z</time></trkpt>
<trkpt lat="46.25595" lon="6.98734"><ele></ele><time>2016-8-16T22:38:41Z</time></trkpt>
<trkpt lat="46.25589" lon="6.98743"><ele></ele><time>2016-8-16T22:38:44Z</time></trkpt>
<trkpt lat="46.25582" lon="6.98752"><ele></ele><time>2016-8-16T22:38:47Z</time></trkpt>
<trkpt lat="46.25575" lon="6.98761"><ele></ele><time>2016-8-16T22:38:50Z</time></trkpt>
<trkpt lat="46.25568" lon="6.98769"><ele></ele><time>2016-8-16T22:38:53Z</time></trkpt>
<trkpt lat="46.25561" lon="6.98778"><ele></ele><time>2016-8-16T22:38:56Z</time></trkpt>
<trkpt lat="46.25554" lon="6.98786"><ele></ele><time>2016-8-16T22:38:59Z</time></trkpt>
<trkpt lat="46.25547" lon="6.98795"><ele></ele><time>2016-8-16T22:39:2Z</time></trkpt>
<trkpt lat="46.25545" lon="6.988"><ele></ele><time>2016-8-16T22:39:5Z</time></trkpt>
<trkpt lat="46.25543" lon="6.98806"><ele></ele><time>2016-8-16T22:39:8Z</time></trkpt>
<trkpt lat="46.25539" lon="6.98818"><ele></ele><time>2016-8-16T22:39:11Z</time></trkpt>
<trkpt lat="46.25535" lon="6.98829"><ele></ele><time>2016-8-16T22:39:14Z</time></trkpt>
<trkpt lat="46.25531" lon="6.98841"><ele></ele><time>2016-8-16T22:39:17Z</time></trkpt>
<trkpt lat="46.25527" lon="6.98853"><ele></ele><time>2016-8-16T22:39:20Z</time></trkpt>
<trkpt lat="46.25525" lon="6.98859"><ele></ele><time>2016-8-16T22:39:23Z</time></trkpt>
<trkpt lat="46.25522" lon="6.98865"><ele></ele><time>2016-8-16T22:39:26Z</time></trkpt>
<trkpt lat="46.25516" lon="6.98877"><ele></ele><time>2016-8-16T22:39:29Z</time></trkpt>
<trkpt lat="46.25513" lon="6.98884"><ele></ele><time>2016-8-16T22:39:32Z</time></trkpt>
<trkpt lat="46.25511" lon="6.98893"><ele></ele><time>2016-8-16T22:39:35Z</time></trkpt>
<trkpt lat="46.25507" lon="6.98911"><ele></ele><time>2016-8-16T22:39:38Z</time></trkpt>
<trkpt lat="46.25503" lon="6.98928"><ele></ele><time>2016-8-16T22:39:41Z</time></trkpt>
<trkpt lat="46.25499" lon="6.98945"><ele></ele><time>2016-8-16T22:39:44Z</time></trkpt>
<trkpt lat="46.25496" lon="6.98954"><ele></ele><time>2016-8-16T22:39:47Z</time></trkpt>
<trkpt lat="46.25494" lon="6.98961"><ele></ele><time>2016-8-16T22:39:50Z</time></trkpt>
<trkpt lat="46.25489" lon="6.98977"><ele></ele><time>2016-8-16T22:39:53Z</time></trkpt>
<trkpt lat="46.25485" lon="6.98992"><ele></ele><time>2016-8-16T22:39:56Z</time></trkpt>
<trkpt lat="46.2548" lon="6.99008"><ele></ele><time>2016-8-16T22:39:59Z</time></trkpt>
<trkpt lat="46.25477" lon="6.99015"><ele></ele><time>2016-8-16T22:40:2Z</time></trkpt>
<trkpt lat="46.25475" lon="6.99022"><ele></ele><time>2016-8-16T22:40:5Z</time></trkpt>
<trkpt lat="46.25469" lon="6.99035"><ele></ele><time>2016-8-16T22:40:8Z</time></trkpt>
<trkpt lat="46.25464" lon="6.99049"><ele></ele><time>2016-8-16T22:40:11Z</time></trkpt>
<trkpt lat="46.25458" lon="6.99063"><ele></ele><time>2016-8-16T22:40:14Z</time></trkpt>
<trkpt lat="46.25453" lon="6.99076"><ele></ele><time>2016-8-16T22:40:17Z</time></trkpt>
<trkpt lat="46.2545" lon="6.99083"><ele></ele><time>2016-8-16T22:40:20Z</time></trkpt>
<trkpt lat="46.25446" lon="6.99089"><ele></ele><time>2016-8-16T22:40:23Z</time></trkpt>
<trkpt lat="46.2544" lon="6.99102"><ele></ele><time>2016-8-16T22:40:26Z</time></trkpt>
<trkpt lat="46.25434" lon="6.99116"><ele></ele><time>2016-8-16T22:40:29Z</time></trkpt>
<trkpt lat="46.25427" lon="6.99129"><ele></ele><time>2016-8-16T22:40:32Z</time></trkpt>
<trkpt lat="46.25424" lon="6.99135"><ele></ele><time>2016-8-16T22:40:35Z</time></trkpt>
<trkpt lat="46.25421" lon="6.99141"><ele></ele><time>2016-8-16T22:40:38Z</time></trkpt>
<trkpt lat="46.25415" lon="6.99153"><ele></ele><time>2016-8-16T22:40:41Z</time></trkpt>
<trkpt lat="46.25409" lon="6.99166"><ele></ele><time>2016-8-16T22:40:44Z</time></trkpt>
<trkpt lat="46.25406" lon="6.99173"><ele></ele><time>2016-8-16T22:40:47Z</time></trkpt>
<trkpt lat="46.25405" lon="6.9918"><ele></ele><time>2016-8-16T22:40:50Z</time></trkpt>
<trkpt lat="46.25403" lon="6.99196"><ele></ele><time>2016-8-16T22:40:53Z</time></trkpt>
<trkpt lat="46.25407" lon="6.99211"><ele></ele><time>2016-8-16T22:40:56Z</time></trkpt>
<trkpt lat="46.25411" lon="6.99225"><ele></ele><time>2016-8-16T22:40:59Z</time></trkpt>
<trkpt lat="46.25414" lon="6.9924"><ele></ele><time>2016-8-16T22:41:2Z</time></trkpt>
<trkpt lat="46.25418" lon="6.99255"><ele></ele><time>2016-8-16T22:41:5Z</time></trkpt>
<trkpt lat="46.2542" lon="6.99261"><ele></ele><time>2016-8-16T22:41:8Z</time></trkpt>
<trkpt lat="46.25422" lon="6.99267"><ele></ele><time>2016-8-16T22:41:11Z</time></trkpt>
<trkpt lat="46.25426" lon="6.99278"><ele></ele><time>2016-8-16T22:41:14Z</time></trkpt>
<trkpt lat="46.2543" lon="6.99289"><ele></ele><time>2016-8-16T22:41:17Z</time></trkpt>
<trkpt lat="46.25433" lon="6.99301"><ele></ele><time>2016-8-16T22:41:20Z</time></trkpt>
<trkpt lat="46.25435" lon="6.99306"><ele></ele><time>2016-8-16T22:41:23Z</time></trkpt>
<trkpt lat="46.25435" lon="6.99311"><ele></ele><time>2016-8-16T22:41:26Z</time></trkpt>
<trkpt lat="46.25437" lon="6.9932"><ele></ele><time>2016-8-16T22:41:29Z</time></trkpt>
<trkpt lat="46.25438" lon="6.9933"><ele></ele><time>2016-8-16T22:41:32Z</time></trkpt>
<trkpt lat="46.25439" lon="6.9934"><ele></ele><time>2016-8-16T22:41:35Z</time></trkpt>
<trkpt lat="46.25441" lon="6.99349"><ele></ele><time>2016-8-16T22:41:38Z</time></trkpt>
<trkpt lat="46.25442" lon="6.99359"><ele></ele><time>2016-8-16T22:41:41Z</time></trkpt>
<trkpt lat="46.25444" lon="6.99368"><ele></ele><time>2016-8-16T22:41:44Z</time></trkpt>
<trkpt lat="46.25444" lon="6.99373"><ele></ele><time>2016-8-16T22:41:47Z</time></trkpt>
<trkpt lat="46.25445" lon="6.99376"><ele></ele><time>2016-8-16T22:41:50Z</time></trkpt>
<trkpt lat="46.25445" lon="6.9938"><ele></ele><time>2016-8-16T22:41:53Z</time></trkpt>
<trkpt lat="46.25446" lon="6.99383"><ele></ele><time>2016-8-16T22:41:56Z</time></trkpt>
<trkpt lat="46.25446" lon="6.9939"><ele></ele><time>2016-8-16T22:41:59Z</time></trkpt>
<trkpt lat="46.25447" lon="6.99397"><ele></ele><time>2016-8-16T22:42:2Z</time></trkpt>
<trkpt lat="46.25448" lon="6.99404"><ele></ele><time>2016-8-16T22:42:5Z</time></trkpt>
<trkpt lat="46.25448" lon="6.9941"><ele></ele><time>2016-8-16T22:42:8Z</time></trkpt>
<trkpt lat="46.25442" lon="6.99412"><ele></ele><time>2016-8-16T22:42:11Z</time></trkpt>
<trkpt lat="46.25439" lon="6.99413"><ele></ele><time>2016-8-16T22:42:14Z</time></trkpt>
<trkpt lat="46.25435" lon="6.99414"><ele></ele><time>2016-8-16T22:42:17Z</time></trkpt>
<trkpt lat="46.25429" lon="6.99416"><ele></ele><time>2016-8-16T22:42:20Z</time></trkpt>
<trkpt lat="46.25423" lon="6.99418"><ele></ele><time>2016-8-16T22:42:23Z</time></trkpt>
<trkpt lat="46.25417" lon="6.9942"><ele></ele><time>2016-8-16T22:42:26Z</time></trkpt>
<trkpt lat="46.25411" lon="6.99422"><ele></ele><time>2016-8-16T22:42:29Z</time></trkpt>
<trkpt lat="46.25405" lon="6.99424"><ele></ele><time>2016-8-16T22:42:32Z</time></trkpt>
<trkpt lat="46.25401" lon="6.99426"><ele></ele><time>2016-8-16T22:42:35Z</time></trkpt>
<trkpt lat="46.25397" lon="6.99429"><ele></ele><time>2016-8-16T22:42:38Z</time></trkpt>
<trkpt lat="46.25389" lon="6.99434"><ele></ele><time>2016-8-16T22:42:41Z</time></trkpt>
<trkpt lat="46.25385" lon="6.99436"><ele></ele><time>2016-8-16T22:42:44Z</time></trkpt>
<trkpt lat="46.25381" lon="6.99439"><ele></ele><time>2016-8-16T22:42:47Z</time></trkpt>
<trkpt lat="46.25373" lon="6.99444"><ele></ele><time>2016-8-16T22:42:50Z</time></trkpt>
<trkpt lat="46.25366" lon="6.99449"><ele></ele><time>2016-8-16T22:42:53Z</time></trkpt>
<trkpt lat="46.25357" lon="6.99454"><ele></ele><time>2016-8-16T22:42:56Z</time></trkpt>
<trkpt lat="46.25349" lon="6.99459"><ele></ele><time>2016-8-16T22:42:59Z</time></trkpt>
<trkpt lat="46.25341" lon="6.99463"><ele></ele><time>2016-8-16T22:43:2Z</time></trkpt>
<trkpt lat="46.25332" lon="6.99468"><ele></ele><time>2016-8-16T22:43:5Z</time></trkpt>
<trkpt lat="46.25324" lon="6.99473"><ele></ele><time>2016-8-16T22:43:8Z</time></trkpt>
<trkpt lat="46.25315" lon="6.99477"><ele></ele><time>2016-8-16T22:43:11Z</time></trkpt>
<trkpt lat="46.25305" lon="6.99482"><ele></ele><time>2016-8-16T22:43:14Z</time></trkpt>
<trkpt lat="46.25296" lon="6.99488"><ele></ele><time>2016-8-16T22:43:17Z</time></trkpt>
<trkpt lat="46.25287" lon="6.99493"><ele></ele><time>2016-8-16T22:43:20Z</time></trkpt>
<trkpt lat="46.25277" lon="6.99498"><ele></ele><time>2016-8-16T22:43:23Z</time></trkpt>
<trkpt lat="46.25272" lon="6.99501"><ele></ele><time>2016-8-16T22:43:26Z</time></trkpt>
<trkpt lat="46.25267" lon="6.99503"><ele></ele><time>2016-8-16T22:43:29Z</time></trkpt>
<trkpt lat="46.25257" lon="6.99509"><ele></ele><time>2016-8-16T22:43:32Z</time></trkpt>
<trkpt lat="46.25247" lon="6.99515"><ele></ele><time>2016-8-16T22:43:35Z</time></trkpt>
<trkpt lat="46.25237" lon="6.9952"><ele></ele><time>2016-8-16T22:43:38Z</time></trkpt>
<trkpt lat="46.25227" lon="6.99526"><ele></ele><time>2016-8-16T22:43:41Z</time></trkpt>
<trkpt lat="46.25217" lon="6.99533"><ele></ele><time>2016-8-16T22:43:44Z</time></trkpt>
<trkpt lat="46.25207" lon="6.99539"><ele></ele><time>2016-8-16T22:43:47Z</time></trkpt>
<trkpt lat="46.25197" lon="6.99546"><ele></ele><time>2016-8-16T22:43:50Z</time></trkpt>
<trkpt lat="46.25187" lon="6.99553"><ele></ele><time>2016-8-16T22:43:53Z</time></trkpt>
<trkpt lat="46.25182" lon="6.99556"><ele></ele><time>2016-8-16T22:43:56Z</time></trkpt>
<trkpt lat="46.25177" lon="6.99558"><ele></ele><time>2016-8-16T22:43:59Z</time></trkpt>
<trkpt lat="46.25166" lon="6.99563"><ele></ele><time>2016-8-16T22:44:2Z</time></trkpt>
<trkpt lat="46.25156" lon="6.99568"><ele></ele><time>2016-8-16T22:44:5Z</time></trkpt>
<trkpt lat="46.25145" lon="6.99574"><ele></ele><time>2016-8-16T22:44:8Z</time></trkpt>
<trkpt lat="46.25135" lon="6.99579"><ele></ele><time>2016-8-16T22:44:11Z</time></trkpt>
<trkpt lat="46.25124" lon="6.99584"><ele></ele><time>2016-8-16T22:44:14Z</time></trkpt>
<trkpt lat="46.25113" lon="6.99589"><ele></ele><time>2016-8-16T22:44:17Z</time></trkpt>
<trkpt lat="46.25103" lon="6.99595"><ele></ele><time>2016-8-16T22:44:20Z</time></trkpt>
<trkpt lat="46.25092" lon="6.996"><ele></ele><time>2016-8-16T22:44:23Z</time></trkpt>
<trkpt lat="46.25087" lon="6.99603"><ele></ele><time>2016-8-16T22:44:26Z</time></trkpt>
<trkpt lat="46.25082" lon="6.99606"><ele></ele><time>2016-8-16T22:44:29Z</time></trkpt>
<trkpt lat="46.25071" lon="6.99612"><ele></ele><time>2016-8-16T22:44:32Z</time></trkpt>
<trkpt lat="46.25061" lon="6.99618"><ele></ele><time>2016-8-16T22:44:35Z</time></trkpt>
<trkpt lat="46.25051" lon="6.99624"><ele></ele><time>2016-8-16T22:44:38Z</time></trkpt>
<trkpt lat="46.2504" lon="6.9963"><ele></ele><time>2016-8-16T22:44:41Z</time></trkpt>
<trkpt lat="46.2503" lon="6.99636"><ele></ele><time>2016-8-16T22:44:44Z</time></trkpt>
<trkpt lat="46.2502" lon="6.99641"><ele></ele><time>2016-8-16T22:44:47Z</time></trkpt>
<trkpt lat="46.25009" lon="6.99647"><ele></ele><time>2016-8-16T22:44:50Z</time></trkpt>
<trkpt lat="46.24999" lon="6.99652"><ele></ele><time>2016-8-16T22:44:53Z</time></trkpt>
<trkpt lat="46.24994" lon="6.99655"><ele></ele><time>2016-8-16T22:44:56Z</time></trkpt>
<trkpt lat="46.24988" lon="6.99658"><ele></ele><time>2016-8-16T22:44:59Z</time></trkpt>
<trkpt lat="46.24978" lon="6.99663"><ele></ele><time>2016-8-16T22:45:2Z</time></trkpt>
<trkpt lat="46.24967" lon="6.99668"><ele></ele><time>2016-8-16T22:45:5Z</time></trkpt>
<trkpt lat="46.24956" lon="6.99673"><ele></ele><time>2016-8-16T22:45:8Z</time></trkpt>
<trkpt lat="46.24946" lon="6.99679"><ele></ele><time>2016-8-16T22:45:11Z</time></trkpt>
<trkpt lat="46.24935" lon="6.99686"><ele></ele><time>2016-8-16T22:45:14Z</time></trkpt>
<trkpt lat="46.24924" lon="6.99692"><ele></ele><time>2016-8-16T22:45:17Z</time></trkpt>
<trkpt lat="46.24913" lon="6.99699"><ele></ele><time>2016-8-16T22:45:20Z</time></trkpt>
<trkpt lat="46.24902" lon="6.99705"><ele></ele><time>2016-8-16T22:45:23Z</time></trkpt>
<trkpt lat="46.24892" lon="6.99711"><ele></ele><time>2016-8-16T22:45:26Z</time></trkpt>
<trkpt lat="46.24882" lon="6.99716"><ele></ele><time>2016-8-16T22:45:29Z</time></trkpt>
<trkpt lat="46.24872" lon="6.99721"><ele></ele><time>2016-8-16T22:45:32Z</time></trkpt>
<trkpt lat="46.24862" lon="6.99726"><ele></ele><time>2016-8-16T22:45:35Z</time></trkpt>
<trkpt lat="46.24857" lon="6.99729"><ele></ele><time>2016-8-16T22:45:38Z</time></trkpt>
<trkpt lat="46.24852" lon="6.99732"><ele></ele><time>2016-8-16T22:45:41Z</time></trkpt>
<trkpt lat="46.24844" lon="6.99738"><ele></ele><time>2016-8-16T22:45:44Z</time></trkpt>
<trkpt lat="46.24835" lon="6.99745"><ele></ele><time>2016-8-16T22:45:47Z</time></trkpt>
<trkpt lat="46.24826" lon="6.99751"><ele></ele><time>2016-8-16T22:45:50Z</time></trkpt>
<trkpt lat="46.24817" lon="6.99757"><ele></ele><time>2016-8-16T22:45:53Z</time></trkpt>
<trkpt lat="46.24812" lon="6.99761"><ele></ele><time>2016-8-16T22:45:56Z</time></trkpt>
<trkpt lat="46.24808" lon="6.99764"><ele></ele><time>2016-8-16T22:45:59Z</time></trkpt>
<trkpt lat="46.24798" lon="6.99771"><ele></ele><time>2016-8-16T22:46:2Z</time></trkpt>
<trkpt lat="46.24789" lon="6.99778"><ele></ele><time>2016-8-16T22:46:5Z</time></trkpt>
<trkpt lat="46.2478" lon="6.99784"><ele></ele><time>2016-8-16T22:46:8Z</time></trkpt>
<trkpt lat="46.24771" lon="6.99787"><ele></ele><time>2016-8-16T22:46:11Z</time></trkpt>
<trkpt lat="46.24762" lon="6.99789"><ele></ele><time>2016-8-16T22:46:14Z</time></trkpt>
<trkpt lat="46.24753" lon="6.99792"><ele></ele><time>2016-8-16T22:46:17Z</time></trkpt>
<trkpt lat="46.24744" lon="6.99794"><ele></ele><time>2016-8-16T22:46:20Z</time></trkpt>
<trkpt lat="46.2474" lon="6.99795"><ele></ele><time>2016-8-16T22:46:23Z</time></trkpt>
<trkpt lat="46.24736" lon="6.99797"><ele></ele><time>2016-8-16T22:46:26Z</time></trkpt>
<trkpt lat="46.24729" lon="6.99801"><ele></ele><time>2016-8-16T22:46:29Z</time></trkpt>
<trkpt lat="46.24722" lon="6.99805"><ele></ele><time>2016-8-16T22:46:32Z</time></trkpt>
<trkpt lat="46.24715" lon="6.99809"><ele></ele><time>2016-8-16T22:46:35Z</time></trkpt>
<trkpt lat="46.24708" lon="6.99812"><ele></ele><time>2016-8-16T22:46:38Z</time></trkpt>
<trkpt lat="46.24701" lon="6.99816"><ele></ele><time>2016-8-16T22:46:41Z</time></trkpt>
<trkpt lat="46.24697" lon="6.99818"><ele></ele><time>2016-8-16T22:46:44Z</time></trkpt>
<trkpt lat="46.24694" lon="6.9982"><ele></ele><time>2016-8-16T22:46:47Z</time></trkpt>
<trkpt lat="46.24687" lon="6.99823"><ele></ele><time>2016-8-16T22:46:50Z</time></trkpt>
<trkpt lat="46.24681" lon="6.99827"><ele></ele><time>2016-8-16T22:46:53Z</time></trkpt>
<trkpt lat="46.24674" lon="6.9983"><ele></ele><time>2016-8-16T22:46:56Z</time></trkpt>
<trkpt lat="46.24667" lon="6.99834"><ele></ele><time>2016-8-16T22:46:59Z</time></trkpt>
<trkpt lat="46.24661" lon="6.99837"><ele></ele><time>2016-8-16T22:47:2Z</time></trkpt>
<trkpt lat="46.24654" lon="6.99841"><ele></ele><time>2016-8-16T22:47:5Z</time></trkpt>
<trkpt lat="46.24651" lon="6.99843"><ele></ele><time>2016-8-16T22:47:8Z</time></trkpt>
<trkpt lat="46.24648" lon="6.99845"><ele></ele><time>2016-8-16T22:47:11Z</time></trkpt>
<trkpt lat="46.24641" lon="6.99849"><ele></ele><time>2016-8-16T22:47:14Z</time></trkpt>
<trkpt lat="46.24634" lon="6.99853"><ele></ele><time>2016-8-16T22:47:17Z</time></trkpt>
<trkpt lat="46.24627" lon="6.99858"><ele></ele><time>2016-8-16T22:47:20Z</time></trkpt>
<trkpt lat="46.24621" lon="6.99862"><ele></ele><time>2016-8-16T22:47:23Z</time></trkpt>
<trkpt lat="46.24614" lon="6.99866"><ele></ele><time>2016-8-16T22:47:26Z</time></trkpt>
<trkpt lat="46.24607" lon="6.9987"><ele></ele><time>2016-8-16T22:47:29Z</time></trkpt>
<trkpt lat="46.24601" lon="6.99874"><ele></ele><time>2016-8-16T22:47:32Z</time></trkpt>
<trkpt lat="46.24595" lon="6.99877"><ele></ele><time>2016-8-16T22:47:35Z</time></trkpt>
<trkpt lat="46.24588" lon="6.99881"><ele></ele><time>2016-8-16T22:47:38Z</time></trkpt>
<trkpt lat="46.24582" lon="6.99885"><ele></ele><time>2016-8-16T22:47:41Z</time></trkpt>
<trkpt lat="46.24576" lon="6.99888"><ele></ele><time>2016-8-16T22:47:44Z</time></trkpt>
<trkpt lat="46.24571" lon="6.99894"><ele></ele><time>2016-8-16T22:47:47Z</time></trkpt>
<trkpt lat="46.24573" lon="6.99904"><ele></ele><time>2016-8-16T22:47:50Z</time></trkpt>
<trkpt lat="46.24575" lon="6.99915"><ele></ele><time>2016-8-16T22:47:53Z</time></trkpt>
<trkpt lat="46.24577" lon="6.99926"><ele></ele><time>2016-8-16T22:47:56Z</time></trkpt>
<trkpt lat="46.24579" lon="6.99936"><ele></ele><time>2016-8-16T22:47:59Z</time></trkpt>
<trkpt lat="46.24581" lon="6.99947"><ele></ele><time>2016-8-16T22:48:2Z</time></trkpt>
<trkpt lat="46.24583" lon="6.99957"><ele></ele><time>2016-8-16T22:48:5Z</time></trkpt>
<trkpt lat="46.24584" lon="6.99963"><ele></ele><time>2016-8-16T22:48:8Z</time></trkpt>
<trkpt lat="46.24585" lon="6.99969"><ele></ele><time>2016-8-16T22:48:11Z</time></trkpt>
<trkpt lat="46.24588" lon="6.9998"><ele></ele><time>2016-8-16T22:48:14Z</time></trkpt>
<trkpt lat="46.2459" lon="6.99992"><ele></ele><time>2016-8-16T22:48:17Z</time></trkpt>
<trkpt lat="46.24593" lon="7.00003"><ele></ele><time>2016-8-16T22:48:20Z</time></trkpt>
<trkpt lat="46.24595" lon="7.00015"><ele></ele><time>2016-8-16T22:48:23Z</time></trkpt>
<trkpt lat="46.24597" lon="7.00026"><ele></ele><time>2016-8-16T22:48:26Z</time></trkpt>
<trkpt lat="46.24597" lon="7.00033"><ele></ele><time>2016-8-16T22:48:29Z</time></trkpt>
<trkpt lat="46.24599" lon="7.00039"><ele></ele><time>2016-8-16T22:48:32Z</time></trkpt>
<trkpt lat="46.24602" lon="7.00053"><ele></ele><time>2016-8-16T22:48:35Z</time></trkpt>
<trkpt lat="46.24605" lon="7.00067"><ele></ele><time>2016-8-16T22:48:38Z</time></trkpt>
<trkpt lat="46.24608" lon="7.0008"><ele></ele><time>2016-8-16T22:48:41Z</time></trkpt>
<trkpt lat="46.24612" lon="7.00094"><ele></ele><time>2016-8-16T22:48:44Z</time></trkpt>
<trkpt lat="46.24613" lon="7.001"><ele></ele><time>2016-8-16T22:48:47Z</time></trkpt>
<trkpt lat="46.24614" lon="7.00107"><ele></ele><time>2016-8-16T22:48:50Z</time></trkpt>
<trkpt lat="46.24616" lon="7.0012"><ele></ele><time>2016-8-16T22:48:53Z</time></trkpt>
<trkpt lat="46.24619" lon="7.00133"><ele></ele><time>2016-8-16T22:48:56Z</time></trkpt>
<trkpt lat="46.24621" lon="7.00146"><ele></ele><time>2016-8-16T22:48:59Z</time></trkpt>
<trkpt lat="46.24622" lon="7.00152"><ele></ele><time>2016-8-16T22:49:2Z</time></trkpt>
<trkpt lat="46.24624" lon="7.00161"><ele></ele><time>2016-8-16T22:49:5Z</time></trkpt>
<trkpt lat="46.24628" lon="7.00177"><ele></ele><time>2016-8-16T22:49:8Z</time></trkpt>
<trkpt lat="46.24632" lon="7.00194"><ele></ele><time>2016-8-16T22:49:11Z</time></trkpt>
<trkpt lat="46.24635" lon="7.00211"><ele></ele><time>2016-8-16T22:49:14Z</time></trkpt>
<trkpt lat="46.24637" lon="7.0022"><ele></ele><time>2016-8-16T22:49:17Z</time></trkpt>
<trkpt lat="46.24639" lon="7.00228"><ele></ele><time>2016-8-16T22:49:20Z</time></trkpt>
<trkpt lat="46.24644" lon="7.00243"><ele></ele><time>2016-8-16T22:49:23Z</time></trkpt>
<trkpt lat="46.2465" lon="7.00259"><ele></ele><time>2016-8-16T22:49:26Z</time></trkpt>
<trkpt lat="46.24655" lon="7.00275"><ele></ele><time>2016-8-16T22:49:29Z</time></trkpt>
<trkpt lat="46.24657" lon="7.00282"><ele></ele><time>2016-8-16T22:49:32Z</time></trkpt>
<trkpt lat="46.2466" lon="7.00288"><ele></ele><time>2016-8-16T22:49:35Z</time></trkpt>
<trkpt lat="46.24664" lon="7.00301"><ele></ele><time>2016-8-16T22:49:38Z</time></trkpt>
<trkpt lat="46.24669" lon="7.00314"><ele></ele><time>2016-8-16T22:49:41Z</time></trkpt>
<trkpt lat="46.24674" lon="7.00327"><ele></ele><time>2016-8-16T22:49:44Z</time></trkpt>
<trkpt lat="46.24678" lon="7.0034"><ele></ele><time>2016-8-16T22:49:47Z</time></trkpt>
<trkpt lat="46.24679" lon="7.00344"><ele></ele><time>2016-8-16T22:49:50Z</time></trkpt>
<trkpt lat="46.2468" lon="7.00348"><ele></ele><time>2016-8-16T22:49:53Z</time></trkpt>
<trkpt lat="46.24682" lon="7.00358"><ele></ele><time>2016-8-16T22:49:56Z</time></trkpt>
<trkpt lat="46.24682" lon="7.0037"><ele></ele><time>2016-8-16T22:49:59Z</time></trkpt>
<trkpt lat="46.24683" lon="7.00375"><ele></ele><time>2016-8-16T22:50:2Z</time></trkpt>
<trkpt lat="46.24686" lon="7.0038"><ele></ele><time>2016-8-16T22:50:5Z</time></trkpt>
<trkpt lat="46.24693" lon="7.00389"><ele></ele><time>2016-8-16T22:50:8Z</time></trkpt>
<trkpt lat="46.24699" lon="7.00398"><ele></ele><time>2016-8-16T22:50:11Z</time></trkpt>
<trkpt lat="46.24706" lon="7.00406"><ele></ele><time>2016-8-16T22:50:14Z</time></trkpt>
<trkpt lat="46.24712" lon="7.00415"><ele></ele><time>2016-8-16T22:50:17Z</time></trkpt>
<trkpt lat="46.24715" lon="7.0042"><ele></ele><time>2016-8-16T22:50:20Z</time></trkpt>
<trkpt lat="46.24717" lon="7.00426"><ele></ele><time>2016-8-16T22:50:23Z</time></trkpt>
<trkpt lat="46.24721" lon="7.00438"><ele></ele><time>2016-8-16T22:50:26Z</time></trkpt>
<trkpt lat="46.24724" lon="7.0045"><ele></ele><time>2016-8-16T22:50:29Z</time></trkpt>
<trkpt lat="46.24726" lon="7.00456"><ele></ele><time>2016-8-16T22:50:32Z</time></trkpt>
<trkpt lat="46.24728" lon="7.00462"><ele></ele><time>2016-8-16T22:50:35Z</time></trkpt>
<trkpt lat="46.24732" lon="7.00474"><ele></ele><time>2016-8-16T22:50:38Z</time></trkpt>
<trkpt lat="46.24736" lon="7.00486"><ele></ele><time>2016-8-16T22:50:41Z</time></trkpt>
<trkpt lat="46.24738" lon="7.00498"><ele></ele><time>2016-8-16T22:50:44Z</time></trkpt>
<trkpt lat="46.2474" lon="7.00505"><ele></ele><time>2016-8-16T22:50:47Z</time></trkpt>
<trkpt lat="46.24742" lon="7.00511"><ele></ele><time>2016-8-16T22:50:50Z</time></trkpt>
<trkpt lat="46.24747" lon="7.00524"><ele></ele><time>2016-8-16T22:50:53Z</time></trkpt>
<trkpt lat="46.24752" lon="7.00537"><ele></ele><time>2016-8-16T22:50:56Z</time></trkpt>
<trkpt lat="46.24757" lon="7.0055"><ele></ele><time>2016-8-16T22:50:59Z</time></trkpt>
<trkpt lat="46.24761" lon="7.00563"><ele></ele><time>2016-8-16T22:51:2Z</time></trkpt>
<trkpt lat="46.24764" lon="7.00577"><ele></ele><time>2016-8-16T22:51:5Z</time></trkpt>
<trkpt lat="46.24767" lon="7.0059"><ele></ele><time>2016-8-16T22:51:8Z</time></trkpt>
<trkpt lat="46.2477" lon="7.00604"><ele></ele><time>2016-8-16T22:51:11Z</time></trkpt>
<trkpt lat="46.24773" lon="7.00617"><ele></ele><time>2016-8-16T22:51:14Z</time></trkpt>
<trkpt lat="46.24775" lon="7.00631"><ele></ele><time>2016-8-16T22:51:17Z</time></trkpt>
<trkpt lat="46.24775" lon="7.00644"><ele></ele><time>2016-8-16T22:51:20Z</time></trkpt>
<trkpt lat="46.24776" lon="7.00657"><ele></ele><time>2016-8-16T22:51:23Z</time></trkpt>
<trkpt lat="46.24779" lon="7.00667"><ele></ele><time>2016-8-16T22:51:26Z</time></trkpt>
<trkpt lat="46.24781" lon="7.00677"><ele></ele><time>2016-8-16T22:51:29Z</time></trkpt>
<trkpt lat="46.24792" lon="7.00711"><ele></ele><time>2016-8-16T22:51:32Z</time></trkpt>
<trkpt lat="46.24792" lon="7.00711"><ele></ele><time>2016-8-16T22:51:35Z</time></trkpt>
<trkpt lat="46.248" lon="7.00735"><ele></ele><time>2016-8-16T22:51:38Z</time></trkpt>
<trkpt lat="46.24802" lon="7.00744"><ele></ele><time>2016-8-16T22:51:41Z</time></trkpt>
<trkpt lat="46.24805" lon="7.00752"><ele></ele><time>2016-8-16T22:51:44Z</time></trkpt>
<trkpt lat="46.24808" lon="7.00761"><ele></ele><time>2016-8-16T22:51:47Z</time></trkpt>
<trkpt lat="46.2481" lon="7.00769"><ele></ele><time>2016-8-16T22:51:50Z</time></trkpt>
<trkpt lat="46.24813" lon="7.00774"><ele></ele><time>2016-8-16T22:51:53Z</time></trkpt>
<trkpt lat="46.24816" lon="7.00778"><ele></ele><time>2016-8-16T22:51:56Z</time></trkpt>
<trkpt lat="46.24822" lon="7.00788"><ele></ele><time>2016-8-16T22:51:59Z</time></trkpt>
<trkpt lat="46.24829" lon="7.00798"><ele></ele><time>2016-8-16T22:52:2Z</time></trkpt>
<trkpt lat="46.24835" lon="7.00807"><ele></ele><time>2016-8-16T22:52:5Z</time></trkpt>
<trkpt lat="46.24841" lon="7.00817"><ele></ele><time>2016-8-16T22:52:8Z</time></trkpt>
<trkpt lat="46.24845" lon="7.00821"><ele></ele><time>2016-8-16T22:52:11Z</time></trkpt>
<trkpt lat="46.24848" lon="7.00826"><ele></ele><time>2016-8-16T22:52:14Z</time></trkpt>
<trkpt lat="46.24852" lon="7.00837"><ele></ele><time>2016-8-16T22:52:17Z</time></trkpt>
<trkpt lat="46.24856" lon="7.00848"><ele></ele><time>2016-8-16T22:52:20Z</time></trkpt>
<trkpt lat="46.2486" lon="7.00859"><ele></ele><time>2016-8-16T22:52:23Z</time></trkpt>
<trkpt lat="46.24864" lon="7.00869"><ele></ele><time>2016-8-16T22:52:26Z</time></trkpt>
<trkpt lat="46.24868" lon="7.0088"><ele></ele><time>2016-8-16T22:52:29Z</time></trkpt>
<trkpt lat="46.24875" lon="7.00889"><ele></ele><time>2016-8-16T22:52:32Z</time></trkpt>
<trkpt lat="46.24879" lon="7.00899"><ele></ele><time>2016-8-16T22:52:35Z</time></trkpt>
<trkpt lat="46.24877" lon="7.0091"><ele></ele><time>2016-8-16T22:52:38Z</time></trkpt>
<trkpt lat="46.24875" lon="7.00914"><ele></ele><time>2016-8-16T22:52:41Z</time></trkpt>
<trkpt lat="46.24872" lon="7.00917"><ele></ele><time>2016-8-16T22:52:44Z</time></trkpt>
<trkpt lat="46.24864" lon="7.00923"><ele></ele><time>2016-8-16T22:52:47Z</time></trkpt>
<trkpt lat="46.24857" lon="7.00928"><ele></ele><time>2016-8-16T22:52:50Z</time></trkpt>
<trkpt lat="46.2485" lon="7.00934"><ele></ele><time>2016-8-16T22:52:53Z</time></trkpt>
<trkpt lat="46.24842" lon="7.0094"><ele></ele><time>2016-8-16T22:52:56Z</time></trkpt>
<trkpt lat="46.24835" lon="7.00946"><ele></ele><time>2016-8-16T22:52:59Z</time></trkpt>
<trkpt lat="46.24827" lon="7.00954"><ele></ele><time>2016-8-16T22:53:2Z</time></trkpt>
<trkpt lat="46.24819" lon="7.00961"><ele></ele><time>2016-8-16T22:53:5Z</time></trkpt>
<trkpt lat="46.24811" lon="7.00969"><ele></ele><time>2016-8-16T22:53:8Z</time></trkpt>
<trkpt lat="46.24803" lon="7.00977"><ele></ele><time>2016-8-16T22:53:11Z</time></trkpt>
<trkpt lat="46.24795" lon="7.00984"><ele></ele><time>2016-8-16T22:53:14Z</time></trkpt>
<trkpt lat="46.24788" lon="7.00993"><ele></ele><time>2016-8-16T22:53:17Z</time></trkpt>
<trkpt lat="46.2478" lon="7.01002"><ele></ele><time>2016-8-16T22:53:20Z</time></trkpt>
<trkpt lat="46.24773" lon="7.0101"><ele></ele><time>2016-8-16T22:53:23Z</time></trkpt>
<trkpt lat="46.24766" lon="7.01019"><ele></ele><time>2016-8-16T22:53:26Z</time></trkpt>
<trkpt lat="46.24758" lon="7.01028"><ele></ele><time>2016-8-16T22:53:29Z</time></trkpt>
<trkpt lat="46.24751" lon="7.01036"><ele></ele><time>2016-8-16T22:53:32Z</time></trkpt>
<trkpt lat="46.24744" lon="7.01044"><ele></ele><time>2016-8-16T22:53:35Z</time></trkpt>
<trkpt lat="46.24737" lon="7.01052"><ele></ele><time>2016-8-16T22:53:38Z</time></trkpt>
<trkpt lat="46.24729" lon="7.0106"><ele></ele><time>2016-8-16T22:53:41Z</time></trkpt>
<trkpt lat="46.24723" lon="7.01067"><ele></ele><time>2016-8-16T22:53:44Z</time></trkpt>
<trkpt lat="46.24718" lon="7.0107"><ele></ele><time>2016-8-16T22:53:47Z</time></trkpt>
<trkpt lat="46.24714" lon="7.01073"><ele></ele><time>2016-8-16T22:53:50Z</time></trkpt>
<trkpt lat="46.24709" lon="7.01076"><ele></ele><time>2016-8-16T22:53:53Z</time></trkpt>
<trkpt lat="46.24704" lon="7.01079"><ele></ele><time>2016-8-16T22:53:56Z</time></trkpt>
<trkpt lat="46.247" lon="7.01082"><ele></ele><time>2016-8-16T22:53:59Z</time></trkpt>
<trkpt lat="46.24695" lon="7.01085"><ele></ele><time>2016-8-16T22:54:2Z</time></trkpt>
<trkpt lat="46.24691" lon="7.01089"><ele></ele><time>2016-8-16T22:54:5Z</time></trkpt>
<trkpt lat="46.24686" lon="7.01092"><ele></ele><time>2016-8-16T22:54:8Z</time></trkpt>
<trkpt lat="46.24682" lon="7.01095"><ele></ele><time>2016-8-16T22:54:11Z</time></trkpt>
<trkpt lat="46.24679" lon="7.01099"><ele></ele><time>2016-8-16T22:54:14Z</time></trkpt>
<trkpt lat="46.24677" lon="7.01102"><ele></ele><time>2016-8-16T22:54:17Z</time></trkpt>
<trkpt lat="46.24674" lon="7.01106"><ele></ele><time>2016-8-16T22:54:20Z</time></trkpt>
<trkpt lat="46.24672" lon="7.0111"><ele></ele><time>2016-8-16T22:54:23Z</time></trkpt>
<trkpt lat="46.2467" lon="7.01112"><ele></ele><time>2016-8-16T22:54:26Z</time></trkpt>
<trkpt lat="46.24669" lon="7.01114"><ele></ele><time>2016-8-16T22:54:29Z</time></trkpt>
<trkpt lat="46.24667" lon="7.01118"><ele></ele><time>2016-8-16T22:54:32Z</time></trkpt>
<trkpt lat="46.24664" lon="7.01121"><ele></ele><time>2016-8-16T22:54:35Z</time></trkpt>
<trkpt lat="46.24662" lon="7.01125"><ele></ele><time>2016-8-16T22:54:38Z</time></trkpt>
<trkpt lat="46.2466" lon="7.0113"><ele></ele><time>2016-8-16T22:54:41Z</time></trkpt>
<trkpt lat="46.2466" lon="7.01139"><ele></ele><time>2016-8-16T22:54:44Z</time></trkpt>
<trkpt lat="46.2466" lon="7.01149"><ele></ele><time>2016-8-16T22:54:47Z</time></trkpt>
<trkpt lat="46.2466" lon="7.01158"><ele></ele><time>2016-8-16T22:54:50Z</time></trkpt>
<trkpt lat="46.2466" lon="7.01162"><ele></ele><time>2016-8-16T22:54:53Z</time></trkpt>
<trkpt lat="46.24661" lon="7.01167"><ele></ele><time>2016-8-16T22:54:56Z</time></trkpt>
<trkpt lat="46.24661" lon="7.01176"><ele></ele><time>2016-8-16T22:54:59Z</time></trkpt>
<trkpt lat="46.24659" lon="7.0118"><ele></ele><time>2016-8-16T22:55:2Z</time></trkpt>
<trkpt lat="46.24657" lon="7.01183"><ele></ele><time>2016-8-16T22:55:5Z</time></trkpt>
<trkpt lat="46.24651" lon="7.0119"><ele></ele><time>2016-8-16T22:55:8Z</time></trkpt>
<trkpt lat="46.24645" lon="7.01196"><ele></ele><time>2016-8-16T22:55:11Z</time></trkpt>
<trkpt lat="46.24639" lon="7.01202"><ele></ele><time>2016-8-16T22:55:14Z</time></trkpt>
<trkpt lat="46.24633" lon="7.01208"><ele></ele><time>2016-8-16T22:55:17Z</time></trkpt>
<trkpt lat="46.24627" lon="7.01215"><ele></ele><time>2016-8-16T22:55:20Z</time></trkpt>
<trkpt lat="46.24624" lon="7.01218"><ele></ele><time>2016-8-16T22:55:23Z</time></trkpt>
<trkpt lat="46.24622" lon="7.01221"><ele></ele><time>2016-8-16T22:55:26Z</time></trkpt>
<trkpt lat="46.2462" lon="7.01228"><ele></ele><time>2016-8-16T22:55:29Z</time></trkpt>
<trkpt lat="46.24618" lon="7.01234"><ele></ele><time>2016-8-16T22:55:32Z</time></trkpt>
<trkpt lat="46.24617" lon="7.01238"><ele></ele><time>2016-8-16T22:55:35Z</time></trkpt>
<trkpt lat="46.24617" lon="7.01241"><ele></ele><time>2016-8-16T22:55:38Z</time></trkpt>
<trkpt lat="46.24615" lon="7.01248"><ele></ele><time>2016-8-16T22:55:41Z</time></trkpt>
<trkpt lat="46.24614" lon="7.01254"><ele></ele><time>2016-8-16T22:55:44Z</time></trkpt>
<trkpt lat="46.24615" lon="7.01254"><ele></ele><time>2016-8-16T22:55:47Z</time></trkpt>
</trkseg></trk></gpx>